<?xml version="1.0" encoding="UTF-8" standalone="no" ?>
<gpx xmlns="http://www.topografix.com/GPX/1/1" xmlns:xsi="http://www.w3.org/2001/XMLSchema-instance" xsi:schemaLocation="http://www.topografix.com/GPX/1/1 http://www.topografix.com/GPX/1/1/gpx.xsd" version="1.1" creator="VisuGPX - https://www.visugpx.com">
  <metadata>
    <name>016SG78-8113133</name>
    <desc><![CDATA[
02]]></desc>
  </metadata>
  <trk>
    <name><![CDATA[016SG78-8113133]]></name>
    <trkseg>
      <trkpt lat="46.69886" lon="-1.93387">
        <ele>5</ele>
        <time>2018-03-15T21:30:06Z</time>
      </trkpt>
      <trkpt lat="46.69824" lon="-1.93411">
        <ele>5</ele>
        <time>2018-03-15T21:31:06Z</time>
      </trkpt>
      <trkpt lat="46.69806" lon="-1.93419">
        <ele>5</ele>
        <time>2018-03-15T21:32:06Z</time>
      </trkpt>
      <trkpt lat="46.69798" lon="-1.93421">
        <ele>5</ele>
        <time>2018-03-15T21:33:06Z</time>
      </trkpt>
      <trkpt lat="46.69797" lon="-1.93421">
        <ele>5</ele>
        <time>2018-03-15T21:34:06Z</time>
      </trkpt>
      <trkpt lat="46.69793" lon="-1.9342">
        <ele>5</ele>
        <time>2018-03-15T21:35:06Z</time>
      </trkpt>
      <trkpt lat="46.69793" lon="-1.93421">
        <ele>5</ele>
        <time>2018-03-15T21:36:06Z</time>
      </trkpt>
      <trkpt lat="46.69793" lon="-1.93422">
        <ele>5</ele>
        <time>2018-03-15T21:37:06Z</time>
      </trkpt>
      <trkpt lat="46.69793" lon="-1.93423">
        <ele>5</ele>
        <time>2018-03-15T21:38:06Z</time>
      </trkpt>
      <trkpt lat="46.69793" lon="-1.93424">
        <ele>5</ele>
        <time>2018-03-15T21:39:06Z</time>
      </trkpt>
      <trkpt lat="46.69792" lon="-1.93425">
        <ele>5</ele>
        <time>2018-03-15T21:40:06Z</time>
      </trkpt>
      <trkpt lat="46.69792" lon="-1.93426">
        <ele>5</ele>
        <time>2018-03-15T21:41:06Z</time>
      </trkpt>
      <trkpt lat="46.69791" lon="-1.93426">
        <ele>5</ele>
        <time>2018-03-15T21:42:06Z</time>
      </trkpt>
      <trkpt lat="46.69791" lon="-1.93427">
        <ele>5</ele>
        <time>2018-03-15T21:43:06Z</time>
      </trkpt>
      <trkpt lat="46.6979" lon="-1.93427">
        <ele>5</ele>
        <time>2018-03-15T21:44:06Z</time>
      </trkpt>
      <trkpt lat="46.6979" lon="-1.93428">
        <ele>5</ele>
        <time>2018-03-15T21:45:06Z</time>
      </trkpt>
      <trkpt lat="46.69789" lon="-1.93428">
        <ele>5</ele>
        <time>2018-03-15T21:46:06Z</time>
      </trkpt>
      <trkpt lat="46.69788" lon="-1.93428">
        <ele>5</ele>
        <time>2018-03-15T21:47:06Z</time>
      </trkpt>
      <trkpt lat="46.69788" lon="-1.93427">
        <ele>5</ele>
        <time>2018-03-15T21:48:06Z</time>
      </trkpt>
      <trkpt lat="46.69787" lon="-1.93427">
        <ele>5</ele>
        <time>2018-03-15T21:49:06Z</time>
      </trkpt>
      <trkpt lat="46.69787" lon="-1.93426">
        <ele>5</ele>
        <time>2018-03-15T21:50:06Z</time>
      </trkpt>
      <trkpt lat="46.69786" lon="-1.93426">
        <ele>5</ele>
        <time>2018-03-15T21:51:06Z</time>
      </trkpt>
      <trkpt lat="46.69786" lon="-1.93425">
        <ele>5</ele>
        <time>2018-03-15T21:52:06Z</time>
      </trkpt>
      <trkpt lat="46.69786" lon="-1.93424">
        <ele>5</ele>
        <time>2018-03-15T21:53:06Z</time>
      </trkpt>
      <trkpt lat="46.69785" lon="-1.93424">
        <ele>5</ele>
        <time>2018-03-15T21:54:06Z</time>
      </trkpt>
      <trkpt lat="46.69785" lon="-1.93423">
        <ele>5</ele>
        <time>2018-03-15T21:55:06Z</time>
      </trkpt>
      <trkpt lat="46.69785" lon="-1.93422">
        <ele>5</ele>
        <time>2018-03-15T21:56:06Z</time>
      </trkpt>
      <trkpt lat="46.69779" lon="-1.9342">
        <ele>5</ele>
        <time>2018-03-15T21:57:06Z</time>
      </trkpt>
      <trkpt lat="46.69776" lon="-1.9342">
        <ele>5</ele>
        <time>2018-03-15T21:58:06Z</time>
      </trkpt>
      <trkpt lat="46.69772" lon="-1.9342">
        <ele>5</ele>
        <time>2018-03-15T21:59:06Z</time>
      </trkpt>
      <trkpt lat="46.69762" lon="-1.93423">
        <ele>5</ele>
        <time>2018-03-15T22:00:06Z</time>
      </trkpt>
      <trkpt lat="46.69759" lon="-1.93424">
        <ele>5</ele>
        <time>2018-03-15T22:01:06Z</time>
      </trkpt>
      <trkpt lat="46.69721" lon="-1.93434">
        <ele>5</ele>
        <time>2018-03-15T22:02:06Z</time>
      </trkpt>
      <trkpt lat="46.69714" lon="-1.93435">
        <ele>5</ele>
        <time>2018-03-15T22:03:06Z</time>
      </trkpt>
      <trkpt lat="46.69697" lon="-1.93436">
        <ele>5</ele>
        <time>2018-03-15T22:04:06Z</time>
      </trkpt>
      <trkpt lat="46.69685" lon="-1.93435">
        <ele>5</ele>
        <time>2018-03-15T22:05:06Z</time>
      </trkpt>
      <trkpt lat="46.69633" lon="-1.93423">
        <ele>5</ele>
        <time>2018-03-15T22:06:06Z</time>
      </trkpt>
      <trkpt lat="46.69633" lon="-1.93423">
        <ele>5</ele>
        <time>2018-03-15T22:07:06Z</time>
      </trkpt>
      <trkpt lat="46.69633" lon="-1.93424">
        <ele>4</ele>
        <time>2018-03-15T22:08:06Z</time>
      </trkpt>
      <trkpt lat="46.69633" lon="-1.93425">
        <ele>4</ele>
        <time>2018-03-15T22:09:06Z</time>
      </trkpt>
      <trkpt lat="46.69633" lon="-1.93426">
        <ele>4</ele>
        <time>2018-03-15T22:10:06Z</time>
      </trkpt>
      <trkpt lat="46.69633" lon="-1.93427">
        <ele>4</ele>
        <time>2018-03-15T22:11:06Z</time>
      </trkpt>
      <trkpt lat="46.69633" lon="-1.93428">
        <ele>4</ele>
        <time>2018-03-15T22:12:06Z</time>
      </trkpt>
      <trkpt lat="46.69633" lon="-1.93429">
        <ele>4</ele>
        <time>2018-03-15T22:13:06Z</time>
      </trkpt>
      <trkpt lat="46.69633" lon="-1.9343">
        <ele>4</ele>
        <time>2018-03-15T22:14:06Z</time>
      </trkpt>
      <trkpt lat="46.69632" lon="-1.9343">
        <ele>4</ele>
        <time>2018-03-15T22:15:06Z</time>
      </trkpt>
      <trkpt lat="46.69632" lon="-1.93431">
        <ele>4</ele>
        <time>2018-03-15T22:16:06Z</time>
      </trkpt>
      <trkpt lat="46.69632" lon="-1.93432">
        <ele>4</ele>
        <time>2018-03-15T22:17:06Z</time>
      </trkpt>
      <trkpt lat="46.69631" lon="-1.93432">
        <ele>4</ele>
        <time>2018-03-15T22:18:06Z</time>
      </trkpt>
      <trkpt lat="46.69631" lon="-1.93433">
        <ele>4</ele>
        <time>2018-03-15T22:19:06Z</time>
      </trkpt>
      <trkpt lat="46.69631" lon="-1.93434">
        <ele>4</ele>
        <time>2018-03-15T22:20:06Z</time>
      </trkpt>
      <trkpt lat="46.6963" lon="-1.93434">
        <ele>4</ele>
        <time>2018-03-15T22:21:06Z</time>
      </trkpt>
      <trkpt lat="46.6963" lon="-1.93435">
        <ele>4</ele>
        <time>2018-03-15T22:22:06Z</time>
      </trkpt>
      <trkpt lat="46.69629" lon="-1.93435">
        <ele>4</ele>
        <time>2018-03-15T22:23:06Z</time>
      </trkpt>
      <trkpt lat="46.69629" lon="-1.93436">
        <ele>4</ele>
        <time>2018-03-15T22:24:06Z</time>
      </trkpt>
      <trkpt lat="46.69628" lon="-1.93436">
        <ele>4</ele>
        <time>2018-03-15T22:25:06Z</time>
      </trkpt>
      <trkpt lat="46.69627" lon="-1.93436">
        <ele>4</ele>
        <time>2018-03-15T22:26:06Z</time>
      </trkpt>
      <trkpt lat="46.69627" lon="-1.93437">
        <ele>4</ele>
        <time>2018-03-15T22:27:06Z</time>
      </trkpt>
      <trkpt lat="46.69626" lon="-1.93437">
        <ele>4</ele>
        <time>2018-03-15T22:28:06Z</time>
      </trkpt>
      <trkpt lat="46.69625" lon="-1.93437">
        <ele>4</ele>
        <time>2018-03-15T22:29:06Z</time>
      </trkpt>
      <trkpt lat="46.69624" lon="-1.93437">
        <ele>4</ele>
        <time>2018-03-15T22:30:06Z</time>
      </trkpt>
      <trkpt lat="46.69623" lon="-1.93437">
        <ele>4</ele>
        <time>2018-03-15T22:31:06Z</time>
      </trkpt>
      <trkpt lat="46.69622" lon="-1.93436">
        <ele>4</ele>
        <time>2018-03-15T22:32:06Z</time>
      </trkpt>
      <trkpt lat="46.69621" lon="-1.93436">
        <ele>4</ele>
        <time>2018-03-15T22:33:06Z</time>
      </trkpt>
      <trkpt lat="46.6962" lon="-1.93435">
        <ele>4</ele>
        <time>2018-03-15T22:34:06Z</time>
      </trkpt>
      <trkpt lat="46.69619" lon="-1.93434">
        <ele>4</ele>
        <time>2018-03-15T22:35:06Z</time>
      </trkpt>
      <trkpt lat="46.69619" lon="-1.93433">
        <ele>4</ele>
        <time>2018-03-15T22:36:06Z</time>
      </trkpt>
      <trkpt lat="46.69618" lon="-1.93433">
        <ele>4</ele>
        <time>2018-03-15T22:37:06Z</time>
      </trkpt>
      <trkpt lat="46.69618" lon="-1.93432">
        <ele>4</ele>
        <time>2018-03-15T22:38:06Z</time>
      </trkpt>
      <trkpt lat="46.69618" lon="-1.93431">
        <ele>4</ele>
        <time>2018-03-15T22:39:06Z</time>
      </trkpt>
      <trkpt lat="46.69617" lon="-1.93431">
        <ele>4</ele>
        <time>2018-03-15T22:40:06Z</time>
      </trkpt>
      <trkpt lat="46.69617" lon="-1.9343">
        <ele>4</ele>
        <time>2018-03-15T22:41:06Z</time>
      </trkpt>
      <trkpt lat="46.69617" lon="-1.93429">
        <ele>4</ele>
        <time>2018-03-15T22:42:06Z</time>
      </trkpt>
      <trkpt lat="46.69617" lon="-1.93428">
        <ele>4</ele>
        <time>2018-03-15T22:43:06Z</time>
      </trkpt>
      <trkpt lat="46.69616" lon="-1.93428">
        <ele>4</ele>
        <time>2018-03-15T22:44:06Z</time>
      </trkpt>
      <trkpt lat="46.69616" lon="-1.93427">
        <ele>4</ele>
        <time>2018-03-15T22:45:06Z</time>
      </trkpt>
      <trkpt lat="46.69616" lon="-1.93426">
        <ele>4</ele>
        <time>2018-03-15T22:46:06Z</time>
      </trkpt>
      <trkpt lat="46.69616" lon="-1.93425">
        <ele>4</ele>
        <time>2018-03-15T22:47:06Z</time>
      </trkpt>
      <trkpt lat="46.69616" lon="-1.93424">
        <ele>4</ele>
        <time>2018-03-15T22:48:06Z</time>
      </trkpt>
      <trkpt lat="46.69616" lon="-1.93423">
        <ele>4</ele>
        <time>2018-03-15T22:49:06Z</time>
      </trkpt>
      <trkpt lat="46.69616" lon="-1.93422">
        <ele>4</ele>
        <time>2018-03-15T22:50:06Z</time>
      </trkpt>
      <trkpt lat="46.69616" lon="-1.93421">
        <ele>4</ele>
        <time>2018-03-15T22:51:06Z</time>
      </trkpt>
      <trkpt lat="46.69617" lon="-1.93421">
        <ele>4</ele>
        <time>2018-03-15T22:52:06Z</time>
      </trkpt>
      <trkpt lat="46.69617" lon="-1.9342">
        <ele>4</ele>
        <time>2018-03-15T22:53:06Z</time>
      </trkpt>
      <trkpt lat="46.69607" lon="-1.93416">
        <ele>4</ele>
        <time>2018-03-15T22:54:06Z</time>
      </trkpt>
      <trkpt lat="46.69587" lon="-1.93404">
        <ele>4</ele>
        <time>2018-03-15T22:55:06Z</time>
      </trkpt>
      <trkpt lat="46.69551" lon="-1.93388">
        <ele>4</ele>
        <time>2018-03-15T22:56:06Z</time>
      </trkpt>
      <trkpt lat="46.69518" lon="-1.93374">
        <ele>4</ele>
        <time>2018-03-15T22:57:06Z</time>
      </trkpt>
      <trkpt lat="46.69507" lon="-1.9337">
        <ele>4</ele>
        <time>2018-03-15T22:58:06Z</time>
      </trkpt>
      <trkpt lat="46.69503" lon="-1.93368">
        <ele>4</ele>
        <time>2018-03-15T22:59:06Z</time>
      </trkpt>
      <trkpt lat="46.69498" lon="-1.93366">
        <ele>4</ele>
        <time>2018-03-15T23:00:06Z</time>
      </trkpt>
      <trkpt lat="46.6946" lon="-1.93349">
        <ele>4</ele>
        <time>2018-03-15T23:01:06Z</time>
      </trkpt>
      <trkpt lat="46.69431" lon="-1.93336">
        <ele>4</ele>
        <time>2018-03-15T23:02:06Z</time>
      </trkpt>
      <trkpt lat="46.69426" lon="-1.93334">
        <ele>4</ele>
        <time>2018-03-15T23:03:06Z</time>
      </trkpt>
      <trkpt lat="46.69421" lon="-1.93333">
        <ele>4</ele>
        <time>2018-03-15T23:04:06Z</time>
      </trkpt>
      <trkpt lat="46.69416" lon="-1.93331">
        <ele>4</ele>
        <time>2018-03-15T23:05:06Z</time>
      </trkpt>
      <trkpt lat="46.69405" lon="-1.9333">
        <ele>4</ele>
        <time>2018-03-15T23:06:06Z</time>
      </trkpt>
      <trkpt lat="46.69394" lon="-1.93333">
        <ele>4</ele>
        <time>2018-03-15T23:07:06Z</time>
      </trkpt>
      <trkpt lat="46.69394" lon="-1.93333">
        <ele>4</ele>
        <time>2018-03-15T23:08:06Z</time>
      </trkpt>
      <trkpt lat="46.69394" lon="-1.93334">
        <ele>4</ele>
        <time>2018-03-15T23:09:06Z</time>
      </trkpt>
      <trkpt lat="46.69394" lon="-1.93335">
        <ele>4</ele>
        <time>2018-03-15T23:10:06Z</time>
      </trkpt>
      <trkpt lat="46.69393" lon="-1.93335">
        <ele>4</ele>
        <time>2018-03-15T23:11:06Z</time>
      </trkpt>
      <trkpt lat="46.69393" lon="-1.93336">
        <ele>4</ele>
        <time>2018-03-15T23:12:06Z</time>
      </trkpt>
      <trkpt lat="46.69392" lon="-1.93336">
        <ele>4</ele>
        <time>2018-03-15T23:13:06Z</time>
      </trkpt>
      <trkpt lat="46.69392" lon="-1.93337">
        <ele>4</ele>
        <time>2018-03-15T23:14:06Z</time>
      </trkpt>
      <trkpt lat="46.69391" lon="-1.93337">
        <ele>4</ele>
        <time>2018-03-15T23:15:06Z</time>
      </trkpt>
      <trkpt lat="46.6939" lon="-1.93338">
        <ele>4</ele>
        <time>2018-03-15T23:16:06Z</time>
      </trkpt>
      <trkpt lat="46.69389" lon="-1.93338">
        <ele>4</ele>
        <time>2018-03-15T23:17:06Z</time>
      </trkpt>
      <trkpt lat="46.69388" lon="-1.93338">
        <ele>4</ele>
        <time>2018-03-15T23:18:06Z</time>
      </trkpt>
      <trkpt lat="46.69387" lon="-1.93338">
        <ele>4</ele>
        <time>2018-03-15T23:19:06Z</time>
      </trkpt>
      <trkpt lat="46.69386" lon="-1.93338">
        <ele>4</ele>
        <time>2018-03-15T23:20:06Z</time>
      </trkpt>
      <trkpt lat="46.69385" lon="-1.93338">
        <ele>4</ele>
        <time>2018-03-15T23:21:06Z</time>
      </trkpt>
      <trkpt lat="46.69384" lon="-1.93338">
        <ele>4</ele>
        <time>2018-03-15T23:22:06Z</time>
      </trkpt>
      <trkpt lat="46.69384" lon="-1.93337">
        <ele>4</ele>
        <time>2018-03-15T23:23:06Z</time>
      </trkpt>
      <trkpt lat="46.69383" lon="-1.93337">
        <ele>4</ele>
        <time>2018-03-15T23:24:06Z</time>
      </trkpt>
      <trkpt lat="46.69383" lon="-1.93336">
        <ele>4</ele>
        <time>2018-03-15T23:25:06Z</time>
      </trkpt>
      <trkpt lat="46.69382" lon="-1.93336">
        <ele>4</ele>
        <time>2018-03-15T23:26:06Z</time>
      </trkpt>
      <trkpt lat="46.69382" lon="-1.93335">
        <ele>4</ele>
        <time>2018-03-15T23:27:06Z</time>
      </trkpt>
      <trkpt lat="46.69381" lon="-1.93335">
        <ele>4</ele>
        <time>2018-03-15T23:28:06Z</time>
      </trkpt>
      <trkpt lat="46.69381" lon="-1.93334">
        <ele>4</ele>
        <time>2018-03-15T23:29:06Z</time>
      </trkpt>
      <trkpt lat="46.6938" lon="-1.93333">
        <ele>4</ele>
        <time>2018-03-15T23:30:06Z</time>
      </trkpt>
      <trkpt lat="46.6938" lon="-1.93332">
        <ele>4</ele>
        <time>2018-03-15T23:31:06Z</time>
      </trkpt>
      <trkpt lat="46.69379" lon="-1.93332">
        <ele>4</ele>
        <time>2018-03-15T23:32:06Z</time>
      </trkpt>
      <trkpt lat="46.69379" lon="-1.93331">
        <ele>4</ele>
        <time>2018-03-15T23:33:06Z</time>
      </trkpt>
      <trkpt lat="46.69379" lon="-1.9333">
        <ele>4</ele>
        <time>2018-03-15T23:34:06Z</time>
      </trkpt>
      <trkpt lat="46.69379" lon="-1.93329">
        <ele>4</ele>
        <time>2018-03-15T23:35:06Z</time>
      </trkpt>
      <trkpt lat="46.69376" lon="-1.93327">
        <ele>4</ele>
        <time>2018-03-15T23:36:06Z</time>
      </trkpt>
      <trkpt lat="46.69367" lon="-1.93325">
        <ele>4</ele>
        <time>2018-03-15T23:37:06Z</time>
      </trkpt>
      <trkpt lat="46.69363" lon="-1.93325">
        <ele>4</ele>
        <time>2018-03-15T23:38:06Z</time>
      </trkpt>
      <trkpt lat="46.69356" lon="-1.93325">
        <ele>4</ele>
        <time>2018-03-15T23:39:06Z</time>
      </trkpt>
      <trkpt lat="46.69353" lon="-1.93324">
        <ele>4</ele>
        <time>2018-03-15T23:40:06Z</time>
      </trkpt>
      <trkpt lat="46.69315" lon="-1.93317">
        <ele>4</ele>
        <time>2018-03-15T23:41:06Z</time>
      </trkpt>
      <trkpt lat="46.69286" lon="-1.93313">
        <ele>4</ele>
        <time>2018-03-15T23:42:06Z</time>
      </trkpt>
      <trkpt lat="46.6924" lon="-1.93303">
        <ele>3</ele>
        <time>2018-03-15T23:43:06Z</time>
      </trkpt>
      <trkpt lat="46.69218" lon="-1.933">
        <ele>3</ele>
        <time>2018-03-15T23:44:06Z</time>
      </trkpt>
      <trkpt lat="46.69217" lon="-1.933">
        <ele>3</ele>
        <time>2018-03-15T23:45:06Z</time>
      </trkpt>
      <trkpt lat="46.69209" lon="-1.93298">
        <ele>3</ele>
        <time>2018-03-15T23:46:06Z</time>
      </trkpt>
      <trkpt lat="46.69203" lon="-1.93298">
        <ele>3</ele>
        <time>2018-03-15T23:47:06Z</time>
      </trkpt>
      <trkpt lat="46.69197" lon="-1.93299">
        <ele>3</ele>
        <time>2018-03-15T23:48:06Z</time>
      </trkpt>
      <trkpt lat="46.69182" lon="-1.93301">
        <ele>3</ele>
        <time>2018-03-15T23:49:06Z</time>
      </trkpt>
      <trkpt lat="46.69182" lon="-1.93301">
        <ele>3</ele>
        <time>2018-03-15T23:50:06Z</time>
      </trkpt>
      <trkpt lat="46.6918" lon="-1.93305">
        <ele>3</ele>
        <time>2018-03-15T23:51:06Z</time>
      </trkpt>
      <trkpt lat="46.69177" lon="-1.93307">
        <ele>3</ele>
        <time>2018-03-15T23:52:06Z</time>
      </trkpt>
      <trkpt lat="46.69173" lon="-1.93307">
        <ele>3</ele>
        <time>2018-03-15T23:53:06Z</time>
      </trkpt>
      <trkpt lat="46.69169" lon="-1.93306">
        <ele>3</ele>
        <time>2018-03-15T23:54:06Z</time>
      </trkpt>
      <trkpt lat="46.69167" lon="-1.93304">
        <ele>3</ele>
        <time>2018-03-15T23:55:06Z</time>
      </trkpt>
      <trkpt lat="46.69165" lon="-1.93301">
        <ele>3</ele>
        <time>2018-03-15T23:56:06Z</time>
      </trkpt>
      <trkpt lat="46.69164" lon="-1.93298">
        <ele>3</ele>
        <time>2018-03-15T23:57:06Z</time>
      </trkpt>
      <trkpt lat="46.69163" lon="-1.93296">
        <ele>3</ele>
        <time>2018-03-15T23:58:06Z</time>
      </trkpt>
      <trkpt lat="46.69163" lon="-1.93293">
        <ele>2</ele>
        <time>2018-03-15T23:59:06Z</time>
      </trkpt>
      <trkpt lat="46.69163" lon="-1.93289">
        <ele>2</ele>
        <time>2018-03-16T00:00:06Z</time>
      </trkpt>
      <trkpt lat="46.69165" lon="-1.93285">
        <ele>2</ele>
        <time>2018-03-16T00:01:06Z</time>
      </trkpt>
      <trkpt lat="46.69169" lon="-1.9328">
        <ele>2</ele>
        <time>2018-03-16T00:02:06Z</time>
      </trkpt>
      <trkpt lat="46.69166" lon="-1.93273">
        <ele>2</ele>
        <time>2018-03-16T00:03:06Z</time>
      </trkpt>
      <trkpt lat="46.69166" lon="-1.93263">
        <ele>2</ele>
        <time>2018-03-16T00:04:06Z</time>
      </trkpt>
      <trkpt lat="46.69167" lon="-1.93252">
        <ele>2</ele>
        <time>2018-03-16T00:05:06Z</time>
      </trkpt>
      <trkpt lat="46.69169" lon="-1.93244">
        <ele>2</ele>
        <time>2018-03-16T00:06:06Z</time>
      </trkpt>
      <trkpt lat="46.69177" lon="-1.93193">
        <ele>4</ele>
        <time>2018-03-16T00:07:06Z</time>
      </trkpt>
      <trkpt lat="46.69179" lon="-1.9318">
        <ele>4</ele>
        <time>2018-03-16T00:08:06Z</time>
      </trkpt>
      <trkpt lat="46.69182" lon="-1.93159">
        <ele>4</ele>
        <time>2018-03-16T00:09:06Z</time>
      </trkpt>
      <trkpt lat="46.69183" lon="-1.9315">
        <ele>4</ele>
        <time>2018-03-16T00:10:06Z</time>
      </trkpt>
      <trkpt lat="46.69186" lon="-1.93138">
        <ele>4</ele>
        <time>2018-03-16T00:11:06Z</time>
      </trkpt>
      <trkpt lat="46.69187" lon="-1.93134">
        <ele>4</ele>
        <time>2018-03-16T00:12:06Z</time>
      </trkpt>
      <trkpt lat="46.6919" lon="-1.93125">
        <ele>4</ele>
        <time>2018-03-16T00:13:06Z</time>
      </trkpt>
      <trkpt lat="46.69194" lon="-1.93117">
        <ele>4</ele>
        <time>2018-03-16T00:14:06Z</time>
      </trkpt>
      <trkpt lat="46.69201" lon="-1.93103">
        <ele>4</ele>
        <time>2018-03-16T00:15:06Z</time>
      </trkpt>
      <trkpt lat="46.6921" lon="-1.93085">
        <ele>5</ele>
        <time>2018-03-16T00:16:06Z</time>
      </trkpt>
      <trkpt lat="46.69219" lon="-1.93065">
        <ele>5</ele>
        <time>2018-03-16T00:17:06Z</time>
      </trkpt>
      <trkpt lat="46.69224" lon="-1.93053">
        <ele>5</ele>
        <time>2018-03-16T00:18:06Z</time>
      </trkpt>
      <trkpt lat="46.69224" lon="-1.93053">
        <ele>5</ele>
        <time>2018-03-16T00:19:06Z</time>
      </trkpt>
      <trkpt lat="46.69217" lon="-1.93046">
        <ele>5</ele>
        <time>2018-03-16T00:20:06Z</time>
      </trkpt>
      <trkpt lat="46.69194" lon="-1.93026">
        <ele>5</ele>
        <time>2018-03-16T00:21:06Z</time>
      </trkpt>
      <trkpt lat="46.69175" lon="-1.93009">
        <ele>4</ele>
        <time>2018-03-16T00:22:06Z</time>
      </trkpt>
      <trkpt lat="46.6917" lon="-1.93005">
        <ele>4</ele>
        <time>2018-03-16T00:23:06Z</time>
      </trkpt>
      <trkpt lat="46.69154" lon="-1.92991">
        <ele>4</ele>
        <time>2018-03-16T00:24:06Z</time>
      </trkpt>
      <trkpt lat="46.69133" lon="-1.92971">
        <ele>4</ele>
        <time>2018-03-16T00:25:06Z</time>
      </trkpt>
      <trkpt lat="46.69107" lon="-1.92948">
        <ele>4</ele>
        <time>2018-03-16T00:26:06Z</time>
      </trkpt>
      <trkpt lat="46.69095" lon="-1.92938">
        <ele>4</ele>
        <time>2018-03-16T00:27:06Z</time>
      </trkpt>
      <trkpt lat="46.69068" lon="-1.92907">
        <ele>4</ele>
        <time>2018-03-16T00:28:06Z</time>
      </trkpt>
      <trkpt lat="46.69055" lon="-1.9289">
        <ele>4</ele>
        <time>2018-03-16T00:29:06Z</time>
      </trkpt>
      <trkpt lat="46.69038" lon="-1.92867">
        <ele>4</ele>
        <time>2018-03-16T00:30:06Z</time>
      </trkpt>
      <trkpt lat="46.69014" lon="-1.92836">
        <ele>4</ele>
        <time>2018-03-16T00:31:06Z</time>
      </trkpt>
      <trkpt lat="46.68993" lon="-1.92806">
        <ele>4</ele>
        <time>2018-03-16T00:32:06Z</time>
      </trkpt>
      <trkpt lat="46.68992" lon="-1.92805">
        <ele>4</ele>
        <time>2018-03-16T00:33:06Z</time>
      </trkpt>
      <trkpt lat="46.68977" lon="-1.92784">
        <ele>4</ele>
        <time>2018-03-16T00:34:06Z</time>
      </trkpt>
      <trkpt lat="46.68969" lon="-1.92774">
        <ele>4</ele>
        <time>2018-03-16T00:35:06Z</time>
      </trkpt>
      <trkpt lat="46.68965" lon="-1.92769">
        <ele>4</ele>
        <time>2018-03-16T00:36:06Z</time>
      </trkpt>
      <trkpt lat="46.68955" lon="-1.92755">
        <ele>4</ele>
        <time>2018-03-16T00:37:06Z</time>
      </trkpt>
      <trkpt lat="46.68947" lon="-1.92747">
        <ele>4</ele>
        <time>2018-03-16T00:38:06Z</time>
      </trkpt>
      <trkpt lat="46.68936" lon="-1.92737">
        <ele>4</ele>
        <time>2018-03-16T00:39:06Z</time>
      </trkpt>
      <trkpt lat="46.68926" lon="-1.9273">
        <ele>4</ele>
        <time>2018-03-16T00:40:06Z</time>
      </trkpt>
      <trkpt lat="46.68913" lon="-1.92723">
        <ele>4</ele>
        <time>2018-03-16T00:41:06Z</time>
      </trkpt>
      <trkpt lat="46.68897" lon="-1.92716">
        <ele>4</ele>
        <time>2018-03-16T00:42:06Z</time>
      </trkpt>
      <trkpt lat="46.68881" lon="-1.92711">
        <ele>5</ele>
        <time>2018-03-16T00:43:06Z</time>
      </trkpt>
      <trkpt lat="46.68869" lon="-1.92706">
        <ele>5</ele>
        <time>2018-03-16T00:44:06Z</time>
      </trkpt>
      <trkpt lat="46.6886" lon="-1.92704">
        <ele>6</ele>
        <time>2018-03-16T00:45:06Z</time>
      </trkpt>
      <trkpt lat="46.68859" lon="-1.92704">
        <ele>6</ele>
        <time>2018-03-16T00:46:06Z</time>
      </trkpt>
      <trkpt lat="46.68851" lon="-1.92698">
        <ele>6</ele>
        <time>2018-03-16T00:47:06Z</time>
      </trkpt>
      <trkpt lat="46.68851" lon="-1.92698">
        <ele>6</ele>
        <time>2018-03-16T00:48:06Z</time>
      </trkpt>
      <trkpt lat="46.68851" lon="-1.92699">
        <ele>6</ele>
        <time>2018-03-16T00:49:06Z</time>
      </trkpt>
      <trkpt lat="46.6885" lon="-1.92699">
        <ele>6</ele>
        <time>2018-03-16T00:50:06Z</time>
      </trkpt>
      <trkpt lat="46.68849" lon="-1.927">
        <ele>6</ele>
        <time>2018-03-16T00:51:06Z</time>
      </trkpt>
      <trkpt lat="46.68848" lon="-1.927">
        <ele>6</ele>
        <time>2018-03-16T00:52:06Z</time>
      </trkpt>
      <trkpt lat="46.68848" lon="-1.92701">
        <ele>6</ele>
        <time>2018-03-16T00:53:06Z</time>
      </trkpt>
      <trkpt lat="46.68847" lon="-1.92701">
        <ele>6</ele>
        <time>2018-03-16T00:54:06Z</time>
      </trkpt>
      <trkpt lat="46.68846" lon="-1.92701">
        <ele>6</ele>
        <time>2018-03-16T00:55:06Z</time>
      </trkpt>
      <trkpt lat="46.68845" lon="-1.92701">
        <ele>6</ele>
        <time>2018-03-16T00:56:06Z</time>
      </trkpt>
      <trkpt lat="46.68844" lon="-1.92701">
        <ele>7</ele>
        <time>2018-03-16T00:57:06Z</time>
      </trkpt>
      <trkpt lat="46.68844" lon="-1.927">
        <ele>7</ele>
        <time>2018-03-16T00:58:06Z</time>
      </trkpt>
      <trkpt lat="46.68843" lon="-1.927">
        <ele>7</ele>
        <time>2018-03-16T00:59:06Z</time>
      </trkpt>
      <trkpt lat="46.68842" lon="-1.92699">
        <ele>7</ele>
        <time>2018-03-16T01:00:06Z</time>
      </trkpt>
      <trkpt lat="46.68837" lon="-1.927">
        <ele>7</ele>
        <time>2018-03-16T01:01:06Z</time>
      </trkpt>
      <trkpt lat="46.68833" lon="-1.92701">
        <ele>7</ele>
        <time>2018-03-16T01:02:06Z</time>
      </trkpt>
      <trkpt lat="46.68828" lon="-1.927">
        <ele>7</ele>
        <time>2018-03-16T01:03:06Z</time>
      </trkpt>
      <trkpt lat="46.68827" lon="-1.927">
        <ele>7</ele>
        <time>2018-03-16T01:04:06Z</time>
      </trkpt>
      <trkpt lat="46.68827" lon="-1.92701">
        <ele>7</ele>
        <time>2018-03-16T01:05:06Z</time>
      </trkpt>
      <trkpt lat="46.68826" lon="-1.92701">
        <ele>7</ele>
        <time>2018-03-16T01:06:06Z</time>
      </trkpt>
      <trkpt lat="46.68826" lon="-1.92702">
        <ele>7</ele>
        <time>2018-03-16T01:07:06Z</time>
      </trkpt>
      <trkpt lat="46.68825" lon="-1.92702">
        <ele>7</ele>
        <time>2018-03-16T01:08:06Z</time>
      </trkpt>
      <trkpt lat="46.68825" lon="-1.92703">
        <ele>7</ele>
        <time>2018-03-16T01:09:06Z</time>
      </trkpt>
      <trkpt lat="46.68824" lon="-1.92703">
        <ele>7</ele>
        <time>2018-03-16T01:10:06Z</time>
      </trkpt>
      <trkpt lat="46.68823" lon="-1.92703">
        <ele>7</ele>
        <time>2018-03-16T01:11:06Z</time>
      </trkpt>
      <trkpt lat="46.68822" lon="-1.92703">
        <ele>7</ele>
        <time>2018-03-16T01:12:06Z</time>
      </trkpt>
      <trkpt lat="46.68821" lon="-1.92703">
        <ele>7</ele>
        <time>2018-03-16T01:13:06Z</time>
      </trkpt>
      <trkpt lat="46.68821" lon="-1.92702">
        <ele>7</ele>
        <time>2018-03-16T01:14:06Z</time>
      </trkpt>
      <trkpt lat="46.6882" lon="-1.92702">
        <ele>7</ele>
        <time>2018-03-16T01:15:06Z</time>
      </trkpt>
      <trkpt lat="46.6882" lon="-1.92701">
        <ele>7</ele>
        <time>2018-03-16T01:16:06Z</time>
      </trkpt>
      <trkpt lat="46.68819" lon="-1.92701">
        <ele>7</ele>
        <time>2018-03-16T01:17:06Z</time>
      </trkpt>
      <trkpt lat="46.68819" lon="-1.927">
        <ele>7</ele>
        <time>2018-03-16T01:18:06Z</time>
      </trkpt>
      <trkpt lat="46.68818" lon="-1.927">
        <ele>7</ele>
        <time>2018-03-16T01:19:06Z</time>
      </trkpt>
      <trkpt lat="46.68818" lon="-1.92699">
        <ele>7</ele>
        <time>2018-03-16T01:20:06Z</time>
      </trkpt>
      <trkpt lat="46.68818" lon="-1.92698">
        <ele>7</ele>
        <time>2018-03-16T01:21:06Z</time>
      </trkpt>
      <trkpt lat="46.68817" lon="-1.92698">
        <ele>7</ele>
        <time>2018-03-16T01:22:06Z</time>
      </trkpt>
      <trkpt lat="46.68817" lon="-1.92697">
        <ele>7</ele>
        <time>2018-03-16T01:23:06Z</time>
      </trkpt>
      <trkpt lat="46.68817" lon="-1.92696">
        <ele>7</ele>
        <time>2018-03-16T01:24:06Z</time>
      </trkpt>
      <trkpt lat="46.68817" lon="-1.92695">
        <ele>7</ele>
        <time>2018-03-16T01:25:06Z</time>
      </trkpt>
      <trkpt lat="46.68817" lon="-1.92694">
        <ele>7</ele>
        <time>2018-03-16T01:26:06Z</time>
      </trkpt>
      <trkpt lat="46.68817" lon="-1.92693">
        <ele>7</ele>
        <time>2018-03-16T01:27:06Z</time>
      </trkpt>
      <trkpt lat="46.68817" lon="-1.92692">
        <ele>7</ele>
        <time>2018-03-16T01:28:06Z</time>
      </trkpt>
      <trkpt lat="46.68817" lon="-1.92691">
        <ele>7</ele>
        <time>2018-03-16T01:29:06Z</time>
      </trkpt>
      <trkpt lat="46.68817" lon="-1.9269">
        <ele>7</ele>
        <time>2018-03-16T01:30:06Z</time>
      </trkpt>
      <trkpt lat="46.68804" lon="-1.92685">
        <ele>7</ele>
        <time>2018-03-16T01:31:06Z</time>
      </trkpt>
      <trkpt lat="46.68787" lon="-1.9268">
        <ele>8</ele>
        <time>2018-03-16T01:32:06Z</time>
      </trkpt>
      <trkpt lat="46.68776" lon="-1.92676">
        <ele>8</ele>
        <time>2018-03-16T01:33:06Z</time>
      </trkpt>
      <trkpt lat="46.6876" lon="-1.92669">
        <ele>8</ele>
        <time>2018-03-16T01:34:06Z</time>
      </trkpt>
      <trkpt lat="46.68759" lon="-1.92668">
        <ele>8</ele>
        <time>2018-03-16T01:35:06Z</time>
      </trkpt>
      <trkpt lat="46.68733" lon="-1.92654">
        <ele>8</ele>
        <time>2018-03-16T01:36:06Z</time>
      </trkpt>
      <trkpt lat="46.68732" lon="-1.92654">
        <ele>8</ele>
        <time>2018-03-16T01:37:06Z</time>
      </trkpt>
      <trkpt lat="46.68707" lon="-1.92638">
        <ele>9</ele>
        <time>2018-03-16T01:38:06Z</time>
      </trkpt>
      <trkpt lat="46.68669" lon="-1.92615">
        <ele>10</ele>
        <time>2018-03-16T01:39:06Z</time>
      </trkpt>
      <trkpt lat="46.68651" lon="-1.92602">
        <ele>10</ele>
        <time>2018-03-16T01:40:06Z</time>
      </trkpt>
      <trkpt lat="46.68644" lon="-1.92596">
        <ele>10</ele>
        <time>2018-03-16T01:41:06Z</time>
      </trkpt>
      <trkpt lat="46.68635" lon="-1.92588">
        <ele>10</ele>
        <time>2018-03-16T01:42:06Z</time>
      </trkpt>
      <trkpt lat="46.68634" lon="-1.92586">
        <ele>10</ele>
        <time>2018-03-16T01:43:06Z</time>
      </trkpt>
      <trkpt lat="46.68629" lon="-1.9258">
        <ele>10</ele>
        <time>2018-03-16T01:44:06Z</time>
      </trkpt>
      <trkpt lat="46.68625" lon="-1.92575">
        <ele>10</ele>
        <time>2018-03-16T01:45:06Z</time>
      </trkpt>
      <trkpt lat="46.68616" lon="-1.92563">
        <ele>10</ele>
        <time>2018-03-16T01:46:06Z</time>
      </trkpt>
      <trkpt lat="46.68605" lon="-1.92548">
        <ele>10</ele>
        <time>2018-03-16T01:47:06Z</time>
      </trkpt>
      <trkpt lat="46.68594" lon="-1.92534">
        <ele>10</ele>
        <time>2018-03-16T01:48:06Z</time>
      </trkpt>
      <trkpt lat="46.68589" lon="-1.92528">
        <ele>10</ele>
        <time>2018-03-16T01:49:06Z</time>
      </trkpt>
      <trkpt lat="46.68567" lon="-1.925">
        <ele>10</ele>
        <time>2018-03-16T01:50:06Z</time>
      </trkpt>
      <trkpt lat="46.68549" lon="-1.92476">
        <ele>10</ele>
        <time>2018-03-16T01:51:06Z</time>
      </trkpt>
      <trkpt lat="46.68538" lon="-1.92464">
        <ele>10</ele>
        <time>2018-03-16T01:52:06Z</time>
      </trkpt>
      <trkpt lat="46.68532" lon="-1.92456">
        <ele>10</ele>
        <time>2018-03-16T01:53:06Z</time>
      </trkpt>
      <trkpt lat="46.68528" lon="-1.9245">
        <ele>10</ele>
        <time>2018-03-16T01:54:06Z</time>
      </trkpt>
      <trkpt lat="46.68514" lon="-1.92436">
        <ele>10</ele>
        <time>2018-03-16T01:55:06Z</time>
      </trkpt>
      <trkpt lat="46.68505" lon="-1.92428">
        <ele>10</ele>
        <time>2018-03-16T01:56:06Z</time>
      </trkpt>
      <trkpt lat="46.68495" lon="-1.9242">
        <ele>10</ele>
        <time>2018-03-16T01:57:06Z</time>
      </trkpt>
      <trkpt lat="46.68487" lon="-1.92415">
        <ele>10</ele>
        <time>2018-03-16T01:58:06Z</time>
      </trkpt>
      <trkpt lat="46.68481" lon="-1.92411">
        <ele>10</ele>
        <time>2018-03-16T01:59:06Z</time>
      </trkpt>
      <trkpt lat="46.68472" lon="-1.92408">
        <ele>10</ele>
        <time>2018-03-16T02:00:06Z</time>
      </trkpt>
      <trkpt lat="46.68463" lon="-1.92406">
        <ele>10</ele>
        <time>2018-03-16T02:01:06Z</time>
      </trkpt>
      <trkpt lat="46.68454" lon="-1.92404">
        <ele>10</ele>
        <time>2018-03-16T02:02:06Z</time>
      </trkpt>
      <trkpt lat="46.68447" lon="-1.92403">
        <ele>10</ele>
        <time>2018-03-16T02:03:06Z</time>
      </trkpt>
      <trkpt lat="46.68435" lon="-1.924">
        <ele>10</ele>
        <time>2018-03-16T02:04:06Z</time>
      </trkpt>
      <trkpt lat="46.68426" lon="-1.92396">
        <ele>10</ele>
        <time>2018-03-16T02:05:06Z</time>
      </trkpt>
      <trkpt lat="46.68413" lon="-1.92388">
        <ele>10</ele>
        <time>2018-03-16T02:06:06Z</time>
      </trkpt>
      <trkpt lat="46.68403" lon="-1.9238">
        <ele>10</ele>
        <time>2018-03-16T02:07:06Z</time>
      </trkpt>
      <trkpt lat="46.68389" lon="-1.92363">
        <ele>10</ele>
        <time>2018-03-16T02:08:06Z</time>
      </trkpt>
      <trkpt lat="46.6838" lon="-1.92351">
        <ele>10</ele>
        <time>2018-03-16T02:09:06Z</time>
      </trkpt>
      <trkpt lat="46.68377" lon="-1.92346">
        <ele>10</ele>
        <time>2018-03-16T02:10:06Z</time>
      </trkpt>
      <trkpt lat="46.6837" lon="-1.92334">
        <ele>10</ele>
        <time>2018-03-16T02:11:06Z</time>
      </trkpt>
      <trkpt lat="46.68355" lon="-1.92305">
        <ele>10</ele>
        <time>2018-03-16T02:12:06Z</time>
      </trkpt>
      <trkpt lat="46.6833" lon="-1.92261">
        <ele>9</ele>
        <time>2018-03-16T02:13:06Z</time>
      </trkpt>
      <trkpt lat="46.6832" lon="-1.92245">
        <ele>9</ele>
        <time>2018-03-16T02:14:06Z</time>
      </trkpt>
      <trkpt lat="46.68306" lon="-1.92219">
        <ele>9</ele>
        <time>2018-03-16T02:15:06Z</time>
      </trkpt>
      <trkpt lat="46.68291" lon="-1.92193">
        <ele>8</ele>
        <time>2018-03-16T02:16:06Z</time>
      </trkpt>
      <trkpt lat="46.68286" lon="-1.92186">
        <ele>8</ele>
        <time>2018-03-16T02:17:06Z</time>
      </trkpt>
      <trkpt lat="46.68277" lon="-1.92172">
        <ele>8</ele>
        <time>2018-03-16T02:18:06Z</time>
      </trkpt>
      <trkpt lat="46.68267" lon="-1.92157">
        <ele>7</ele>
        <time>2018-03-16T02:19:06Z</time>
      </trkpt>
      <trkpt lat="46.68255" lon="-1.9214">
        <ele>7</ele>
        <time>2018-03-16T02:20:06Z</time>
      </trkpt>
      <trkpt lat="46.6823" lon="-1.92107">
        <ele>7</ele>
        <time>2018-03-16T02:21:06Z</time>
      </trkpt>
      <trkpt lat="46.68227" lon="-1.92103">
        <ele>7</ele>
        <time>2018-03-16T02:22:06Z</time>
      </trkpt>
      <trkpt lat="46.68224" lon="-1.92098">
        <ele>7</ele>
        <time>2018-03-16T02:23:06Z</time>
      </trkpt>
      <trkpt lat="46.68224" lon="-1.92097">
        <ele>7</ele>
        <time>2018-03-16T02:24:06Z</time>
      </trkpt>
      <trkpt lat="46.6822" lon="-1.92091">
        <ele>7</ele>
        <time>2018-03-16T02:25:06Z</time>
      </trkpt>
      <trkpt lat="46.68208" lon="-1.92073">
        <ele>7</ele>
        <time>2018-03-16T02:26:06Z</time>
      </trkpt>
      <trkpt lat="46.68198" lon="-1.92057">
        <ele>7</ele>
        <time>2018-03-16T02:27:06Z</time>
      </trkpt>
      <trkpt lat="46.68174" lon="-1.92025">
        <ele>8</ele>
        <time>2018-03-16T02:28:06Z</time>
      </trkpt>
      <trkpt lat="46.68158" lon="-1.92003">
        <ele>8</ele>
        <time>2018-03-16T02:29:06Z</time>
      </trkpt>
      <trkpt lat="46.68115" lon="-1.91941">
        <ele>8</ele>
        <time>2018-03-16T02:30:06Z</time>
      </trkpt>
      <trkpt lat="46.68083" lon="-1.91897">
        <ele>8</ele>
        <time>2018-03-16T02:31:06Z</time>
      </trkpt>
      <trkpt lat="46.68057" lon="-1.91858">
        <ele>8</ele>
        <time>2018-03-16T02:32:06Z</time>
      </trkpt>
      <trkpt lat="46.68041" lon="-1.91836">
        <ele>8</ele>
        <time>2018-03-16T02:33:06Z</time>
      </trkpt>
      <trkpt lat="46.68033" lon="-1.91825">
        <ele>8</ele>
        <time>2018-03-16T02:34:06Z</time>
      </trkpt>
      <trkpt lat="46.68022" lon="-1.91808">
        <ele>8</ele>
        <time>2018-03-16T02:35:06Z</time>
      </trkpt>
      <trkpt lat="46.68" lon="-1.91776">
        <ele>8</ele>
        <time>2018-03-16T02:36:06Z</time>
      </trkpt>
      <trkpt lat="46.67972" lon="-1.91737">
        <ele>7</ele>
        <time>2018-03-16T02:37:06Z</time>
      </trkpt>
      <trkpt lat="46.67947" lon="-1.91703">
        <ele>7</ele>
        <time>2018-03-16T02:38:06Z</time>
      </trkpt>
      <trkpt lat="46.67928" lon="-1.91675">
        <ele>7</ele>
        <time>2018-03-16T02:39:06Z</time>
      </trkpt>
      <trkpt lat="46.67898" lon="-1.91633">
        <ele>7</ele>
        <time>2018-03-16T02:40:06Z</time>
      </trkpt>
      <trkpt lat="46.67883" lon="-1.91611">
        <ele>6</ele>
        <time>2018-03-16T02:41:06Z</time>
      </trkpt>
      <trkpt lat="46.67864" lon="-1.91583">
        <ele>6</ele>
        <time>2018-03-16T02:42:06Z</time>
      </trkpt>
      <trkpt lat="46.6784" lon="-1.91552">
        <ele>6</ele>
        <time>2018-03-16T02:43:06Z</time>
      </trkpt>
      <trkpt lat="46.67831" lon="-1.91538">
        <ele>6</ele>
        <time>2018-03-16T02:44:06Z</time>
      </trkpt>
      <trkpt lat="46.67783" lon="-1.91471">
        <ele>6</ele>
        <time>2018-03-16T02:45:06Z</time>
      </trkpt>
      <trkpt lat="46.67747" lon="-1.9142">
        <ele>6</ele>
        <time>2018-03-16T02:46:06Z</time>
      </trkpt>
      <trkpt lat="46.67743" lon="-1.91414">
        <ele>6</ele>
        <time>2018-03-16T02:47:06Z</time>
      </trkpt>
      <trkpt lat="46.67704" lon="-1.91358">
        <ele>5</ele>
        <time>2018-03-16T02:48:06Z</time>
      </trkpt>
      <trkpt lat="46.67662" lon="-1.91298">
        <ele>5</ele>
        <time>2018-03-16T02:49:06Z</time>
      </trkpt>
      <trkpt lat="46.67634" lon="-1.91261">
        <ele>5</ele>
        <time>2018-03-16T02:50:06Z</time>
      </trkpt>
      <trkpt lat="46.67612" lon="-1.91228">
        <ele>5</ele>
        <time>2018-03-16T02:51:06Z</time>
      </trkpt>
      <trkpt lat="46.67587" lon="-1.91194">
        <ele>6</ele>
        <time>2018-03-16T02:52:06Z</time>
      </trkpt>
      <trkpt lat="46.67578" lon="-1.91181">
        <ele>6</ele>
        <time>2018-03-16T02:53:06Z</time>
      </trkpt>
      <trkpt lat="46.67546" lon="-1.91137">
        <ele>5</ele>
        <time>2018-03-16T02:54:06Z</time>
      </trkpt>
      <trkpt lat="46.67518" lon="-1.91097">
        <ele>5</ele>
        <time>2018-03-16T02:55:06Z</time>
      </trkpt>
      <trkpt lat="46.6749" lon="-1.9106">
        <ele>5</ele>
        <time>2018-03-16T02:56:06Z</time>
      </trkpt>
      <trkpt lat="46.67469" lon="-1.9103">
        <ele>4</ele>
        <time>2018-03-16T02:57:06Z</time>
      </trkpt>
      <trkpt lat="46.67456" lon="-1.9101">
        <ele>4</ele>
        <time>2018-03-16T02:58:06Z</time>
      </trkpt>
      <trkpt lat="46.67452" lon="-1.91005">
        <ele>4</ele>
        <time>2018-03-16T02:59:06Z</time>
      </trkpt>
      <trkpt lat="46.67446" lon="-1.90996">
        <ele>4</ele>
        <time>2018-03-16T03:00:06Z</time>
      </trkpt>
      <trkpt lat="46.6744" lon="-1.90984">
        <ele>4</ele>
        <time>2018-03-16T03:01:06Z</time>
      </trkpt>
      <trkpt lat="46.67435" lon="-1.90971">
        <ele>3</ele>
        <time>2018-03-16T03:02:06Z</time>
      </trkpt>
      <trkpt lat="46.67435" lon="-1.90971">
        <ele>3</ele>
        <time>2018-03-16T03:03:06Z</time>
      </trkpt>
      <trkpt lat="46.67432" lon="-1.90969">
        <ele>3</ele>
        <time>2018-03-16T03:04:06Z</time>
      </trkpt>
      <trkpt lat="46.6743" lon="-1.90968">
        <ele>3</ele>
        <time>2018-03-16T03:05:06Z</time>
      </trkpt>
      <trkpt lat="46.67429" lon="-1.90967">
        <ele>3</ele>
        <time>2018-03-16T03:06:06Z</time>
      </trkpt>
      <trkpt lat="46.67427" lon="-1.90965">
        <ele>3</ele>
        <time>2018-03-16T03:07:06Z</time>
      </trkpt>
      <trkpt lat="46.67426" lon="-1.90964">
        <ele>3</ele>
        <time>2018-03-16T03:08:06Z</time>
      </trkpt>
      <trkpt lat="46.67424" lon="-1.90962">
        <ele>3</ele>
        <time>2018-03-16T03:09:06Z</time>
      </trkpt>
      <trkpt lat="46.67423" lon="-1.9096">
        <ele>3</ele>
        <time>2018-03-16T03:10:06Z</time>
      </trkpt>
      <trkpt lat="46.67422" lon="-1.90958">
        <ele>3</ele>
        <time>2018-03-16T03:11:06Z</time>
      </trkpt>
      <trkpt lat="46.67421" lon="-1.90956">
        <ele>3</ele>
        <time>2018-03-16T03:12:06Z</time>
      </trkpt>
      <trkpt lat="46.6742" lon="-1.90953">
        <ele>3</ele>
        <time>2018-03-16T03:13:06Z</time>
      </trkpt>
      <trkpt lat="46.6742" lon="-1.90951">
        <ele>3</ele>
        <time>2018-03-16T03:14:06Z</time>
      </trkpt>
      <trkpt lat="46.6742" lon="-1.9095">
        <ele>3</ele>
        <time>2018-03-16T03:15:06Z</time>
      </trkpt>
      <trkpt lat="46.67419" lon="-1.9095">
        <ele>3</ele>
        <time>2018-03-16T03:16:06Z</time>
      </trkpt>
      <trkpt lat="46.67419" lon="-1.90949">
        <ele>3</ele>
        <time>2018-03-16T03:17:06Z</time>
      </trkpt>
      <trkpt lat="46.67419" lon="-1.90948">
        <ele>3</ele>
        <time>2018-03-16T03:18:06Z</time>
      </trkpt>
      <trkpt lat="46.67419" lon="-1.90947">
        <ele>3</ele>
        <time>2018-03-16T03:19:06Z</time>
      </trkpt>
      <trkpt lat="46.67419" lon="-1.90946">
        <ele>3</ele>
        <time>2018-03-16T03:20:06Z</time>
      </trkpt>
      <trkpt lat="46.67414" lon="-1.90938">
        <ele>3</ele>
        <time>2018-03-16T03:21:06Z</time>
      </trkpt>
      <trkpt lat="46.67409" lon="-1.90932">
        <ele>3</ele>
        <time>2018-03-16T03:22:06Z</time>
      </trkpt>
      <trkpt lat="46.67407" lon="-1.90929">
        <ele>3</ele>
        <time>2018-03-16T03:23:06Z</time>
      </trkpt>
      <trkpt lat="46.67405" lon="-1.90925">
        <ele>3</ele>
        <time>2018-03-16T03:24:06Z</time>
      </trkpt>
      <trkpt lat="46.67398" lon="-1.90917">
        <ele>3</ele>
        <time>2018-03-16T03:25:06Z</time>
      </trkpt>
      <trkpt lat="46.67384" lon="-1.90901">
        <ele>3</ele>
        <time>2018-03-16T03:26:06Z</time>
      </trkpt>
      <trkpt lat="46.67344" lon="-1.90854">
        <ele>2</ele>
        <time>2018-03-16T03:27:06Z</time>
      </trkpt>
      <trkpt lat="46.67339" lon="-1.90844">
        <ele>2</ele>
        <time>2018-03-16T03:28:06Z</time>
      </trkpt>
      <trkpt lat="46.67336" lon="-1.9084">
        <ele>2</ele>
        <time>2018-03-16T03:29:06Z</time>
      </trkpt>
      <trkpt lat="46.67333" lon="-1.90837">
        <ele>2</ele>
        <time>2018-03-16T03:30:06Z</time>
      </trkpt>
      <trkpt lat="46.6733" lon="-1.90833">
        <ele>2</ele>
        <time>2018-03-16T03:31:06Z</time>
      </trkpt>
      <trkpt lat="46.67327" lon="-1.90829">
        <ele>2</ele>
        <time>2018-03-16T03:32:06Z</time>
      </trkpt>
      <trkpt lat="46.67323" lon="-1.90824">
        <ele>2</ele>
        <time>2018-03-16T03:33:06Z</time>
      </trkpt>
      <trkpt lat="46.6732" lon="-1.90819">
        <ele>2</ele>
        <time>2018-03-16T03:34:06Z</time>
      </trkpt>
      <trkpt lat="46.67313" lon="-1.9081">
        <ele>2</ele>
        <time>2018-03-16T03:35:06Z</time>
      </trkpt>
      <trkpt lat="46.67301" lon="-1.90794">
        <ele>2</ele>
        <time>2018-03-16T03:36:06Z</time>
      </trkpt>
      <trkpt lat="46.67282" lon="-1.90767">
        <ele>3</ele>
        <time>2018-03-16T03:37:06Z</time>
      </trkpt>
      <trkpt lat="46.67255" lon="-1.90729">
        <ele>3</ele>
        <time>2018-03-16T03:38:06Z</time>
      </trkpt>
      <trkpt lat="46.67226" lon="-1.90688">
        <ele>4</ele>
        <time>2018-03-16T03:39:06Z</time>
      </trkpt>
      <trkpt lat="46.67205" lon="-1.90658">
        <ele>4</ele>
        <time>2018-03-16T03:40:06Z</time>
      </trkpt>
      <trkpt lat="46.67166" lon="-1.90604">
        <ele>5</ele>
        <time>2018-03-16T03:41:06Z</time>
      </trkpt>
      <trkpt lat="46.67105" lon="-1.90518">
        <ele>5</ele>
        <time>2018-03-16T03:42:06Z</time>
      </trkpt>
      <trkpt lat="46.67097" lon="-1.90511">
        <ele>5</ele>
        <time>2018-03-16T03:43:06Z</time>
      </trkpt>
      <trkpt lat="46.67055" lon="-1.90456">
        <ele>5</ele>
        <time>2018-03-16T03:44:06Z</time>
      </trkpt>
      <trkpt lat="46.67046" lon="-1.90444">
        <ele>5</ele>
        <time>2018-03-16T03:45:06Z</time>
      </trkpt>
      <trkpt lat="46.67037" lon="-1.9043">
        <ele>5</ele>
        <time>2018-03-16T03:46:06Z</time>
      </trkpt>
      <trkpt lat="46.67034" lon="-1.90427">
        <ele>5</ele>
        <time>2018-03-16T03:47:06Z</time>
      </trkpt>
      <trkpt lat="46.67019" lon="-1.90408">
        <ele>5</ele>
        <time>2018-03-16T03:48:06Z</time>
      </trkpt>
      <trkpt lat="46.67018" lon="-1.90407">
        <ele>5</ele>
        <time>2018-03-16T03:49:06Z</time>
      </trkpt>
      <trkpt lat="46.67017" lon="-1.90406">
        <ele>5</ele>
        <time>2018-03-16T03:50:06Z</time>
      </trkpt>
      <trkpt lat="46.67016" lon="-1.90404">
        <ele>5</ele>
        <time>2018-03-16T03:51:06Z</time>
      </trkpt>
      <trkpt lat="46.67014" lon="-1.90402">
        <ele>5</ele>
        <time>2018-03-16T03:52:06Z</time>
      </trkpt>
      <trkpt lat="46.67012" lon="-1.90399">
        <ele>5</ele>
        <time>2018-03-16T03:53:06Z</time>
      </trkpt>
      <trkpt lat="46.66999" lon="-1.9038">
        <ele>5</ele>
        <time>2018-03-16T03:54:06Z</time>
      </trkpt>
      <trkpt lat="46.66997" lon="-1.90377">
        <ele>5</ele>
        <time>2018-03-16T03:55:06Z</time>
      </trkpt>
      <trkpt lat="46.66995" lon="-1.90374">
        <ele>5</ele>
        <time>2018-03-16T03:56:06Z</time>
      </trkpt>
      <trkpt lat="46.66993" lon="-1.90372">
        <ele>5</ele>
        <time>2018-03-16T03:57:06Z</time>
      </trkpt>
      <trkpt lat="46.66982" lon="-1.90356">
        <ele>5</ele>
        <time>2018-03-16T03:58:06Z</time>
      </trkpt>
      <trkpt lat="46.66982" lon="-1.90356">
        <ele>5</ele>
        <time>2018-03-16T03:59:06Z</time>
      </trkpt>
      <trkpt lat="46.66981" lon="-1.90356">
        <ele>5</ele>
        <time>2018-03-16T04:00:06Z</time>
      </trkpt>
      <trkpt lat="46.66979" lon="-1.90355">
        <ele>5</ele>
        <time>2018-03-16T04:01:06Z</time>
      </trkpt>
      <trkpt lat="46.66978" lon="-1.90355">
        <ele>5</ele>
        <time>2018-03-16T04:02:06Z</time>
      </trkpt>
      <trkpt lat="46.66977" lon="-1.90354">
        <ele>5</ele>
        <time>2018-03-16T04:03:06Z</time>
      </trkpt>
      <trkpt lat="46.66976" lon="-1.90353">
        <ele>5</ele>
        <time>2018-03-16T04:04:06Z</time>
      </trkpt>
      <trkpt lat="46.66975" lon="-1.90352">
        <ele>5</ele>
        <time>2018-03-16T04:05:06Z</time>
      </trkpt>
      <trkpt lat="46.66974" lon="-1.90351">
        <ele>5</ele>
        <time>2018-03-16T04:06:06Z</time>
      </trkpt>
      <trkpt lat="46.66973" lon="-1.9035">
        <ele>5</ele>
        <time>2018-03-16T04:07:06Z</time>
      </trkpt>
      <trkpt lat="46.66972" lon="-1.90349">
        <ele>5</ele>
        <time>2018-03-16T04:08:06Z</time>
      </trkpt>
      <trkpt lat="46.66971" lon="-1.90348">
        <ele>5</ele>
        <time>2018-03-16T04:09:06Z</time>
      </trkpt>
      <trkpt lat="46.6697" lon="-1.90346">
        <ele>5</ele>
        <time>2018-03-16T04:10:06Z</time>
      </trkpt>
      <trkpt lat="46.66969" lon="-1.90345">
        <ele>5</ele>
        <time>2018-03-16T04:11:06Z</time>
      </trkpt>
      <trkpt lat="46.66969" lon="-1.90343">
        <ele>5</ele>
        <time>2018-03-16T04:12:06Z</time>
      </trkpt>
      <trkpt lat="46.66968" lon="-1.90341">
        <ele>5</ele>
        <time>2018-03-16T04:13:06Z</time>
      </trkpt>
      <trkpt lat="46.66968" lon="-1.9034">
        <ele>5</ele>
        <time>2018-03-16T04:14:06Z</time>
      </trkpt>
      <trkpt lat="46.66967" lon="-1.90338">
        <ele>5</ele>
        <time>2018-03-16T04:15:06Z</time>
      </trkpt>
      <trkpt lat="46.66967" lon="-1.90335">
        <ele>5</ele>
        <time>2018-03-16T04:16:06Z</time>
      </trkpt>
      <trkpt lat="46.66967" lon="-1.90331">
        <ele>5</ele>
        <time>2018-03-16T04:17:06Z</time>
      </trkpt>
      <trkpt lat="46.66967" lon="-1.9033">
        <ele>5</ele>
        <time>2018-03-16T04:18:06Z</time>
      </trkpt>
      <trkpt lat="46.66967" lon="-1.90328">
        <ele>5</ele>
        <time>2018-03-16T04:19:06Z</time>
      </trkpt>
      <trkpt lat="46.66967" lon="-1.90326">
        <ele>5</ele>
        <time>2018-03-16T04:20:06Z</time>
      </trkpt>
      <trkpt lat="46.66968" lon="-1.90324">
        <ele>5</ele>
        <time>2018-03-16T04:21:06Z</time>
      </trkpt>
      <trkpt lat="46.66968" lon="-1.90323">
        <ele>5</ele>
        <time>2018-03-16T04:22:06Z</time>
      </trkpt>
      <trkpt lat="46.66968" lon="-1.90321">
        <ele>5</ele>
        <time>2018-03-16T04:23:06Z</time>
      </trkpt>
      <trkpt lat="46.66969" lon="-1.90319">
        <ele>5</ele>
        <time>2018-03-16T04:24:06Z</time>
      </trkpt>
      <trkpt lat="46.6697" lon="-1.90318">
        <ele>5</ele>
        <time>2018-03-16T04:25:06Z</time>
      </trkpt>
      <trkpt lat="46.6697" lon="-1.90316">
        <ele>5</ele>
        <time>2018-03-16T04:26:06Z</time>
      </trkpt>
      <trkpt lat="46.66971" lon="-1.90315">
        <ele>5</ele>
        <time>2018-03-16T04:27:06Z</time>
      </trkpt>
      <trkpt lat="46.66972" lon="-1.90314">
        <ele>5</ele>
        <time>2018-03-16T04:28:06Z</time>
      </trkpt>
      <trkpt lat="46.66973" lon="-1.90313">
        <ele>5</ele>
        <time>2018-03-16T04:29:06Z</time>
      </trkpt>
      <trkpt lat="46.66974" lon="-1.90312">
        <ele>5</ele>
        <time>2018-03-16T04:30:06Z</time>
      </trkpt>
      <trkpt lat="46.66975" lon="-1.90311">
        <ele>6</ele>
        <time>2018-03-16T04:31:06Z</time>
      </trkpt>
      <trkpt lat="46.66976" lon="-1.9031">
        <ele>6</ele>
        <time>2018-03-16T04:32:06Z</time>
      </trkpt>
      <trkpt lat="46.66976" lon="-1.90309">
        <ele>6</ele>
        <time>2018-03-16T04:33:06Z</time>
      </trkpt>
      <trkpt lat="46.66977" lon="-1.90309">
        <ele>6</ele>
        <time>2018-03-16T04:34:06Z</time>
      </trkpt>
      <trkpt lat="46.66978" lon="-1.90309">
        <ele>6</ele>
        <time>2018-03-16T04:35:06Z</time>
      </trkpt>
      <trkpt lat="46.66978" lon="-1.90308">
        <ele>6</ele>
        <time>2018-03-16T04:36:06Z</time>
      </trkpt>
      <trkpt lat="46.66981" lon="-1.903">
        <ele>6</ele>
        <time>2018-03-16T04:37:06Z</time>
      </trkpt>
      <trkpt lat="46.66985" lon="-1.90285">
        <ele>6</ele>
        <time>2018-03-16T04:38:06Z</time>
      </trkpt>
      <trkpt lat="46.66988" lon="-1.90274">
        <ele>6</ele>
        <time>2018-03-16T04:39:06Z</time>
      </trkpt>
      <trkpt lat="46.6699" lon="-1.90259">
        <ele>7</ele>
        <time>2018-03-16T04:40:06Z</time>
      </trkpt>
      <trkpt lat="46.66985" lon="-1.90224">
        <ele>7</ele>
        <time>2018-03-16T04:41:06Z</time>
      </trkpt>
      <trkpt lat="46.66981" lon="-1.90197">
        <ele>8</ele>
        <time>2018-03-16T04:42:06Z</time>
      </trkpt>
      <trkpt lat="46.66977" lon="-1.90166">
        <ele>8</ele>
        <time>2018-03-16T04:43:06Z</time>
      </trkpt>
      <trkpt lat="46.66972" lon="-1.9013">
        <ele>9</ele>
        <time>2018-03-16T04:44:06Z</time>
      </trkpt>
      <trkpt lat="46.66968" lon="-1.90096">
        <ele>9</ele>
        <time>2018-03-16T04:45:06Z</time>
      </trkpt>
      <trkpt lat="46.66964" lon="-1.9006">
        <ele>10</ele>
        <time>2018-03-16T04:46:06Z</time>
      </trkpt>
      <trkpt lat="46.66963" lon="-1.90055">
        <ele>10</ele>
        <time>2018-03-16T04:47:06Z</time>
      </trkpt>
      <trkpt lat="46.6696" lon="-1.90028">
        <ele>10</ele>
        <time>2018-03-16T04:48:06Z</time>
      </trkpt>
      <trkpt lat="46.66955" lon="-1.89998">
        <ele>10</ele>
        <time>2018-03-16T04:49:06Z</time>
      </trkpt>
      <trkpt lat="46.66951" lon="-1.8996">
        <ele>10</ele>
        <time>2018-03-16T04:50:06Z</time>
      </trkpt>
      <trkpt lat="46.66949" lon="-1.89948">
        <ele>11</ele>
        <time>2018-03-16T04:51:06Z</time>
      </trkpt>
      <trkpt lat="46.66944" lon="-1.89914">
        <ele>11</ele>
        <time>2018-03-16T04:52:06Z</time>
      </trkpt>
      <trkpt lat="46.6694" lon="-1.89885">
        <ele>11</ele>
        <time>2018-03-16T04:53:06Z</time>
      </trkpt>
      <trkpt lat="46.66938" lon="-1.89867">
        <ele>11</ele>
        <time>2018-03-16T04:54:06Z</time>
      </trkpt>
      <trkpt lat="46.66932" lon="-1.89826">
        <ele>11</ele>
        <time>2018-03-16T04:55:06Z</time>
      </trkpt>
      <trkpt lat="46.66931" lon="-1.8982">
        <ele>11</ele>
        <time>2018-03-16T04:56:06Z</time>
      </trkpt>
      <trkpt lat="46.66928" lon="-1.89797">
        <ele>11</ele>
        <time>2018-03-16T04:57:06Z</time>
      </trkpt>
      <trkpt lat="46.66928" lon="-1.89795">
        <ele>11</ele>
        <time>2018-03-16T04:58:06Z</time>
      </trkpt>
      <trkpt lat="46.66925" lon="-1.89768">
        <ele>11</ele>
        <time>2018-03-16T04:59:06Z</time>
      </trkpt>
      <trkpt lat="46.66922" lon="-1.89752">
        <ele>11</ele>
        <time>2018-03-16T05:00:06Z</time>
      </trkpt>
      <trkpt lat="46.6692" lon="-1.89738">
        <ele>11</ele>
        <time>2018-03-16T05:01:06Z</time>
      </trkpt>
      <trkpt lat="46.66917" lon="-1.89712">
        <ele>11</ele>
        <time>2018-03-16T05:02:06Z</time>
      </trkpt>
      <trkpt lat="46.66915" lon="-1.89697">
        <ele>12</ele>
        <time>2018-03-16T05:03:06Z</time>
      </trkpt>
      <trkpt lat="46.66911" lon="-1.89666">
        <ele>12</ele>
        <time>2018-03-16T05:04:06Z</time>
      </trkpt>
      <trkpt lat="46.66911" lon="-1.89664">
        <ele>12</ele>
        <time>2018-03-16T05:05:06Z</time>
      </trkpt>
      <trkpt lat="46.66904" lon="-1.89615">
        <ele>12</ele>
        <time>2018-03-16T05:06:06Z</time>
      </trkpt>
      <trkpt lat="46.66898" lon="-1.89575">
        <ele>13</ele>
        <time>2018-03-16T05:07:06Z</time>
      </trkpt>
      <trkpt lat="46.66897" lon="-1.89564">
        <ele>13</ele>
        <time>2018-03-16T05:08:06Z</time>
      </trkpt>
      <trkpt lat="46.66896" lon="-1.89555">
        <ele>12</ele>
        <time>2018-03-16T05:09:06Z</time>
      </trkpt>
      <trkpt lat="46.66894" lon="-1.89545">
        <ele>12</ele>
        <time>2018-03-16T05:10:06Z</time>
      </trkpt>
      <trkpt lat="46.66891" lon="-1.89517">
        <ele>12</ele>
        <time>2018-03-16T05:11:06Z</time>
      </trkpt>
      <trkpt lat="46.6689" lon="-1.89515">
        <ele>12</ele>
        <time>2018-03-16T05:12:06Z</time>
      </trkpt>
      <trkpt lat="46.66888" lon="-1.89499">
        <ele>12</ele>
        <time>2018-03-16T05:13:06Z</time>
      </trkpt>
      <trkpt lat="46.66887" lon="-1.89492">
        <ele>12</ele>
        <time>2018-03-16T05:14:06Z</time>
      </trkpt>
      <trkpt lat="46.66886" lon="-1.89484">
        <ele>12</ele>
        <time>2018-03-16T05:15:06Z</time>
      </trkpt>
      <trkpt lat="46.66886" lon="-1.89475">
        <ele>12</ele>
        <time>2018-03-16T05:16:06Z</time>
      </trkpt>
      <trkpt lat="46.66885" lon="-1.89467">
        <ele>12</ele>
        <time>2018-03-16T05:17:06Z</time>
      </trkpt>
      <trkpt lat="46.66885" lon="-1.8946">
        <ele>12</ele>
        <time>2018-03-16T05:18:06Z</time>
      </trkpt>
      <trkpt lat="46.66884" lon="-1.89451">
        <ele>12</ele>
        <time>2018-03-16T05:19:06Z</time>
      </trkpt>
      <trkpt lat="46.66884" lon="-1.89439">
        <ele>12</ele>
        <time>2018-03-16T05:20:06Z</time>
      </trkpt>
      <trkpt lat="46.66884" lon="-1.89421">
        <ele>12</ele>
        <time>2018-03-16T05:21:06Z</time>
      </trkpt>
      <trkpt lat="46.66885" lon="-1.89403">
        <ele>12</ele>
        <time>2018-03-16T05:22:06Z</time>
      </trkpt>
      <trkpt lat="46.66887" lon="-1.89385">
        <ele>12</ele>
        <time>2018-03-16T05:23:06Z</time>
      </trkpt>
      <trkpt lat="46.66889" lon="-1.89376">
        <ele>12</ele>
        <time>2018-03-16T05:24:06Z</time>
      </trkpt>
      <trkpt lat="46.66892" lon="-1.89362">
        <ele>12</ele>
        <time>2018-03-16T05:25:06Z</time>
      </trkpt>
      <trkpt lat="46.66896" lon="-1.89347">
        <ele>11</ele>
        <time>2018-03-16T05:26:06Z</time>
      </trkpt>
      <trkpt lat="46.66899" lon="-1.89335">
        <ele>11</ele>
        <time>2018-03-16T05:27:06Z</time>
      </trkpt>
      <trkpt lat="46.66901" lon="-1.89329">
        <ele>11</ele>
        <time>2018-03-16T05:28:06Z</time>
      </trkpt>
      <trkpt lat="46.66906" lon="-1.89314">
        <ele>11</ele>
        <time>2018-03-16T05:29:06Z</time>
      </trkpt>
      <trkpt lat="46.66909" lon="-1.89305">
        <ele>11</ele>
        <time>2018-03-16T05:30:06Z</time>
      </trkpt>
      <trkpt lat="46.66914" lon="-1.89286">
        <ele>11</ele>
        <time>2018-03-16T05:31:06Z</time>
      </trkpt>
      <trkpt lat="46.6691" lon="-1.89283">
        <ele>11</ele>
        <time>2018-03-16T05:32:06Z</time>
      </trkpt>
      <trkpt lat="46.66909" lon="-1.89278">
        <ele>11</ele>
        <time>2018-03-16T05:33:06Z</time>
      </trkpt>
      <trkpt lat="46.66909" lon="-1.89272">
        <ele>11</ele>
        <time>2018-03-16T05:34:06Z</time>
      </trkpt>
      <trkpt lat="46.66911" lon="-1.89267">
        <ele>11</ele>
        <time>2018-03-16T05:35:06Z</time>
      </trkpt>
      <trkpt lat="46.66914" lon="-1.89264">
        <ele>11</ele>
        <time>2018-03-16T05:36:06Z</time>
      </trkpt>
      <trkpt lat="46.66917" lon="-1.89263">
        <ele>11</ele>
        <time>2018-03-16T05:37:06Z</time>
      </trkpt>
      <trkpt lat="46.66919" lon="-1.89263">
        <ele>11</ele>
        <time>2018-03-16T05:38:06Z</time>
      </trkpt>
      <trkpt lat="46.66922" lon="-1.89264">
        <ele>11</ele>
        <time>2018-03-16T05:39:06Z</time>
      </trkpt>
      <trkpt lat="46.66926" lon="-1.89253">
        <ele>11</ele>
        <time>2018-03-16T05:40:06Z</time>
      </trkpt>
      <trkpt lat="46.66929" lon="-1.89245">
        <ele>11</ele>
        <time>2018-03-16T05:41:06Z</time>
      </trkpt>
      <trkpt lat="46.66941" lon="-1.89208">
        <ele>10</ele>
        <time>2018-03-16T05:42:06Z</time>
      </trkpt>
      <trkpt lat="46.66945" lon="-1.89198">
        <ele>10</ele>
        <time>2018-03-16T05:43:06Z</time>
      </trkpt>
      <trkpt lat="46.66954" lon="-1.89171">
        <ele>10</ele>
        <time>2018-03-16T05:44:06Z</time>
      </trkpt>
      <trkpt lat="46.66961" lon="-1.89149">
        <ele>10</ele>
        <time>2018-03-16T05:45:06Z</time>
      </trkpt>
      <trkpt lat="46.66969" lon="-1.89126">
        <ele>10</ele>
        <time>2018-03-16T05:46:06Z</time>
      </trkpt>
      <trkpt lat="46.66982" lon="-1.89082">
        <ele>9</ele>
        <time>2018-03-16T05:47:06Z</time>
      </trkpt>
      <trkpt lat="46.66985" lon="-1.89069">
        <ele>9</ele>
        <time>2018-03-16T05:48:06Z</time>
      </trkpt>
      <trkpt lat="46.66988" lon="-1.89056">
        <ele>8</ele>
        <time>2018-03-16T05:49:06Z</time>
      </trkpt>
      <trkpt lat="46.6699" lon="-1.89048">
        <ele>8</ele>
        <time>2018-03-16T05:50:06Z</time>
      </trkpt>
      <trkpt lat="46.66991" lon="-1.89041">
        <ele>8</ele>
        <time>2018-03-16T05:51:06Z</time>
      </trkpt>
      <trkpt lat="46.66993" lon="-1.89033">
        <ele>8</ele>
        <time>2018-03-16T05:52:06Z</time>
      </trkpt>
      <trkpt lat="46.66995" lon="-1.89024">
        <ele>8</ele>
        <time>2018-03-16T05:53:06Z</time>
      </trkpt>
      <trkpt lat="46.66998" lon="-1.8901">
        <ele>7</ele>
        <time>2018-03-16T05:54:06Z</time>
      </trkpt>
      <trkpt lat="46.67001" lon="-1.88998">
        <ele>7</ele>
        <time>2018-03-16T05:55:06Z</time>
      </trkpt>
      <trkpt lat="46.67003" lon="-1.88989">
        <ele>7</ele>
        <time>2018-03-16T05:56:06Z</time>
      </trkpt>
      <trkpt lat="46.67008" lon="-1.88964">
        <ele>7</ele>
        <time>2018-03-16T05:57:06Z</time>
      </trkpt>
      <trkpt lat="46.6701" lon="-1.88956">
        <ele>7</ele>
        <time>2018-03-16T05:58:06Z</time>
      </trkpt>
      <trkpt lat="46.67013" lon="-1.88939">
        <ele>8</ele>
        <time>2018-03-16T05:59:06Z</time>
      </trkpt>
      <trkpt lat="46.67016" lon="-1.88929">
        <ele>8</ele>
        <time>2018-03-16T06:00:06Z</time>
      </trkpt>
      <trkpt lat="46.67023" lon="-1.88898">
        <ele>8</ele>
        <time>2018-03-16T06:01:06Z</time>
      </trkpt>
      <trkpt lat="46.67029" lon="-1.88866">
        <ele>9</ele>
        <time>2018-03-16T06:02:06Z</time>
      </trkpt>
      <trkpt lat="46.67033" lon="-1.88851">
        <ele>10</ele>
        <time>2018-03-16T06:03:06Z</time>
      </trkpt>
      <trkpt lat="46.67039" lon="-1.88825">
        <ele>10</ele>
        <time>2018-03-16T06:04:06Z</time>
      </trkpt>
      <trkpt lat="46.67041" lon="-1.88816">
        <ele>10</ele>
        <time>2018-03-16T06:05:06Z</time>
      </trkpt>
      <trkpt lat="46.67047" lon="-1.88789">
        <ele>10</ele>
        <time>2018-03-16T06:06:06Z</time>
      </trkpt>
      <trkpt lat="46.67051" lon="-1.88769">
        <ele>11</ele>
        <time>2018-03-16T06:07:06Z</time>
      </trkpt>
      <trkpt lat="46.67056" lon="-1.88749">
        <ele>11</ele>
        <time>2018-03-16T06:08:06Z</time>
      </trkpt>
      <trkpt lat="46.67053" lon="-1.88747">
        <ele>11</ele>
        <time>2018-03-16T06:09:06Z</time>
      </trkpt>
      <trkpt lat="46.67051" lon="-1.88745">
        <ele>11</ele>
        <time>2018-03-16T06:10:06Z</time>
      </trkpt>
      <trkpt lat="46.6705" lon="-1.88741">
        <ele>11</ele>
        <time>2018-03-16T06:11:06Z</time>
      </trkpt>
      <trkpt lat="46.67049" lon="-1.88737">
        <ele>11</ele>
        <time>2018-03-16T06:12:06Z</time>
      </trkpt>
      <trkpt lat="46.67049" lon="-1.88732">
        <ele>11</ele>
        <time>2018-03-16T06:13:06Z</time>
      </trkpt>
      <trkpt lat="46.6705" lon="-1.88728">
        <ele>11</ele>
        <time>2018-03-16T06:14:06Z</time>
      </trkpt>
      <trkpt lat="46.67052" lon="-1.88726">
        <ele>11</ele>
        <time>2018-03-16T06:15:06Z</time>
      </trkpt>
      <trkpt lat="46.67054" lon="-1.88725">
        <ele>11</ele>
        <time>2018-03-16T06:16:06Z</time>
      </trkpt>
      <trkpt lat="46.67057" lon="-1.88724">
        <ele>11</ele>
        <time>2018-03-16T06:17:06Z</time>
      </trkpt>
      <trkpt lat="46.67061" lon="-1.88725">
        <ele>11</ele>
        <time>2018-03-16T06:18:06Z</time>
      </trkpt>
      <trkpt lat="46.67063" lon="-1.88716">
        <ele>11</ele>
        <time>2018-03-16T06:19:06Z</time>
      </trkpt>
      <trkpt lat="46.6708" lon="-1.88641">
        <ele>12</ele>
        <time>2018-03-16T06:20:06Z</time>
      </trkpt>
      <trkpt lat="46.67081" lon="-1.88634">
        <ele>12</ele>
        <time>2018-03-16T06:21:06Z</time>
      </trkpt>
      <trkpt lat="46.67091" lon="-1.8859">
        <ele>12</ele>
        <time>2018-03-16T06:22:06Z</time>
      </trkpt>
      <trkpt lat="46.67092" lon="-1.88586">
        <ele>12</ele>
        <time>2018-03-16T06:23:06Z</time>
      </trkpt>
      <trkpt lat="46.67103" lon="-1.88538">
        <ele>12</ele>
        <time>2018-03-16T06:24:06Z</time>
      </trkpt>
      <trkpt lat="46.67108" lon="-1.8852">
        <ele>12</ele>
        <time>2018-03-16T06:25:06Z</time>
      </trkpt>
      <trkpt lat="46.67113" lon="-1.88499">
        <ele>11</ele>
        <time>2018-03-16T06:26:06Z</time>
      </trkpt>
      <trkpt lat="46.6712" lon="-1.88468">
        <ele>11</ele>
        <time>2018-03-16T06:27:06Z</time>
      </trkpt>
      <trkpt lat="46.67128" lon="-1.88428">
        <ele>10</ele>
        <time>2018-03-16T06:28:06Z</time>
      </trkpt>
      <trkpt lat="46.67133" lon="-1.88408">
        <ele>10</ele>
        <time>2018-03-16T06:29:06Z</time>
      </trkpt>
      <trkpt lat="46.67135" lon="-1.88398">
        <ele>10</ele>
        <time>2018-03-16T06:30:06Z</time>
      </trkpt>
      <trkpt lat="46.67136" lon="-1.88388">
        <ele>10</ele>
        <time>2018-03-16T06:31:06Z</time>
      </trkpt>
      <trkpt lat="46.67138" lon="-1.88377">
        <ele>10</ele>
        <time>2018-03-16T06:32:06Z</time>
      </trkpt>
      <trkpt lat="46.67138" lon="-1.88369">
        <ele>9</ele>
        <time>2018-03-16T06:33:06Z</time>
      </trkpt>
      <trkpt lat="46.67139" lon="-1.88365">
        <ele>9</ele>
        <time>2018-03-16T06:34:06Z</time>
      </trkpt>
      <trkpt lat="46.67139" lon="-1.88356">
        <ele>9</ele>
        <time>2018-03-16T06:35:06Z</time>
      </trkpt>
      <trkpt lat="46.67139" lon="-1.88342">
        <ele>9</ele>
        <time>2018-03-16T06:36:06Z</time>
      </trkpt>
      <trkpt lat="46.67139" lon="-1.88336">
        <ele>9</ele>
        <time>2018-03-16T06:37:06Z</time>
      </trkpt>
      <trkpt lat="46.67139" lon="-1.8833">
        <ele>9</ele>
        <time>2018-03-16T06:38:06Z</time>
      </trkpt>
      <trkpt lat="46.67139" lon="-1.88324">
        <ele>9</ele>
        <time>2018-03-16T06:39:06Z</time>
      </trkpt>
      <trkpt lat="46.6714" lon="-1.88317">
        <ele>9</ele>
        <time>2018-03-16T06:40:06Z</time>
      </trkpt>
      <trkpt lat="46.67141" lon="-1.88306">
        <ele>9</ele>
        <time>2018-03-16T06:41:06Z</time>
      </trkpt>
      <trkpt lat="46.67141" lon="-1.88301">
        <ele>9</ele>
        <time>2018-03-16T06:42:06Z</time>
      </trkpt>
      <trkpt lat="46.67142" lon="-1.88295">
        <ele>9</ele>
        <time>2018-03-16T06:43:06Z</time>
      </trkpt>
      <trkpt lat="46.67143" lon="-1.88289">
        <ele>9</ele>
        <time>2018-03-16T06:44:06Z</time>
      </trkpt>
      <trkpt lat="46.67146" lon="-1.88277">
        <ele>8</ele>
        <time>2018-03-16T06:45:06Z</time>
      </trkpt>
      <trkpt lat="46.67148" lon="-1.8827">
        <ele>8</ele>
        <time>2018-03-16T06:46:06Z</time>
      </trkpt>
      <trkpt lat="46.67149" lon="-1.88266">
        <ele>8</ele>
        <time>2018-03-16T06:47:06Z</time>
      </trkpt>
      <trkpt lat="46.67152" lon="-1.88256">
        <ele>8</ele>
        <time>2018-03-16T06:48:06Z</time>
      </trkpt>
      <trkpt lat="46.67155" lon="-1.88246">
        <ele>8</ele>
        <time>2018-03-16T06:49:06Z</time>
      </trkpt>
      <trkpt lat="46.67156" lon="-1.88241">
        <ele>8</ele>
        <time>2018-03-16T06:50:06Z</time>
      </trkpt>
      <trkpt lat="46.67158" lon="-1.88235">
        <ele>8</ele>
        <time>2018-03-16T06:51:06Z</time>
      </trkpt>
      <trkpt lat="46.67159" lon="-1.8823">
        <ele>8</ele>
        <time>2018-03-16T06:52:06Z</time>
      </trkpt>
      <trkpt lat="46.67159" lon="-1.88229">
        <ele>8</ele>
        <time>2018-03-16T06:53:06Z</time>
      </trkpt>
      <trkpt lat="46.67162" lon="-1.8822">
        <ele>8</ele>
        <time>2018-03-16T06:54:06Z</time>
      </trkpt>
      <trkpt lat="46.67161" lon="-1.8822">
        <ele>8</ele>
        <time>2018-03-16T06:55:06Z</time>
      </trkpt>
      <trkpt lat="46.67161" lon="-1.88219">
        <ele>8</ele>
        <time>2018-03-16T06:56:06Z</time>
      </trkpt>
      <trkpt lat="46.6716" lon="-1.88219">
        <ele>8</ele>
        <time>2018-03-16T06:57:06Z</time>
      </trkpt>
      <trkpt lat="46.6716" lon="-1.88218">
        <ele>8</ele>
        <time>2018-03-16T06:58:06Z</time>
      </trkpt>
      <trkpt lat="46.67159" lon="-1.88218">
        <ele>8</ele>
        <time>2018-03-16T06:59:06Z</time>
      </trkpt>
      <trkpt lat="46.67159" lon="-1.88217">
        <ele>8</ele>
        <time>2018-03-16T07:00:06Z</time>
      </trkpt>
      <trkpt lat="46.67158" lon="-1.88216">
        <ele>8</ele>
        <time>2018-03-16T07:01:06Z</time>
      </trkpt>
      <trkpt lat="46.67158" lon="-1.88215">
        <ele>7</ele>
        <time>2018-03-16T07:02:06Z</time>
      </trkpt>
      <trkpt lat="46.67157" lon="-1.88215">
        <ele>7</ele>
        <time>2018-03-16T07:03:06Z</time>
      </trkpt>
      <trkpt lat="46.67157" lon="-1.88214">
        <ele>7</ele>
        <time>2018-03-16T07:04:06Z</time>
      </trkpt>
      <trkpt lat="46.67157" lon="-1.88213">
        <ele>7</ele>
        <time>2018-03-16T07:05:06Z</time>
      </trkpt>
      <trkpt lat="46.67157" lon="-1.88212">
        <ele>7</ele>
        <time>2018-03-16T07:06:06Z</time>
      </trkpt>
      <trkpt lat="46.67157" lon="-1.88211">
        <ele>7</ele>
        <time>2018-03-16T07:07:06Z</time>
      </trkpt>
      <trkpt lat="46.67156" lon="-1.8821">
        <ele>7</ele>
        <time>2018-03-16T07:08:06Z</time>
      </trkpt>
      <trkpt lat="46.67156" lon="-1.88209">
        <ele>7</ele>
        <time>2018-03-16T07:09:06Z</time>
      </trkpt>
      <trkpt lat="46.67156" lon="-1.88208">
        <ele>7</ele>
        <time>2018-03-16T07:10:06Z</time>
      </trkpt>
      <trkpt lat="46.67156" lon="-1.88207">
        <ele>7</ele>
        <time>2018-03-16T07:11:06Z</time>
      </trkpt>
      <trkpt lat="46.67156" lon="-1.88206">
        <ele>7</ele>
        <time>2018-03-16T07:12:06Z</time>
      </trkpt>
      <trkpt lat="46.67157" lon="-1.88205">
        <ele>7</ele>
        <time>2018-03-16T07:13:06Z</time>
      </trkpt>
      <trkpt lat="46.67157" lon="-1.88204">
        <ele>7</ele>
        <time>2018-03-16T07:14:06Z</time>
      </trkpt>
      <trkpt lat="46.67157" lon="-1.88203">
        <ele>7</ele>
        <time>2018-03-16T07:15:06Z</time>
      </trkpt>
      <trkpt lat="46.67157" lon="-1.88202">
        <ele>7</ele>
        <time>2018-03-16T07:16:06Z</time>
      </trkpt>
      <trkpt lat="46.67158" lon="-1.88201">
        <ele>7</ele>
        <time>2018-03-16T07:17:06Z</time>
      </trkpt>
      <trkpt lat="46.67158" lon="-1.882">
        <ele>7</ele>
        <time>2018-03-16T07:18:06Z</time>
      </trkpt>
      <trkpt lat="46.67159" lon="-1.88199">
        <ele>7</ele>
        <time>2018-03-16T07:19:06Z</time>
      </trkpt>
      <trkpt lat="46.67159" lon="-1.88198">
        <ele>7</ele>
        <time>2018-03-16T07:20:06Z</time>
      </trkpt>
      <trkpt lat="46.6716" lon="-1.88198">
        <ele>7</ele>
        <time>2018-03-16T07:21:06Z</time>
      </trkpt>
      <trkpt lat="46.6716" lon="-1.88197">
        <ele>7</ele>
        <time>2018-03-16T07:22:06Z</time>
      </trkpt>
      <trkpt lat="46.67161" lon="-1.88197">
        <ele>7</ele>
        <time>2018-03-16T07:23:06Z</time>
      </trkpt>
      <trkpt lat="46.67161" lon="-1.88196">
        <ele>7</ele>
        <time>2018-03-16T07:24:06Z</time>
      </trkpt>
      <trkpt lat="46.67162" lon="-1.88196">
        <ele>7</ele>
        <time>2018-03-16T07:25:06Z</time>
      </trkpt>
      <trkpt lat="46.67162" lon="-1.88195">
        <ele>7</ele>
        <time>2018-03-16T07:26:06Z</time>
      </trkpt>
      <trkpt lat="46.67163" lon="-1.88195">
        <ele>7</ele>
        <time>2018-03-16T07:27:06Z</time>
      </trkpt>
      <trkpt lat="46.67164" lon="-1.88195">
        <ele>7</ele>
        <time>2018-03-16T07:28:06Z</time>
      </trkpt>
      <trkpt lat="46.67165" lon="-1.88195">
        <ele>7</ele>
        <time>2018-03-16T07:29:06Z</time>
      </trkpt>
      <trkpt lat="46.67166" lon="-1.88195">
        <ele>7</ele>
        <time>2018-03-16T07:30:06Z</time>
      </trkpt>
      <trkpt lat="46.67167" lon="-1.88195">
        <ele>7</ele>
        <time>2018-03-16T07:31:06Z</time>
      </trkpt>
      <trkpt lat="46.67168" lon="-1.88195">
        <ele>7</ele>
        <time>2018-03-16T07:32:06Z</time>
      </trkpt>
      <trkpt lat="46.67172" lon="-1.88182">
        <ele>7</ele>
        <time>2018-03-16T07:33:06Z</time>
      </trkpt>
      <trkpt lat="46.67173" lon="-1.88176">
        <ele>7</ele>
        <time>2018-03-16T07:34:06Z</time>
      </trkpt>
      <trkpt lat="46.67174" lon="-1.8817">
        <ele>7</ele>
        <time>2018-03-16T07:35:06Z</time>
      </trkpt>
      <trkpt lat="46.67178" lon="-1.88145">
        <ele>8</ele>
        <time>2018-03-16T07:36:06Z</time>
      </trkpt>
      <trkpt lat="46.67183" lon="-1.88109">
        <ele>8</ele>
        <time>2018-03-16T07:37:06Z</time>
      </trkpt>
      <trkpt lat="46.67187" lon="-1.88081">
        <ele>9</ele>
        <time>2018-03-16T07:38:06Z</time>
      </trkpt>
      <trkpt lat="46.67193" lon="-1.88041">
        <ele>9</ele>
        <time>2018-03-16T07:39:06Z</time>
      </trkpt>
      <trkpt lat="46.67198" lon="-1.88006">
        <ele>10</ele>
        <time>2018-03-16T07:40:06Z</time>
      </trkpt>
      <trkpt lat="46.67202" lon="-1.87978">
        <ele>10</ele>
        <time>2018-03-16T07:41:06Z</time>
      </trkpt>
      <trkpt lat="46.67205" lon="-1.87955">
        <ele>10</ele>
        <time>2018-03-16T07:42:06Z</time>
      </trkpt>
      <trkpt lat="46.67208" lon="-1.87929">
        <ele>10</ele>
        <time>2018-03-16T07:43:06Z</time>
      </trkpt>
      <trkpt lat="46.67211" lon="-1.87909">
        <ele>10</ele>
        <time>2018-03-16T07:44:06Z</time>
      </trkpt>
      <trkpt lat="46.67213" lon="-1.87887">
        <ele>10</ele>
        <time>2018-03-16T07:45:06Z</time>
      </trkpt>
      <trkpt lat="46.67213" lon="-1.87872">
        <ele>10</ele>
        <time>2018-03-16T07:46:06Z</time>
      </trkpt>
      <trkpt lat="46.67213" lon="-1.87857">
        <ele>10</ele>
        <time>2018-03-16T07:47:06Z</time>
      </trkpt>
      <trkpt lat="46.67213" lon="-1.87839">
        <ele>10</ele>
        <time>2018-03-16T07:48:06Z</time>
      </trkpt>
      <trkpt lat="46.67213" lon="-1.87822">
        <ele>10</ele>
        <time>2018-03-16T07:49:06Z</time>
      </trkpt>
      <trkpt lat="46.67212" lon="-1.878">
        <ele>10</ele>
        <time>2018-03-16T07:50:06Z</time>
      </trkpt>
      <trkpt lat="46.67212" lon="-1.87783">
        <ele>10</ele>
        <time>2018-03-16T07:51:06Z</time>
      </trkpt>
      <trkpt lat="46.67212" lon="-1.87767">
        <ele>10</ele>
        <time>2018-03-16T07:52:06Z</time>
      </trkpt>
      <trkpt lat="46.67213" lon="-1.87744">
        <ele>10</ele>
        <time>2018-03-16T07:53:06Z</time>
      </trkpt>
      <trkpt lat="46.67214" lon="-1.87723">
        <ele>10</ele>
        <time>2018-03-16T07:54:06Z</time>
      </trkpt>
      <trkpt lat="46.67215" lon="-1.87698">
        <ele>11</ele>
        <time>2018-03-16T07:55:06Z</time>
      </trkpt>
      <trkpt lat="46.67217" lon="-1.87673">
        <ele>11</ele>
        <time>2018-03-16T07:56:06Z</time>
      </trkpt>
      <trkpt lat="46.67218" lon="-1.87652">
        <ele>11</ele>
        <time>2018-03-16T07:57:06Z</time>
      </trkpt>
      <trkpt lat="46.67219" lon="-1.87634">
        <ele>11</ele>
        <time>2018-03-16T07:58:06Z</time>
      </trkpt>
      <trkpt lat="46.67221" lon="-1.87616">
        <ele>11</ele>
        <time>2018-03-16T07:59:06Z</time>
      </trkpt>
      <trkpt lat="46.67224" lon="-1.87603">
        <ele>12</ele>
        <time>2018-03-16T08:00:06Z</time>
      </trkpt>
      <trkpt lat="46.67225" lon="-1.87591">
        <ele>12</ele>
        <time>2018-03-16T08:01:06Z</time>
      </trkpt>
      <trkpt lat="46.67226" lon="-1.8758">
        <ele>12</ele>
        <time>2018-03-16T08:02:06Z</time>
      </trkpt>
      <trkpt lat="46.6723" lon="-1.8755">
        <ele>12</ele>
        <time>2018-03-16T08:03:06Z</time>
      </trkpt>
      <trkpt lat="46.67232" lon="-1.87531">
        <ele>12</ele>
        <time>2018-03-16T08:04:06Z</time>
      </trkpt>
      <trkpt lat="46.67236" lon="-1.87498">
        <ele>12</ele>
        <time>2018-03-16T08:05:06Z</time>
      </trkpt>
      <trkpt lat="46.67243" lon="-1.87445">
        <ele>12</ele>
        <time>2018-03-16T08:06:06Z</time>
      </trkpt>
      <trkpt lat="46.67247" lon="-1.87411">
        <ele>12</ele>
        <time>2018-03-16T08:07:06Z</time>
      </trkpt>
      <trkpt lat="46.67247" lon="-1.87407">
        <ele>12</ele>
        <time>2018-03-16T08:08:06Z</time>
      </trkpt>
      <trkpt lat="46.6725" lon="-1.87377">
        <ele>12</ele>
        <time>2018-03-16T08:09:06Z</time>
      </trkpt>
      <trkpt lat="46.67251" lon="-1.87373">
        <ele>12</ele>
        <time>2018-03-16T08:10:06Z</time>
      </trkpt>
      <trkpt lat="46.67254" lon="-1.87333">
        <ele>11</ele>
        <time>2018-03-16T08:11:06Z</time>
      </trkpt>
      <trkpt lat="46.67256" lon="-1.87307">
        <ele>11</ele>
        <time>2018-03-16T08:12:06Z</time>
      </trkpt>
      <trkpt lat="46.6726" lon="-1.87256">
        <ele>10</ele>
        <time>2018-03-16T08:13:06Z</time>
      </trkpt>
      <trkpt lat="46.67261" lon="-1.87244">
        <ele>9</ele>
        <time>2018-03-16T08:14:06Z</time>
      </trkpt>
      <trkpt lat="46.67263" lon="-1.87218">
        <ele>9</ele>
        <time>2018-03-16T08:15:06Z</time>
      </trkpt>
      <trkpt lat="46.67264" lon="-1.87205">
        <ele>9</ele>
        <time>2018-03-16T08:16:06Z</time>
      </trkpt>
      <trkpt lat="46.67265" lon="-1.8718">
        <ele>8</ele>
        <time>2018-03-16T08:17:06Z</time>
      </trkpt>
      <trkpt lat="46.67267" lon="-1.87155">
        <ele>8</ele>
        <time>2018-03-16T08:18:06Z</time>
      </trkpt>
      <trkpt lat="46.67269" lon="-1.8713">
        <ele>9</ele>
        <time>2018-03-16T08:19:06Z</time>
      </trkpt>
      <trkpt lat="46.67272" lon="-1.87082">
        <ele>9</ele>
        <time>2018-03-16T08:20:06Z</time>
      </trkpt>
      <trkpt lat="46.67272" lon="-1.8707">
        <ele>9</ele>
        <time>2018-03-16T08:21:06Z</time>
      </trkpt>
      <trkpt lat="46.67273" lon="-1.87048">
        <ele>9</ele>
        <time>2018-03-16T08:22:06Z</time>
      </trkpt>
      <trkpt lat="46.67273" lon="-1.87028">
        <ele>8</ele>
        <time>2018-03-16T08:23:06Z</time>
      </trkpt>
      <trkpt lat="46.67271" lon="-1.87013">
        <ele>8</ele>
        <time>2018-03-16T08:24:06Z</time>
      </trkpt>
      <trkpt lat="46.67269" lon="-1.87004">
        <ele>7</ele>
        <time>2018-03-16T08:25:06Z</time>
      </trkpt>
      <trkpt lat="46.67267" lon="-1.86994">
        <ele>7</ele>
        <time>2018-03-16T08:26:06Z</time>
      </trkpt>
      <trkpt lat="46.67263" lon="-1.86983">
        <ele>6</ele>
        <time>2018-03-16T08:27:06Z</time>
      </trkpt>
      <trkpt lat="46.6726" lon="-1.86974">
        <ele>6</ele>
        <time>2018-03-16T08:28:06Z</time>
      </trkpt>
      <trkpt lat="46.67256" lon="-1.86965">
        <ele>5</ele>
        <time>2018-03-16T08:29:06Z</time>
      </trkpt>
      <trkpt lat="46.67251" lon="-1.86955">
        <ele>5</ele>
        <time>2018-03-16T08:30:06Z</time>
      </trkpt>
      <trkpt lat="46.67246" lon="-1.86946">
        <ele>5</ele>
        <time>2018-03-16T08:31:06Z</time>
      </trkpt>
      <trkpt lat="46.67228" lon="-1.8691">
        <ele>4</ele>
        <time>2018-03-16T08:32:06Z</time>
      </trkpt>
      <trkpt lat="46.67213" lon="-1.86883">
        <ele>3</ele>
        <time>2018-03-16T08:33:06Z</time>
      </trkpt>
      <trkpt lat="46.67209" lon="-1.86876">
        <ele>3</ele>
        <time>2018-03-16T08:34:06Z</time>
      </trkpt>
      <trkpt lat="46.67205" lon="-1.86869">
        <ele>3</ele>
        <time>2018-03-16T08:35:06Z</time>
      </trkpt>
      <trkpt lat="46.67202" lon="-1.86862">
        <ele>3</ele>
        <time>2018-03-16T08:36:06Z</time>
      </trkpt>
      <trkpt lat="46.67189" lon="-1.86841">
        <ele>3</ele>
        <time>2018-03-16T08:37:06Z</time>
      </trkpt>
      <trkpt lat="46.6718" lon="-1.86819">
        <ele>4</ele>
        <time>2018-03-16T08:38:06Z</time>
      </trkpt>
      <trkpt lat="46.67179" lon="-1.86815">
        <ele>4</ele>
        <time>2018-03-16T08:39:06Z</time>
      </trkpt>
      <trkpt lat="46.67177" lon="-1.86808">
        <ele>4</ele>
        <time>2018-03-16T08:40:06Z</time>
      </trkpt>
      <trkpt lat="46.67173" lon="-1.86797">
        <ele>4</ele>
        <time>2018-03-16T08:41:06Z</time>
      </trkpt>
      <trkpt lat="46.6717" lon="-1.86785">
        <ele>4</ele>
        <time>2018-03-16T08:42:06Z</time>
      </trkpt>
      <trkpt lat="46.67169" lon="-1.86772">
        <ele>5</ele>
        <time>2018-03-16T08:43:06Z</time>
      </trkpt>
      <trkpt lat="46.67167" lon="-1.86759">
        <ele>5</ele>
        <time>2018-03-16T08:44:06Z</time>
      </trkpt>
      <trkpt lat="46.67166" lon="-1.8675">
        <ele>5</ele>
        <time>2018-03-16T08:45:06Z</time>
      </trkpt>
      <trkpt lat="46.67166" lon="-1.86747">
        <ele>5</ele>
        <time>2018-03-16T08:46:06Z</time>
      </trkpt>
      <trkpt lat="46.67166" lon="-1.86732">
        <ele>6</ele>
        <time>2018-03-16T08:47:06Z</time>
      </trkpt>
      <trkpt lat="46.67166" lon="-1.86708">
        <ele>7</ele>
        <time>2018-03-16T08:48:06Z</time>
      </trkpt>
      <trkpt lat="46.67166" lon="-1.86704">
        <ele>7</ele>
        <time>2018-03-16T08:49:06Z</time>
      </trkpt>
      <trkpt lat="46.67166" lon="-1.86696">
        <ele>7</ele>
        <time>2018-03-16T08:50:06Z</time>
      </trkpt>
      <trkpt lat="46.67167" lon="-1.86684">
        <ele>7</ele>
        <time>2018-03-16T08:51:06Z</time>
      </trkpt>
      <trkpt lat="46.67168" lon="-1.86673">
        <ele>8</ele>
        <time>2018-03-16T08:52:06Z</time>
      </trkpt>
      <trkpt lat="46.67168" lon="-1.86671">
        <ele>8</ele>
        <time>2018-03-16T08:53:06Z</time>
      </trkpt>
      <trkpt lat="46.6717" lon="-1.86659">
        <ele>8</ele>
        <time>2018-03-16T08:54:06Z</time>
      </trkpt>
      <trkpt lat="46.67171" lon="-1.86648">
        <ele>8</ele>
        <time>2018-03-16T08:55:06Z</time>
      </trkpt>
      <trkpt lat="46.67172" lon="-1.86647">
        <ele>8</ele>
        <time>2018-03-16T08:56:06Z</time>
      </trkpt>
      <trkpt lat="46.67174" lon="-1.86635">
        <ele>8</ele>
        <time>2018-03-16T08:57:06Z</time>
      </trkpt>
      <trkpt lat="46.67176" lon="-1.86622">
        <ele>8</ele>
        <time>2018-03-16T08:58:06Z</time>
      </trkpt>
      <trkpt lat="46.67179" lon="-1.8661">
        <ele>8</ele>
        <time>2018-03-16T08:59:06Z</time>
      </trkpt>
      <trkpt lat="46.67183" lon="-1.86598">
        <ele>8</ele>
        <time>2018-03-16T09:00:06Z</time>
      </trkpt>
      <trkpt lat="46.6719" lon="-1.86574">
        <ele>8</ele>
        <time>2018-03-16T09:01:06Z</time>
      </trkpt>
      <trkpt lat="46.67196" lon="-1.86555">
        <ele>8</ele>
        <time>2018-03-16T09:02:06Z</time>
      </trkpt>
      <trkpt lat="46.67196" lon="-1.86553">
        <ele>8</ele>
        <time>2018-03-16T09:03:06Z</time>
      </trkpt>
      <trkpt lat="46.67202" lon="-1.86536">
        <ele>9</ele>
        <time>2018-03-16T09:04:06Z</time>
      </trkpt>
      <trkpt lat="46.67206" lon="-1.86523">
        <ele>9</ele>
        <time>2018-03-16T09:05:06Z</time>
      </trkpt>
      <trkpt lat="46.67214" lon="-1.86498">
        <ele>9</ele>
        <time>2018-03-16T09:06:06Z</time>
      </trkpt>
      <trkpt lat="46.67223" lon="-1.86467">
        <ele>10</ele>
        <time>2018-03-16T09:07:06Z</time>
      </trkpt>
      <trkpt lat="46.67229" lon="-1.86444">
        <ele>10</ele>
        <time>2018-03-16T09:08:06Z</time>
      </trkpt>
      <trkpt lat="46.67234" lon="-1.86421">
        <ele>10</ele>
        <time>2018-03-16T09:09:06Z</time>
      </trkpt>
      <trkpt lat="46.67235" lon="-1.86411">
        <ele>10</ele>
        <time>2018-03-16T09:10:06Z</time>
      </trkpt>
      <trkpt lat="46.67237" lon="-1.86399">
        <ele>10</ele>
        <time>2018-03-16T09:11:06Z</time>
      </trkpt>
      <trkpt lat="46.67241" lon="-1.8637">
        <ele>10</ele>
        <time>2018-03-16T09:12:06Z</time>
      </trkpt>
      <trkpt lat="46.67243" lon="-1.86336">
        <ele>10</ele>
        <time>2018-03-16T09:13:06Z</time>
      </trkpt>
      <trkpt lat="46.67245" lon="-1.863">
        <ele>10</ele>
        <time>2018-03-16T09:14:06Z</time>
      </trkpt>
      <trkpt lat="46.67246" lon="-1.86272">
        <ele>10</ele>
        <time>2018-03-16T09:15:06Z</time>
      </trkpt>
      <trkpt lat="46.67248" lon="-1.86257">
        <ele>10</ele>
        <time>2018-03-16T09:16:06Z</time>
      </trkpt>
      <trkpt lat="46.6725" lon="-1.86243">
        <ele>10</ele>
        <time>2018-03-16T09:17:06Z</time>
      </trkpt>
      <trkpt lat="46.67252" lon="-1.86237">
        <ele>11</ele>
        <time>2018-03-16T09:18:06Z</time>
      </trkpt>
      <trkpt lat="46.67255" lon="-1.86227">
        <ele>11</ele>
        <time>2018-03-16T09:19:06Z</time>
      </trkpt>
      <trkpt lat="46.67262" lon="-1.86208">
        <ele>11</ele>
        <time>2018-03-16T09:20:06Z</time>
      </trkpt>
      <trkpt lat="46.6727" lon="-1.86185">
        <ele>12</ele>
        <time>2018-03-16T09:21:06Z</time>
      </trkpt>
      <trkpt lat="46.67276" lon="-1.86168">
        <ele>12</ele>
        <time>2018-03-16T09:22:06Z</time>
      </trkpt>
      <trkpt lat="46.67277" lon="-1.86165">
        <ele>12</ele>
        <time>2018-03-16T09:23:06Z</time>
      </trkpt>
      <trkpt lat="46.67283" lon="-1.86141">
        <ele>12</ele>
        <time>2018-03-16T09:24:06Z</time>
      </trkpt>
      <trkpt lat="46.67288" lon="-1.8612">
        <ele>12</ele>
        <time>2018-03-16T09:25:06Z</time>
      </trkpt>
      <trkpt lat="46.67292" lon="-1.86098">
        <ele>12</ele>
        <time>2018-03-16T09:26:06Z</time>
      </trkpt>
      <trkpt lat="46.67295" lon="-1.86076">
        <ele>13</ele>
        <time>2018-03-16T09:27:06Z</time>
      </trkpt>
      <trkpt lat="46.67296" lon="-1.86068">
        <ele>13</ele>
        <time>2018-03-16T09:28:06Z</time>
      </trkpt>
      <trkpt lat="46.67298" lon="-1.86053">
        <ele>13</ele>
        <time>2018-03-16T09:29:06Z</time>
      </trkpt>
      <trkpt lat="46.673" lon="-1.86038">
        <ele>13</ele>
        <time>2018-03-16T09:30:06Z</time>
      </trkpt>
      <trkpt lat="46.67301" lon="-1.86022">
        <ele>14</ele>
        <time>2018-03-16T09:31:06Z</time>
      </trkpt>
      <trkpt lat="46.67305" lon="-1.85977">
        <ele>15</ele>
        <time>2018-03-16T09:32:06Z</time>
      </trkpt>
      <trkpt lat="46.67306" lon="-1.85959">
        <ele>15</ele>
        <time>2018-03-16T09:33:06Z</time>
      </trkpt>
      <trkpt lat="46.67306" lon="-1.8593">
        <ele>15</ele>
        <time>2018-03-16T09:34:06Z</time>
      </trkpt>
      <trkpt lat="46.67306" lon="-1.859">
        <ele>15</ele>
        <time>2018-03-16T09:35:06Z</time>
      </trkpt>
      <trkpt lat="46.67305" lon="-1.85869">
        <ele>16</ele>
        <time>2018-03-16T09:36:06Z</time>
      </trkpt>
      <trkpt lat="46.67304" lon="-1.8584">
        <ele>16</ele>
        <time>2018-03-16T09:37:06Z</time>
      </trkpt>
      <trkpt lat="46.67302" lon="-1.8581">
        <ele>16</ele>
        <time>2018-03-16T09:38:06Z</time>
      </trkpt>
      <trkpt lat="46.67299" lon="-1.85767">
        <ele>16</ele>
        <time>2018-03-16T09:39:06Z</time>
      </trkpt>
      <trkpt lat="46.67295" lon="-1.85721">
        <ele>15</ele>
        <time>2018-03-16T09:40:06Z</time>
      </trkpt>
      <trkpt lat="46.67291" lon="-1.85677">
        <ele>15</ele>
        <time>2018-03-16T09:41:06Z</time>
      </trkpt>
      <trkpt lat="46.67288" lon="-1.85647">
        <ele>15</ele>
        <time>2018-03-16T09:42:06Z</time>
      </trkpt>
      <trkpt lat="46.67285" lon="-1.85601">
        <ele>16</ele>
        <time>2018-03-16T09:43:06Z</time>
      </trkpt>
      <trkpt lat="46.67281" lon="-1.85556">
        <ele>17</ele>
        <time>2018-03-16T09:44:06Z</time>
      </trkpt>
      <trkpt lat="46.67279" lon="-1.85526">
        <ele>17</ele>
        <time>2018-03-16T09:45:06Z</time>
      </trkpt>
      <trkpt lat="46.67275" lon="-1.8548">
        <ele>18</ele>
        <time>2018-03-16T09:46:06Z</time>
      </trkpt>
      <trkpt lat="46.67271" lon="-1.85421">
        <ele>18</ele>
        <time>2018-03-16T09:47:06Z</time>
      </trkpt>
      <trkpt lat="46.67269" lon="-1.85388">
        <ele>19</ele>
        <time>2018-03-16T09:48:06Z</time>
      </trkpt>
      <trkpt lat="46.67266" lon="-1.85362">
        <ele>19</ele>
        <time>2018-03-16T09:49:06Z</time>
      </trkpt>
      <trkpt lat="46.67263" lon="-1.85339">
        <ele>20</ele>
        <time>2018-03-16T09:50:06Z</time>
      </trkpt>
      <trkpt lat="46.6726" lon="-1.85321">
        <ele>20</ele>
        <time>2018-03-16T09:51:06Z</time>
      </trkpt>
      <trkpt lat="46.67255" lon="-1.85296">
        <ele>19</ele>
        <time>2018-03-16T09:52:06Z</time>
      </trkpt>
      <trkpt lat="46.67248" lon="-1.85268">
        <ele>19</ele>
        <time>2018-03-16T09:53:06Z</time>
      </trkpt>
      <trkpt lat="46.67239" lon="-1.85237">
        <ele>19</ele>
        <time>2018-03-16T09:54:06Z</time>
      </trkpt>
      <trkpt lat="46.67224" lon="-1.85184">
        <ele>19</ele>
        <time>2018-03-16T09:55:06Z</time>
      </trkpt>
      <trkpt lat="46.67214" lon="-1.8515">
        <ele>19</ele>
        <time>2018-03-16T09:56:06Z</time>
      </trkpt>
      <trkpt lat="46.67201" lon="-1.85109">
        <ele>19</ele>
        <time>2018-03-16T09:57:06Z</time>
      </trkpt>
      <trkpt lat="46.6719" lon="-1.85073">
        <ele>19</ele>
        <time>2018-03-16T09:58:06Z</time>
      </trkpt>
      <trkpt lat="46.67185" lon="-1.85055">
        <ele>19</ele>
        <time>2018-03-16T09:59:06Z</time>
      </trkpt>
      <trkpt lat="46.67178" lon="-1.85027">
        <ele>19</ele>
        <time>2018-03-16T10:00:06Z</time>
      </trkpt>
      <trkpt lat="46.67175" lon="-1.85014">
        <ele>18</ele>
        <time>2018-03-16T10:01:06Z</time>
      </trkpt>
      <trkpt lat="46.67172" lon="-1.84999">
        <ele>18</ele>
        <time>2018-03-16T10:02:06Z</time>
      </trkpt>
      <trkpt lat="46.67168" lon="-1.84972">
        <ele>18</ele>
        <time>2018-03-16T10:03:06Z</time>
      </trkpt>
      <trkpt lat="46.67166" lon="-1.84956">
        <ele>18</ele>
        <time>2018-03-16T10:04:06Z</time>
      </trkpt>
      <trkpt lat="46.67165" lon="-1.84941">
        <ele>18</ele>
        <time>2018-03-16T10:05:06Z</time>
      </trkpt>
      <trkpt lat="46.67164" lon="-1.84926">
        <ele>18</ele>
        <time>2018-03-16T10:06:06Z</time>
      </trkpt>
      <trkpt lat="46.67164" lon="-1.84898">
        <ele>18</ele>
        <time>2018-03-16T10:07:06Z</time>
      </trkpt>
      <trkpt lat="46.67164" lon="-1.84883">
        <ele>18</ele>
        <time>2018-03-16T10:08:06Z</time>
      </trkpt>
      <trkpt lat="46.67165" lon="-1.84868">
        <ele>18</ele>
        <time>2018-03-16T10:09:06Z</time>
      </trkpt>
      <trkpt lat="46.67167" lon="-1.8484">
        <ele>18</ele>
        <time>2018-03-16T10:10:06Z</time>
      </trkpt>
      <trkpt lat="46.67171" lon="-1.84811">
        <ele>18</ele>
        <time>2018-03-16T10:11:06Z</time>
      </trkpt>
      <trkpt lat="46.67175" lon="-1.8478">
        <ele>19</ele>
        <time>2018-03-16T10:12:06Z</time>
      </trkpt>
      <trkpt lat="46.67175" lon="-1.84769">
        <ele>19</ele>
        <time>2018-03-16T10:13:06Z</time>
      </trkpt>
      <trkpt lat="46.67182" lon="-1.84714">
        <ele>20</ele>
        <time>2018-03-16T10:14:06Z</time>
      </trkpt>
      <trkpt lat="46.67191" lon="-1.84651">
        <ele>20</ele>
        <time>2018-03-16T10:15:06Z</time>
      </trkpt>
      <trkpt lat="46.67198" lon="-1.84599">
        <ele>20</ele>
        <time>2018-03-16T10:16:06Z</time>
      </trkpt>
      <trkpt lat="46.67205" lon="-1.84549">
        <ele>20</ele>
        <time>2018-03-16T10:17:06Z</time>
      </trkpt>
      <trkpt lat="46.67212" lon="-1.84497">
        <ele>21</ele>
        <time>2018-03-16T10:18:06Z</time>
      </trkpt>
      <trkpt lat="46.67219" lon="-1.84446">
        <ele>21</ele>
        <time>2018-03-16T10:19:06Z</time>
      </trkpt>
      <trkpt lat="46.67224" lon="-1.84411">
        <ele>21</ele>
        <time>2018-03-16T10:20:06Z</time>
      </trkpt>
      <trkpt lat="46.67226" lon="-1.84398">
        <ele>21</ele>
        <time>2018-03-16T10:21:06Z</time>
      </trkpt>
      <trkpt lat="46.6723" lon="-1.84361">
        <ele>21</ele>
        <time>2018-03-16T10:22:06Z</time>
      </trkpt>
      <trkpt lat="46.67237" lon="-1.84309">
        <ele>22</ele>
        <time>2018-03-16T10:23:06Z</time>
      </trkpt>
      <trkpt lat="46.67241" lon="-1.84276">
        <ele>22</ele>
        <time>2018-03-16T10:24:06Z</time>
      </trkpt>
      <trkpt lat="46.67245" lon="-1.84242">
        <ele>22</ele>
        <time>2018-03-16T10:25:06Z</time>
      </trkpt>
      <trkpt lat="46.67247" lon="-1.84225">
        <ele>21</ele>
        <time>2018-03-16T10:26:06Z</time>
      </trkpt>
      <trkpt lat="46.67248" lon="-1.84207">
        <ele>21</ele>
        <time>2018-03-16T10:27:06Z</time>
      </trkpt>
      <trkpt lat="46.6725" lon="-1.84185">
        <ele>20</ele>
        <time>2018-03-16T10:28:06Z</time>
      </trkpt>
      <trkpt lat="46.67251" lon="-1.84138">
        <ele>20</ele>
        <time>2018-03-16T10:29:06Z</time>
      </trkpt>
      <trkpt lat="46.67252" lon="-1.84121">
        <ele>20</ele>
        <time>2018-03-16T10:30:06Z</time>
      </trkpt>
      <trkpt lat="46.67254" lon="-1.84058">
        <ele>21</ele>
        <time>2018-03-16T10:31:06Z</time>
      </trkpt>
      <trkpt lat="46.67256" lon="-1.83985">
        <ele>22</ele>
        <time>2018-03-16T10:32:06Z</time>
      </trkpt>
      <trkpt lat="46.67257" lon="-1.83925">
        <ele>23</ele>
        <time>2018-03-16T10:33:06Z</time>
      </trkpt>
      <trkpt lat="46.67257" lon="-1.83897">
        <ele>23</ele>
        <time>2018-03-16T10:34:06Z</time>
      </trkpt>
      <trkpt lat="46.67256" lon="-1.83874">
        <ele>23</ele>
        <time>2018-03-16T10:35:06Z</time>
      </trkpt>
      <trkpt lat="46.67254" lon="-1.83845">
        <ele>23</ele>
        <time>2018-03-16T10:36:06Z</time>
      </trkpt>
      <trkpt lat="46.67252" lon="-1.83824">
        <ele>23</ele>
        <time>2018-03-16T10:37:06Z</time>
      </trkpt>
      <trkpt lat="46.67252" lon="-1.8382">
        <ele>23</ele>
        <time>2018-03-16T10:38:06Z</time>
      </trkpt>
      <trkpt lat="46.67251" lon="-1.83814">
        <ele>23</ele>
        <time>2018-03-16T10:39:06Z</time>
      </trkpt>
      <trkpt lat="46.67246" lon="-1.83765">
        <ele>23</ele>
        <time>2018-03-16T10:40:06Z</time>
      </trkpt>
      <trkpt lat="46.67241" lon="-1.83718">
        <ele>22</ele>
        <time>2018-03-16T10:41:06Z</time>
      </trkpt>
      <trkpt lat="46.67236" lon="-1.83657">
        <ele>21</ele>
        <time>2018-03-16T10:42:06Z</time>
      </trkpt>
      <trkpt lat="46.67229" lon="-1.83588">
        <ele>20</ele>
        <time>2018-03-16T10:43:06Z</time>
      </trkpt>
      <trkpt lat="46.67226" lon="-1.83557">
        <ele>20</ele>
        <time>2018-03-16T10:44:06Z</time>
      </trkpt>
      <trkpt lat="46.67223" lon="-1.8354">
        <ele>20</ele>
        <time>2018-03-16T10:45:06Z</time>
      </trkpt>
      <trkpt lat="46.67218" lon="-1.83519">
        <ele>20</ele>
        <time>2018-03-16T10:46:06Z</time>
      </trkpt>
      <trkpt lat="46.67214" lon="-1.83501">
        <ele>21</ele>
        <time>2018-03-16T10:47:06Z</time>
      </trkpt>
      <trkpt lat="46.67207" lon="-1.83477">
        <ele>21</ele>
        <time>2018-03-16T10:48:06Z</time>
      </trkpt>
      <trkpt lat="46.67201" lon="-1.83461">
        <ele>21</ele>
        <time>2018-03-16T10:49:06Z</time>
      </trkpt>
      <trkpt lat="46.67196" lon="-1.83446">
        <ele>21</ele>
        <time>2018-03-16T10:50:06Z</time>
      </trkpt>
      <trkpt lat="46.67186" lon="-1.83413">
        <ele>21</ele>
        <time>2018-03-16T10:51:06Z</time>
      </trkpt>
      <trkpt lat="46.67174" lon="-1.83374">
        <ele>22</ele>
        <time>2018-03-16T10:52:06Z</time>
      </trkpt>
      <trkpt lat="46.6716" lon="-1.83332">
        <ele>23</ele>
        <time>2018-03-16T10:53:06Z</time>
      </trkpt>
      <trkpt lat="46.67147" lon="-1.83295">
        <ele>22</ele>
        <time>2018-03-16T10:54:06Z</time>
      </trkpt>
      <trkpt lat="46.67135" lon="-1.83267">
        <ele>22</ele>
        <time>2018-03-16T10:55:06Z</time>
      </trkpt>
      <trkpt lat="46.6712" lon="-1.8323">
        <ele>22</ele>
        <time>2018-03-16T10:56:06Z</time>
      </trkpt>
      <trkpt lat="46.67104" lon="-1.83196">
        <ele>21</ele>
        <time>2018-03-16T10:57:06Z</time>
      </trkpt>
      <trkpt lat="46.67088" lon="-1.83161">
        <ele>21</ele>
        <time>2018-03-16T10:58:06Z</time>
      </trkpt>
      <trkpt lat="46.67068" lon="-1.83121">
        <ele>20</ele>
        <time>2018-03-16T10:59:06Z</time>
      </trkpt>
      <trkpt lat="46.67064" lon="-1.83112">
        <ele>20</ele>
        <time>2018-03-16T11:00:06Z</time>
      </trkpt>
      <trkpt lat="46.67063" lon="-1.83109">
        <ele>20</ele>
        <time>2018-03-16T11:01:06Z</time>
      </trkpt>
      <trkpt lat="46.67051" lon="-1.83086">
        <ele>19</ele>
        <time>2018-03-16T11:02:06Z</time>
      </trkpt>
      <trkpt lat="46.6704" lon="-1.83062">
        <ele>19</ele>
        <time>2018-03-16T11:03:06Z</time>
      </trkpt>
      <trkpt lat="46.67035" lon="-1.8305">
        <ele>18</ele>
        <time>2018-03-16T11:04:06Z</time>
      </trkpt>
      <trkpt lat="46.6703" lon="-1.83036">
        <ele>18</ele>
        <time>2018-03-16T11:05:06Z</time>
      </trkpt>
      <trkpt lat="46.67022" lon="-1.8301">
        <ele>18</ele>
        <time>2018-03-16T11:06:06Z</time>
      </trkpt>
      <trkpt lat="46.67014" lon="-1.82981">
        <ele>18</ele>
        <time>2018-03-16T11:07:06Z</time>
      </trkpt>
      <trkpt lat="46.67012" lon="-1.82975">
        <ele>18</ele>
        <time>2018-03-16T11:08:06Z</time>
      </trkpt>
      <trkpt lat="46.67012" lon="-1.82973">
        <ele>18</ele>
        <time>2018-03-16T11:09:06Z</time>
      </trkpt>
      <trkpt lat="46.67007" lon="-1.82957">
        <ele>18</ele>
        <time>2018-03-16T11:10:06Z</time>
      </trkpt>
      <trkpt lat="46.67005" lon="-1.82947">
        <ele>18</ele>
        <time>2018-03-16T11:11:06Z</time>
      </trkpt>
      <trkpt lat="46.67001" lon="-1.8293">
        <ele>18</ele>
        <time>2018-03-16T11:12:06Z</time>
      </trkpt>
      <trkpt lat="46.66997" lon="-1.82913">
        <ele>18</ele>
        <time>2018-03-16T11:13:06Z</time>
      </trkpt>
      <trkpt lat="46.66996" lon="-1.82904">
        <ele>18</ele>
        <time>2018-03-16T11:14:06Z</time>
      </trkpt>
      <trkpt lat="46.66995" lon="-1.82892">
        <ele>18</ele>
        <time>2018-03-16T11:15:06Z</time>
      </trkpt>
      <trkpt lat="46.66995" lon="-1.82876">
        <ele>18</ele>
        <time>2018-03-16T11:16:06Z</time>
      </trkpt>
      <trkpt lat="46.66995" lon="-1.82867">
        <ele>18</ele>
        <time>2018-03-16T11:17:06Z</time>
      </trkpt>
      <trkpt lat="46.66995" lon="-1.8286">
        <ele>18</ele>
        <time>2018-03-16T11:18:06Z</time>
      </trkpt>
      <trkpt lat="46.66995" lon="-1.82856">
        <ele>18</ele>
        <time>2018-03-16T11:19:06Z</time>
      </trkpt>
      <trkpt lat="46.66996" lon="-1.8285">
        <ele>18</ele>
        <time>2018-03-16T11:20:06Z</time>
      </trkpt>
      <trkpt lat="46.66997" lon="-1.82846">
        <ele>18</ele>
        <time>2018-03-16T11:21:06Z</time>
      </trkpt>
      <trkpt lat="46.67002" lon="-1.82833">
        <ele>18</ele>
        <time>2018-03-16T11:22:06Z</time>
      </trkpt>
      <trkpt lat="46.6701" lon="-1.82811">
        <ele>18</ele>
        <time>2018-03-16T11:23:06Z</time>
      </trkpt>
      <trkpt lat="46.67016" lon="-1.82794">
        <ele>18</ele>
        <time>2018-03-16T11:24:06Z</time>
      </trkpt>
      <trkpt lat="46.67021" lon="-1.82782">
        <ele>18</ele>
        <time>2018-03-16T11:25:06Z</time>
      </trkpt>
      <trkpt lat="46.67025" lon="-1.82771">
        <ele>18</ele>
        <time>2018-03-16T11:26:06Z</time>
      </trkpt>
      <trkpt lat="46.67029" lon="-1.82759">
        <ele>18</ele>
        <time>2018-03-16T11:27:06Z</time>
      </trkpt>
      <trkpt lat="46.67034" lon="-1.8274">
        <ele>19</ele>
        <time>2018-03-16T11:28:06Z</time>
      </trkpt>
      <trkpt lat="46.67039" lon="-1.82724">
        <ele>20</ele>
        <time>2018-03-16T11:29:06Z</time>
      </trkpt>
      <trkpt lat="46.67042" lon="-1.82709">
        <ele>20</ele>
        <time>2018-03-16T11:30:06Z</time>
      </trkpt>
      <trkpt lat="46.67043" lon="-1.82709">
        <ele>21</ele>
        <time>2018-03-16T11:31:06Z</time>
      </trkpt>
      <trkpt lat="46.67045" lon="-1.82699">
        <ele>21</ele>
        <time>2018-03-16T11:32:06Z</time>
      </trkpt>
      <trkpt lat="46.67045" lon="-1.82694">
        <ele>21</ele>
        <time>2018-03-16T11:33:06Z</time>
      </trkpt>
      <trkpt lat="46.67045" lon="-1.82694">
        <ele>21</ele>
        <time>2018-03-16T11:34:06Z</time>
      </trkpt>
      <trkpt lat="46.67045" lon="-1.82687">
        <ele>22</ele>
        <time>2018-03-16T11:35:06Z</time>
      </trkpt>
      <trkpt lat="46.67048" lon="-1.82684">
        <ele>22</ele>
        <time>2018-03-16T11:36:06Z</time>
      </trkpt>
      <trkpt lat="46.67059" lon="-1.82675">
        <ele>22</ele>
        <time>2018-03-16T11:37:06Z</time>
      </trkpt>
      <trkpt lat="46.67059" lon="-1.82675">
        <ele>22</ele>
        <time>2018-03-16T11:38:06Z</time>
      </trkpt>
      <trkpt lat="46.6706" lon="-1.82674">
        <ele>22</ele>
        <time>2018-03-16T11:39:06Z</time>
      </trkpt>
      <trkpt lat="46.6706" lon="-1.82673">
        <ele>22</ele>
        <time>2018-03-16T11:40:06Z</time>
      </trkpt>
      <trkpt lat="46.6706" lon="-1.82672">
        <ele>22</ele>
        <time>2018-03-16T11:41:06Z</time>
      </trkpt>
      <trkpt lat="46.6706" lon="-1.82671">
        <ele>23</ele>
        <time>2018-03-16T11:42:06Z</time>
      </trkpt>
      <trkpt lat="46.67061" lon="-1.8267">
        <ele>23</ele>
        <time>2018-03-16T11:43:06Z</time>
      </trkpt>
      <trkpt lat="46.67061" lon="-1.82669">
        <ele>23</ele>
        <time>2018-03-16T11:44:06Z</time>
      </trkpt>
      <trkpt lat="46.67061" lon="-1.82668">
        <ele>23</ele>
        <time>2018-03-16T11:45:06Z</time>
      </trkpt>
      <trkpt lat="46.67062" lon="-1.82667">
        <ele>23</ele>
        <time>2018-03-16T11:46:06Z</time>
      </trkpt>
      <trkpt lat="46.67063" lon="-1.82666">
        <ele>23</ele>
        <time>2018-03-16T11:47:06Z</time>
      </trkpt>
      <trkpt lat="46.67063" lon="-1.82665">
        <ele>23</ele>
        <time>2018-03-16T11:48:06Z</time>
      </trkpt>
      <trkpt lat="46.67064" lon="-1.82665">
        <ele>23</ele>
        <time>2018-03-16T11:49:06Z</time>
      </trkpt>
      <trkpt lat="46.67064" lon="-1.82664">
        <ele>23</ele>
        <time>2018-03-16T11:50:06Z</time>
      </trkpt>
      <trkpt lat="46.67065" lon="-1.82663">
        <ele>23</ele>
        <time>2018-03-16T11:51:06Z</time>
      </trkpt>
      <trkpt lat="46.67066" lon="-1.82663">
        <ele>23</ele>
        <time>2018-03-16T11:52:06Z</time>
      </trkpt>
      <trkpt lat="46.67067" lon="-1.82662">
        <ele>23</ele>
        <time>2018-03-16T11:53:06Z</time>
      </trkpt>
      <trkpt lat="46.67068" lon="-1.82662">
        <ele>23</ele>
        <time>2018-03-16T11:54:06Z</time>
      </trkpt>
      <trkpt lat="46.67069" lon="-1.82662">
        <ele>23</ele>
        <time>2018-03-16T11:55:06Z</time>
      </trkpt>
      <trkpt lat="46.67069" lon="-1.82661">
        <ele>23</ele>
        <time>2018-03-16T11:56:06Z</time>
      </trkpt>
      <trkpt lat="46.6707" lon="-1.82661">
        <ele>23</ele>
        <time>2018-03-16T11:57:06Z</time>
      </trkpt>
      <trkpt lat="46.67074" lon="-1.82649">
        <ele>24</ele>
        <time>2018-03-16T11:58:06Z</time>
      </trkpt>
      <trkpt lat="46.67077" lon="-1.82641">
        <ele>24</ele>
        <time>2018-03-16T11:59:06Z</time>
      </trkpt>
      <trkpt lat="46.67078" lon="-1.82634">
        <ele>25</ele>
        <time>2018-03-16T12:00:06Z</time>
      </trkpt>
      <trkpt lat="46.67079" lon="-1.82617">
        <ele>25</ele>
        <time>2018-03-16T12:01:06Z</time>
      </trkpt>
      <trkpt lat="46.6708" lon="-1.82612">
        <ele>26</ele>
        <time>2018-03-16T12:02:06Z</time>
      </trkpt>
      <trkpt lat="46.6708" lon="-1.82607">
        <ele>26</ele>
        <time>2018-03-16T12:03:06Z</time>
      </trkpt>
      <trkpt lat="46.67082" lon="-1.82601">
        <ele>26</ele>
        <time>2018-03-16T12:04:06Z</time>
      </trkpt>
      <trkpt lat="46.67084" lon="-1.82595">
        <ele>26</ele>
        <time>2018-03-16T12:05:06Z</time>
      </trkpt>
      <trkpt lat="46.67086" lon="-1.82589">
        <ele>27</ele>
        <time>2018-03-16T12:06:06Z</time>
      </trkpt>
      <trkpt lat="46.67088" lon="-1.82583">
        <ele>27</ele>
        <time>2018-03-16T12:07:06Z</time>
      </trkpt>
      <trkpt lat="46.67092" lon="-1.82577">
        <ele>27</ele>
        <time>2018-03-16T12:08:06Z</time>
      </trkpt>
      <trkpt lat="46.67098" lon="-1.82565">
        <ele>28</ele>
        <time>2018-03-16T12:09:06Z</time>
      </trkpt>
      <trkpt lat="46.67106" lon="-1.82553">
        <ele>29</ele>
        <time>2018-03-16T12:10:06Z</time>
      </trkpt>
      <trkpt lat="46.67113" lon="-1.82541">
        <ele>29</ele>
        <time>2018-03-16T12:11:06Z</time>
      </trkpt>
      <trkpt lat="46.67128" lon="-1.82518">
        <ele>30</ele>
        <time>2018-03-16T12:12:06Z</time>
      </trkpt>
      <trkpt lat="46.67136" lon="-1.82506">
        <ele>31</ele>
        <time>2018-03-16T12:13:06Z</time>
      </trkpt>
      <trkpt lat="46.67143" lon="-1.82493">
        <ele>31</ele>
        <time>2018-03-16T12:14:06Z</time>
      </trkpt>
      <trkpt lat="46.67149" lon="-1.8248">
        <ele>31</ele>
        <time>2018-03-16T12:15:06Z</time>
      </trkpt>
      <trkpt lat="46.67158" lon="-1.82461">
        <ele>31</ele>
        <time>2018-03-16T12:16:06Z</time>
      </trkpt>
      <trkpt lat="46.67172" lon="-1.82433">
        <ele>31</ele>
        <time>2018-03-16T12:17:06Z</time>
      </trkpt>
      <trkpt lat="46.67192" lon="-1.8239">
        <ele>32</ele>
        <time>2018-03-16T12:18:06Z</time>
      </trkpt>
      <trkpt lat="46.67207" lon="-1.82355">
        <ele>32</ele>
        <time>2018-03-16T12:19:06Z</time>
      </trkpt>
      <trkpt lat="46.67223" lon="-1.82319">
        <ele>32</ele>
        <time>2018-03-16T12:20:06Z</time>
      </trkpt>
      <trkpt lat="46.67229" lon="-1.82304">
        <ele>32</ele>
        <time>2018-03-16T12:21:06Z</time>
      </trkpt>
      <trkpt lat="46.67235" lon="-1.82289">
        <ele>32</ele>
        <time>2018-03-16T12:22:06Z</time>
      </trkpt>
      <trkpt lat="46.67245" lon="-1.82267">
        <ele>32</ele>
        <time>2018-03-16T12:23:06Z</time>
      </trkpt>
      <trkpt lat="46.67251" lon="-1.82252">
        <ele>32</ele>
        <time>2018-03-16T12:24:06Z</time>
      </trkpt>
      <trkpt lat="46.67261" lon="-1.8223">
        <ele>32</ele>
        <time>2018-03-16T12:25:06Z</time>
      </trkpt>
      <trkpt lat="46.6727" lon="-1.82207">
        <ele>32</ele>
        <time>2018-03-16T12:26:06Z</time>
      </trkpt>
      <trkpt lat="46.6728" lon="-1.82178">
        <ele>32</ele>
        <time>2018-03-16T12:27:06Z</time>
      </trkpt>
      <trkpt lat="46.67285" lon="-1.82162">
        <ele>32</ele>
        <time>2018-03-16T12:28:06Z</time>
      </trkpt>
      <trkpt lat="46.6729" lon="-1.82148">
        <ele>32</ele>
        <time>2018-03-16T12:29:06Z</time>
      </trkpt>
      <trkpt lat="46.67305" lon="-1.82105">
        <ele>32</ele>
        <time>2018-03-16T12:30:06Z</time>
      </trkpt>
      <trkpt lat="46.6731" lon="-1.8209">
        <ele>32</ele>
        <time>2018-03-16T12:31:06Z</time>
      </trkpt>
      <trkpt lat="46.67317" lon="-1.82062">
        <ele>33</ele>
        <time>2018-03-16T12:32:06Z</time>
      </trkpt>
      <trkpt lat="46.67327" lon="-1.82026">
        <ele>33</ele>
        <time>2018-03-16T12:33:06Z</time>
      </trkpt>
      <trkpt lat="46.6733" lon="-1.82015">
        <ele>33</ele>
        <time>2018-03-16T12:34:06Z</time>
      </trkpt>
      <trkpt lat="46.67337" lon="-1.81992">
        <ele>33</ele>
        <time>2018-03-16T12:35:06Z</time>
      </trkpt>
      <trkpt lat="46.67347" lon="-1.8196">
        <ele>33</ele>
        <time>2018-03-16T12:36:06Z</time>
      </trkpt>
      <trkpt lat="46.67353" lon="-1.81943">
        <ele>33</ele>
        <time>2018-03-16T12:37:06Z</time>
      </trkpt>
      <trkpt lat="46.67364" lon="-1.81917">
        <ele>32</ele>
        <time>2018-03-16T12:38:06Z</time>
      </trkpt>
      <trkpt lat="46.67373" lon="-1.81897">
        <ele>32</ele>
        <time>2018-03-16T12:39:06Z</time>
      </trkpt>
      <trkpt lat="46.67386" lon="-1.81865">
        <ele>32</ele>
        <time>2018-03-16T12:40:06Z</time>
      </trkpt>
      <trkpt lat="46.67391" lon="-1.81851">
        <ele>32</ele>
        <time>2018-03-16T12:41:06Z</time>
      </trkpt>
      <trkpt lat="46.67395" lon="-1.81838">
        <ele>32</ele>
        <time>2018-03-16T12:42:06Z</time>
      </trkpt>
      <trkpt lat="46.67399" lon="-1.81824">
        <ele>32</ele>
        <time>2018-03-16T12:43:06Z</time>
      </trkpt>
      <trkpt lat="46.67402" lon="-1.81808">
        <ele>32</ele>
        <time>2018-03-16T12:44:06Z</time>
      </trkpt>
      <trkpt lat="46.67406" lon="-1.81783">
        <ele>32</ele>
        <time>2018-03-16T12:45:06Z</time>
      </trkpt>
      <trkpt lat="46.6741" lon="-1.8174">
        <ele>32</ele>
        <time>2018-03-16T12:46:06Z</time>
      </trkpt>
      <trkpt lat="46.67414" lon="-1.81695">
        <ele>32</ele>
        <time>2018-03-16T12:47:06Z</time>
      </trkpt>
      <trkpt lat="46.67416" lon="-1.81674">
        <ele>32</ele>
        <time>2018-03-16T12:48:06Z</time>
      </trkpt>
      <trkpt lat="46.67418" lon="-1.81652">
        <ele>32</ele>
        <time>2018-03-16T12:49:06Z</time>
      </trkpt>
      <trkpt lat="46.67422" lon="-1.81623">
        <ele>32</ele>
        <time>2018-03-16T12:50:06Z</time>
      </trkpt>
      <trkpt lat="46.67426" lon="-1.81595">
        <ele>32</ele>
        <time>2018-03-16T12:51:06Z</time>
      </trkpt>
      <trkpt lat="46.67432" lon="-1.81568">
        <ele>33</ele>
        <time>2018-03-16T12:52:06Z</time>
      </trkpt>
      <trkpt lat="46.67442" lon="-1.81528">
        <ele>34</ele>
        <time>2018-03-16T12:53:06Z</time>
      </trkpt>
      <trkpt lat="46.67449" lon="-1.81501">
        <ele>35</ele>
        <time>2018-03-16T12:54:06Z</time>
      </trkpt>
      <trkpt lat="46.67457" lon="-1.81468">
        <ele>35</ele>
        <time>2018-03-16T12:55:06Z</time>
      </trkpt>
      <trkpt lat="46.67465" lon="-1.81438">
        <ele>35</ele>
        <time>2018-03-16T12:56:06Z</time>
      </trkpt>
      <trkpt lat="46.67471" lon="-1.8142">
        <ele>35</ele>
        <time>2018-03-16T12:57:06Z</time>
      </trkpt>
      <trkpt lat="46.67481" lon="-1.81393">
        <ele>35</ele>
        <time>2018-03-16T12:58:06Z</time>
      </trkpt>
      <trkpt lat="46.67488" lon="-1.8137">
        <ele>35</ele>
        <time>2018-03-16T12:59:06Z</time>
      </trkpt>
      <trkpt lat="46.67493" lon="-1.81347">
        <ele>35</ele>
        <time>2018-03-16T13:00:06Z</time>
      </trkpt>
      <trkpt lat="46.67498" lon="-1.81323">
        <ele>35</ele>
        <time>2018-03-16T13:01:06Z</time>
      </trkpt>
      <trkpt lat="46.67501" lon="-1.81301">
        <ele>35</ele>
        <time>2018-03-16T13:02:06Z</time>
      </trkpt>
      <trkpt lat="46.67503" lon="-1.81276">
        <ele>36</ele>
        <time>2018-03-16T13:03:06Z</time>
      </trkpt>
      <trkpt lat="46.67504" lon="-1.81254">
        <ele>36</ele>
        <time>2018-03-16T13:04:06Z</time>
      </trkpt>
      <trkpt lat="46.67504" lon="-1.81229">
        <ele>36</ele>
        <time>2018-03-16T13:05:06Z</time>
      </trkpt>
      <trkpt lat="46.67505" lon="-1.81206">
        <ele>35</ele>
        <time>2018-03-16T13:06:06Z</time>
      </trkpt>
      <trkpt lat="46.67505" lon="-1.81181">
        <ele>34</ele>
        <time>2018-03-16T13:07:06Z</time>
      </trkpt>
      <trkpt lat="46.67506" lon="-1.81156">
        <ele>34</ele>
        <time>2018-03-16T13:08:06Z</time>
      </trkpt>
      <trkpt lat="46.67506" lon="-1.81131">
        <ele>33</ele>
        <time>2018-03-16T13:09:06Z</time>
      </trkpt>
      <trkpt lat="46.67508" lon="-1.81105">
        <ele>32</ele>
        <time>2018-03-16T13:10:06Z</time>
      </trkpt>
      <trkpt lat="46.67511" lon="-1.81078">
        <ele>31</ele>
        <time>2018-03-16T13:11:06Z</time>
      </trkpt>
      <trkpt lat="46.67514" lon="-1.81053">
        <ele>32</ele>
        <time>2018-03-16T13:12:06Z</time>
      </trkpt>
      <trkpt lat="46.67518" lon="-1.81026">
        <ele>32</ele>
        <time>2018-03-16T13:13:06Z</time>
      </trkpt>
      <trkpt lat="46.67521" lon="-1.81013">
        <ele>32</ele>
        <time>2018-03-16T13:14:06Z</time>
      </trkpt>
      <trkpt lat="46.67525" lon="-1.80989">
        <ele>33</ele>
        <time>2018-03-16T13:15:06Z</time>
      </trkpt>
      <trkpt lat="46.67545" lon="-1.80903">
        <ele>35</ele>
        <time>2018-03-16T13:16:06Z</time>
      </trkpt>
      <trkpt lat="46.67555" lon="-1.80865">
        <ele>35</ele>
        <time>2018-03-16T13:17:06Z</time>
      </trkpt>
      <trkpt lat="46.67562" lon="-1.80834">
        <ele>35</ele>
        <time>2018-03-16T13:18:06Z</time>
      </trkpt>
      <trkpt lat="46.67565" lon="-1.80813">
        <ele>36</ele>
        <time>2018-03-16T13:19:06Z</time>
      </trkpt>
      <trkpt lat="46.67569" lon="-1.80785">
        <ele>36</ele>
        <time>2018-03-16T13:20:06Z</time>
      </trkpt>
      <trkpt lat="46.67571" lon="-1.80759">
        <ele>36</ele>
        <time>2018-03-16T13:21:06Z</time>
      </trkpt>
      <trkpt lat="46.67573" lon="-1.80732">
        <ele>36</ele>
        <time>2018-03-16T13:22:06Z</time>
      </trkpt>
      <trkpt lat="46.67573" lon="-1.80715">
        <ele>36</ele>
        <time>2018-03-16T13:23:06Z</time>
      </trkpt>
      <trkpt lat="46.67572" lon="-1.80697">
        <ele>37</ele>
        <time>2018-03-16T13:24:06Z</time>
      </trkpt>
      <trkpt lat="46.67571" lon="-1.80684">
        <ele>37</ele>
        <time>2018-03-16T13:25:06Z</time>
      </trkpt>
      <trkpt lat="46.6757" lon="-1.80645">
        <ele>37</ele>
        <time>2018-03-16T13:26:06Z</time>
      </trkpt>
      <trkpt lat="46.67571" lon="-1.80611">
        <ele>38</ele>
        <time>2018-03-16T13:27:06Z</time>
      </trkpt>
      <trkpt lat="46.67571" lon="-1.80579">
        <ele>38</ele>
        <time>2018-03-16T13:28:06Z</time>
      </trkpt>
      <trkpt lat="46.67572" lon="-1.80542">
        <ele>37</ele>
        <time>2018-03-16T13:29:06Z</time>
      </trkpt>
      <trkpt lat="46.67572" lon="-1.80522">
        <ele>37</ele>
        <time>2018-03-16T13:30:06Z</time>
      </trkpt>
      <trkpt lat="46.67571" lon="-1.80495">
        <ele>37</ele>
        <time>2018-03-16T13:31:06Z</time>
      </trkpt>
      <trkpt lat="46.67571" lon="-1.80464">
        <ele>37</ele>
        <time>2018-03-16T13:32:06Z</time>
      </trkpt>
      <trkpt lat="46.67571" lon="-1.80439">
        <ele>37</ele>
        <time>2018-03-16T13:33:06Z</time>
      </trkpt>
      <trkpt lat="46.6757" lon="-1.80409">
        <ele>37</ele>
        <time>2018-03-16T13:34:06Z</time>
      </trkpt>
      <trkpt lat="46.6757" lon="-1.80378">
        <ele>37</ele>
        <time>2018-03-16T13:35:06Z</time>
      </trkpt>
      <trkpt lat="46.6757" lon="-1.80352">
        <ele>37</ele>
        <time>2018-03-16T13:36:06Z</time>
      </trkpt>
      <trkpt lat="46.67569" lon="-1.80328">
        <ele>37</ele>
        <time>2018-03-16T13:37:06Z</time>
      </trkpt>
      <trkpt lat="46.67569" lon="-1.8031">
        <ele>37</ele>
        <time>2018-03-16T13:38:06Z</time>
      </trkpt>
      <trkpt lat="46.67566" lon="-1.80289">
        <ele>36</ele>
        <time>2018-03-16T13:39:06Z</time>
      </trkpt>
      <trkpt lat="46.67564" lon="-1.80267">
        <ele>36</ele>
        <time>2018-03-16T13:40:06Z</time>
      </trkpt>
      <trkpt lat="46.67559" lon="-1.80243">
        <ele>36</ele>
        <time>2018-03-16T13:41:06Z</time>
      </trkpt>
      <trkpt lat="46.67555" lon="-1.80217">
        <ele>36</ele>
        <time>2018-03-16T13:42:06Z</time>
      </trkpt>
      <trkpt lat="46.67551" lon="-1.80193">
        <ele>36</ele>
        <time>2018-03-16T13:43:06Z</time>
      </trkpt>
      <trkpt lat="46.67549" lon="-1.80168">
        <ele>37</ele>
        <time>2018-03-16T13:44:06Z</time>
      </trkpt>
      <trkpt lat="46.67548" lon="-1.8014">
        <ele>37</ele>
        <time>2018-03-16T13:45:06Z</time>
      </trkpt>
      <trkpt lat="46.67548" lon="-1.80112">
        <ele>38</ele>
        <time>2018-03-16T13:46:06Z</time>
      </trkpt>
      <trkpt lat="46.67549" lon="-1.80084">
        <ele>38</ele>
        <time>2018-03-16T13:47:06Z</time>
      </trkpt>
      <trkpt lat="46.6755" lon="-1.80059">
        <ele>38</ele>
        <time>2018-03-16T13:48:06Z</time>
      </trkpt>
      <trkpt lat="46.67553" lon="-1.80032">
        <ele>39</ele>
        <time>2018-03-16T13:49:06Z</time>
      </trkpt>
      <trkpt lat="46.67553" lon="-1.80026">
        <ele>39</ele>
        <time>2018-03-16T13:50:06Z</time>
      </trkpt>
      <trkpt lat="46.67556" lon="-1.79998">
        <ele>39</ele>
        <time>2018-03-16T13:51:06Z</time>
      </trkpt>
      <trkpt lat="46.67558" lon="-1.79986">
        <ele>39</ele>
        <time>2018-03-16T13:52:06Z</time>
      </trkpt>
      <trkpt lat="46.6756" lon="-1.79973">
        <ele>39</ele>
        <time>2018-03-16T13:53:06Z</time>
      </trkpt>
      <trkpt lat="46.67561" lon="-1.79961">
        <ele>40</ele>
        <time>2018-03-16T13:54:06Z</time>
      </trkpt>
      <trkpt lat="46.67568" lon="-1.79939">
        <ele>40</ele>
        <time>2018-03-16T13:55:06Z</time>
      </trkpt>
      <trkpt lat="46.67575" lon="-1.79917">
        <ele>41</ele>
        <time>2018-03-16T13:56:06Z</time>
      </trkpt>
      <trkpt lat="46.67579" lon="-1.79906">
        <ele>41</ele>
        <time>2018-03-16T13:57:06Z</time>
      </trkpt>
      <trkpt lat="46.67583" lon="-1.79895">
        <ele>41</ele>
        <time>2018-03-16T13:58:06Z</time>
      </trkpt>
      <trkpt lat="46.67589" lon="-1.79878">
        <ele>42</ele>
        <time>2018-03-16T13:59:06Z</time>
      </trkpt>
      <trkpt lat="46.67594" lon="-1.79861">
        <ele>42</ele>
        <time>2018-03-16T14:00:06Z</time>
      </trkpt>
      <trkpt lat="46.67597" lon="-1.79849">
        <ele>42</ele>
        <time>2018-03-16T14:01:06Z</time>
      </trkpt>
      <trkpt lat="46.67599" lon="-1.79837">
        <ele>42</ele>
        <time>2018-03-16T14:02:06Z</time>
      </trkpt>
      <trkpt lat="46.67601" lon="-1.79826">
        <ele>42</ele>
        <time>2018-03-16T14:03:06Z</time>
      </trkpt>
      <trkpt lat="46.67603" lon="-1.79809">
        <ele>42</ele>
        <time>2018-03-16T14:04:06Z</time>
      </trkpt>
      <trkpt lat="46.67604" lon="-1.79787">
        <ele>42</ele>
        <time>2018-03-16T14:05:06Z</time>
      </trkpt>
      <trkpt lat="46.67605" lon="-1.79761">
        <ele>41</ele>
        <time>2018-03-16T14:06:06Z</time>
      </trkpt>
      <trkpt lat="46.67607" lon="-1.79732">
        <ele>41</ele>
        <time>2018-03-16T14:07:06Z</time>
      </trkpt>
      <trkpt lat="46.6761" lon="-1.79707">
        <ele>41</ele>
        <time>2018-03-16T14:08:06Z</time>
      </trkpt>
      <trkpt lat="46.67613" lon="-1.79687">
        <ele>41</ele>
        <time>2018-03-16T14:09:06Z</time>
      </trkpt>
      <trkpt lat="46.6762" lon="-1.79658">
        <ele>40</ele>
        <time>2018-03-16T14:10:06Z</time>
      </trkpt>
      <trkpt lat="46.67625" lon="-1.79639">
        <ele>40</ele>
        <time>2018-03-16T14:11:06Z</time>
      </trkpt>
      <trkpt lat="46.6763" lon="-1.79615">
        <ele>40</ele>
        <time>2018-03-16T14:12:06Z</time>
      </trkpt>
      <trkpt lat="46.67633" lon="-1.79592">
        <ele>40</ele>
        <time>2018-03-16T14:13:06Z</time>
      </trkpt>
      <trkpt lat="46.67634" lon="-1.79568">
        <ele>40</ele>
        <time>2018-03-16T14:14:06Z</time>
      </trkpt>
      <trkpt lat="46.67634" lon="-1.79556">
        <ele>40</ele>
        <time>2018-03-16T14:15:06Z</time>
      </trkpt>
      <trkpt lat="46.67634" lon="-1.79544">
        <ele>40</ele>
        <time>2018-03-16T14:16:06Z</time>
      </trkpt>
      <trkpt lat="46.67631" lon="-1.79521">
        <ele>39</ele>
        <time>2018-03-16T14:17:06Z</time>
      </trkpt>
      <trkpt lat="46.67629" lon="-1.79509">
        <ele>39</ele>
        <time>2018-03-16T14:18:06Z</time>
      </trkpt>
      <trkpt lat="46.67627" lon="-1.79499">
        <ele>39</ele>
        <time>2018-03-16T14:19:06Z</time>
      </trkpt>
      <trkpt lat="46.67623" lon="-1.79488">
        <ele>40</ele>
        <time>2018-03-16T14:20:06Z</time>
      </trkpt>
      <trkpt lat="46.6762" lon="-1.79477">
        <ele>40</ele>
        <time>2018-03-16T14:21:06Z</time>
      </trkpt>
      <trkpt lat="46.67609" lon="-1.7945">
        <ele>40</ele>
        <time>2018-03-16T14:22:06Z</time>
      </trkpt>
      <trkpt lat="46.67599" lon="-1.79426">
        <ele>41</ele>
        <time>2018-03-16T14:23:06Z</time>
      </trkpt>
      <trkpt lat="46.67596" lon="-1.79417">
        <ele>41</ele>
        <time>2018-03-16T14:24:06Z</time>
      </trkpt>
      <trkpt lat="46.67593" lon="-1.79407">
        <ele>41</ele>
        <time>2018-03-16T14:25:06Z</time>
      </trkpt>
      <trkpt lat="46.6759" lon="-1.79398">
        <ele>41</ele>
        <time>2018-03-16T14:26:06Z</time>
      </trkpt>
      <trkpt lat="46.67586" lon="-1.79387">
        <ele>41</ele>
        <time>2018-03-16T14:27:06Z</time>
      </trkpt>
      <trkpt lat="46.67583" lon="-1.79372">
        <ele>42</ele>
        <time>2018-03-16T14:28:06Z</time>
      </trkpt>
      <trkpt lat="46.67581" lon="-1.79355">
        <ele>42</ele>
        <time>2018-03-16T14:29:06Z</time>
      </trkpt>
      <trkpt lat="46.6758" lon="-1.7934">
        <ele>42</ele>
        <time>2018-03-16T14:30:06Z</time>
      </trkpt>
      <trkpt lat="46.6758" lon="-1.79328">
        <ele>42</ele>
        <time>2018-03-16T14:31:06Z</time>
      </trkpt>
      <trkpt lat="46.67579" lon="-1.79279">
        <ele>43</ele>
        <time>2018-03-16T14:32:06Z</time>
      </trkpt>
      <trkpt lat="46.67578" lon="-1.79253">
        <ele>43</ele>
        <time>2018-03-16T14:33:06Z</time>
      </trkpt>
      <trkpt lat="46.67577" lon="-1.79214">
        <ele>43</ele>
        <time>2018-03-16T14:34:06Z</time>
      </trkpt>
      <trkpt lat="46.67576" lon="-1.79175">
        <ele>43</ele>
        <time>2018-03-16T14:35:06Z</time>
      </trkpt>
      <trkpt lat="46.67576" lon="-1.79159">
        <ele>43</ele>
        <time>2018-03-16T14:36:06Z</time>
      </trkpt>
      <trkpt lat="46.67576" lon="-1.79128">
        <ele>42</ele>
        <time>2018-03-16T14:37:06Z</time>
      </trkpt>
      <trkpt lat="46.67575" lon="-1.79106">
        <ele>42</ele>
        <time>2018-03-16T14:38:06Z</time>
      </trkpt>
      <trkpt lat="46.67572" lon="-1.79082">
        <ele>42</ele>
        <time>2018-03-16T14:39:06Z</time>
      </trkpt>
      <trkpt lat="46.67569" lon="-1.79056">
        <ele>41</ele>
        <time>2018-03-16T14:40:06Z</time>
      </trkpt>
      <trkpt lat="46.67565" lon="-1.79025">
        <ele>41</ele>
        <time>2018-03-16T14:41:06Z</time>
      </trkpt>
      <trkpt lat="46.67559" lon="-1.7899">
        <ele>40</ele>
        <time>2018-03-16T14:42:06Z</time>
      </trkpt>
      <trkpt lat="46.67556" lon="-1.78967">
        <ele>39</ele>
        <time>2018-03-16T14:43:06Z</time>
      </trkpt>
      <trkpt lat="46.67551" lon="-1.78936">
        <ele>37</ele>
        <time>2018-03-16T14:44:06Z</time>
      </trkpt>
      <trkpt lat="46.67545" lon="-1.78909">
        <ele>36</ele>
        <time>2018-03-16T14:45:06Z</time>
      </trkpt>
      <trkpt lat="46.6754" lon="-1.78889">
        <ele>36</ele>
        <time>2018-03-16T14:46:06Z</time>
      </trkpt>
      <trkpt lat="46.67532" lon="-1.7886">
        <ele>36</ele>
        <time>2018-03-16T14:47:06Z</time>
      </trkpt>
      <trkpt lat="46.67527" lon="-1.78838">
        <ele>36</ele>
        <time>2018-03-16T14:48:06Z</time>
      </trkpt>
      <trkpt lat="46.67523" lon="-1.78821">
        <ele>36</ele>
        <time>2018-03-16T14:49:06Z</time>
      </trkpt>
      <trkpt lat="46.67515" lon="-1.78791">
        <ele>36</ele>
        <time>2018-03-16T14:50:06Z</time>
      </trkpt>
      <trkpt lat="46.67513" lon="-1.78783">
        <ele>36</ele>
        <time>2018-03-16T14:51:06Z</time>
      </trkpt>
      <trkpt lat="46.67506" lon="-1.78755">
        <ele>36</ele>
        <time>2018-03-16T14:52:06Z</time>
      </trkpt>
      <trkpt lat="46.67499" lon="-1.78726">
        <ele>36</ele>
        <time>2018-03-16T14:53:06Z</time>
      </trkpt>
      <trkpt lat="46.67491" lon="-1.78695">
        <ele>36</ele>
        <time>2018-03-16T14:54:06Z</time>
      </trkpt>
      <trkpt lat="46.67481" lon="-1.78658">
        <ele>36</ele>
        <time>2018-03-16T14:55:06Z</time>
      </trkpt>
      <trkpt lat="46.67471" lon="-1.78619">
        <ele>35</ele>
        <time>2018-03-16T14:56:06Z</time>
      </trkpt>
      <trkpt lat="46.67465" lon="-1.78601">
        <ele>35</ele>
        <time>2018-03-16T14:57:06Z</time>
      </trkpt>
      <trkpt lat="46.67462" lon="-1.78591">
        <ele>35</ele>
        <time>2018-03-16T14:58:06Z</time>
      </trkpt>
      <trkpt lat="46.67457" lon="-1.78584">
        <ele>36</ele>
        <time>2018-03-16T14:59:06Z</time>
      </trkpt>
      <trkpt lat="46.67454" lon="-1.78576">
        <ele>36</ele>
        <time>2018-03-16T15:00:06Z</time>
      </trkpt>
      <trkpt lat="46.6745" lon="-1.7857">
        <ele>36</ele>
        <time>2018-03-16T15:01:06Z</time>
      </trkpt>
      <trkpt lat="46.67448" lon="-1.78566">
        <ele>36</ele>
        <time>2018-03-16T15:02:06Z</time>
      </trkpt>
      <trkpt lat="46.67445" lon="-1.78562">
        <ele>36</ele>
        <time>2018-03-16T15:03:06Z</time>
      </trkpt>
      <trkpt lat="46.67442" lon="-1.78559">
        <ele>36</ele>
        <time>2018-03-16T15:04:06Z</time>
      </trkpt>
      <trkpt lat="46.67435" lon="-1.78542">
        <ele>36</ele>
        <time>2018-03-16T15:05:06Z</time>
      </trkpt>
      <trkpt lat="46.67433" lon="-1.78533">
        <ele>36</ele>
        <time>2018-03-16T15:06:06Z</time>
      </trkpt>
      <trkpt lat="46.67431" lon="-1.78524">
        <ele>36</ele>
        <time>2018-03-16T15:07:06Z</time>
      </trkpt>
      <trkpt lat="46.67421" lon="-1.78499">
        <ele>36</ele>
        <time>2018-03-16T15:08:06Z</time>
      </trkpt>
      <trkpt lat="46.6741" lon="-1.78476">
        <ele>36</ele>
        <time>2018-03-16T15:09:06Z</time>
      </trkpt>
      <trkpt lat="46.67402" lon="-1.78457">
        <ele>37</ele>
        <time>2018-03-16T15:10:06Z</time>
      </trkpt>
      <trkpt lat="46.67389" lon="-1.78426">
        <ele>37</ele>
        <time>2018-03-16T15:11:06Z</time>
      </trkpt>
      <trkpt lat="46.67379" lon="-1.78401">
        <ele>37</ele>
        <time>2018-03-16T15:12:06Z</time>
      </trkpt>
      <trkpt lat="46.67373" lon="-1.78382">
        <ele>37</ele>
        <time>2018-03-16T15:13:06Z</time>
      </trkpt>
      <trkpt lat="46.67368" lon="-1.78363">
        <ele>37</ele>
        <time>2018-03-16T15:14:06Z</time>
      </trkpt>
      <trkpt lat="46.67362" lon="-1.78345">
        <ele>37</ele>
        <time>2018-03-16T15:15:06Z</time>
      </trkpt>
      <trkpt lat="46.67355" lon="-1.78325">
        <ele>37</ele>
        <time>2018-03-16T15:16:06Z</time>
      </trkpt>
      <trkpt lat="46.67351" lon="-1.78317">
        <ele>37</ele>
        <time>2018-03-16T15:17:06Z</time>
      </trkpt>
      <trkpt lat="46.67347" lon="-1.78309">
        <ele>37</ele>
        <time>2018-03-16T15:18:06Z</time>
      </trkpt>
      <trkpt lat="46.67341" lon="-1.78301">
        <ele>37</ele>
        <time>2018-03-16T15:19:06Z</time>
      </trkpt>
      <trkpt lat="46.67336" lon="-1.78294">
        <ele>37</ele>
        <time>2018-03-16T15:20:06Z</time>
      </trkpt>
      <trkpt lat="46.6733" lon="-1.78289">
        <ele>37</ele>
        <time>2018-03-16T15:21:06Z</time>
      </trkpt>
      <trkpt lat="46.67324" lon="-1.78284">
        <ele>37</ele>
        <time>2018-03-16T15:22:06Z</time>
      </trkpt>
      <trkpt lat="46.67315" lon="-1.78278">
        <ele>37</ele>
        <time>2018-03-16T15:23:06Z</time>
      </trkpt>
      <trkpt lat="46.67307" lon="-1.78274">
        <ele>37</ele>
        <time>2018-03-16T15:24:06Z</time>
      </trkpt>
      <trkpt lat="46.67273" lon="-1.78259">
        <ele>37</ele>
        <time>2018-03-16T15:25:06Z</time>
      </trkpt>
      <trkpt lat="46.67251" lon="-1.78249">
        <ele>37</ele>
        <time>2018-03-16T15:26:06Z</time>
      </trkpt>
      <trkpt lat="46.67221" lon="-1.78237">
        <ele>38</ele>
        <time>2018-03-16T15:27:06Z</time>
      </trkpt>
      <trkpt lat="46.67208" lon="-1.7823">
        <ele>38</ele>
        <time>2018-03-16T15:28:06Z</time>
      </trkpt>
      <trkpt lat="46.67201" lon="-1.78226">
        <ele>38</ele>
        <time>2018-03-16T15:29:06Z</time>
      </trkpt>
      <trkpt lat="46.67196" lon="-1.78221">
        <ele>39</ele>
        <time>2018-03-16T15:30:06Z</time>
      </trkpt>
      <trkpt lat="46.67186" lon="-1.78212">
        <ele>39</ele>
        <time>2018-03-16T15:31:06Z</time>
      </trkpt>
      <trkpt lat="46.67181" lon="-1.78202">
        <ele>39</ele>
        <time>2018-03-16T15:32:06Z</time>
      </trkpt>
      <trkpt lat="46.67176" lon="-1.78192">
        <ele>39</ele>
        <time>2018-03-16T15:33:06Z</time>
      </trkpt>
      <trkpt lat="46.67174" lon="-1.78185">
        <ele>40</ele>
        <time>2018-03-16T15:34:06Z</time>
      </trkpt>
      <trkpt lat="46.67172" lon="-1.78177">
        <ele>40</ele>
        <time>2018-03-16T15:35:06Z</time>
      </trkpt>
      <trkpt lat="46.67169" lon="-1.78158">
        <ele>40</ele>
        <time>2018-03-16T15:36:06Z</time>
      </trkpt>
      <trkpt lat="46.67165" lon="-1.78136">
        <ele>40</ele>
        <time>2018-03-16T15:37:06Z</time>
      </trkpt>
      <trkpt lat="46.67161" lon="-1.78106">
        <ele>41</ele>
        <time>2018-03-16T15:38:06Z</time>
      </trkpt>
      <trkpt lat="46.67158" lon="-1.78077">
        <ele>41</ele>
        <time>2018-03-16T15:39:06Z</time>
      </trkpt>
      <trkpt lat="46.67157" lon="-1.7806">
        <ele>41</ele>
        <time>2018-03-16T15:40:06Z</time>
      </trkpt>
      <trkpt lat="46.67155" lon="-1.78038">
        <ele>41</ele>
        <time>2018-03-16T15:41:06Z</time>
      </trkpt>
      <trkpt lat="46.67155" lon="-1.78015">
        <ele>41</ele>
        <time>2018-03-16T15:42:06Z</time>
      </trkpt>
      <trkpt lat="46.67154" lon="-1.77993">
        <ele>41</ele>
        <time>2018-03-16T15:43:06Z</time>
      </trkpt>
      <trkpt lat="46.67152" lon="-1.77971">
        <ele>42</ele>
        <time>2018-03-16T15:44:06Z</time>
      </trkpt>
      <trkpt lat="46.67147" lon="-1.77951">
        <ele>42</ele>
        <time>2018-03-16T15:45:06Z</time>
      </trkpt>
      <trkpt lat="46.6714" lon="-1.77931">
        <ele>42</ele>
        <time>2018-03-16T15:46:06Z</time>
      </trkpt>
      <trkpt lat="46.67132" lon="-1.77911">
        <ele>43</ele>
        <time>2018-03-16T15:47:06Z</time>
      </trkpt>
      <trkpt lat="46.67116" lon="-1.77878">
        <ele>43</ele>
        <time>2018-03-16T15:48:06Z</time>
      </trkpt>
      <trkpt lat="46.67095" lon="-1.77835">
        <ele>43</ele>
        <time>2018-03-16T15:49:06Z</time>
      </trkpt>
      <trkpt lat="46.67069" lon="-1.77781">
        <ele>44</ele>
        <time>2018-03-16T15:50:06Z</time>
      </trkpt>
      <trkpt lat="46.6706" lon="-1.77764">
        <ele>44</ele>
        <time>2018-03-16T15:51:06Z</time>
      </trkpt>
      <trkpt lat="46.67055" lon="-1.77752">
        <ele>44</ele>
        <time>2018-03-16T15:52:06Z</time>
      </trkpt>
      <trkpt lat="46.67054" lon="-1.7775">
        <ele>44</ele>
        <time>2018-03-16T15:53:06Z</time>
      </trkpt>
      <trkpt lat="46.67033" lon="-1.77706">
        <ele>45</ele>
        <time>2018-03-16T15:54:06Z</time>
      </trkpt>
      <trkpt lat="46.67016" lon="-1.77669">
        <ele>45</ele>
        <time>2018-03-16T15:55:06Z</time>
      </trkpt>
      <trkpt lat="46.66998" lon="-1.77631">
        <ele>45</ele>
        <time>2018-03-16T15:56:06Z</time>
      </trkpt>
      <trkpt lat="46.66984" lon="-1.77605">
        <ele>46</ele>
        <time>2018-03-16T15:57:06Z</time>
      </trkpt>
      <trkpt lat="46.66971" lon="-1.77577">
        <ele>46</ele>
        <time>2018-03-16T15:58:06Z</time>
      </trkpt>
      <trkpt lat="46.66962" lon="-1.77558">
        <ele>46</ele>
        <time>2018-03-16T15:59:06Z</time>
      </trkpt>
      <trkpt lat="46.6696" lon="-1.77551">
        <ele>46</ele>
        <time>2018-03-16T16:00:06Z</time>
      </trkpt>
      <trkpt lat="46.66959" lon="-1.77544">
        <ele>46</ele>
        <time>2018-03-16T16:01:06Z</time>
      </trkpt>
      <trkpt lat="46.66958" lon="-1.77537">
        <ele>47</ele>
        <time>2018-03-16T16:02:06Z</time>
      </trkpt>
      <trkpt lat="46.66957" lon="-1.77528">
        <ele>47</ele>
        <time>2018-03-16T16:03:06Z</time>
      </trkpt>
      <trkpt lat="46.66957" lon="-1.7752">
        <ele>47</ele>
        <time>2018-03-16T16:04:06Z</time>
      </trkpt>
      <trkpt lat="46.66957" lon="-1.77515">
        <ele>47</ele>
        <time>2018-03-16T16:05:06Z</time>
      </trkpt>
      <trkpt lat="46.66957" lon="-1.7751">
        <ele>47</ele>
        <time>2018-03-16T16:06:06Z</time>
      </trkpt>
      <trkpt lat="46.66958" lon="-1.77501">
        <ele>47</ele>
        <time>2018-03-16T16:07:06Z</time>
      </trkpt>
      <trkpt lat="46.6696" lon="-1.77493">
        <ele>47</ele>
        <time>2018-03-16T16:08:06Z</time>
      </trkpt>
      <trkpt lat="46.66962" lon="-1.77484">
        <ele>47</ele>
        <time>2018-03-16T16:09:06Z</time>
      </trkpt>
      <trkpt lat="46.66964" lon="-1.77476">
        <ele>47</ele>
        <time>2018-03-16T16:10:06Z</time>
      </trkpt>
      <trkpt lat="46.66967" lon="-1.77465">
        <ele>47</ele>
        <time>2018-03-16T16:11:06Z</time>
      </trkpt>
      <trkpt lat="46.66971" lon="-1.77451">
        <ele>47</ele>
        <time>2018-03-16T16:12:06Z</time>
      </trkpt>
      <trkpt lat="46.6698" lon="-1.77417">
        <ele>47</ele>
        <time>2018-03-16T16:13:06Z</time>
      </trkpt>
      <trkpt lat="46.66988" lon="-1.77391">
        <ele>47</ele>
        <time>2018-03-16T16:14:06Z</time>
      </trkpt>
      <trkpt lat="46.66994" lon="-1.77369">
        <ele>47</ele>
        <time>2018-03-16T16:15:06Z</time>
      </trkpt>
      <trkpt lat="46.67001" lon="-1.77341">
        <ele>48</ele>
        <time>2018-03-16T16:16:06Z</time>
      </trkpt>
      <trkpt lat="46.67005" lon="-1.77325">
        <ele>48</ele>
        <time>2018-03-16T16:17:06Z</time>
      </trkpt>
      <trkpt lat="46.67008" lon="-1.77312">
        <ele>48</ele>
        <time>2018-03-16T16:18:06Z</time>
      </trkpt>
      <trkpt lat="46.6701" lon="-1.77298">
        <ele>48</ele>
        <time>2018-03-16T16:19:06Z</time>
      </trkpt>
      <trkpt lat="46.67015" lon="-1.77269">
        <ele>49</ele>
        <time>2018-03-16T16:20:06Z</time>
      </trkpt>
      <trkpt lat="46.67021" lon="-1.77237">
        <ele>49</ele>
        <time>2018-03-16T16:21:06Z</time>
      </trkpt>
      <trkpt lat="46.6703" lon="-1.77186">
        <ele>49</ele>
        <time>2018-03-16T16:22:06Z</time>
      </trkpt>
      <trkpt lat="46.67038" lon="-1.77144">
        <ele>50</ele>
        <time>2018-03-16T16:23:06Z</time>
      </trkpt>
      <trkpt lat="46.67044" lon="-1.77105">
        <ele>50</ele>
        <time>2018-03-16T16:24:06Z</time>
      </trkpt>
      <trkpt lat="46.67048" lon="-1.77084">
        <ele>51</ele>
        <time>2018-03-16T16:25:06Z</time>
      </trkpt>
      <trkpt lat="46.6705" lon="-1.77071">
        <ele>51</ele>
        <time>2018-03-16T16:26:06Z</time>
      </trkpt>
      <trkpt lat="46.6705" lon="-1.77066">
        <ele>51</ele>
        <time>2018-03-16T16:27:06Z</time>
      </trkpt>
      <trkpt lat="46.67052" lon="-1.77057">
        <ele>51</ele>
        <time>2018-03-16T16:28:06Z</time>
      </trkpt>
      <trkpt lat="46.67053" lon="-1.77046">
        <ele>51</ele>
        <time>2018-03-16T16:29:06Z</time>
      </trkpt>
      <trkpt lat="46.67055" lon="-1.77029">
        <ele>51</ele>
        <time>2018-03-16T16:30:06Z</time>
      </trkpt>
      <trkpt lat="46.67061" lon="-1.7699">
        <ele>52</ele>
        <time>2018-03-16T16:31:06Z</time>
      </trkpt>
      <trkpt lat="46.67067" lon="-1.76944">
        <ele>52</ele>
        <time>2018-03-16T16:32:06Z</time>
      </trkpt>
      <trkpt lat="46.6707" lon="-1.76927">
        <ele>52</ele>
        <time>2018-03-16T16:33:06Z</time>
      </trkpt>
      <trkpt lat="46.67073" lon="-1.76914">
        <ele>52</ele>
        <time>2018-03-16T16:34:06Z</time>
      </trkpt>
      <trkpt lat="46.67075" lon="-1.76904">
        <ele>52</ele>
        <time>2018-03-16T16:35:06Z</time>
      </trkpt>
      <trkpt lat="46.67084" lon="-1.76857">
        <ele>52</ele>
        <time>2018-03-16T16:36:06Z</time>
      </trkpt>
      <trkpt lat="46.67095" lon="-1.76807">
        <ele>52</ele>
        <time>2018-03-16T16:37:06Z</time>
      </trkpt>
      <trkpt lat="46.67103" lon="-1.76772">
        <ele>52</ele>
        <time>2018-03-16T16:38:06Z</time>
      </trkpt>
      <trkpt lat="46.67104" lon="-1.76764">
        <ele>52</ele>
        <time>2018-03-16T16:39:06Z</time>
      </trkpt>
      <trkpt lat="46.67107" lon="-1.76753">
        <ele>52</ele>
        <time>2018-03-16T16:40:06Z</time>
      </trkpt>
      <trkpt lat="46.67108" lon="-1.76743">
        <ele>52</ele>
        <time>2018-03-16T16:41:06Z</time>
      </trkpt>
      <trkpt lat="46.67109" lon="-1.76734">
        <ele>52</ele>
        <time>2018-03-16T16:42:06Z</time>
      </trkpt>
      <trkpt lat="46.6711" lon="-1.76721">
        <ele>52</ele>
        <time>2018-03-16T16:43:06Z</time>
      </trkpt>
      <trkpt lat="46.67112" lon="-1.76704">
        <ele>52</ele>
        <time>2018-03-16T16:44:06Z</time>
      </trkpt>
      <trkpt lat="46.67114" lon="-1.76683">
        <ele>51</ele>
        <time>2018-03-16T16:45:06Z</time>
      </trkpt>
      <trkpt lat="46.67115" lon="-1.76663">
        <ele>51</ele>
        <time>2018-03-16T16:46:06Z</time>
      </trkpt>
      <trkpt lat="46.67117" lon="-1.7664">
        <ele>51</ele>
        <time>2018-03-16T16:47:06Z</time>
      </trkpt>
      <trkpt lat="46.67119" lon="-1.76618">
        <ele>51</ele>
        <time>2018-03-16T16:48:06Z</time>
      </trkpt>
      <trkpt lat="46.67121" lon="-1.76604">
        <ele>50</ele>
        <time>2018-03-16T16:49:06Z</time>
      </trkpt>
      <trkpt lat="46.67121" lon="-1.76598">
        <ele>50</ele>
        <time>2018-03-16T16:50:06Z</time>
      </trkpt>
      <trkpt lat="46.67123" lon="-1.76589">
        <ele>50</ele>
        <time>2018-03-16T16:51:06Z</time>
      </trkpt>
      <trkpt lat="46.67125" lon="-1.76581">
        <ele>50</ele>
        <time>2018-03-16T16:52:06Z</time>
      </trkpt>
      <trkpt lat="46.67126" lon="-1.76576">
        <ele>50</ele>
        <time>2018-03-16T16:53:06Z</time>
      </trkpt>
      <trkpt lat="46.6713" lon="-1.7656">
        <ele>50</ele>
        <time>2018-03-16T16:54:06Z</time>
      </trkpt>
      <trkpt lat="46.67133" lon="-1.76546">
        <ele>50</ele>
        <time>2018-03-16T16:55:06Z</time>
      </trkpt>
      <trkpt lat="46.6714" lon="-1.76523">
        <ele>50</ele>
        <time>2018-03-16T16:56:06Z</time>
      </trkpt>
      <trkpt lat="46.6715" lon="-1.76484">
        <ele>50</ele>
        <time>2018-03-16T16:57:06Z</time>
      </trkpt>
      <trkpt lat="46.67166" lon="-1.76425">
        <ele>50</ele>
        <time>2018-03-16T16:58:06Z</time>
      </trkpt>
      <trkpt lat="46.67171" lon="-1.76406">
        <ele>50</ele>
        <time>2018-03-16T16:59:06Z</time>
      </trkpt>
      <trkpt lat="46.67176" lon="-1.76389">
        <ele>51</ele>
        <time>2018-03-16T17:00:06Z</time>
      </trkpt>
      <trkpt lat="46.6718" lon="-1.7638">
        <ele>51</ele>
        <time>2018-03-16T17:01:06Z</time>
      </trkpt>
      <trkpt lat="46.67182" lon="-1.76374">
        <ele>51</ele>
        <time>2018-03-16T17:02:06Z</time>
      </trkpt>
      <trkpt lat="46.67184" lon="-1.76371">
        <ele>51</ele>
        <time>2018-03-16T17:03:06Z</time>
      </trkpt>
      <trkpt lat="46.67187" lon="-1.76364">
        <ele>51</ele>
        <time>2018-03-16T17:04:06Z</time>
      </trkpt>
      <trkpt lat="46.672" lon="-1.76338">
        <ele>51</ele>
        <time>2018-03-16T17:05:06Z</time>
      </trkpt>
      <trkpt lat="46.67207" lon="-1.76324">
        <ele>51</ele>
        <time>2018-03-16T17:06:06Z</time>
      </trkpt>
      <trkpt lat="46.67214" lon="-1.76309">
        <ele>51</ele>
        <time>2018-03-16T17:07:06Z</time>
      </trkpt>
      <trkpt lat="46.67226" lon="-1.76284">
        <ele>51</ele>
        <time>2018-03-16T17:08:06Z</time>
      </trkpt>
      <trkpt lat="46.67234" lon="-1.76268">
        <ele>51</ele>
        <time>2018-03-16T17:09:06Z</time>
      </trkpt>
      <trkpt lat="46.67244" lon="-1.76243">
        <ele>51</ele>
        <time>2018-03-16T17:10:06Z</time>
      </trkpt>
      <trkpt lat="46.67249" lon="-1.76231">
        <ele>51</ele>
        <time>2018-03-16T17:11:06Z</time>
      </trkpt>
      <trkpt lat="46.67255" lon="-1.76217">
        <ele>51</ele>
        <time>2018-03-16T17:12:06Z</time>
      </trkpt>
      <trkpt lat="46.67262" lon="-1.76199">
        <ele>52</ele>
        <time>2018-03-16T17:13:06Z</time>
      </trkpt>
      <trkpt lat="46.67267" lon="-1.76183">
        <ele>52</ele>
        <time>2018-03-16T17:14:06Z</time>
      </trkpt>
      <trkpt lat="46.67269" lon="-1.76175">
        <ele>52</ele>
        <time>2018-03-16T17:15:06Z</time>
      </trkpt>
      <trkpt lat="46.6727" lon="-1.76168">
        <ele>52</ele>
        <time>2018-03-16T17:16:06Z</time>
      </trkpt>
      <trkpt lat="46.67272" lon="-1.76156">
        <ele>52</ele>
        <time>2018-03-16T17:17:06Z</time>
      </trkpt>
      <trkpt lat="46.67274" lon="-1.76138">
        <ele>52</ele>
        <time>2018-03-16T17:18:06Z</time>
      </trkpt>
      <trkpt lat="46.67277" lon="-1.76114">
        <ele>52</ele>
        <time>2018-03-16T17:19:06Z</time>
      </trkpt>
      <trkpt lat="46.67281" lon="-1.7608">
        <ele>52</ele>
        <time>2018-03-16T17:20:06Z</time>
      </trkpt>
      <trkpt lat="46.67285" lon="-1.76045">
        <ele>52</ele>
        <time>2018-03-16T17:21:06Z</time>
      </trkpt>
      <trkpt lat="46.67289" lon="-1.76008">
        <ele>52</ele>
        <time>2018-03-16T17:22:06Z</time>
      </trkpt>
      <trkpt lat="46.67292" lon="-1.75975">
        <ele>52</ele>
        <time>2018-03-16T17:23:06Z</time>
      </trkpt>
      <trkpt lat="46.67295" lon="-1.75945">
        <ele>52</ele>
        <time>2018-03-16T17:24:06Z</time>
      </trkpt>
      <trkpt lat="46.67298" lon="-1.75924">
        <ele>52</ele>
        <time>2018-03-16T17:25:06Z</time>
      </trkpt>
      <trkpt lat="46.67296" lon="-1.75918">
        <ele>52</ele>
        <time>2018-03-16T17:26:06Z</time>
      </trkpt>
      <trkpt lat="46.67297" lon="-1.75892">
        <ele>52</ele>
        <time>2018-03-16T17:27:06Z</time>
      </trkpt>
      <trkpt lat="46.67296" lon="-1.75877">
        <ele>52</ele>
        <time>2018-03-16T17:28:06Z</time>
      </trkpt>
      <trkpt lat="46.67296" lon="-1.75873">
        <ele>52</ele>
        <time>2018-03-16T17:29:06Z</time>
      </trkpt>
      <trkpt lat="46.67296" lon="-1.75864">
        <ele>52</ele>
        <time>2018-03-16T17:30:06Z</time>
      </trkpt>
      <trkpt lat="46.67296" lon="-1.75854">
        <ele>52</ele>
        <time>2018-03-16T17:31:06Z</time>
      </trkpt>
      <trkpt lat="46.67296" lon="-1.75839">
        <ele>52</ele>
        <time>2018-03-16T17:32:06Z</time>
      </trkpt>
      <trkpt lat="46.67296" lon="-1.75835">
        <ele>52</ele>
        <time>2018-03-16T17:33:06Z</time>
      </trkpt>
      <trkpt lat="46.67292" lon="-1.75796">
        <ele>52</ele>
        <time>2018-03-16T17:34:06Z</time>
      </trkpt>
      <trkpt lat="46.67293" lon="-1.75779">
        <ele>52</ele>
        <time>2018-03-16T17:35:06Z</time>
      </trkpt>
      <trkpt lat="46.6729" lon="-1.75767">
        <ele>52</ele>
        <time>2018-03-16T17:36:06Z</time>
      </trkpt>
      <trkpt lat="46.67288" lon="-1.75759">
        <ele>52</ele>
        <time>2018-03-16T17:37:06Z</time>
      </trkpt>
      <trkpt lat="46.67286" lon="-1.75751">
        <ele>52</ele>
        <time>2018-03-16T17:38:06Z</time>
      </trkpt>
      <trkpt lat="46.67285" lon="-1.75745">
        <ele>52</ele>
        <time>2018-03-16T17:39:06Z</time>
      </trkpt>
      <trkpt lat="46.67283" lon="-1.75731">
        <ele>52</ele>
        <time>2018-03-16T17:40:06Z</time>
      </trkpt>
      <trkpt lat="46.67278" lon="-1.75703">
        <ele>51</ele>
        <time>2018-03-16T17:41:06Z</time>
      </trkpt>
      <trkpt lat="46.67273" lon="-1.75664">
        <ele>51</ele>
        <time>2018-03-16T17:42:06Z</time>
      </trkpt>
      <trkpt lat="46.67268" lon="-1.7563">
        <ele>51</ele>
        <time>2018-03-16T17:43:06Z</time>
      </trkpt>
      <trkpt lat="46.67265" lon="-1.75607">
        <ele>50</ele>
        <time>2018-03-16T17:44:06Z</time>
      </trkpt>
      <trkpt lat="46.67262" lon="-1.75584">
        <ele>50</ele>
        <time>2018-03-16T17:45:06Z</time>
      </trkpt>
      <trkpt lat="46.67258" lon="-1.75551">
        <ele>51</ele>
        <time>2018-03-16T17:46:06Z</time>
      </trkpt>
      <trkpt lat="46.67253" lon="-1.75521">
        <ele>51</ele>
        <time>2018-03-16T17:47:06Z</time>
      </trkpt>
      <trkpt lat="46.6725" lon="-1.75503">
        <ele>51</ele>
        <time>2018-03-16T17:48:06Z</time>
      </trkpt>
      <trkpt lat="46.67246" lon="-1.75487">
        <ele>51</ele>
        <time>2018-03-16T17:49:06Z</time>
      </trkpt>
      <trkpt lat="46.67244" lon="-1.75477">
        <ele>51</ele>
        <time>2018-03-16T17:50:06Z</time>
      </trkpt>
      <trkpt lat="46.67241" lon="-1.75466">
        <ele>51</ele>
        <time>2018-03-16T17:51:06Z</time>
      </trkpt>
      <trkpt lat="46.67235" lon="-1.75442">
        <ele>51</ele>
        <time>2018-03-16T17:52:06Z</time>
      </trkpt>
      <trkpt lat="46.67227" lon="-1.75411">
        <ele>51</ele>
        <time>2018-03-16T17:53:06Z</time>
      </trkpt>
      <trkpt lat="46.67226" lon="-1.75404">
        <ele>51</ele>
        <time>2018-03-16T17:54:06Z</time>
      </trkpt>
      <trkpt lat="46.67225" lon="-1.75397">
        <ele>51</ele>
        <time>2018-03-16T17:55:06Z</time>
      </trkpt>
      <trkpt lat="46.67224" lon="-1.75388">
        <ele>52</ele>
        <time>2018-03-16T17:56:06Z</time>
      </trkpt>
      <trkpt lat="46.67224" lon="-1.75382">
        <ele>52</ele>
        <time>2018-03-16T17:57:06Z</time>
      </trkpt>
      <trkpt lat="46.67223" lon="-1.75374">
        <ele>52</ele>
        <time>2018-03-16T17:58:06Z</time>
      </trkpt>
      <trkpt lat="46.67223" lon="-1.75364">
        <ele>52</ele>
        <time>2018-03-16T17:59:06Z</time>
      </trkpt>
      <trkpt lat="46.67224" lon="-1.75333">
        <ele>53</ele>
        <time>2018-03-16T18:00:06Z</time>
      </trkpt>
      <trkpt lat="46.67224" lon="-1.75307">
        <ele>54</ele>
        <time>2018-03-16T18:01:06Z</time>
      </trkpt>
      <trkpt lat="46.67225" lon="-1.75255">
        <ele>55</ele>
        <time>2018-03-16T18:02:06Z</time>
      </trkpt>
      <trkpt lat="46.67226" lon="-1.75212">
        <ele>54</ele>
        <time>2018-03-16T18:03:06Z</time>
      </trkpt>
      <trkpt lat="46.67226" lon="-1.75207">
        <ele>54</ele>
        <time>2018-03-16T18:04:06Z</time>
      </trkpt>
      <trkpt lat="46.67226" lon="-1.75202">
        <ele>54</ele>
        <time>2018-03-16T18:05:06Z</time>
      </trkpt>
      <trkpt lat="46.67227" lon="-1.75197">
        <ele>54</ele>
        <time>2018-03-16T18:06:06Z</time>
      </trkpt>
      <trkpt lat="46.67228" lon="-1.75191">
        <ele>54</ele>
        <time>2018-03-16T18:07:06Z</time>
      </trkpt>
      <trkpt lat="46.67229" lon="-1.75188">
        <ele>54</ele>
        <time>2018-03-16T18:08:06Z</time>
      </trkpt>
      <trkpt lat="46.67231" lon="-1.75183">
        <ele>54</ele>
        <time>2018-03-16T18:09:06Z</time>
      </trkpt>
      <trkpt lat="46.67233" lon="-1.75177">
        <ele>54</ele>
        <time>2018-03-16T18:10:06Z</time>
      </trkpt>
      <trkpt lat="46.67237" lon="-1.75172">
        <ele>54</ele>
        <time>2018-03-16T18:11:06Z</time>
      </trkpt>
      <trkpt lat="46.67244" lon="-1.75162">
        <ele>54</ele>
        <time>2018-03-16T18:12:06Z</time>
      </trkpt>
      <trkpt lat="46.67246" lon="-1.75157">
        <ele>54</ele>
        <time>2018-03-16T18:13:06Z</time>
      </trkpt>
      <trkpt lat="46.67253" lon="-1.75145">
        <ele>54</ele>
        <time>2018-03-16T18:14:06Z</time>
      </trkpt>
      <trkpt lat="46.67264" lon="-1.7513">
        <ele>54</ele>
        <time>2018-03-16T18:15:06Z</time>
      </trkpt>
      <trkpt lat="46.67282" lon="-1.75101">
        <ele>54</ele>
        <time>2018-03-16T18:16:06Z</time>
      </trkpt>
      <trkpt lat="46.67286" lon="-1.75095">
        <ele>54</ele>
        <time>2018-03-16T18:17:06Z</time>
      </trkpt>
      <trkpt lat="46.67293" lon="-1.75087">
        <ele>55</ele>
        <time>2018-03-16T18:18:06Z</time>
      </trkpt>
      <trkpt lat="46.67296" lon="-1.75081">
        <ele>55</ele>
        <time>2018-03-16T18:19:06Z</time>
      </trkpt>
      <trkpt lat="46.67299" lon="-1.75077">
        <ele>55</ele>
        <time>2018-03-16T18:20:06Z</time>
      </trkpt>
      <trkpt lat="46.673" lon="-1.75074">
        <ele>55</ele>
        <time>2018-03-16T18:21:06Z</time>
      </trkpt>
      <trkpt lat="46.67302" lon="-1.7507">
        <ele>55</ele>
        <time>2018-03-16T18:22:06Z</time>
      </trkpt>
      <trkpt lat="46.67305" lon="-1.75064">
        <ele>55</ele>
        <time>2018-03-16T18:23:06Z</time>
      </trkpt>
      <trkpt lat="46.67307" lon="-1.75056">
        <ele>55</ele>
        <time>2018-03-16T18:24:06Z</time>
      </trkpt>
      <trkpt lat="46.67312" lon="-1.75037">
        <ele>55</ele>
        <time>2018-03-16T18:25:06Z</time>
      </trkpt>
      <trkpt lat="46.67315" lon="-1.75025">
        <ele>55</ele>
        <time>2018-03-16T18:26:06Z</time>
      </trkpt>
      <trkpt lat="46.67317" lon="-1.75017">
        <ele>55</ele>
        <time>2018-03-16T18:27:06Z</time>
      </trkpt>
      <trkpt lat="46.67318" lon="-1.75011">
        <ele>56</ele>
        <time>2018-03-16T18:28:06Z</time>
      </trkpt>
      <trkpt lat="46.6732" lon="-1.75006">
        <ele>56</ele>
        <time>2018-03-16T18:29:06Z</time>
      </trkpt>
      <trkpt lat="46.67323" lon="-1.74998">
        <ele>56</ele>
        <time>2018-03-16T18:30:06Z</time>
      </trkpt>
      <trkpt lat="46.67329" lon="-1.74984">
        <ele>56</ele>
        <time>2018-03-16T18:31:06Z</time>
      </trkpt>
      <trkpt lat="46.6733" lon="-1.74979">
        <ele>56</ele>
        <time>2018-03-16T18:32:06Z</time>
      </trkpt>
      <trkpt lat="46.67331" lon="-1.74975">
        <ele>56</ele>
        <time>2018-03-16T18:33:06Z</time>
      </trkpt>
      <trkpt lat="46.67333" lon="-1.74969">
        <ele>56</ele>
        <time>2018-03-16T18:34:06Z</time>
      </trkpt>
      <trkpt lat="46.67334" lon="-1.74964">
        <ele>56</ele>
        <time>2018-03-16T18:35:06Z</time>
      </trkpt>
      <trkpt lat="46.67336" lon="-1.74959">
        <ele>56</ele>
        <time>2018-03-16T18:36:06Z</time>
      </trkpt>
      <trkpt lat="46.67337" lon="-1.74956">
        <ele>56</ele>
        <time>2018-03-16T18:37:06Z</time>
      </trkpt>
      <trkpt lat="46.67338" lon="-1.74952">
        <ele>56</ele>
        <time>2018-03-16T18:38:06Z</time>
      </trkpt>
      <trkpt lat="46.6734" lon="-1.74943">
        <ele>56</ele>
        <time>2018-03-16T18:39:06Z</time>
      </trkpt>
      <trkpt lat="46.67344" lon="-1.74923">
        <ele>56</ele>
        <time>2018-03-16T18:40:06Z</time>
      </trkpt>
      <trkpt lat="46.67349" lon="-1.74904">
        <ele>56</ele>
        <time>2018-03-16T18:41:06Z</time>
      </trkpt>
      <trkpt lat="46.67351" lon="-1.74898">
        <ele>56</ele>
        <time>2018-03-16T18:42:06Z</time>
      </trkpt>
      <trkpt lat="46.67353" lon="-1.7489">
        <ele>56</ele>
        <time>2018-03-16T18:43:06Z</time>
      </trkpt>
      <trkpt lat="46.67354" lon="-1.74887">
        <ele>56</ele>
        <time>2018-03-16T18:44:06Z</time>
      </trkpt>
      <trkpt lat="46.67356" lon="-1.74883">
        <ele>56</ele>
        <time>2018-03-16T18:45:06Z</time>
      </trkpt>
      <trkpt lat="46.67358" lon="-1.74879">
        <ele>56</ele>
        <time>2018-03-16T18:46:06Z</time>
      </trkpt>
      <trkpt lat="46.67367" lon="-1.7486">
        <ele>56</ele>
        <time>2018-03-16T18:47:06Z</time>
      </trkpt>
      <trkpt lat="46.6738" lon="-1.74835">
        <ele>56</ele>
        <time>2018-03-16T18:48:06Z</time>
      </trkpt>
      <trkpt lat="46.67402" lon="-1.74791">
        <ele>56</ele>
        <time>2018-03-16T18:49:06Z</time>
      </trkpt>
      <trkpt lat="46.67414" lon="-1.74767">
        <ele>57</ele>
        <time>2018-03-16T18:50:06Z</time>
      </trkpt>
      <trkpt lat="46.67419" lon="-1.74759">
        <ele>57</ele>
        <time>2018-03-16T18:51:06Z</time>
      </trkpt>
      <trkpt lat="46.67434" lon="-1.74731">
        <ele>57</ele>
        <time>2018-03-16T18:52:06Z</time>
      </trkpt>
      <trkpt lat="46.67453" lon="-1.74697">
        <ele>58</ele>
        <time>2018-03-16T18:53:06Z</time>
      </trkpt>
      <trkpt lat="46.6746" lon="-1.74685">
        <ele>58</ele>
        <time>2018-03-16T18:54:06Z</time>
      </trkpt>
      <trkpt lat="46.67464" lon="-1.74677">
        <ele>58</ele>
        <time>2018-03-16T18:55:06Z</time>
      </trkpt>
      <trkpt lat="46.6747" lon="-1.74665">
        <ele>58</ele>
        <time>2018-03-16T18:56:06Z</time>
      </trkpt>
      <trkpt lat="46.67472" lon="-1.74661">
        <ele>58</ele>
        <time>2018-03-16T18:57:06Z</time>
      </trkpt>
      <trkpt lat="46.67479" lon="-1.74645">
        <ele>58</ele>
        <time>2018-03-16T18:58:06Z</time>
      </trkpt>
      <trkpt lat="46.67483" lon="-1.74636">
        <ele>58</ele>
        <time>2018-03-16T18:59:06Z</time>
      </trkpt>
      <trkpt lat="46.67486" lon="-1.7463">
        <ele>58</ele>
        <time>2018-03-16T19:00:06Z</time>
      </trkpt>
      <trkpt lat="46.6749" lon="-1.7462">
        <ele>58</ele>
        <time>2018-03-16T19:01:06Z</time>
      </trkpt>
      <trkpt lat="46.67493" lon="-1.74612">
        <ele>58</ele>
        <time>2018-03-16T19:02:06Z</time>
      </trkpt>
      <trkpt lat="46.67496" lon="-1.74603">
        <ele>58</ele>
        <time>2018-03-16T19:03:06Z</time>
      </trkpt>
      <trkpt lat="46.675" lon="-1.74593">
        <ele>58</ele>
        <time>2018-03-16T19:04:06Z</time>
      </trkpt>
      <trkpt lat="46.67502" lon="-1.74587">
        <ele>58</ele>
        <time>2018-03-16T19:05:06Z</time>
      </trkpt>
      <trkpt lat="46.67504" lon="-1.74584">
        <ele>58</ele>
        <time>2018-03-16T19:06:06Z</time>
      </trkpt>
      <trkpt lat="46.67505" lon="-1.7458">
        <ele>58</ele>
        <time>2018-03-16T19:07:06Z</time>
      </trkpt>
      <trkpt lat="46.67508" lon="-1.74569">
        <ele>57</ele>
        <time>2018-03-16T19:08:06Z</time>
      </trkpt>
      <trkpt lat="46.67513" lon="-1.74555">
        <ele>57</ele>
        <time>2018-03-16T19:09:06Z</time>
      </trkpt>
      <trkpt lat="46.67517" lon="-1.74543">
        <ele>57</ele>
        <time>2018-03-16T19:10:06Z</time>
      </trkpt>
      <trkpt lat="46.6752" lon="-1.74532">
        <ele>56</ele>
        <time>2018-03-16T19:11:06Z</time>
      </trkpt>
      <trkpt lat="46.67523" lon="-1.7452">
        <ele>56</ele>
        <time>2018-03-16T19:12:06Z</time>
      </trkpt>
      <trkpt lat="46.67528" lon="-1.74505">
        <ele>56</ele>
        <time>2018-03-16T19:13:06Z</time>
      </trkpt>
      <trkpt lat="46.67532" lon="-1.74489">
        <ele>56</ele>
        <time>2018-03-16T19:14:06Z</time>
      </trkpt>
      <trkpt lat="46.67533" lon="-1.74483">
        <ele>56</ele>
        <time>2018-03-16T19:15:06Z</time>
      </trkpt>
      <trkpt lat="46.67535" lon="-1.74478">
        <ele>56</ele>
        <time>2018-03-16T19:16:06Z</time>
      </trkpt>
      <trkpt lat="46.67536" lon="-1.74472">
        <ele>56</ele>
        <time>2018-03-16T19:17:06Z</time>
      </trkpt>
      <trkpt lat="46.67537" lon="-1.74466">
        <ele>56</ele>
        <time>2018-03-16T19:18:06Z</time>
      </trkpt>
      <trkpt lat="46.67539" lon="-1.7445">
        <ele>56</ele>
        <time>2018-03-16T19:19:06Z</time>
      </trkpt>
      <trkpt lat="46.67541" lon="-1.7444">
        <ele>56</ele>
        <time>2018-03-16T19:20:06Z</time>
      </trkpt>
      <trkpt lat="46.67546" lon="-1.74405">
        <ele>56</ele>
        <time>2018-03-16T19:21:06Z</time>
      </trkpt>
      <trkpt lat="46.67548" lon="-1.7439">
        <ele>56</ele>
        <time>2018-03-16T19:22:06Z</time>
      </trkpt>
      <trkpt lat="46.6755" lon="-1.74375">
        <ele>56</ele>
        <time>2018-03-16T19:23:06Z</time>
      </trkpt>
      <trkpt lat="46.6755" lon="-1.74368">
        <ele>56</ele>
        <time>2018-03-16T19:24:06Z</time>
      </trkpt>
      <trkpt lat="46.67551" lon="-1.74362">
        <ele>56</ele>
        <time>2018-03-16T19:25:06Z</time>
      </trkpt>
      <trkpt lat="46.67551" lon="-1.74355">
        <ele>56</ele>
        <time>2018-03-16T19:26:06Z</time>
      </trkpt>
      <trkpt lat="46.67551" lon="-1.74348">
        <ele>55</ele>
        <time>2018-03-16T19:27:06Z</time>
      </trkpt>
      <trkpt lat="46.67551" lon="-1.74341">
        <ele>55</ele>
        <time>2018-03-16T19:28:06Z</time>
      </trkpt>
      <trkpt lat="46.67551" lon="-1.74311">
        <ele>55</ele>
        <time>2018-03-16T19:29:06Z</time>
      </trkpt>
      <trkpt lat="46.6755" lon="-1.74269">
        <ele>56</ele>
        <time>2018-03-16T19:30:06Z</time>
      </trkpt>
      <trkpt lat="46.6755" lon="-1.74219">
        <ele>56</ele>
        <time>2018-03-16T19:31:06Z</time>
      </trkpt>
      <trkpt lat="46.6755" lon="-1.74196">
        <ele>56</ele>
        <time>2018-03-16T19:32:06Z</time>
      </trkpt>
      <trkpt lat="46.67551" lon="-1.74185">
        <ele>55</ele>
        <time>2018-03-16T19:33:06Z</time>
      </trkpt>
      <trkpt lat="46.67551" lon="-1.74173">
        <ele>55</ele>
        <time>2018-03-16T19:34:06Z</time>
      </trkpt>
      <trkpt lat="46.67553" lon="-1.74134">
        <ele>56</ele>
        <time>2018-03-16T19:35:06Z</time>
      </trkpt>
      <trkpt lat="46.67554" lon="-1.74112">
        <ele>56</ele>
        <time>2018-03-16T19:36:06Z</time>
      </trkpt>
      <trkpt lat="46.67556" lon="-1.74086">
        <ele>56</ele>
        <time>2018-03-16T19:37:06Z</time>
      </trkpt>
      <trkpt lat="46.67558" lon="-1.7407">
        <ele>56</ele>
        <time>2018-03-16T19:38:06Z</time>
      </trkpt>
      <trkpt lat="46.67559" lon="-1.74058">
        <ele>56</ele>
        <time>2018-03-16T19:39:06Z</time>
      </trkpt>
      <trkpt lat="46.67561" lon="-1.74041">
        <ele>56</ele>
        <time>2018-03-16T19:40:06Z</time>
      </trkpt>
      <trkpt lat="46.67562" lon="-1.7403">
        <ele>56</ele>
        <time>2018-03-16T19:41:06Z</time>
      </trkpt>
      <trkpt lat="46.67564" lon="-1.7402">
        <ele>56</ele>
        <time>2018-03-16T19:42:06Z</time>
      </trkpt>
      <trkpt lat="46.67565" lon="-1.74013">
        <ele>56</ele>
        <time>2018-03-16T19:43:06Z</time>
      </trkpt>
      <trkpt lat="46.67567" lon="-1.74002">
        <ele>56</ele>
        <time>2018-03-16T19:44:06Z</time>
      </trkpt>
      <trkpt lat="46.6757" lon="-1.73991">
        <ele>56</ele>
        <time>2018-03-16T19:45:06Z</time>
      </trkpt>
      <trkpt lat="46.67573" lon="-1.73977">
        <ele>56</ele>
        <time>2018-03-16T19:46:06Z</time>
      </trkpt>
      <trkpt lat="46.67584" lon="-1.73933">
        <ele>57</ele>
        <time>2018-03-16T19:47:06Z</time>
      </trkpt>
      <trkpt lat="46.67588" lon="-1.73917">
        <ele>57</ele>
        <time>2018-03-16T19:48:06Z</time>
      </trkpt>
      <trkpt lat="46.676" lon="-1.7387">
        <ele>57</ele>
        <time>2018-03-16T19:49:06Z</time>
      </trkpt>
      <trkpt lat="46.67616" lon="-1.73811">
        <ele>57</ele>
        <time>2018-03-16T19:50:06Z</time>
      </trkpt>
      <trkpt lat="46.67626" lon="-1.73772">
        <ele>56</ele>
        <time>2018-03-16T19:51:06Z</time>
      </trkpt>
      <trkpt lat="46.67628" lon="-1.73767">
        <ele>56</ele>
        <time>2018-03-16T19:52:06Z</time>
      </trkpt>
      <trkpt lat="46.6763" lon="-1.7376">
        <ele>56</ele>
        <time>2018-03-16T19:53:06Z</time>
      </trkpt>
      <trkpt lat="46.67635" lon="-1.73748">
        <ele>56</ele>
        <time>2018-03-16T19:54:06Z</time>
      </trkpt>
      <trkpt lat="46.67638" lon="-1.73739">
        <ele>56</ele>
        <time>2018-03-16T19:55:06Z</time>
      </trkpt>
      <trkpt lat="46.67641" lon="-1.73732">
        <ele>56</ele>
        <time>2018-03-16T19:56:06Z</time>
      </trkpt>
      <trkpt lat="46.67646" lon="-1.73722">
        <ele>55</ele>
        <time>2018-03-16T19:57:06Z</time>
      </trkpt>
      <trkpt lat="46.67649" lon="-1.73715">
        <ele>55</ele>
        <time>2018-03-16T19:58:06Z</time>
      </trkpt>
      <trkpt lat="46.67654" lon="-1.73705">
        <ele>55</ele>
        <time>2018-03-16T19:59:06Z</time>
      </trkpt>
      <trkpt lat="46.67673" lon="-1.7367">
        <ele>55</ele>
        <time>2018-03-16T20:00:06Z</time>
      </trkpt>
      <trkpt lat="46.67688" lon="-1.73647">
        <ele>55</ele>
        <time>2018-03-16T20:01:06Z</time>
      </trkpt>
      <trkpt lat="46.67702" lon="-1.73625">
        <ele>56</ele>
        <time>2018-03-16T20:02:06Z</time>
      </trkpt>
      <trkpt lat="46.67717" lon="-1.73602">
        <ele>56</ele>
        <time>2018-03-16T20:03:06Z</time>
      </trkpt>
      <trkpt lat="46.67736" lon="-1.73571">
        <ele>56</ele>
        <time>2018-03-16T20:04:06Z</time>
      </trkpt>
      <trkpt lat="46.6776" lon="-1.73529">
        <ele>57</ele>
        <time>2018-03-16T20:05:06Z</time>
      </trkpt>
      <trkpt lat="46.6778" lon="-1.73487">
        <ele>57</ele>
        <time>2018-03-16T20:06:06Z</time>
      </trkpt>
      <trkpt lat="46.67788" lon="-1.73472">
        <ele>56</ele>
        <time>2018-03-16T20:07:06Z</time>
      </trkpt>
      <trkpt lat="46.67794" lon="-1.7346">
        <ele>56</ele>
        <time>2018-03-16T20:08:06Z</time>
      </trkpt>
      <trkpt lat="46.67807" lon="-1.73435">
        <ele>55</ele>
        <time>2018-03-16T20:09:06Z</time>
      </trkpt>
      <trkpt lat="46.67828" lon="-1.734">
        <ele>55</ele>
        <time>2018-03-16T20:10:06Z</time>
      </trkpt>
      <trkpt lat="46.67858" lon="-1.7336">
        <ele>54</ele>
        <time>2018-03-16T20:11:06Z</time>
      </trkpt>
      <trkpt lat="46.67883" lon="-1.73328">
        <ele>54</ele>
        <time>2018-03-16T20:12:06Z</time>
      </trkpt>
      <trkpt lat="46.67895" lon="-1.73314">
        <ele>54</ele>
        <time>2018-03-16T20:13:06Z</time>
      </trkpt>
      <trkpt lat="46.67918" lon="-1.73284">
        <ele>55</ele>
        <time>2018-03-16T20:14:06Z</time>
      </trkpt>
      <trkpt lat="46.67943" lon="-1.73253">
        <ele>55</ele>
        <time>2018-03-16T20:15:06Z</time>
      </trkpt>
      <trkpt lat="46.67973" lon="-1.73214">
        <ele>56</ele>
        <time>2018-03-16T20:16:06Z</time>
      </trkpt>
      <trkpt lat="46.6799" lon="-1.7319">
        <ele>56</ele>
        <time>2018-03-16T20:17:06Z</time>
      </trkpt>
      <trkpt lat="46.68017" lon="-1.73152">
        <ele>57</ele>
        <time>2018-03-16T20:18:06Z</time>
      </trkpt>
      <trkpt lat="46.6804" lon="-1.73107">
        <ele>57</ele>
        <time>2018-03-16T20:19:06Z</time>
      </trkpt>
      <trkpt lat="46.68052" lon="-1.73087">
        <ele>57</ele>
        <time>2018-03-16T20:20:06Z</time>
      </trkpt>
      <trkpt lat="46.68058" lon="-1.73071">
        <ele>57</ele>
        <time>2018-03-16T20:21:06Z</time>
      </trkpt>
      <trkpt lat="46.68075" lon="-1.73037">
        <ele>57</ele>
        <time>2018-03-16T20:22:06Z</time>
      </trkpt>
      <trkpt lat="46.68099" lon="-1.72985">
        <ele>57</ele>
        <time>2018-03-16T20:23:06Z</time>
      </trkpt>
      <trkpt lat="46.68124" lon="-1.72932">
        <ele>57</ele>
        <time>2018-03-16T20:24:06Z</time>
      </trkpt>
      <trkpt lat="46.68155" lon="-1.72862">
        <ele>57</ele>
        <time>2018-03-16T20:25:06Z</time>
      </trkpt>
      <trkpt lat="46.68164" lon="-1.72843">
        <ele>57</ele>
        <time>2018-03-16T20:26:06Z</time>
      </trkpt>
      <trkpt lat="46.68183" lon="-1.72801">
        <ele>56</ele>
        <time>2018-03-16T20:27:06Z</time>
      </trkpt>
      <trkpt lat="46.68205" lon="-1.72753">
        <ele>56</ele>
        <time>2018-03-16T20:28:06Z</time>
      </trkpt>
      <trkpt lat="46.68228" lon="-1.72705">
        <ele>56</ele>
        <time>2018-03-16T20:29:06Z</time>
      </trkpt>
      <trkpt lat="46.68252" lon="-1.72655">
        <ele>56</ele>
        <time>2018-03-16T20:30:06Z</time>
      </trkpt>
      <trkpt lat="46.68263" lon="-1.72627">
        <ele>56</ele>
        <time>2018-03-16T20:31:06Z</time>
      </trkpt>
      <trkpt lat="46.68266" lon="-1.72621">
        <ele>56</ele>
        <time>2018-03-16T20:32:06Z</time>
      </trkpt>
      <trkpt lat="46.68269" lon="-1.7261">
        <ele>56</ele>
        <time>2018-03-16T20:33:06Z</time>
      </trkpt>
      <trkpt lat="46.68278" lon="-1.72575">
        <ele>57</ele>
        <time>2018-03-16T20:34:06Z</time>
      </trkpt>
      <trkpt lat="46.68278" lon="-1.72575">
        <ele>57</ele>
        <time>2018-03-16T20:35:06Z</time>
      </trkpt>
      <trkpt lat="46.68268" lon="-1.72563">
        <ele>56</ele>
        <time>2018-03-16T20:36:06Z</time>
      </trkpt>
      <trkpt lat="46.68236" lon="-1.72517">
        <ele>56</ele>
        <time>2018-03-16T20:37:06Z</time>
      </trkpt>
      <trkpt lat="46.68214" lon="-1.72483">
        <ele>55</ele>
        <time>2018-03-16T20:38:06Z</time>
      </trkpt>
      <trkpt lat="46.68188" lon="-1.72444">
        <ele>54</ele>
        <time>2018-03-16T20:39:06Z</time>
      </trkpt>
      <trkpt lat="46.68168" lon="-1.72413">
        <ele>54</ele>
        <time>2018-03-16T20:40:06Z</time>
      </trkpt>
      <trkpt lat="46.68159" lon="-1.72389">
        <ele>53</ele>
        <time>2018-03-16T20:41:06Z</time>
      </trkpt>
      <trkpt lat="46.68158" lon="-1.72384">
        <ele>53</ele>
        <time>2018-03-16T20:42:06Z</time>
      </trkpt>
      <trkpt lat="46.68158" lon="-1.72367">
        <ele>53</ele>
        <time>2018-03-16T20:43:06Z</time>
      </trkpt>
      <trkpt lat="46.68164" lon="-1.72334">
        <ele>52</ele>
        <time>2018-03-16T20:44:06Z</time>
      </trkpt>
      <trkpt lat="46.68165" lon="-1.72324">
        <ele>52</ele>
        <time>2018-03-16T20:45:06Z</time>
      </trkpt>
      <trkpt lat="46.68172" lon="-1.72282">
        <ele>52</ele>
        <time>2018-03-16T20:46:06Z</time>
      </trkpt>
      <trkpt lat="46.6818" lon="-1.7223">
        <ele>52</ele>
        <time>2018-03-16T20:47:06Z</time>
      </trkpt>
      <trkpt lat="46.68184" lon="-1.72208">
        <ele>53</ele>
        <time>2018-03-16T20:48:06Z</time>
      </trkpt>
      <trkpt lat="46.68193" lon="-1.72148">
        <ele>53</ele>
        <time>2018-03-16T20:49:06Z</time>
      </trkpt>
      <trkpt lat="46.68196" lon="-1.72131">
        <ele>53</ele>
        <time>2018-03-16T20:50:06Z</time>
      </trkpt>
      <trkpt lat="46.68206" lon="-1.72075">
        <ele>54</ele>
        <time>2018-03-16T20:51:06Z</time>
      </trkpt>
      <trkpt lat="46.68214" lon="-1.7203">
        <ele>54</ele>
        <time>2018-03-16T20:52:06Z</time>
      </trkpt>
      <trkpt lat="46.68218" lon="-1.72009">
        <ele>54</ele>
        <time>2018-03-16T20:53:06Z</time>
      </trkpt>
      <trkpt lat="46.68225" lon="-1.71977">
        <ele>54</ele>
        <time>2018-03-16T20:54:06Z</time>
      </trkpt>
      <trkpt lat="46.68225" lon="-1.71977">
        <ele>54</ele>
        <time>2018-03-16T20:55:06Z</time>
      </trkpt>
      <trkpt lat="46.6823" lon="-1.71961">
        <ele>54</ele>
        <time>2018-03-16T20:56:06Z</time>
      </trkpt>
      <trkpt lat="46.68232" lon="-1.71954">
        <ele>54</ele>
        <time>2018-03-16T20:57:06Z</time>
      </trkpt>
      <trkpt lat="46.68238" lon="-1.71947">
        <ele>54</ele>
        <time>2018-03-16T20:58:06Z</time>
      </trkpt>
      <trkpt lat="46.6825" lon="-1.71931">
        <ele>54</ele>
        <time>2018-03-16T20:59:06Z</time>
      </trkpt>
      <trkpt lat="46.68255" lon="-1.71923">
        <ele>54</ele>
        <time>2018-03-16T21:00:06Z</time>
      </trkpt>
      <trkpt lat="46.68256" lon="-1.7192">
        <ele>54</ele>
        <time>2018-03-16T21:01:06Z</time>
      </trkpt>
      <trkpt lat="46.68257" lon="-1.71918">
        <ele>54</ele>
        <time>2018-03-16T21:02:06Z</time>
      </trkpt>
      <trkpt lat="46.68261" lon="-1.71902">
        <ele>54</ele>
        <time>2018-03-16T21:03:06Z</time>
      </trkpt>
      <trkpt lat="46.68264" lon="-1.71881">
        <ele>53</ele>
        <time>2018-03-16T21:04:06Z</time>
      </trkpt>
      <trkpt lat="46.68271" lon="-1.7184">
        <ele>51</ele>
        <time>2018-03-16T21:05:06Z</time>
      </trkpt>
      <trkpt lat="46.68279" lon="-1.71789">
        <ele>50</ele>
        <time>2018-03-16T21:06:06Z</time>
      </trkpt>
      <trkpt lat="46.68286" lon="-1.71739">
        <ele>49</ele>
        <time>2018-03-16T21:07:06Z</time>
      </trkpt>
      <trkpt lat="46.68294" lon="-1.71693">
        <ele>50</ele>
        <time>2018-03-16T21:08:06Z</time>
      </trkpt>
      <trkpt lat="46.68303" lon="-1.71634">
        <ele>49</ele>
        <time>2018-03-16T21:09:06Z</time>
      </trkpt>
      <trkpt lat="46.68311" lon="-1.71582">
        <ele>49</ele>
        <time>2018-03-16T21:10:06Z</time>
      </trkpt>
      <trkpt lat="46.68318" lon="-1.71539">
        <ele>50</ele>
        <time>2018-03-16T21:11:06Z</time>
      </trkpt>
      <trkpt lat="46.68323" lon="-1.71507">
        <ele>50</ele>
        <time>2018-03-16T21:12:06Z</time>
      </trkpt>
      <trkpt lat="46.68329" lon="-1.71466">
        <ele>51</ele>
        <time>2018-03-16T21:13:06Z</time>
      </trkpt>
      <trkpt lat="46.68337" lon="-1.71414">
        <ele>51</ele>
        <time>2018-03-16T21:14:06Z</time>
      </trkpt>
      <trkpt lat="46.68343" lon="-1.71375">
        <ele>51</ele>
        <time>2018-03-16T21:15:06Z</time>
      </trkpt>
      <trkpt lat="46.68351" lon="-1.71325">
        <ele>52</ele>
        <time>2018-03-16T21:16:06Z</time>
      </trkpt>
      <trkpt lat="46.68358" lon="-1.71278">
        <ele>53</ele>
        <time>2018-03-16T21:17:06Z</time>
      </trkpt>
      <trkpt lat="46.68365" lon="-1.71235">
        <ele>53</ele>
        <time>2018-03-16T21:18:06Z</time>
      </trkpt>
      <trkpt lat="46.68367" lon="-1.71208">
        <ele>54</ele>
        <time>2018-03-16T21:19:06Z</time>
      </trkpt>
      <trkpt lat="46.6837" lon="-1.71179">
        <ele>54</ele>
        <time>2018-03-16T21:20:06Z</time>
      </trkpt>
      <trkpt lat="46.68372" lon="-1.71141">
        <ele>54</ele>
        <time>2018-03-16T21:21:06Z</time>
      </trkpt>
      <trkpt lat="46.68374" lon="-1.71103">
        <ele>54</ele>
        <time>2018-03-16T21:22:06Z</time>
      </trkpt>
      <trkpt lat="46.68377" lon="-1.71036">
        <ele>54</ele>
        <time>2018-03-16T21:23:06Z</time>
      </trkpt>
      <trkpt lat="46.68379" lon="-1.71001">
        <ele>53</ele>
        <time>2018-03-16T21:24:06Z</time>
      </trkpt>
      <trkpt lat="46.6838" lon="-1.70975">
        <ele>53</ele>
        <time>2018-03-16T21:25:06Z</time>
      </trkpt>
      <trkpt lat="46.68381" lon="-1.70947">
        <ele>52</ele>
        <time>2018-03-16T21:26:06Z</time>
      </trkpt>
      <trkpt lat="46.6838" lon="-1.70922">
        <ele>52</ele>
        <time>2018-03-16T21:27:06Z</time>
      </trkpt>
      <trkpt lat="46.68379" lon="-1.70903">
        <ele>52</ele>
        <time>2018-03-16T21:28:06Z</time>
      </trkpt>
      <trkpt lat="46.68375" lon="-1.70873">
        <ele>51</ele>
        <time>2018-03-16T21:29:06Z</time>
      </trkpt>
      <trkpt lat="46.68368" lon="-1.70831">
        <ele>50</ele>
        <time>2018-03-16T21:30:06Z</time>
      </trkpt>
      <trkpt lat="46.68356" lon="-1.70784">
        <ele>50</ele>
        <time>2018-03-16T21:31:06Z</time>
      </trkpt>
      <trkpt lat="46.68339" lon="-1.70714">
        <ele>48</ele>
        <time>2018-03-16T21:32:06Z</time>
      </trkpt>
      <trkpt lat="46.68317" lon="-1.70631">
        <ele>47</ele>
        <time>2018-03-16T21:33:06Z</time>
      </trkpt>
      <trkpt lat="46.68299" lon="-1.70552">
        <ele>46</ele>
        <time>2018-03-16T21:34:06Z</time>
      </trkpt>
      <trkpt lat="46.68284" lon="-1.70491">
        <ele>45</ele>
        <time>2018-03-16T21:35:06Z</time>
      </trkpt>
      <trkpt lat="46.68271" lon="-1.70435">
        <ele>45</ele>
        <time>2018-03-16T21:36:06Z</time>
      </trkpt>
      <trkpt lat="46.68263" lon="-1.70381">
        <ele>43</ele>
        <time>2018-03-16T21:37:06Z</time>
      </trkpt>
      <trkpt lat="46.68259" lon="-1.70337">
        <ele>42</ele>
        <time>2018-03-16T21:38:06Z</time>
      </trkpt>
      <trkpt lat="46.68258" lon="-1.70316">
        <ele>41</ele>
        <time>2018-03-16T21:39:06Z</time>
      </trkpt>
      <trkpt lat="46.68258" lon="-1.70271">
        <ele>40</ele>
        <time>2018-03-16T21:40:06Z</time>
      </trkpt>
      <trkpt lat="46.68257" lon="-1.70221">
        <ele>38</ele>
        <time>2018-03-16T21:41:06Z</time>
      </trkpt>
      <trkpt lat="46.68257" lon="-1.70169">
        <ele>37</ele>
        <time>2018-03-16T21:42:06Z</time>
      </trkpt>
      <trkpt lat="46.68255" lon="-1.70143">
        <ele>36</ele>
        <time>2018-03-16T21:43:06Z</time>
      </trkpt>
      <trkpt lat="46.6825" lon="-1.70114">
        <ele>36</ele>
        <time>2018-03-16T21:44:06Z</time>
      </trkpt>
      <trkpt lat="46.68244" lon="-1.70092">
        <ele>35</ele>
        <time>2018-03-16T21:45:06Z</time>
      </trkpt>
      <trkpt lat="46.68238" lon="-1.70077">
        <ele>35</ele>
        <time>2018-03-16T21:46:06Z</time>
      </trkpt>
      <trkpt lat="46.68231" lon="-1.70062">
        <ele>35</ele>
        <time>2018-03-16T21:47:06Z</time>
      </trkpt>
      <trkpt lat="46.68215" lon="-1.70038">
        <ele>36</ele>
        <time>2018-03-16T21:48:06Z</time>
      </trkpt>
      <trkpt lat="46.68194" lon="-1.70014">
        <ele>37</ele>
        <time>2018-03-16T21:49:06Z</time>
      </trkpt>
      <trkpt lat="46.68177" lon="-1.69992">
        <ele>37</ele>
        <time>2018-03-16T21:50:06Z</time>
      </trkpt>
      <trkpt lat="46.68163" lon="-1.69978">
        <ele>38</ele>
        <time>2018-03-16T21:51:06Z</time>
      </trkpt>
      <trkpt lat="46.68148" lon="-1.69959">
        <ele>37</ele>
        <time>2018-03-16T21:52:06Z</time>
      </trkpt>
      <trkpt lat="46.68136" lon="-1.69944">
        <ele>36</ele>
        <time>2018-03-16T21:53:06Z</time>
      </trkpt>
      <trkpt lat="46.68128" lon="-1.69931">
        <ele>35</ele>
        <time>2018-03-16T21:54:06Z</time>
      </trkpt>
      <trkpt lat="46.68121" lon="-1.69918">
        <ele>35</ele>
        <time>2018-03-16T21:55:06Z</time>
      </trkpt>
      <trkpt lat="46.6811" lon="-1.69893">
        <ele>34</ele>
        <time>2018-03-16T21:56:06Z</time>
      </trkpt>
      <trkpt lat="46.681" lon="-1.69864">
        <ele>34</ele>
        <time>2018-03-16T21:57:06Z</time>
      </trkpt>
      <trkpt lat="46.68096" lon="-1.69846">
        <ele>34</ele>
        <time>2018-03-16T21:58:06Z</time>
      </trkpt>
      <trkpt lat="46.68071" lon="-1.69728">
        <ele>29</ele>
        <time>2018-03-16T21:59:06Z</time>
      </trkpt>
      <trkpt lat="46.68064" lon="-1.69679">
        <ele>27</ele>
        <time>2018-03-16T22:00:06Z</time>
      </trkpt>
      <trkpt lat="46.68058" lon="-1.69624">
        <ele>25</ele>
        <time>2018-03-16T22:01:06Z</time>
      </trkpt>
      <trkpt lat="46.68055" lon="-1.69572">
        <ele>24</ele>
        <time>2018-03-16T22:02:06Z</time>
      </trkpt>
      <trkpt lat="46.68054" lon="-1.69532">
        <ele>24</ele>
        <time>2018-03-16T22:03:06Z</time>
      </trkpt>
      <trkpt lat="46.68053" lon="-1.69491">
        <ele>24</ele>
        <time>2018-03-16T22:04:06Z</time>
      </trkpt>
      <trkpt lat="46.68051" lon="-1.69451">
        <ele>24</ele>
        <time>2018-03-16T22:05:06Z</time>
      </trkpt>
      <trkpt lat="46.6805" lon="-1.69409">
        <ele>24</ele>
        <time>2018-03-16T22:06:06Z</time>
      </trkpt>
      <trkpt lat="46.68048" lon="-1.69369">
        <ele>25</ele>
        <time>2018-03-16T22:07:06Z</time>
      </trkpt>
      <trkpt lat="46.68047" lon="-1.69326">
        <ele>26</ele>
        <time>2018-03-16T22:08:06Z</time>
      </trkpt>
      <trkpt lat="46.68047" lon="-1.69306">
        <ele>26</ele>
        <time>2018-03-16T22:09:06Z</time>
      </trkpt>
      <trkpt lat="46.68046" lon="-1.69285">
        <ele>26</ele>
        <time>2018-03-16T22:10:06Z</time>
      </trkpt>
      <trkpt lat="46.68044" lon="-1.69245">
        <ele>26</ele>
        <time>2018-03-16T22:11:06Z</time>
      </trkpt>
      <trkpt lat="46.68043" lon="-1.69141">
        <ele>25</ele>
        <time>2018-03-16T22:12:06Z</time>
      </trkpt>
      <trkpt lat="46.68044" lon="-1.69117">
        <ele>26</ele>
        <time>2018-03-16T22:13:06Z</time>
      </trkpt>
      <trkpt lat="46.68046" lon="-1.69093">
        <ele>26</ele>
        <time>2018-03-16T22:14:06Z</time>
      </trkpt>
      <trkpt lat="46.68054" lon="-1.69036">
        <ele>27</ele>
        <time>2018-03-16T22:15:06Z</time>
      </trkpt>
      <trkpt lat="46.68056" lon="-1.69016">
        <ele>27</ele>
        <time>2018-03-16T22:16:06Z</time>
      </trkpt>
      <trkpt lat="46.68058" lon="-1.68992">
        <ele>27</ele>
        <time>2018-03-16T22:17:06Z</time>
      </trkpt>
      <trkpt lat="46.68061" lon="-1.68962">
        <ele>27</ele>
        <time>2018-03-16T22:18:06Z</time>
      </trkpt>
      <trkpt lat="46.68064" lon="-1.68919">
        <ele>27</ele>
        <time>2018-03-16T22:19:06Z</time>
      </trkpt>
      <trkpt lat="46.68066" lon="-1.68888">
        <ele>26</ele>
        <time>2018-03-16T22:20:06Z</time>
      </trkpt>
      <trkpt lat="46.68066" lon="-1.6887">
        <ele>26</ele>
        <time>2018-03-16T22:21:06Z</time>
      </trkpt>
      <trkpt lat="46.68064" lon="-1.6885">
        <ele>25</ele>
        <time>2018-03-16T22:22:06Z</time>
      </trkpt>
      <trkpt lat="46.68062" lon="-1.68838">
        <ele>25</ele>
        <time>2018-03-16T22:23:06Z</time>
      </trkpt>
      <trkpt lat="46.68058" lon="-1.68823">
        <ele>24</ele>
        <time>2018-03-16T22:24:06Z</time>
      </trkpt>
      <trkpt lat="46.68052" lon="-1.68809">
        <ele>23</ele>
        <time>2018-03-16T22:25:06Z</time>
      </trkpt>
      <trkpt lat="46.68046" lon="-1.68801">
        <ele>23</ele>
        <time>2018-03-16T22:26:06Z</time>
      </trkpt>
      <trkpt lat="46.68042" lon="-1.68796">
        <ele>23</ele>
        <time>2018-03-16T22:27:06Z</time>
      </trkpt>
      <trkpt lat="46.68036" lon="-1.68789">
        <ele>22</ele>
        <time>2018-03-16T22:28:06Z</time>
      </trkpt>
      <trkpt lat="46.68028" lon="-1.68784">
        <ele>22</ele>
        <time>2018-03-16T22:29:06Z</time>
      </trkpt>
      <trkpt lat="46.68022" lon="-1.68779">
        <ele>22</ele>
        <time>2018-03-16T22:30:06Z</time>
      </trkpt>
      <trkpt lat="46.68014" lon="-1.68775">
        <ele>21</ele>
        <time>2018-03-16T22:31:06Z</time>
      </trkpt>
      <trkpt lat="46.68001" lon="-1.68769">
        <ele>21</ele>
        <time>2018-03-16T22:32:06Z</time>
      </trkpt>
      <trkpt lat="46.67982" lon="-1.6876">
        <ele>21</ele>
        <time>2018-03-16T22:33:06Z</time>
      </trkpt>
      <trkpt lat="46.67963" lon="-1.68751">
        <ele>22</ele>
        <time>2018-03-16T22:34:06Z</time>
      </trkpt>
      <trkpt lat="46.67957" lon="-1.68748">
        <ele>22</ele>
        <time>2018-03-16T22:35:06Z</time>
      </trkpt>
      <trkpt lat="46.6795" lon="-1.68744">
        <ele>22</ele>
        <time>2018-03-16T22:36:06Z</time>
      </trkpt>
      <trkpt lat="46.67943" lon="-1.68741">
        <ele>23</ele>
        <time>2018-03-16T22:37:06Z</time>
      </trkpt>
      <trkpt lat="46.67937" lon="-1.68738">
        <ele>23</ele>
        <time>2018-03-16T22:38:06Z</time>
      </trkpt>
      <trkpt lat="46.67931" lon="-1.68735">
        <ele>23</ele>
        <time>2018-03-16T22:39:06Z</time>
      </trkpt>
      <trkpt lat="46.67918" lon="-1.68729">
        <ele>23</ele>
        <time>2018-03-16T22:40:06Z</time>
      </trkpt>
      <trkpt lat="46.67899" lon="-1.68719">
        <ele>24</ele>
        <time>2018-03-16T22:41:06Z</time>
      </trkpt>
      <trkpt lat="46.67881" lon="-1.68709">
        <ele>24</ele>
        <time>2018-03-16T22:42:06Z</time>
      </trkpt>
      <trkpt lat="46.67864" lon="-1.687">
        <ele>25</ele>
        <time>2018-03-16T22:43:06Z</time>
      </trkpt>
      <trkpt lat="46.67848" lon="-1.68691">
        <ele>25</ele>
        <time>2018-03-16T22:44:06Z</time>
      </trkpt>
      <trkpt lat="46.67833" lon="-1.68682">
        <ele>25</ele>
        <time>2018-03-16T22:45:06Z</time>
      </trkpt>
      <trkpt lat="46.67827" lon="-1.68677">
        <ele>26</ele>
        <time>2018-03-16T22:46:06Z</time>
      </trkpt>
      <trkpt lat="46.6782" lon="-1.68671">
        <ele>26</ele>
        <time>2018-03-16T22:47:06Z</time>
      </trkpt>
      <trkpt lat="46.67814" lon="-1.68665">
        <ele>26</ele>
        <time>2018-03-16T22:48:06Z</time>
      </trkpt>
      <trkpt lat="46.67808" lon="-1.68657">
        <ele>26</ele>
        <time>2018-03-16T22:49:06Z</time>
      </trkpt>
      <trkpt lat="46.67802" lon="-1.68648">
        <ele>26</ele>
        <time>2018-03-16T22:50:06Z</time>
      </trkpt>
      <trkpt lat="46.67796" lon="-1.68635">
        <ele>26</ele>
        <time>2018-03-16T22:51:06Z</time>
      </trkpt>
      <trkpt lat="46.67794" lon="-1.6863">
        <ele>26</ele>
        <time>2018-03-16T22:52:06Z</time>
      </trkpt>
      <trkpt lat="46.67791" lon="-1.68624">
        <ele>26</ele>
        <time>2018-03-16T22:53:06Z</time>
      </trkpt>
      <trkpt lat="46.67787" lon="-1.68611">
        <ele>26</ele>
        <time>2018-03-16T22:54:06Z</time>
      </trkpt>
      <trkpt lat="46.67783" lon="-1.68599">
        <ele>26</ele>
        <time>2018-03-16T22:55:06Z</time>
      </trkpt>
      <trkpt lat="46.6778" lon="-1.68583">
        <ele>27</ele>
        <time>2018-03-16T22:56:06Z</time>
      </trkpt>
      <trkpt lat="46.67772" lon="-1.68539">
        <ele>26</ele>
        <time>2018-03-16T22:57:06Z</time>
      </trkpt>
      <trkpt lat="46.67766" lon="-1.685">
        <ele>26</ele>
        <time>2018-03-16T22:58:06Z</time>
      </trkpt>
      <trkpt lat="46.67765" lon="-1.68493">
        <ele>26</ele>
        <time>2018-03-16T22:59:06Z</time>
      </trkpt>
      <trkpt lat="46.67762" lon="-1.6848">
        <ele>25</ele>
        <time>2018-03-16T23:00:06Z</time>
      </trkpt>
      <trkpt lat="46.6776" lon="-1.68469">
        <ele>25</ele>
        <time>2018-03-16T23:01:06Z</time>
      </trkpt>
      <trkpt lat="46.6776" lon="-1.68466">
        <ele>25</ele>
        <time>2018-03-16T23:02:06Z</time>
      </trkpt>
      <trkpt lat="46.67756" lon="-1.68448">
        <ele>25</ele>
        <time>2018-03-16T23:03:06Z</time>
      </trkpt>
      <trkpt lat="46.67753" lon="-1.68427">
        <ele>25</ele>
        <time>2018-03-16T23:04:06Z</time>
      </trkpt>
      <trkpt lat="46.67749" lon="-1.68409">
        <ele>25</ele>
        <time>2018-03-16T23:05:06Z</time>
      </trkpt>
      <trkpt lat="46.67746" lon="-1.68391">
        <ele>25</ele>
        <time>2018-03-16T23:06:06Z</time>
      </trkpt>
      <trkpt lat="46.67742" lon="-1.68373">
        <ele>24</ele>
        <time>2018-03-16T23:07:06Z</time>
      </trkpt>
      <trkpt lat="46.67737" lon="-1.68347">
        <ele>24</ele>
        <time>2018-03-16T23:08:06Z</time>
      </trkpt>
      <trkpt lat="46.67733" lon="-1.68322">
        <ele>24</ele>
        <time>2018-03-16T23:09:06Z</time>
      </trkpt>
      <trkpt lat="46.67728" lon="-1.68296">
        <ele>24</ele>
        <time>2018-03-16T23:10:06Z</time>
      </trkpt>
      <trkpt lat="46.67724" lon="-1.68273">
        <ele>25</ele>
        <time>2018-03-16T23:11:06Z</time>
      </trkpt>
      <trkpt lat="46.6772" lon="-1.68252">
        <ele>25</ele>
        <time>2018-03-16T23:12:06Z</time>
      </trkpt>
      <trkpt lat="46.67717" lon="-1.6824">
        <ele>25</ele>
        <time>2018-03-16T23:13:06Z</time>
      </trkpt>
      <trkpt lat="46.67711" lon="-1.68208">
        <ele>26</ele>
        <time>2018-03-16T23:14:06Z</time>
      </trkpt>
      <trkpt lat="46.67707" lon="-1.68183">
        <ele>26</ele>
        <time>2018-03-16T23:15:06Z</time>
      </trkpt>
      <trkpt lat="46.67706" lon="-1.68176">
        <ele>27</ele>
        <time>2018-03-16T23:16:06Z</time>
      </trkpt>
      <trkpt lat="46.67706" lon="-1.68173">
        <ele>27</ele>
        <time>2018-03-16T23:17:06Z</time>
      </trkpt>
      <trkpt lat="46.67703" lon="-1.68151">
        <ele>27</ele>
        <time>2018-03-16T23:18:06Z</time>
      </trkpt>
      <trkpt lat="46.67701" lon="-1.68136">
        <ele>28</ele>
        <time>2018-03-16T23:19:06Z</time>
      </trkpt>
      <trkpt lat="46.677" lon="-1.68132">
        <ele>28</ele>
        <time>2018-03-16T23:20:06Z</time>
      </trkpt>
      <trkpt lat="46.67699" lon="-1.68128">
        <ele>28</ele>
        <time>2018-03-16T23:21:06Z</time>
      </trkpt>
      <trkpt lat="46.67697" lon="-1.68121">
        <ele>29</ele>
        <time>2018-03-16T23:22:06Z</time>
      </trkpt>
      <trkpt lat="46.67694" lon="-1.68112">
        <ele>29</ele>
        <time>2018-03-16T23:23:06Z</time>
      </trkpt>
      <trkpt lat="46.67691" lon="-1.68099">
        <ele>30</ele>
        <time>2018-03-16T23:24:06Z</time>
      </trkpt>
      <trkpt lat="46.67682" lon="-1.6806">
        <ele>31</ele>
        <time>2018-03-16T23:25:06Z</time>
      </trkpt>
      <trkpt lat="46.67673" lon="-1.68018">
        <ele>33</ele>
        <time>2018-03-16T23:26:06Z</time>
      </trkpt>
      <trkpt lat="46.67665" lon="-1.67984">
        <ele>33</ele>
        <time>2018-03-16T23:27:06Z</time>
      </trkpt>
      <trkpt lat="46.67656" lon="-1.67946">
        <ele>34</ele>
        <time>2018-03-16T23:28:06Z</time>
      </trkpt>
      <trkpt lat="46.6764" lon="-1.67875">
        <ele>36</ele>
        <time>2018-03-16T23:29:06Z</time>
      </trkpt>
      <trkpt lat="46.67636" lon="-1.67849">
        <ele>36</ele>
        <time>2018-03-16T23:30:06Z</time>
      </trkpt>
      <trkpt lat="46.67634" lon="-1.67839">
        <ele>36</ele>
        <time>2018-03-16T23:31:06Z</time>
      </trkpt>
      <trkpt lat="46.67632" lon="-1.67831">
        <ele>36</ele>
        <time>2018-03-16T23:32:06Z</time>
      </trkpt>
      <trkpt lat="46.6763" lon="-1.67826">
        <ele>36</ele>
        <time>2018-03-16T23:33:06Z</time>
      </trkpt>
      <trkpt lat="46.67628" lon="-1.67817">
        <ele>35</ele>
        <time>2018-03-16T23:34:06Z</time>
      </trkpt>
      <trkpt lat="46.67625" lon="-1.67811">
        <ele>35</ele>
        <time>2018-03-16T23:35:06Z</time>
      </trkpt>
      <trkpt lat="46.67623" lon="-1.67806">
        <ele>35</ele>
        <time>2018-03-16T23:36:06Z</time>
      </trkpt>
      <trkpt lat="46.67621" lon="-1.67803">
        <ele>34</ele>
        <time>2018-03-16T23:37:06Z</time>
      </trkpt>
      <trkpt lat="46.67618" lon="-1.67799">
        <ele>34</ele>
        <time>2018-03-16T23:38:06Z</time>
      </trkpt>
      <trkpt lat="46.67614" lon="-1.67795">
        <ele>34</ele>
        <time>2018-03-16T23:39:06Z</time>
      </trkpt>
      <trkpt lat="46.67604" lon="-1.67792">
        <ele>34</ele>
        <time>2018-03-16T23:40:06Z</time>
      </trkpt>
      <trkpt lat="46.67582" lon="-1.67788">
        <ele>34</ele>
        <time>2018-03-16T23:41:06Z</time>
      </trkpt>
      <trkpt lat="46.67555" lon="-1.67784">
        <ele>34</ele>
        <time>2018-03-16T23:42:06Z</time>
      </trkpt>
      <trkpt lat="46.67536" lon="-1.67781">
        <ele>35</ele>
        <time>2018-03-16T23:43:06Z</time>
      </trkpt>
      <trkpt lat="46.67527" lon="-1.67778">
        <ele>34</ele>
        <time>2018-03-16T23:44:06Z</time>
      </trkpt>
      <trkpt lat="46.67522" lon="-1.67776">
        <ele>34</ele>
        <time>2018-03-16T23:45:06Z</time>
      </trkpt>
      <trkpt lat="46.67516" lon="-1.67773">
        <ele>34</ele>
        <time>2018-03-16T23:46:06Z</time>
      </trkpt>
      <trkpt lat="46.67513" lon="-1.67771">
        <ele>34</ele>
        <time>2018-03-16T23:47:06Z</time>
      </trkpt>
      <trkpt lat="46.67508" lon="-1.67764">
        <ele>33</ele>
        <time>2018-03-16T23:48:06Z</time>
      </trkpt>
      <trkpt lat="46.67505" lon="-1.67757">
        <ele>33</ele>
        <time>2018-03-16T23:49:06Z</time>
      </trkpt>
      <trkpt lat="46.67503" lon="-1.6775">
        <ele>32</ele>
        <time>2018-03-16T23:50:06Z</time>
      </trkpt>
      <trkpt lat="46.67501" lon="-1.67729">
        <ele>30</ele>
        <time>2018-03-16T23:51:06Z</time>
      </trkpt>
      <trkpt lat="46.67501" lon="-1.67707">
        <ele>29</ele>
        <time>2018-03-16T23:52:06Z</time>
      </trkpt>
      <trkpt lat="46.675" lon="-1.67677">
        <ele>27</ele>
        <time>2018-03-16T23:53:06Z</time>
      </trkpt>
      <trkpt lat="46.67503" lon="-1.67604">
        <ele>27</ele>
        <time>2018-03-16T23:54:06Z</time>
      </trkpt>
      <trkpt lat="46.67506" lon="-1.67563">
        <ele>29</ele>
        <time>2018-03-16T23:55:06Z</time>
      </trkpt>
      <trkpt lat="46.6751" lon="-1.67516">
        <ele>32</ele>
        <time>2018-03-16T23:56:06Z</time>
      </trkpt>
      <trkpt lat="46.67515" lon="-1.6748">
        <ele>34</ele>
        <time>2018-03-16T23:57:06Z</time>
      </trkpt>
      <trkpt lat="46.67516" lon="-1.67472">
        <ele>35</ele>
        <time>2018-03-16T23:58:06Z</time>
      </trkpt>
      <trkpt lat="46.6752" lon="-1.67453">
        <ele>36</ele>
        <time>2018-03-16T23:59:06Z</time>
      </trkpt>
      <trkpt lat="46.6753" lon="-1.67398">
        <ele>38</ele>
        <time>2018-03-17T00:00:06Z</time>
      </trkpt>
      <trkpt lat="46.67532" lon="-1.6739">
        <ele>38</ele>
        <time>2018-03-17T00:01:06Z</time>
      </trkpt>
      <trkpt lat="46.67535" lon="-1.67376">
        <ele>38</ele>
        <time>2018-03-17T00:02:06Z</time>
      </trkpt>
      <trkpt lat="46.67537" lon="-1.67364">
        <ele>39</ele>
        <time>2018-03-17T00:03:06Z</time>
      </trkpt>
      <trkpt lat="46.67539" lon="-1.67359">
        <ele>39</ele>
        <time>2018-03-17T00:04:06Z</time>
      </trkpt>
      <trkpt lat="46.67543" lon="-1.67332">
        <ele>39</ele>
        <time>2018-03-17T00:05:06Z</time>
      </trkpt>
      <trkpt lat="46.67543" lon="-1.67332">
        <ele>39</ele>
        <time>2018-03-17T00:06:06Z</time>
      </trkpt>
      <trkpt lat="46.67504" lon="-1.6732">
        <ele>40</ele>
        <time>2018-03-17T00:07:06Z</time>
      </trkpt>
      <trkpt lat="46.67489" lon="-1.67315">
        <ele>40</ele>
        <time>2018-03-17T00:08:06Z</time>
      </trkpt>
      <trkpt lat="46.67467" lon="-1.6731">
        <ele>41</ele>
        <time>2018-03-17T00:09:06Z</time>
      </trkpt>
      <trkpt lat="46.67458" lon="-1.6731">
        <ele>41</ele>
        <time>2018-03-17T00:10:06Z</time>
      </trkpt>
      <trkpt lat="46.67444" lon="-1.67312">
        <ele>42</ele>
        <time>2018-03-17T00:11:06Z</time>
      </trkpt>
      <trkpt lat="46.6743" lon="-1.67318">
        <ele>42</ele>
        <time>2018-03-17T00:12:06Z</time>
      </trkpt>
      <trkpt lat="46.67423" lon="-1.67323">
        <ele>42</ele>
        <time>2018-03-17T00:13:06Z</time>
      </trkpt>
      <trkpt lat="46.67409" lon="-1.67332">
        <ele>42</ele>
        <time>2018-03-17T00:14:06Z</time>
      </trkpt>
      <trkpt lat="46.67394" lon="-1.67339">
        <ele>42</ele>
        <time>2018-03-17T00:15:06Z</time>
      </trkpt>
      <trkpt lat="46.67379" lon="-1.67344">
        <ele>42</ele>
        <time>2018-03-17T00:16:06Z</time>
      </trkpt>
      <trkpt lat="46.67368" lon="-1.67348">
        <ele>43</ele>
        <time>2018-03-17T00:17:06Z</time>
      </trkpt>
      <trkpt lat="46.67356" lon="-1.67349">
        <ele>43</ele>
        <time>2018-03-17T00:18:06Z</time>
      </trkpt>
      <trkpt lat="46.6734" lon="-1.67349">
        <ele>43</ele>
        <time>2018-03-17T00:19:06Z</time>
      </trkpt>
      <trkpt lat="46.67316" lon="-1.67346">
        <ele>43</ele>
        <time>2018-03-17T00:20:06Z</time>
      </trkpt>
      <trkpt lat="46.67296" lon="-1.67342">
        <ele>43</ele>
        <time>2018-03-17T00:21:06Z</time>
      </trkpt>
      <trkpt lat="46.67274" lon="-1.67337">
        <ele>43</ele>
        <time>2018-03-17T00:22:06Z</time>
      </trkpt>
      <trkpt lat="46.67256" lon="-1.67334">
        <ele>43</ele>
        <time>2018-03-17T00:23:06Z</time>
      </trkpt>
      <trkpt lat="46.67235" lon="-1.67331">
        <ele>43</ele>
        <time>2018-03-17T00:24:06Z</time>
      </trkpt>
      <trkpt lat="46.6721" lon="-1.67326">
        <ele>43</ele>
        <time>2018-03-17T00:25:06Z</time>
      </trkpt>
      <trkpt lat="46.67186" lon="-1.67321">
        <ele>43</ele>
        <time>2018-03-17T00:26:06Z</time>
      </trkpt>
      <trkpt lat="46.67164" lon="-1.67317">
        <ele>42</ele>
        <time>2018-03-17T00:27:06Z</time>
      </trkpt>
      <trkpt lat="46.67138" lon="-1.67311">
        <ele>42</ele>
        <time>2018-03-17T00:28:06Z</time>
      </trkpt>
      <trkpt lat="46.67119" lon="-1.67308">
        <ele>42</ele>
        <time>2018-03-17T00:29:06Z</time>
      </trkpt>
      <trkpt lat="46.67113" lon="-1.67306">
        <ele>42</ele>
        <time>2018-03-17T00:30:06Z</time>
      </trkpt>
      <trkpt lat="46.67087" lon="-1.67297">
        <ele>42</ele>
        <time>2018-03-17T00:31:06Z</time>
      </trkpt>
      <trkpt lat="46.6707" lon="-1.67288">
        <ele>42</ele>
        <time>2018-03-17T00:32:06Z</time>
      </trkpt>
      <trkpt lat="46.67063" lon="-1.67283">
        <ele>42</ele>
        <time>2018-03-17T00:33:06Z</time>
      </trkpt>
      <trkpt lat="46.67055" lon="-1.67277">
        <ele>42</ele>
        <time>2018-03-17T00:34:06Z</time>
      </trkpt>
      <trkpt lat="46.67047" lon="-1.6727">
        <ele>43</ele>
        <time>2018-03-17T00:35:06Z</time>
      </trkpt>
      <trkpt lat="46.67032" lon="-1.67254">
        <ele>43</ele>
        <time>2018-03-17T00:36:06Z</time>
      </trkpt>
      <trkpt lat="46.67011" lon="-1.6723">
        <ele>44</ele>
        <time>2018-03-17T00:37:06Z</time>
      </trkpt>
      <trkpt lat="46.66985" lon="-1.67198">
        <ele>45</ele>
        <time>2018-03-17T00:38:06Z</time>
      </trkpt>
      <trkpt lat="46.66968" lon="-1.67176">
        <ele>45</ele>
        <time>2018-03-17T00:39:06Z</time>
      </trkpt>
      <trkpt lat="46.66959" lon="-1.67164">
        <ele>46</ele>
        <time>2018-03-17T00:40:06Z</time>
      </trkpt>
      <trkpt lat="46.66951" lon="-1.67155">
        <ele>46</ele>
        <time>2018-03-17T00:41:06Z</time>
      </trkpt>
      <trkpt lat="46.6693" lon="-1.67128">
        <ele>46</ele>
        <time>2018-03-17T00:42:06Z</time>
      </trkpt>
      <trkpt lat="46.66871" lon="-1.67052">
        <ele>44</ele>
        <time>2018-03-17T00:43:06Z</time>
      </trkpt>
      <trkpt lat="46.66853" lon="-1.6703">
        <ele>44</ele>
        <time>2018-03-17T00:44:06Z</time>
      </trkpt>
      <trkpt lat="46.66847" lon="-1.67021">
        <ele>43</ele>
        <time>2018-03-17T00:45:06Z</time>
      </trkpt>
      <trkpt lat="46.66838" lon="-1.67005">
        <ele>43</ele>
        <time>2018-03-17T00:46:06Z</time>
      </trkpt>
      <trkpt lat="46.66828" lon="-1.66988">
        <ele>43</ele>
        <time>2018-03-17T00:47:06Z</time>
      </trkpt>
      <trkpt lat="46.66817" lon="-1.66969">
        <ele>43</ele>
        <time>2018-03-17T00:48:06Z</time>
      </trkpt>
      <trkpt lat="46.66794" lon="-1.66926">
        <ele>42</ele>
        <time>2018-03-17T00:49:06Z</time>
      </trkpt>
      <trkpt lat="46.66775" lon="-1.66891">
        <ele>42</ele>
        <time>2018-03-17T00:50:06Z</time>
      </trkpt>
      <trkpt lat="46.66756" lon="-1.66858">
        <ele>43</ele>
        <time>2018-03-17T00:51:06Z</time>
      </trkpt>
      <trkpt lat="46.6674" lon="-1.66827">
        <ele>43</ele>
        <time>2018-03-17T00:52:06Z</time>
      </trkpt>
      <trkpt lat="46.66728" lon="-1.66805">
        <ele>43</ele>
        <time>2018-03-17T00:53:06Z</time>
      </trkpt>
      <trkpt lat="46.6671" lon="-1.66773">
        <ele>43</ele>
        <time>2018-03-17T00:54:06Z</time>
      </trkpt>
      <trkpt lat="46.66689" lon="-1.66733">
        <ele>43</ele>
        <time>2018-03-17T00:55:06Z</time>
      </trkpt>
      <trkpt lat="46.66674" lon="-1.66706">
        <ele>43</ele>
        <time>2018-03-17T00:56:06Z</time>
      </trkpt>
      <trkpt lat="46.66662" lon="-1.66681">
        <ele>43</ele>
        <time>2018-03-17T00:57:06Z</time>
      </trkpt>
      <trkpt lat="46.66657" lon="-1.6667">
        <ele>43</ele>
        <time>2018-03-17T00:58:06Z</time>
      </trkpt>
      <trkpt lat="46.66649" lon="-1.66651">
        <ele>43</ele>
        <time>2018-03-17T00:59:06Z</time>
      </trkpt>
      <trkpt lat="46.66645" lon="-1.6664">
        <ele>42</ele>
        <time>2018-03-17T01:00:06Z</time>
      </trkpt>
      <trkpt lat="46.66635" lon="-1.66615">
        <ele>42</ele>
        <time>2018-03-17T01:01:06Z</time>
      </trkpt>
      <trkpt lat="46.66601" lon="-1.66518">
        <ele>42</ele>
        <time>2018-03-17T01:02:06Z</time>
      </trkpt>
      <trkpt lat="46.66597" lon="-1.66505">
        <ele>42</ele>
        <time>2018-03-17T01:03:06Z</time>
      </trkpt>
      <trkpt lat="46.66575" lon="-1.66444">
        <ele>41</ele>
        <time>2018-03-17T01:04:06Z</time>
      </trkpt>
      <trkpt lat="46.66549" lon="-1.66371">
        <ele>41</ele>
        <time>2018-03-17T01:05:06Z</time>
      </trkpt>
      <trkpt lat="46.66545" lon="-1.6636">
        <ele>41</ele>
        <time>2018-03-17T01:06:06Z</time>
      </trkpt>
      <trkpt lat="46.66541" lon="-1.66347">
        <ele>41</ele>
        <time>2018-03-17T01:07:06Z</time>
      </trkpt>
      <trkpt lat="46.66536" lon="-1.66335">
        <ele>41</ele>
        <time>2018-03-17T01:08:06Z</time>
      </trkpt>
      <trkpt lat="46.66527" lon="-1.6631">
        <ele>41</ele>
        <time>2018-03-17T01:09:06Z</time>
      </trkpt>
      <trkpt lat="46.66519" lon="-1.66287">
        <ele>41</ele>
        <time>2018-03-17T01:10:06Z</time>
      </trkpt>
      <trkpt lat="46.66512" lon="-1.66267">
        <ele>41</ele>
        <time>2018-03-17T01:11:06Z</time>
      </trkpt>
      <trkpt lat="46.66499" lon="-1.66232">
        <ele>42</ele>
        <time>2018-03-17T01:12:06Z</time>
      </trkpt>
      <trkpt lat="46.66476" lon="-1.66165">
        <ele>43</ele>
        <time>2018-03-17T01:13:06Z</time>
      </trkpt>
      <trkpt lat="46.66453" lon="-1.66102">
        <ele>43</ele>
        <time>2018-03-17T01:14:06Z</time>
      </trkpt>
      <trkpt lat="46.66439" lon="-1.66061">
        <ele>43</ele>
        <time>2018-03-17T01:15:06Z</time>
      </trkpt>
      <trkpt lat="46.66428" lon="-1.66032">
        <ele>43</ele>
        <time>2018-03-17T01:16:06Z</time>
      </trkpt>
      <trkpt lat="46.66411" lon="-1.65986">
        <ele>43</ele>
        <time>2018-03-17T01:17:06Z</time>
      </trkpt>
      <trkpt lat="46.66391" lon="-1.6593">
        <ele>41</ele>
        <time>2018-03-17T01:18:06Z</time>
      </trkpt>
      <trkpt lat="46.66386" lon="-1.65915">
        <ele>41</ele>
        <time>2018-03-17T01:19:06Z</time>
      </trkpt>
      <trkpt lat="46.66369" lon="-1.65867">
        <ele>41</ele>
        <time>2018-03-17T01:20:06Z</time>
      </trkpt>
      <trkpt lat="46.66341" lon="-1.65791">
        <ele>42</ele>
        <time>2018-03-17T01:21:06Z</time>
      </trkpt>
      <trkpt lat="46.66313" lon="-1.65713">
        <ele>42</ele>
        <time>2018-03-17T01:22:06Z</time>
      </trkpt>
      <trkpt lat="46.66297" lon="-1.65667">
        <ele>43</ele>
        <time>2018-03-17T01:23:06Z</time>
      </trkpt>
      <trkpt lat="46.66284" lon="-1.6563">
        <ele>44</ele>
        <time>2018-03-17T01:24:06Z</time>
      </trkpt>
      <trkpt lat="46.66275" lon="-1.65607">
        <ele>44</ele>
        <time>2018-03-17T01:25:06Z</time>
      </trkpt>
      <trkpt lat="46.66268" lon="-1.65588">
        <ele>45</ele>
        <time>2018-03-17T01:26:06Z</time>
      </trkpt>
      <trkpt lat="46.66263" lon="-1.65572">
        <ele>45</ele>
        <time>2018-03-17T01:27:06Z</time>
      </trkpt>
      <trkpt lat="46.66258" lon="-1.65559">
        <ele>46</ele>
        <time>2018-03-17T01:28:06Z</time>
      </trkpt>
      <trkpt lat="46.66252" lon="-1.65543">
        <ele>46</ele>
        <time>2018-03-17T01:29:06Z</time>
      </trkpt>
      <trkpt lat="46.66246" lon="-1.65525">
        <ele>46</ele>
        <time>2018-03-17T01:30:06Z</time>
      </trkpt>
      <trkpt lat="46.66239" lon="-1.65504">
        <ele>46</ele>
        <time>2018-03-17T01:31:06Z</time>
      </trkpt>
      <trkpt lat="46.66232" lon="-1.65487">
        <ele>46</ele>
        <time>2018-03-17T01:32:06Z</time>
      </trkpt>
      <trkpt lat="46.66224" lon="-1.65465">
        <ele>46</ele>
        <time>2018-03-17T01:33:06Z</time>
      </trkpt>
      <trkpt lat="46.66221" lon="-1.65455">
        <ele>46</ele>
        <time>2018-03-17T01:34:06Z</time>
      </trkpt>
      <trkpt lat="46.66216" lon="-1.65442">
        <ele>46</ele>
        <time>2018-03-17T01:35:06Z</time>
      </trkpt>
      <trkpt lat="46.66207" lon="-1.65417">
        <ele>46</ele>
        <time>2018-03-17T01:36:06Z</time>
      </trkpt>
      <trkpt lat="46.66195" lon="-1.65381">
        <ele>45</ele>
        <time>2018-03-17T01:37:06Z</time>
      </trkpt>
      <trkpt lat="46.66188" lon="-1.65362">
        <ele>45</ele>
        <time>2018-03-17T01:38:06Z</time>
      </trkpt>
      <trkpt lat="46.66167" lon="-1.65303">
        <ele>44</ele>
        <time>2018-03-17T01:39:06Z</time>
      </trkpt>
      <trkpt lat="46.66145" lon="-1.65244">
        <ele>44</ele>
        <time>2018-03-17T01:40:06Z</time>
      </trkpt>
      <trkpt lat="46.66136" lon="-1.65219">
        <ele>44</ele>
        <time>2018-03-17T01:41:06Z</time>
      </trkpt>
      <trkpt lat="46.66124" lon="-1.65185">
        <ele>44</ele>
        <time>2018-03-17T01:42:06Z</time>
      </trkpt>
      <trkpt lat="46.6612" lon="-1.65174">
        <ele>44</ele>
        <time>2018-03-17T01:43:06Z</time>
      </trkpt>
      <trkpt lat="46.66116" lon="-1.65162">
        <ele>44</ele>
        <time>2018-03-17T01:44:06Z</time>
      </trkpt>
      <trkpt lat="46.66112" lon="-1.65152">
        <ele>44</ele>
        <time>2018-03-17T01:45:06Z</time>
      </trkpt>
      <trkpt lat="46.66103" lon="-1.65128">
        <ele>44</ele>
        <time>2018-03-17T01:46:06Z</time>
      </trkpt>
      <trkpt lat="46.66095" lon="-1.65105">
        <ele>43</ele>
        <time>2018-03-17T01:47:06Z</time>
      </trkpt>
      <trkpt lat="46.66083" lon="-1.6507">
        <ele>43</ele>
        <time>2018-03-17T01:48:06Z</time>
      </trkpt>
      <trkpt lat="46.66069" lon="-1.65032">
        <ele>44</ele>
        <time>2018-03-17T01:49:06Z</time>
      </trkpt>
      <trkpt lat="46.66058" lon="-1.65">
        <ele>45</ele>
        <time>2018-03-17T01:50:06Z</time>
      </trkpt>
      <trkpt lat="46.6604" lon="-1.64951">
        <ele>43</ele>
        <time>2018-03-17T01:51:06Z</time>
      </trkpt>
      <trkpt lat="46.66032" lon="-1.64928">
        <ele>42</ele>
        <time>2018-03-17T01:52:06Z</time>
      </trkpt>
      <trkpt lat="46.66018" lon="-1.64891">
        <ele>42</ele>
        <time>2018-03-17T01:53:06Z</time>
      </trkpt>
      <trkpt lat="46.66" lon="-1.64841">
        <ele>43</ele>
        <time>2018-03-17T01:54:06Z</time>
      </trkpt>
      <trkpt lat="46.65975" lon="-1.64771">
        <ele>44</ele>
        <time>2018-03-17T01:55:06Z</time>
      </trkpt>
      <trkpt lat="46.65972" lon="-1.64763">
        <ele>44</ele>
        <time>2018-03-17T01:56:06Z</time>
      </trkpt>
      <trkpt lat="46.65957" lon="-1.64722">
        <ele>44</ele>
        <time>2018-03-17T01:57:06Z</time>
      </trkpt>
      <trkpt lat="46.65948" lon="-1.64695">
        <ele>44</ele>
        <time>2018-03-17T01:58:06Z</time>
      </trkpt>
      <trkpt lat="46.65936" lon="-1.64661">
        <ele>43</ele>
        <time>2018-03-17T01:59:06Z</time>
      </trkpt>
      <trkpt lat="46.65907" lon="-1.64583">
        <ele>43</ele>
        <time>2018-03-17T02:00:06Z</time>
      </trkpt>
      <trkpt lat="46.65854" lon="-1.64433">
        <ele>44</ele>
        <time>2018-03-17T02:01:06Z</time>
      </trkpt>
      <trkpt lat="46.65827" lon="-1.64363">
        <ele>45</ele>
        <time>2018-03-17T02:02:06Z</time>
      </trkpt>
      <trkpt lat="46.65805" lon="-1.64302">
        <ele>45</ele>
        <time>2018-03-17T02:03:06Z</time>
      </trkpt>
      <trkpt lat="46.65804" lon="-1.643">
        <ele>45</ele>
        <time>2018-03-17T02:04:06Z</time>
      </trkpt>
      <trkpt lat="46.65774" lon="-1.64215">
        <ele>45</ele>
        <time>2018-03-17T02:05:06Z</time>
      </trkpt>
      <trkpt lat="46.65752" lon="-1.64155">
        <ele>44</ele>
        <time>2018-03-17T02:06:06Z</time>
      </trkpt>
      <trkpt lat="46.65745" lon="-1.64136">
        <ele>44</ele>
        <time>2018-03-17T02:07:06Z</time>
      </trkpt>
      <trkpt lat="46.65737" lon="-1.64114">
        <ele>45</ele>
        <time>2018-03-17T02:08:06Z</time>
      </trkpt>
      <trkpt lat="46.65734" lon="-1.64106">
        <ele>45</ele>
        <time>2018-03-17T02:09:06Z</time>
      </trkpt>
      <trkpt lat="46.6573" lon="-1.64095">
        <ele>45</ele>
        <time>2018-03-17T02:10:06Z</time>
      </trkpt>
      <trkpt lat="46.65724" lon="-1.64086">
        <ele>45</ele>
        <time>2018-03-17T02:11:06Z</time>
      </trkpt>
      <trkpt lat="46.6572" lon="-1.64076">
        <ele>46</ele>
        <time>2018-03-17T02:12:06Z</time>
      </trkpt>
      <trkpt lat="46.65714" lon="-1.64066">
        <ele>46</ele>
        <time>2018-03-17T02:13:06Z</time>
      </trkpt>
      <trkpt lat="46.65708" lon="-1.64056">
        <ele>46</ele>
        <time>2018-03-17T02:14:06Z</time>
      </trkpt>
      <trkpt lat="46.65702" lon="-1.64045">
        <ele>46</ele>
        <time>2018-03-17T02:15:06Z</time>
      </trkpt>
      <trkpt lat="46.65694" lon="-1.64033">
        <ele>46</ele>
        <time>2018-03-17T02:16:06Z</time>
      </trkpt>
      <trkpt lat="46.65688" lon="-1.64024">
        <ele>47</ele>
        <time>2018-03-17T02:17:06Z</time>
      </trkpt>
      <trkpt lat="46.65681" lon="-1.64014">
        <ele>47</ele>
        <time>2018-03-17T02:18:06Z</time>
      </trkpt>
      <trkpt lat="46.65676" lon="-1.64008">
        <ele>47</ele>
        <time>2018-03-17T02:19:06Z</time>
      </trkpt>
      <trkpt lat="46.6567" lon="-1.64002">
        <ele>47</ele>
        <time>2018-03-17T02:20:06Z</time>
      </trkpt>
      <trkpt lat="46.65641" lon="-1.63977">
        <ele>46</ele>
        <time>2018-03-17T02:21:06Z</time>
      </trkpt>
      <trkpt lat="46.65607" lon="-1.63949">
        <ele>46</ele>
        <time>2018-03-17T02:22:06Z</time>
      </trkpt>
      <trkpt lat="46.65563" lon="-1.63913">
        <ele>45</ele>
        <time>2018-03-17T02:23:06Z</time>
      </trkpt>
      <trkpt lat="46.65536" lon="-1.6389">
        <ele>46</ele>
        <time>2018-03-17T02:24:06Z</time>
      </trkpt>
      <trkpt lat="46.65527" lon="-1.63881">
        <ele>46</ele>
        <time>2018-03-17T02:25:06Z</time>
      </trkpt>
      <trkpt lat="46.65518" lon="-1.63873">
        <ele>46</ele>
        <time>2018-03-17T02:26:06Z</time>
      </trkpt>
      <trkpt lat="46.65512" lon="-1.63866">
        <ele>46</ele>
        <time>2018-03-17T02:27:06Z</time>
      </trkpt>
      <trkpt lat="46.65503" lon="-1.63857">
        <ele>47</ele>
        <time>2018-03-17T02:28:06Z</time>
      </trkpt>
      <trkpt lat="46.65491" lon="-1.63845">
        <ele>47</ele>
        <time>2018-03-17T02:29:06Z</time>
      </trkpt>
      <trkpt lat="46.65481" lon="-1.63833">
        <ele>47</ele>
        <time>2018-03-17T02:30:06Z</time>
      </trkpt>
      <trkpt lat="46.65476" lon="-1.63826">
        <ele>48</ele>
        <time>2018-03-17T02:31:06Z</time>
      </trkpt>
      <trkpt lat="46.65466" lon="-1.6381">
        <ele>48</ele>
        <time>2018-03-17T02:32:06Z</time>
      </trkpt>
      <trkpt lat="46.65456" lon="-1.63794">
        <ele>48</ele>
        <time>2018-03-17T02:33:06Z</time>
      </trkpt>
      <trkpt lat="46.65446" lon="-1.63779">
        <ele>48</ele>
        <time>2018-03-17T02:34:06Z</time>
      </trkpt>
      <trkpt lat="46.65436" lon="-1.6376">
        <ele>49</ele>
        <time>2018-03-17T02:35:06Z</time>
      </trkpt>
      <trkpt lat="46.65414" lon="-1.63722">
        <ele>49</ele>
        <time>2018-03-17T02:36:06Z</time>
      </trkpt>
      <trkpt lat="46.65375" lon="-1.6365">
        <ele>50</ele>
        <time>2018-03-17T02:37:06Z</time>
      </trkpt>
      <trkpt lat="46.6537" lon="-1.63638">
        <ele>50</ele>
        <time>2018-03-17T02:38:06Z</time>
      </trkpt>
      <trkpt lat="46.65368" lon="-1.63635">
        <ele>50</ele>
        <time>2018-03-17T02:39:06Z</time>
      </trkpt>
      <trkpt lat="46.65365" lon="-1.63627">
        <ele>51</ele>
        <time>2018-03-17T02:40:06Z</time>
      </trkpt>
      <trkpt lat="46.65361" lon="-1.63617">
        <ele>51</ele>
        <time>2018-03-17T02:41:06Z</time>
      </trkpt>
      <trkpt lat="46.65356" lon="-1.63603">
        <ele>51</ele>
        <time>2018-03-17T02:42:06Z</time>
      </trkpt>
      <trkpt lat="46.65353" lon="-1.63591">
        <ele>51</ele>
        <time>2018-03-17T02:43:06Z</time>
      </trkpt>
      <trkpt lat="46.65349" lon="-1.63579">
        <ele>52</ele>
        <time>2018-03-17T02:44:06Z</time>
      </trkpt>
      <trkpt lat="46.65348" lon="-1.63577">
        <ele>52</ele>
        <time>2018-03-17T02:45:06Z</time>
      </trkpt>
      <trkpt lat="46.65345" lon="-1.63567">
        <ele>52</ele>
        <time>2018-03-17T02:46:06Z</time>
      </trkpt>
      <trkpt lat="46.65342" lon="-1.63554">
        <ele>53</ele>
        <time>2018-03-17T02:47:06Z</time>
      </trkpt>
      <trkpt lat="46.6534" lon="-1.63543">
        <ele>53</ele>
        <time>2018-03-17T02:48:06Z</time>
      </trkpt>
      <trkpt lat="46.65337" lon="-1.63529">
        <ele>54</ele>
        <time>2018-03-17T02:49:06Z</time>
      </trkpt>
      <trkpt lat="46.65335" lon="-1.63511">
        <ele>55</ele>
        <time>2018-03-17T02:50:06Z</time>
      </trkpt>
      <trkpt lat="46.65333" lon="-1.63495">
        <ele>55</ele>
        <time>2018-03-17T02:51:06Z</time>
      </trkpt>
      <trkpt lat="46.65333" lon="-1.63489">
        <ele>55</ele>
        <time>2018-03-17T02:52:06Z</time>
      </trkpt>
      <trkpt lat="46.65331" lon="-1.63474">
        <ele>55</ele>
        <time>2018-03-17T02:53:06Z</time>
      </trkpt>
      <trkpt lat="46.65329" lon="-1.63459">
        <ele>55</ele>
        <time>2018-03-17T02:54:06Z</time>
      </trkpt>
      <trkpt lat="46.65324" lon="-1.63405">
        <ele>55</ele>
        <time>2018-03-17T02:55:06Z</time>
      </trkpt>
      <trkpt lat="46.65316" lon="-1.63336">
        <ele>56</ele>
        <time>2018-03-17T02:56:06Z</time>
      </trkpt>
      <trkpt lat="46.6531" lon="-1.63273">
        <ele>55</ele>
        <time>2018-03-17T02:57:06Z</time>
      </trkpt>
      <trkpt lat="46.65309" lon="-1.63256">
        <ele>54</ele>
        <time>2018-03-17T02:58:06Z</time>
      </trkpt>
      <trkpt lat="46.65309" lon="-1.63248">
        <ele>54</ele>
        <time>2018-03-17T02:59:06Z</time>
      </trkpt>
      <trkpt lat="46.65308" lon="-1.63237">
        <ele>54</ele>
        <time>2018-03-17T03:00:06Z</time>
      </trkpt>
      <trkpt lat="46.65308" lon="-1.63219">
        <ele>55</ele>
        <time>2018-03-17T03:01:06Z</time>
      </trkpt>
      <trkpt lat="46.65306" lon="-1.6319">
        <ele>55</ele>
        <time>2018-03-17T03:02:06Z</time>
      </trkpt>
      <trkpt lat="46.65305" lon="-1.63144">
        <ele>55</ele>
        <time>2018-03-17T03:03:06Z</time>
      </trkpt>
      <trkpt lat="46.65305" lon="-1.63116">
        <ele>55</ele>
        <time>2018-03-17T03:04:06Z</time>
      </trkpt>
      <trkpt lat="46.65305" lon="-1.63107">
        <ele>55</ele>
        <time>2018-03-17T03:05:06Z</time>
      </trkpt>
      <trkpt lat="46.65304" lon="-1.63091">
        <ele>55</ele>
        <time>2018-03-17T03:06:06Z</time>
      </trkpt>
      <trkpt lat="46.65303" lon="-1.6307">
        <ele>55</ele>
        <time>2018-03-17T03:07:06Z</time>
      </trkpt>
      <trkpt lat="46.65302" lon="-1.6304">
        <ele>56</ele>
        <time>2018-03-17T03:08:06Z</time>
      </trkpt>
      <trkpt lat="46.65299" lon="-1.63013">
        <ele>57</ele>
        <time>2018-03-17T03:09:06Z</time>
      </trkpt>
      <trkpt lat="46.65295" lon="-1.62995">
        <ele>57</ele>
        <time>2018-03-17T03:10:06Z</time>
      </trkpt>
      <trkpt lat="46.65288" lon="-1.62975">
        <ele>58</ele>
        <time>2018-03-17T03:11:06Z</time>
      </trkpt>
      <trkpt lat="46.65275" lon="-1.62952">
        <ele>58</ele>
        <time>2018-03-17T03:12:06Z</time>
      </trkpt>
      <trkpt lat="46.6527" lon="-1.62946">
        <ele>58</ele>
        <time>2018-03-17T03:13:06Z</time>
      </trkpt>
      <trkpt lat="46.65264" lon="-1.62937">
        <ele>59</ele>
        <time>2018-03-17T03:14:06Z</time>
      </trkpt>
      <trkpt lat="46.65253" lon="-1.6292">
        <ele>59</ele>
        <time>2018-03-17T03:15:06Z</time>
      </trkpt>
      <trkpt lat="46.65243" lon="-1.629">
        <ele>60</ele>
        <time>2018-03-17T03:16:06Z</time>
      </trkpt>
      <trkpt lat="46.65236" lon="-1.6288">
        <ele>60</ele>
        <time>2018-03-17T03:17:06Z</time>
      </trkpt>
      <trkpt lat="46.65228" lon="-1.62856">
        <ele>61</ele>
        <time>2018-03-17T03:18:06Z</time>
      </trkpt>
      <trkpt lat="46.65222" lon="-1.62843">
        <ele>61</ele>
        <time>2018-03-17T03:19:06Z</time>
      </trkpt>
      <trkpt lat="46.65218" lon="-1.62846">
        <ele>61</ele>
        <time>2018-03-17T03:20:06Z</time>
      </trkpt>
      <trkpt lat="46.65208" lon="-1.62839">
        <ele>61</ele>
        <time>2018-03-17T03:21:06Z</time>
      </trkpt>
      <trkpt lat="46.65194" lon="-1.62828">
        <ele>62</ele>
        <time>2018-03-17T03:22:06Z</time>
      </trkpt>
      <trkpt lat="46.65172" lon="-1.62809">
        <ele>62</ele>
        <time>2018-03-17T03:23:06Z</time>
      </trkpt>
      <trkpt lat="46.65155" lon="-1.62795">
        <ele>62</ele>
        <time>2018-03-17T03:24:06Z</time>
      </trkpt>
      <trkpt lat="46.65145" lon="-1.62784">
        <ele>62</ele>
        <time>2018-03-17T03:25:06Z</time>
      </trkpt>
      <trkpt lat="46.65132" lon="-1.62768">
        <ele>62</ele>
        <time>2018-03-17T03:26:06Z</time>
      </trkpt>
      <trkpt lat="46.65121" lon="-1.62753">
        <ele>63</ele>
        <time>2018-03-17T03:27:06Z</time>
      </trkpt>
      <trkpt lat="46.65117" lon="-1.62747">
        <ele>63</ele>
        <time>2018-03-17T03:28:06Z</time>
      </trkpt>
      <trkpt lat="46.65099" lon="-1.62722">
        <ele>63</ele>
        <time>2018-03-17T03:29:06Z</time>
      </trkpt>
      <trkpt lat="46.65078" lon="-1.62692">
        <ele>63</ele>
        <time>2018-03-17T03:30:06Z</time>
      </trkpt>
      <trkpt lat="46.65061" lon="-1.62668">
        <ele>63</ele>
        <time>2018-03-17T03:31:06Z</time>
      </trkpt>
      <trkpt lat="46.65038" lon="-1.62633">
        <ele>63</ele>
        <time>2018-03-17T03:32:06Z</time>
      </trkpt>
      <trkpt lat="46.6501" lon="-1.62595">
        <ele>63</ele>
        <time>2018-03-17T03:33:06Z</time>
      </trkpt>
      <trkpt lat="46.64979" lon="-1.6255">
        <ele>64</ele>
        <time>2018-03-17T03:34:06Z</time>
      </trkpt>
      <trkpt lat="46.64973" lon="-1.62541">
        <ele>64</ele>
        <time>2018-03-17T03:35:06Z</time>
      </trkpt>
      <trkpt lat="46.64947" lon="-1.62504">
        <ele>65</ele>
        <time>2018-03-17T03:36:06Z</time>
      </trkpt>
      <trkpt lat="46.64912" lon="-1.62453">
        <ele>65</ele>
        <time>2018-03-17T03:37:06Z</time>
      </trkpt>
      <trkpt lat="46.64875" lon="-1.62402">
        <ele>65</ele>
        <time>2018-03-17T03:38:06Z</time>
      </trkpt>
      <trkpt lat="46.64845" lon="-1.62361">
        <ele>64</ele>
        <time>2018-03-17T03:39:06Z</time>
      </trkpt>
      <trkpt lat="46.64818" lon="-1.62328">
        <ele>63</ele>
        <time>2018-03-17T03:40:06Z</time>
      </trkpt>
      <trkpt lat="46.64794" lon="-1.62304">
        <ele>63</ele>
        <time>2018-03-17T03:41:06Z</time>
      </trkpt>
      <trkpt lat="46.64778" lon="-1.62284">
        <ele>63</ele>
        <time>2018-03-17T03:42:06Z</time>
      </trkpt>
      <trkpt lat="46.64768" lon="-1.6227">
        <ele>63</ele>
        <time>2018-03-17T03:43:06Z</time>
      </trkpt>
      <trkpt lat="46.64759" lon="-1.62255">
        <ele>63</ele>
        <time>2018-03-17T03:44:06Z</time>
      </trkpt>
      <trkpt lat="46.64747" lon="-1.62231">
        <ele>63</ele>
        <time>2018-03-17T03:45:06Z</time>
      </trkpt>
      <trkpt lat="46.6473" lon="-1.62199">
        <ele>63</ele>
        <time>2018-03-17T03:46:06Z</time>
      </trkpt>
      <trkpt lat="46.64711" lon="-1.62169">
        <ele>63</ele>
        <time>2018-03-17T03:47:06Z</time>
      </trkpt>
      <trkpt lat="46.64694" lon="-1.62148">
        <ele>63</ele>
        <time>2018-03-17T03:48:06Z</time>
      </trkpt>
      <trkpt lat="46.64676" lon="-1.62127">
        <ele>63</ele>
        <time>2018-03-17T03:49:06Z</time>
      </trkpt>
      <trkpt lat="46.64668" lon="-1.62119">
        <ele>64</ele>
        <time>2018-03-17T03:50:06Z</time>
      </trkpt>
      <trkpt lat="46.64658" lon="-1.62116">
        <ele>63</ele>
        <time>2018-03-17T03:51:06Z</time>
      </trkpt>
      <trkpt lat="46.64644" lon="-1.62116">
        <ele>63</ele>
        <time>2018-03-17T03:52:06Z</time>
      </trkpt>
      <trkpt lat="46.64614" lon="-1.62122">
        <ele>63</ele>
        <time>2018-03-17T03:53:06Z</time>
      </trkpt>
      <trkpt lat="46.64594" lon="-1.62129">
        <ele>62</ele>
        <time>2018-03-17T03:54:06Z</time>
      </trkpt>
      <trkpt lat="46.64582" lon="-1.62135">
        <ele>62</ele>
        <time>2018-03-17T03:55:06Z</time>
      </trkpt>
      <trkpt lat="46.64576" lon="-1.62141">
        <ele>62</ele>
        <time>2018-03-17T03:56:06Z</time>
      </trkpt>
      <trkpt lat="46.6457" lon="-1.62147">
        <ele>62</ele>
        <time>2018-03-17T03:57:06Z</time>
      </trkpt>
      <trkpt lat="46.64559" lon="-1.62162">
        <ele>61</ele>
        <time>2018-03-17T03:58:06Z</time>
      </trkpt>
      <trkpt lat="46.64544" lon="-1.62185">
        <ele>61</ele>
        <time>2018-03-17T03:59:06Z</time>
      </trkpt>
      <trkpt lat="46.64535" lon="-1.622">
        <ele>60</ele>
        <time>2018-03-17T04:00:06Z</time>
      </trkpt>
      <trkpt lat="46.6453" lon="-1.62208">
        <ele>60</ele>
        <time>2018-03-17T04:01:06Z</time>
      </trkpt>
      <trkpt lat="46.64521" lon="-1.62222">
        <ele>60</ele>
        <time>2018-03-17T04:02:06Z</time>
      </trkpt>
      <trkpt lat="46.6452" lon="-1.62223">
        <ele>60</ele>
        <time>2018-03-17T04:03:06Z</time>
      </trkpt>
      <trkpt lat="46.64497" lon="-1.6225">
        <ele>60</ele>
        <time>2018-03-17T04:04:06Z</time>
      </trkpt>
      <trkpt lat="46.64481" lon="-1.62263">
        <ele>59</ele>
        <time>2018-03-17T04:05:06Z</time>
      </trkpt>
      <trkpt lat="46.64472" lon="-1.62268">
        <ele>59</ele>
        <time>2018-03-17T04:06:06Z</time>
      </trkpt>
      <trkpt lat="46.64469" lon="-1.62269">
        <ele>59</ele>
        <time>2018-03-17T04:07:06Z</time>
      </trkpt>
      <trkpt lat="46.64463" lon="-1.62269">
        <ele>59</ele>
        <time>2018-03-17T04:08:06Z</time>
      </trkpt>
      <trkpt lat="46.64458" lon="-1.62267">
        <ele>59</ele>
        <time>2018-03-17T04:09:06Z</time>
      </trkpt>
      <trkpt lat="46.6445" lon="-1.62261">
        <ele>58</ele>
        <time>2018-03-17T04:10:06Z</time>
      </trkpt>
      <trkpt lat="46.64433" lon="-1.62244">
        <ele>58</ele>
        <time>2018-03-17T04:11:06Z</time>
      </trkpt>
      <trkpt lat="46.64419" lon="-1.62229">
        <ele>57</ele>
        <time>2018-03-17T04:12:06Z</time>
      </trkpt>
      <trkpt lat="46.64418" lon="-1.62227">
        <ele>57</ele>
        <time>2018-03-17T04:13:06Z</time>
      </trkpt>
      <trkpt lat="46.64408" lon="-1.62215">
        <ele>57</ele>
        <time>2018-03-17T04:14:06Z</time>
      </trkpt>
      <trkpt lat="46.64406" lon="-1.62213">
        <ele>57</ele>
        <time>2018-03-17T04:15:06Z</time>
      </trkpt>
      <trkpt lat="46.64403" lon="-1.6221">
        <ele>57</ele>
        <time>2018-03-17T04:16:06Z</time>
      </trkpt>
      <trkpt lat="46.64392" lon="-1.62197">
        <ele>57</ele>
        <time>2018-03-17T04:17:06Z</time>
      </trkpt>
      <trkpt lat="46.64372" lon="-1.62175">
        <ele>57</ele>
        <time>2018-03-17T04:18:06Z</time>
      </trkpt>
      <trkpt lat="46.64371" lon="-1.62174">
        <ele>57</ele>
        <time>2018-03-17T04:19:06Z</time>
      </trkpt>
      <trkpt lat="46.64361" lon="-1.62164">
        <ele>56</ele>
        <time>2018-03-17T04:20:06Z</time>
      </trkpt>
      <trkpt lat="46.64356" lon="-1.62155">
        <ele>56</ele>
        <time>2018-03-17T04:21:06Z</time>
      </trkpt>
      <trkpt lat="46.6435" lon="-1.62143">
        <ele>55</ele>
        <time>2018-03-17T04:22:06Z</time>
      </trkpt>
      <trkpt lat="46.64346" lon="-1.62131">
        <ele>55</ele>
        <time>2018-03-17T04:23:06Z</time>
      </trkpt>
      <trkpt lat="46.64339" lon="-1.62119">
        <ele>54</ele>
        <time>2018-03-17T04:24:06Z</time>
      </trkpt>
      <trkpt lat="46.64327" lon="-1.62098">
        <ele>53</ele>
        <time>2018-03-17T04:25:06Z</time>
      </trkpt>
      <trkpt lat="46.64313" lon="-1.62079">
        <ele>51</ele>
        <time>2018-03-17T04:26:06Z</time>
      </trkpt>
      <trkpt lat="46.64303" lon="-1.62062">
        <ele>51</ele>
        <time>2018-03-17T04:27:06Z</time>
      </trkpt>
      <trkpt lat="46.64291" lon="-1.62039">
        <ele>50</ele>
        <time>2018-03-17T04:28:06Z</time>
      </trkpt>
      <trkpt lat="46.64284" lon="-1.62023">
        <ele>50</ele>
        <time>2018-03-17T04:29:06Z</time>
      </trkpt>
      <trkpt lat="46.6427" lon="-1.6198">
        <ele>49</ele>
        <time>2018-03-17T04:30:06Z</time>
      </trkpt>
      <trkpt lat="46.6426" lon="-1.6195">
        <ele>50</ele>
        <time>2018-03-17T04:31:06Z</time>
      </trkpt>
      <trkpt lat="46.64248" lon="-1.61915">
        <ele>50</ele>
        <time>2018-03-17T04:32:06Z</time>
      </trkpt>
      <trkpt lat="46.64236" lon="-1.61882">
        <ele>51</ele>
        <time>2018-03-17T04:33:06Z</time>
      </trkpt>
      <trkpt lat="46.64225" lon="-1.61847">
        <ele>51</ele>
        <time>2018-03-17T04:34:06Z</time>
      </trkpt>
      <trkpt lat="46.64209" lon="-1.61804">
        <ele>51</ele>
        <time>2018-03-17T04:35:06Z</time>
      </trkpt>
      <trkpt lat="46.64195" lon="-1.61765">
        <ele>52</ele>
        <time>2018-03-17T04:36:06Z</time>
      </trkpt>
      <trkpt lat="46.64183" lon="-1.61732">
        <ele>52</ele>
        <time>2018-03-17T04:37:06Z</time>
      </trkpt>
      <trkpt lat="46.64173" lon="-1.61703">
        <ele>52</ele>
        <time>2018-03-17T04:38:06Z</time>
      </trkpt>
      <trkpt lat="46.64164" lon="-1.61667">
        <ele>52</ele>
        <time>2018-03-17T04:39:06Z</time>
      </trkpt>
      <trkpt lat="46.64157" lon="-1.61644">
        <ele>52</ele>
        <time>2018-03-17T04:40:06Z</time>
      </trkpt>
      <trkpt lat="46.64149" lon="-1.61613">
        <ele>51</ele>
        <time>2018-03-17T04:41:06Z</time>
      </trkpt>
      <trkpt lat="46.64138" lon="-1.61567">
        <ele>51</ele>
        <time>2018-03-17T04:42:06Z</time>
      </trkpt>
      <trkpt lat="46.64127" lon="-1.61524">
        <ele>51</ele>
        <time>2018-03-17T04:43:06Z</time>
      </trkpt>
      <trkpt lat="46.64118" lon="-1.61491">
        <ele>51</ele>
        <time>2018-03-17T04:44:06Z</time>
      </trkpt>
      <trkpt lat="46.64107" lon="-1.61449">
        <ele>51</ele>
        <time>2018-03-17T04:45:06Z</time>
      </trkpt>
      <trkpt lat="46.64098" lon="-1.61414">
        <ele>51</ele>
        <time>2018-03-17T04:46:06Z</time>
      </trkpt>
      <trkpt lat="46.64091" lon="-1.61385">
        <ele>50</ele>
        <time>2018-03-17T04:47:06Z</time>
      </trkpt>
      <trkpt lat="46.64084" lon="-1.61362">
        <ele>50</ele>
        <time>2018-03-17T04:48:06Z</time>
      </trkpt>
      <trkpt lat="46.64078" lon="-1.61341">
        <ele>49</ele>
        <time>2018-03-17T04:49:06Z</time>
      </trkpt>
      <trkpt lat="46.64069" lon="-1.6132">
        <ele>48</ele>
        <time>2018-03-17T04:50:06Z</time>
      </trkpt>
      <trkpt lat="46.64056" lon="-1.61293">
        <ele>47</ele>
        <time>2018-03-17T04:51:06Z</time>
      </trkpt>
      <trkpt lat="46.64047" lon="-1.61271">
        <ele>46</ele>
        <time>2018-03-17T04:52:06Z</time>
      </trkpt>
      <trkpt lat="46.64026" lon="-1.6123">
        <ele>44</ele>
        <time>2018-03-17T04:53:06Z</time>
      </trkpt>
      <trkpt lat="46.6401" lon="-1.61197">
        <ele>43</ele>
        <time>2018-03-17T04:54:06Z</time>
      </trkpt>
      <trkpt lat="46.63994" lon="-1.61161">
        <ele>42</ele>
        <time>2018-03-17T04:55:06Z</time>
      </trkpt>
      <trkpt lat="46.63988" lon="-1.61147">
        <ele>43</ele>
        <time>2018-03-17T04:56:06Z</time>
      </trkpt>
      <trkpt lat="46.6398" lon="-1.61119">
        <ele>44</ele>
        <time>2018-03-17T04:57:06Z</time>
      </trkpt>
      <trkpt lat="46.63978" lon="-1.61108">
        <ele>44</ele>
        <time>2018-03-17T04:58:06Z</time>
      </trkpt>
      <trkpt lat="46.63976" lon="-1.61095">
        <ele>45</ele>
        <time>2018-03-17T04:59:06Z</time>
      </trkpt>
      <trkpt lat="46.63972" lon="-1.61076">
        <ele>45</ele>
        <time>2018-03-17T05:00:06Z</time>
      </trkpt>
      <trkpt lat="46.63964" lon="-1.61055">
        <ele>46</ele>
        <time>2018-03-17T05:01:06Z</time>
      </trkpt>
      <trkpt lat="46.63951" lon="-1.61026">
        <ele>48</ele>
        <time>2018-03-17T05:02:06Z</time>
      </trkpt>
      <trkpt lat="46.63941" lon="-1.61004">
        <ele>49</ele>
        <time>2018-03-17T05:03:06Z</time>
      </trkpt>
      <trkpt lat="46.63929" lon="-1.60978">
        <ele>50</ele>
        <time>2018-03-17T05:04:06Z</time>
      </trkpt>
      <trkpt lat="46.63918" lon="-1.60955">
        <ele>50</ele>
        <time>2018-03-17T05:05:06Z</time>
      </trkpt>
      <trkpt lat="46.63908" lon="-1.60931">
        <ele>50</ele>
        <time>2018-03-17T05:06:06Z</time>
      </trkpt>
      <trkpt lat="46.63878" lon="-1.60861">
        <ele>51</ele>
        <time>2018-03-17T05:07:06Z</time>
      </trkpt>
      <trkpt lat="46.63865" lon="-1.60829">
        <ele>52</ele>
        <time>2018-03-17T05:08:06Z</time>
      </trkpt>
      <trkpt lat="46.63853" lon="-1.60806">
        <ele>53</ele>
        <time>2018-03-17T05:09:06Z</time>
      </trkpt>
      <trkpt lat="46.6384" lon="-1.60775">
        <ele>54</ele>
        <time>2018-03-17T05:10:06Z</time>
      </trkpt>
      <trkpt lat="46.63833" lon="-1.60753">
        <ele>55</ele>
        <time>2018-03-17T05:11:06Z</time>
      </trkpt>
      <trkpt lat="46.63822" lon="-1.60724">
        <ele>56</ele>
        <time>2018-03-17T05:12:06Z</time>
      </trkpt>
      <trkpt lat="46.63808" lon="-1.60682">
        <ele>56</ele>
        <time>2018-03-17T05:13:06Z</time>
      </trkpt>
      <trkpt lat="46.63799" lon="-1.60648">
        <ele>57</ele>
        <time>2018-03-17T05:14:06Z</time>
      </trkpt>
      <trkpt lat="46.63791" lon="-1.60617">
        <ele>57</ele>
        <time>2018-03-17T05:15:06Z</time>
      </trkpt>
      <trkpt lat="46.6379" lon="-1.60613">
        <ele>57</ele>
        <time>2018-03-17T05:16:06Z</time>
      </trkpt>
      <trkpt lat="46.63784" lon="-1.6059">
        <ele>58</ele>
        <time>2018-03-17T05:17:06Z</time>
      </trkpt>
      <trkpt lat="46.63781" lon="-1.60578">
        <ele>58</ele>
        <time>2018-03-17T05:18:06Z</time>
      </trkpt>
      <trkpt lat="46.63775" lon="-1.60558">
        <ele>59</ele>
        <time>2018-03-17T05:19:06Z</time>
      </trkpt>
      <trkpt lat="46.63771" lon="-1.60545">
        <ele>59</ele>
        <time>2018-03-17T05:20:06Z</time>
      </trkpt>
      <trkpt lat="46.63767" lon="-1.60534">
        <ele>59</ele>
        <time>2018-03-17T05:21:06Z</time>
      </trkpt>
      <trkpt lat="46.63759" lon="-1.60516">
        <ele>59</ele>
        <time>2018-03-17T05:22:06Z</time>
      </trkpt>
      <trkpt lat="46.63744" lon="-1.60482">
        <ele>60</ele>
        <time>2018-03-17T05:23:06Z</time>
      </trkpt>
      <trkpt lat="46.63731" lon="-1.60452">
        <ele>59</ele>
        <time>2018-03-17T05:24:06Z</time>
      </trkpt>
      <trkpt lat="46.63713" lon="-1.60418">
        <ele>59</ele>
        <time>2018-03-17T05:25:06Z</time>
      </trkpt>
      <trkpt lat="46.63697" lon="-1.60391">
        <ele>60</ele>
        <time>2018-03-17T05:26:06Z</time>
      </trkpt>
      <trkpt lat="46.63684" lon="-1.6037">
        <ele>60</ele>
        <time>2018-03-17T05:27:06Z</time>
      </trkpt>
      <trkpt lat="46.63669" lon="-1.60352">
        <ele>60</ele>
        <time>2018-03-17T05:28:06Z</time>
      </trkpt>
      <trkpt lat="46.63648" lon="-1.60329">
        <ele>60</ele>
        <time>2018-03-17T05:29:06Z</time>
      </trkpt>
      <trkpt lat="46.63629" lon="-1.60308">
        <ele>61</ele>
        <time>2018-03-17T05:30:06Z</time>
      </trkpt>
      <trkpt lat="46.63604" lon="-1.60276">
        <ele>61</ele>
        <time>2018-03-17T05:31:06Z</time>
      </trkpt>
      <trkpt lat="46.63584" lon="-1.60244">
        <ele>61</ele>
        <time>2018-03-17T05:32:06Z</time>
      </trkpt>
      <trkpt lat="46.63556" lon="-1.60198">
        <ele>60</ele>
        <time>2018-03-17T05:33:06Z</time>
      </trkpt>
      <trkpt lat="46.63538" lon="-1.60167">
        <ele>61</ele>
        <time>2018-03-17T05:34:06Z</time>
      </trkpt>
      <trkpt lat="46.63525" lon="-1.60146">
        <ele>61</ele>
        <time>2018-03-17T05:35:06Z</time>
      </trkpt>
      <trkpt lat="46.63513" lon="-1.60126">
        <ele>62</ele>
        <time>2018-03-17T05:36:06Z</time>
      </trkpt>
      <trkpt lat="46.63503" lon="-1.601">
        <ele>62</ele>
        <time>2018-03-17T05:37:06Z</time>
      </trkpt>
      <trkpt lat="46.63497" lon="-1.60078">
        <ele>63</ele>
        <time>2018-03-17T05:38:06Z</time>
      </trkpt>
      <trkpt lat="46.6349" lon="-1.60045">
        <ele>64</ele>
        <time>2018-03-17T05:39:06Z</time>
      </trkpt>
      <trkpt lat="46.63484" lon="-1.60011">
        <ele>64</ele>
        <time>2018-03-17T05:40:06Z</time>
      </trkpt>
      <trkpt lat="46.63478" lon="-1.59966">
        <ele>64</ele>
        <time>2018-03-17T05:41:06Z</time>
      </trkpt>
      <trkpt lat="46.63473" lon="-1.59931">
        <ele>65</ele>
        <time>2018-03-17T05:42:06Z</time>
      </trkpt>
      <trkpt lat="46.63469" lon="-1.59907">
        <ele>65</ele>
        <time>2018-03-17T05:43:06Z</time>
      </trkpt>
      <trkpt lat="46.63464" lon="-1.59887">
        <ele>65</ele>
        <time>2018-03-17T05:44:06Z</time>
      </trkpt>
      <trkpt lat="46.63461" lon="-1.59877">
        <ele>65</ele>
        <time>2018-03-17T05:45:06Z</time>
      </trkpt>
      <trkpt lat="46.63458" lon="-1.59868">
        <ele>66</ele>
        <time>2018-03-17T05:46:06Z</time>
      </trkpt>
      <trkpt lat="46.63453" lon="-1.59857">
        <ele>66</ele>
        <time>2018-03-17T05:47:06Z</time>
      </trkpt>
      <trkpt lat="46.63447" lon="-1.59846">
        <ele>66</ele>
        <time>2018-03-17T05:48:06Z</time>
      </trkpt>
      <trkpt lat="46.63431" lon="-1.59821">
        <ele>67</ele>
        <time>2018-03-17T05:49:06Z</time>
      </trkpt>
      <trkpt lat="46.63417" lon="-1.59802">
        <ele>67</ele>
        <time>2018-03-17T05:50:06Z</time>
      </trkpt>
      <trkpt lat="46.63413" lon="-1.59797">
        <ele>67</ele>
        <time>2018-03-17T05:51:06Z</time>
      </trkpt>
      <trkpt lat="46.63409" lon="-1.59793">
        <ele>66</ele>
        <time>2018-03-17T05:52:06Z</time>
      </trkpt>
      <trkpt lat="46.63404" lon="-1.59787">
        <ele>66</ele>
        <time>2018-03-17T05:53:06Z</time>
      </trkpt>
      <trkpt lat="46.63398" lon="-1.59782">
        <ele>66</ele>
        <time>2018-03-17T05:54:06Z</time>
      </trkpt>
      <trkpt lat="46.63393" lon="-1.59778">
        <ele>66</ele>
        <time>2018-03-17T05:55:06Z</time>
      </trkpt>
      <trkpt lat="46.63391" lon="-1.59777">
        <ele>66</ele>
        <time>2018-03-17T05:56:06Z</time>
      </trkpt>
      <trkpt lat="46.63383" lon="-1.59774">
        <ele>66</ele>
        <time>2018-03-17T05:57:06Z</time>
      </trkpt>
      <trkpt lat="46.63372" lon="-1.59771">
        <ele>66</ele>
        <time>2018-03-17T05:58:06Z</time>
      </trkpt>
      <trkpt lat="46.63362" lon="-1.59768">
        <ele>66</ele>
        <time>2018-03-17T05:59:06Z</time>
      </trkpt>
      <trkpt lat="46.63356" lon="-1.59766">
        <ele>66</ele>
        <time>2018-03-17T06:00:06Z</time>
      </trkpt>
      <trkpt lat="46.63337" lon="-1.59769">
        <ele>65</ele>
        <time>2018-03-17T06:01:06Z</time>
      </trkpt>
      <trkpt lat="46.63337" lon="-1.59769">
        <ele>65</ele>
        <time>2018-03-17T06:02:06Z</time>
      </trkpt>
      <trkpt lat="46.63336" lon="-1.59769">
        <ele>65</ele>
        <time>2018-03-17T06:03:06Z</time>
      </trkpt>
      <trkpt lat="46.63336" lon="-1.5977">
        <ele>66</ele>
        <time>2018-03-17T06:04:06Z</time>
      </trkpt>
      <trkpt lat="46.63335" lon="-1.59771">
        <ele>66</ele>
        <time>2018-03-17T06:05:06Z</time>
      </trkpt>
      <trkpt lat="46.63334" lon="-1.59771">
        <ele>66</ele>
        <time>2018-03-17T06:06:06Z</time>
      </trkpt>
      <trkpt lat="46.63334" lon="-1.59772">
        <ele>66</ele>
        <time>2018-03-17T06:07:06Z</time>
      </trkpt>
      <trkpt lat="46.63333" lon="-1.59772">
        <ele>66</ele>
        <time>2018-03-17T06:08:06Z</time>
      </trkpt>
      <trkpt lat="46.63333" lon="-1.59773">
        <ele>66</ele>
        <time>2018-03-17T06:09:06Z</time>
      </trkpt>
      <trkpt lat="46.63332" lon="-1.59773">
        <ele>66</ele>
        <time>2018-03-17T06:10:06Z</time>
      </trkpt>
      <trkpt lat="46.63331" lon="-1.59773">
        <ele>66</ele>
        <time>2018-03-17T06:11:06Z</time>
      </trkpt>
      <trkpt lat="46.6333" lon="-1.59773">
        <ele>66</ele>
        <time>2018-03-17T06:12:06Z</time>
      </trkpt>
      <trkpt lat="46.6333" lon="-1.59774">
        <ele>66</ele>
        <time>2018-03-17T06:13:06Z</time>
      </trkpt>
      <trkpt lat="46.63329" lon="-1.59774">
        <ele>66</ele>
        <time>2018-03-17T06:14:06Z</time>
      </trkpt>
      <trkpt lat="46.63328" lon="-1.59774">
        <ele>66</ele>
        <time>2018-03-17T06:15:06Z</time>
      </trkpt>
      <trkpt lat="46.63327" lon="-1.59774">
        <ele>66</ele>
        <time>2018-03-17T06:16:06Z</time>
      </trkpt>
      <trkpt lat="46.63326" lon="-1.59773">
        <ele>66</ele>
        <time>2018-03-17T06:17:06Z</time>
      </trkpt>
      <trkpt lat="46.63325" lon="-1.59773">
        <ele>65</ele>
        <time>2018-03-17T06:18:06Z</time>
      </trkpt>
      <trkpt lat="46.63324" lon="-1.59772">
        <ele>65</ele>
        <time>2018-03-17T06:19:06Z</time>
      </trkpt>
      <trkpt lat="46.63323" lon="-1.59772">
        <ele>65</ele>
        <time>2018-03-17T06:20:06Z</time>
      </trkpt>
      <trkpt lat="46.63322" lon="-1.59771">
        <ele>65</ele>
        <time>2018-03-17T06:21:06Z</time>
      </trkpt>
      <trkpt lat="46.63322" lon="-1.5977">
        <ele>65</ele>
        <time>2018-03-17T06:22:06Z</time>
      </trkpt>
      <trkpt lat="46.63321" lon="-1.5977">
        <ele>65</ele>
        <time>2018-03-17T06:23:06Z</time>
      </trkpt>
      <trkpt lat="46.63321" lon="-1.59769">
        <ele>65</ele>
        <time>2018-03-17T06:24:06Z</time>
      </trkpt>
      <trkpt lat="46.6332" lon="-1.59769">
        <ele>65</ele>
        <time>2018-03-17T06:25:06Z</time>
      </trkpt>
      <trkpt lat="46.6332" lon="-1.59768">
        <ele>65</ele>
        <time>2018-03-17T06:26:06Z</time>
      </trkpt>
      <trkpt lat="46.63319" lon="-1.59767">
        <ele>65</ele>
        <time>2018-03-17T06:27:06Z</time>
      </trkpt>
      <trkpt lat="46.63319" lon="-1.59766">
        <ele>65</ele>
        <time>2018-03-17T06:28:06Z</time>
      </trkpt>
      <trkpt lat="46.63318" lon="-1.59765">
        <ele>65</ele>
        <time>2018-03-17T06:29:06Z</time>
      </trkpt>
      <trkpt lat="46.63318" lon="-1.59764">
        <ele>65</ele>
        <time>2018-03-17T06:30:06Z</time>
      </trkpt>
      <trkpt lat="46.63318" lon="-1.59763">
        <ele>65</ele>
        <time>2018-03-17T06:31:06Z</time>
      </trkpt>
      <trkpt lat="46.63317" lon="-1.59762">
        <ele>65</ele>
        <time>2018-03-17T06:32:06Z</time>
      </trkpt>
      <trkpt lat="46.63296" lon="-1.59745">
        <ele>65</ele>
        <time>2018-03-17T06:33:06Z</time>
      </trkpt>
      <trkpt lat="46.63289" lon="-1.59739">
        <ele>65</ele>
        <time>2018-03-17T06:34:06Z</time>
      </trkpt>
      <trkpt lat="46.63285" lon="-1.59735">
        <ele>65</ele>
        <time>2018-03-17T06:35:06Z</time>
      </trkpt>
      <trkpt lat="46.63258" lon="-1.59714">
        <ele>65</ele>
        <time>2018-03-17T06:36:06Z</time>
      </trkpt>
      <trkpt lat="46.63212" lon="-1.59681">
        <ele>66</ele>
        <time>2018-03-17T06:37:06Z</time>
      </trkpt>
      <trkpt lat="46.63179" lon="-1.59657">
        <ele>67</ele>
        <time>2018-03-17T06:38:06Z</time>
      </trkpt>
      <trkpt lat="46.63143" lon="-1.59632">
        <ele>67</ele>
        <time>2018-03-17T06:39:06Z</time>
      </trkpt>
      <trkpt lat="46.63105" lon="-1.59603">
        <ele>68</ele>
        <time>2018-03-17T06:40:06Z</time>
      </trkpt>
      <trkpt lat="46.63091" lon="-1.59593">
        <ele>68</ele>
        <time>2018-03-17T06:41:06Z</time>
      </trkpt>
      <trkpt lat="46.63079" lon="-1.59587">
        <ele>68</ele>
        <time>2018-03-17T06:42:06Z</time>
      </trkpt>
      <trkpt lat="46.63064" lon="-1.59582">
        <ele>68</ele>
        <time>2018-03-17T06:43:06Z</time>
      </trkpt>
      <trkpt lat="46.6305" lon="-1.59577">
        <ele>68</ele>
        <time>2018-03-17T06:44:06Z</time>
      </trkpt>
      <trkpt lat="46.63044" lon="-1.59576">
        <ele>68</ele>
        <time>2018-03-17T06:45:06Z</time>
      </trkpt>
      <trkpt lat="46.63038" lon="-1.59575">
        <ele>68</ele>
        <time>2018-03-17T06:46:06Z</time>
      </trkpt>
      <trkpt lat="46.63015" lon="-1.59573">
        <ele>69</ele>
        <time>2018-03-17T06:47:06Z</time>
      </trkpt>
      <trkpt lat="46.62986" lon="-1.59573">
        <ele>69</ele>
        <time>2018-03-17T06:48:06Z</time>
      </trkpt>
      <trkpt lat="46.62958" lon="-1.59573">
        <ele>68</ele>
        <time>2018-03-17T06:49:06Z</time>
      </trkpt>
      <trkpt lat="46.62936" lon="-1.59573">
        <ele>68</ele>
        <time>2018-03-17T06:50:06Z</time>
      </trkpt>
      <trkpt lat="46.62913" lon="-1.59571">
        <ele>67</ele>
        <time>2018-03-17T06:51:06Z</time>
      </trkpt>
      <trkpt lat="46.62882" lon="-1.59565">
        <ele>68</ele>
        <time>2018-03-17T06:52:06Z</time>
      </trkpt>
      <trkpt lat="46.62868" lon="-1.59561">
        <ele>69</ele>
        <time>2018-03-17T06:53:06Z</time>
      </trkpt>
      <trkpt lat="46.62828" lon="-1.59549">
        <ele>69</ele>
        <time>2018-03-17T06:54:06Z</time>
      </trkpt>
      <trkpt lat="46.62797" lon="-1.5954">
        <ele>68</ele>
        <time>2018-03-17T06:55:06Z</time>
      </trkpt>
      <trkpt lat="46.62759" lon="-1.59529">
        <ele>67</ele>
        <time>2018-03-17T06:56:06Z</time>
      </trkpt>
      <trkpt lat="46.62686" lon="-1.59507">
        <ele>67</ele>
        <time>2018-03-17T06:57:06Z</time>
      </trkpt>
      <trkpt lat="46.62663" lon="-1.59497">
        <ele>67</ele>
        <time>2018-03-17T06:58:06Z</time>
      </trkpt>
      <trkpt lat="46.62645" lon="-1.59486">
        <ele>67</ele>
        <time>2018-03-17T06:59:06Z</time>
      </trkpt>
      <trkpt lat="46.62629" lon="-1.59474">
        <ele>67</ele>
        <time>2018-03-17T07:00:06Z</time>
      </trkpt>
      <trkpt lat="46.62622" lon="-1.59468">
        <ele>67</ele>
        <time>2018-03-17T07:01:06Z</time>
      </trkpt>
      <trkpt lat="46.62612" lon="-1.59458">
        <ele>67</ele>
        <time>2018-03-17T07:02:06Z</time>
      </trkpt>
      <trkpt lat="46.62599" lon="-1.59445">
        <ele>67</ele>
        <time>2018-03-17T07:03:06Z</time>
      </trkpt>
      <trkpt lat="46.62587" lon="-1.59429">
        <ele>67</ele>
        <time>2018-03-17T07:04:06Z</time>
      </trkpt>
      <trkpt lat="46.62582" lon="-1.59421">
        <ele>67</ele>
        <time>2018-03-17T07:05:06Z</time>
      </trkpt>
      <trkpt lat="46.62569" lon="-1.59401">
        <ele>67</ele>
        <time>2018-03-17T07:06:06Z</time>
      </trkpt>
      <trkpt lat="46.62558" lon="-1.5938">
        <ele>67</ele>
        <time>2018-03-17T07:07:06Z</time>
      </trkpt>
      <trkpt lat="46.62545" lon="-1.59353">
        <ele>67</ele>
        <time>2018-03-17T07:08:06Z</time>
      </trkpt>
      <trkpt lat="46.62531" lon="-1.59318">
        <ele>67</ele>
        <time>2018-03-17T07:09:06Z</time>
      </trkpt>
      <trkpt lat="46.62517" lon="-1.59282">
        <ele>67</ele>
        <time>2018-03-17T07:10:06Z</time>
      </trkpt>
      <trkpt lat="46.62505" lon="-1.59256">
        <ele>68</ele>
        <time>2018-03-17T07:11:06Z</time>
      </trkpt>
      <trkpt lat="46.62497" lon="-1.59244">
        <ele>68</ele>
        <time>2018-03-17T07:12:06Z</time>
      </trkpt>
      <trkpt lat="46.62493" lon="-1.59238">
        <ele>68</ele>
        <time>2018-03-17T07:13:06Z</time>
      </trkpt>
      <trkpt lat="46.62486" lon="-1.59224">
        <ele>68</ele>
        <time>2018-03-17T07:14:06Z</time>
      </trkpt>
      <trkpt lat="46.62477" lon="-1.59206">
        <ele>68</ele>
        <time>2018-03-17T07:15:06Z</time>
      </trkpt>
      <trkpt lat="46.62465" lon="-1.59181">
        <ele>68</ele>
        <time>2018-03-17T07:16:06Z</time>
      </trkpt>
      <trkpt lat="46.62452" lon="-1.59154">
        <ele>69</ele>
        <time>2018-03-17T07:17:06Z</time>
      </trkpt>
      <trkpt lat="46.62443" lon="-1.59136">
        <ele>69</ele>
        <time>2018-03-17T07:18:06Z</time>
      </trkpt>
      <trkpt lat="46.62437" lon="-1.59122">
        <ele>70</ele>
        <time>2018-03-17T07:19:06Z</time>
      </trkpt>
      <trkpt lat="46.62436" lon="-1.5912">
        <ele>70</ele>
        <time>2018-03-17T07:20:06Z</time>
      </trkpt>
      <trkpt lat="46.62426" lon="-1.59101">
        <ele>71</ele>
        <time>2018-03-17T07:21:06Z</time>
      </trkpt>
      <trkpt lat="46.62425" lon="-1.59098">
        <ele>71</ele>
        <time>2018-03-17T07:22:06Z</time>
      </trkpt>
      <trkpt lat="46.62404" lon="-1.59054">
        <ele>71</ele>
        <time>2018-03-17T07:23:06Z</time>
      </trkpt>
      <trkpt lat="46.62394" lon="-1.59042">
        <ele>71</ele>
        <time>2018-03-17T07:24:06Z</time>
      </trkpt>
      <trkpt lat="46.62387" lon="-1.59036">
        <ele>70</ele>
        <time>2018-03-17T07:25:06Z</time>
      </trkpt>
      <trkpt lat="46.62381" lon="-1.5903">
        <ele>70</ele>
        <time>2018-03-17T07:26:06Z</time>
      </trkpt>
      <trkpt lat="46.6238" lon="-1.5903">
        <ele>70</ele>
        <time>2018-03-17T07:27:06Z</time>
      </trkpt>
      <trkpt lat="46.62378" lon="-1.5903">
        <ele>70</ele>
        <time>2018-03-17T07:28:06Z</time>
      </trkpt>
      <trkpt lat="46.62377" lon="-1.5903">
        <ele>70</ele>
        <time>2018-03-17T07:29:06Z</time>
      </trkpt>
      <trkpt lat="46.62375" lon="-1.5903">
        <ele>70</ele>
        <time>2018-03-17T07:30:06Z</time>
      </trkpt>
      <trkpt lat="46.62374" lon="-1.59029">
        <ele>70</ele>
        <time>2018-03-17T07:31:06Z</time>
      </trkpt>
      <trkpt lat="46.62373" lon="-1.59029">
        <ele>70</ele>
        <time>2018-03-17T07:32:06Z</time>
      </trkpt>
      <trkpt lat="46.62372" lon="-1.59028">
        <ele>70</ele>
        <time>2018-03-17T07:33:06Z</time>
      </trkpt>
      <trkpt lat="46.6237" lon="-1.59027">
        <ele>70</ele>
        <time>2018-03-17T07:34:06Z</time>
      </trkpt>
      <trkpt lat="46.62369" lon="-1.59026">
        <ele>70</ele>
        <time>2018-03-17T07:35:06Z</time>
      </trkpt>
      <trkpt lat="46.62368" lon="-1.59025">
        <ele>70</ele>
        <time>2018-03-17T07:36:06Z</time>
      </trkpt>
      <trkpt lat="46.62367" lon="-1.59023">
        <ele>70</ele>
        <time>2018-03-17T07:37:06Z</time>
      </trkpt>
      <trkpt lat="46.62366" lon="-1.59022">
        <ele>70</ele>
        <time>2018-03-17T07:38:06Z</time>
      </trkpt>
      <trkpt lat="46.62365" lon="-1.5902">
        <ele>70</ele>
        <time>2018-03-17T07:39:06Z</time>
      </trkpt>
      <trkpt lat="46.62364" lon="-1.59018">
        <ele>70</ele>
        <time>2018-03-17T07:40:06Z</time>
      </trkpt>
      <trkpt lat="46.62363" lon="-1.59017">
        <ele>70</ele>
        <time>2018-03-17T07:41:06Z</time>
      </trkpt>
      <trkpt lat="46.62363" lon="-1.59015">
        <ele>70</ele>
        <time>2018-03-17T07:42:06Z</time>
      </trkpt>
      <trkpt lat="46.62362" lon="-1.59013">
        <ele>70</ele>
        <time>2018-03-17T07:43:06Z</time>
      </trkpt>
      <trkpt lat="46.62362" lon="-1.59011">
        <ele>70</ele>
        <time>2018-03-17T07:44:06Z</time>
      </trkpt>
      <trkpt lat="46.62362" lon="-1.59009">
        <ele>70</ele>
        <time>2018-03-17T07:45:06Z</time>
      </trkpt>
      <trkpt lat="46.62361" lon="-1.59007">
        <ele>70</ele>
        <time>2018-03-17T07:46:06Z</time>
      </trkpt>
      <trkpt lat="46.62361" lon="-1.59005">
        <ele>70</ele>
        <time>2018-03-17T07:47:06Z</time>
      </trkpt>
      <trkpt lat="46.62361" lon="-1.59003">
        <ele>70</ele>
        <time>2018-03-17T07:48:06Z</time>
      </trkpt>
      <trkpt lat="46.62361" lon="-1.59001">
        <ele>70</ele>
        <time>2018-03-17T07:49:06Z</time>
      </trkpt>
      <trkpt lat="46.62362" lon="-1.58999">
        <ele>70</ele>
        <time>2018-03-17T07:50:06Z</time>
      </trkpt>
      <trkpt lat="46.62362" lon="-1.58997">
        <ele>70</ele>
        <time>2018-03-17T07:51:06Z</time>
      </trkpt>
      <trkpt lat="46.62363" lon="-1.58995">
        <ele>70</ele>
        <time>2018-03-17T07:52:06Z</time>
      </trkpt>
      <trkpt lat="46.62356" lon="-1.58974">
        <ele>70</ele>
        <time>2018-03-17T07:53:06Z</time>
      </trkpt>
      <trkpt lat="46.62352" lon="-1.58962">
        <ele>70</ele>
        <time>2018-03-17T07:54:06Z</time>
      </trkpt>
      <trkpt lat="46.62347" lon="-1.58947">
        <ele>70</ele>
        <time>2018-03-17T07:55:06Z</time>
      </trkpt>
      <trkpt lat="46.62342" lon="-1.58933">
        <ele>71</ele>
        <time>2018-03-17T07:56:06Z</time>
      </trkpt>
      <trkpt lat="46.62331" lon="-1.58911">
        <ele>71</ele>
        <time>2018-03-17T07:57:06Z</time>
      </trkpt>
      <trkpt lat="46.62325" lon="-1.589">
        <ele>71</ele>
        <time>2018-03-17T07:58:06Z</time>
      </trkpt>
      <trkpt lat="46.62324" lon="-1.58899">
        <ele>71</ele>
        <time>2018-03-17T07:59:06Z</time>
      </trkpt>
      <trkpt lat="46.62318" lon="-1.58886">
        <ele>70</ele>
        <time>2018-03-17T08:00:06Z</time>
      </trkpt>
      <trkpt lat="46.62312" lon="-1.58875">
        <ele>70</ele>
        <time>2018-03-17T08:01:06Z</time>
      </trkpt>
      <trkpt lat="46.623" lon="-1.58852">
        <ele>70</ele>
        <time>2018-03-17T08:02:06Z</time>
      </trkpt>
      <trkpt lat="46.62289" lon="-1.58831">
        <ele>70</ele>
        <time>2018-03-17T08:03:06Z</time>
      </trkpt>
      <trkpt lat="46.6228" lon="-1.58817">
        <ele>70</ele>
        <time>2018-03-17T08:04:06Z</time>
      </trkpt>
      <trkpt lat="46.62265" lon="-1.58792">
        <ele>70</ele>
        <time>2018-03-17T08:05:06Z</time>
      </trkpt>
      <trkpt lat="46.62252" lon="-1.58774">
        <ele>70</ele>
        <time>2018-03-17T08:06:06Z</time>
      </trkpt>
      <trkpt lat="46.6224" lon="-1.5876">
        <ele>70</ele>
        <time>2018-03-17T08:07:06Z</time>
      </trkpt>
      <trkpt lat="46.6222" lon="-1.58739">
        <ele>69</ele>
        <time>2018-03-17T08:08:06Z</time>
      </trkpt>
      <trkpt lat="46.62207" lon="-1.58727">
        <ele>69</ele>
        <time>2018-03-17T08:09:06Z</time>
      </trkpt>
      <trkpt lat="46.62191" lon="-1.58715">
        <ele>68</ele>
        <time>2018-03-17T08:10:06Z</time>
      </trkpt>
      <trkpt lat="46.62164" lon="-1.58698">
        <ele>68</ele>
        <time>2018-03-17T08:11:06Z</time>
      </trkpt>
      <trkpt lat="46.6214" lon="-1.58686">
        <ele>68</ele>
        <time>2018-03-17T08:12:06Z</time>
      </trkpt>
      <trkpt lat="46.62123" lon="-1.5868">
        <ele>68</ele>
        <time>2018-03-17T08:13:06Z</time>
      </trkpt>
      <trkpt lat="46.62096" lon="-1.58672">
        <ele>68</ele>
        <time>2018-03-17T08:14:06Z</time>
      </trkpt>
      <trkpt lat="46.62077" lon="-1.5867">
        <ele>68</ele>
        <time>2018-03-17T08:15:06Z</time>
      </trkpt>
      <trkpt lat="46.62076" lon="-1.5867">
        <ele>68</ele>
        <time>2018-03-17T08:16:06Z</time>
      </trkpt>
      <trkpt lat="46.62056" lon="-1.58668">
        <ele>68</ele>
        <time>2018-03-17T08:17:06Z</time>
      </trkpt>
      <trkpt lat="46.62052" lon="-1.58668">
        <ele>68</ele>
        <time>2018-03-17T08:18:06Z</time>
      </trkpt>
      <trkpt lat="46.62034" lon="-1.58667">
        <ele>69</ele>
        <time>2018-03-17T08:19:06Z</time>
      </trkpt>
      <trkpt lat="46.61995" lon="-1.58667">
        <ele>69</ele>
        <time>2018-03-17T08:20:06Z</time>
      </trkpt>
      <trkpt lat="46.61851" lon="-1.58666">
        <ele>67</ele>
        <time>2018-03-17T08:21:06Z</time>
      </trkpt>
      <trkpt lat="46.61847" lon="-1.58669">
        <ele>67</ele>
        <time>2018-03-17T08:22:06Z</time>
      </trkpt>
      <trkpt lat="46.61823" lon="-1.5867">
        <ele>67</ele>
        <time>2018-03-17T08:23:06Z</time>
      </trkpt>
      <trkpt lat="46.61817" lon="-1.5867">
        <ele>67</ele>
        <time>2018-03-17T08:24:06Z</time>
      </trkpt>
      <trkpt lat="46.61809" lon="-1.5867">
        <ele>67</ele>
        <time>2018-03-17T08:25:06Z</time>
      </trkpt>
      <trkpt lat="46.61804" lon="-1.58671">
        <ele>67</ele>
        <time>2018-03-17T08:26:06Z</time>
      </trkpt>
      <trkpt lat="46.61795" lon="-1.58674">
        <ele>67</ele>
        <time>2018-03-17T08:27:06Z</time>
      </trkpt>
      <trkpt lat="46.61795" lon="-1.58674">
        <ele>67</ele>
        <time>2018-03-17T08:28:06Z</time>
      </trkpt>
      <trkpt lat="46.61793" lon="-1.58677">
        <ele>67</ele>
        <time>2018-03-17T08:29:06Z</time>
      </trkpt>
      <trkpt lat="46.61792" lon="-1.5868">
        <ele>67</ele>
        <time>2018-03-17T08:30:06Z</time>
      </trkpt>
      <trkpt lat="46.61789" lon="-1.58682">
        <ele>67</ele>
        <time>2018-03-17T08:31:06Z</time>
      </trkpt>
      <trkpt lat="46.61787" lon="-1.58684">
        <ele>67</ele>
        <time>2018-03-17T08:32:06Z</time>
      </trkpt>
      <trkpt lat="46.61785" lon="-1.58685">
        <ele>67</ele>
        <time>2018-03-17T08:33:06Z</time>
      </trkpt>
      <trkpt lat="46.61783" lon="-1.58685">
        <ele>66</ele>
        <time>2018-03-17T08:34:06Z</time>
      </trkpt>
      <trkpt lat="46.61781" lon="-1.58686">
        <ele>66</ele>
        <time>2018-03-17T08:35:06Z</time>
      </trkpt>
      <trkpt lat="46.61779" lon="-1.58686">
        <ele>66</ele>
        <time>2018-03-17T08:36:06Z</time>
      </trkpt>
      <trkpt lat="46.61777" lon="-1.58685">
        <ele>66</ele>
        <time>2018-03-17T08:37:06Z</time>
      </trkpt>
      <trkpt lat="46.61775" lon="-1.58684">
        <ele>66</ele>
        <time>2018-03-17T08:38:06Z</time>
      </trkpt>
      <trkpt lat="46.61773" lon="-1.58683">
        <ele>66</ele>
        <time>2018-03-17T08:39:06Z</time>
      </trkpt>
      <trkpt lat="46.61771" lon="-1.58682">
        <ele>66</ele>
        <time>2018-03-17T08:40:06Z</time>
      </trkpt>
      <trkpt lat="46.61769" lon="-1.58679">
        <ele>66</ele>
        <time>2018-03-17T08:41:06Z</time>
      </trkpt>
      <trkpt lat="46.61766" lon="-1.58676">
        <ele>66</ele>
        <time>2018-03-17T08:42:06Z</time>
      </trkpt>
      <trkpt lat="46.61765" lon="-1.58673">
        <ele>66</ele>
        <time>2018-03-17T08:43:06Z</time>
      </trkpt>
      <trkpt lat="46.61764" lon="-1.58669">
        <ele>66</ele>
        <time>2018-03-17T08:44:06Z</time>
      </trkpt>
      <trkpt lat="46.61758" lon="-1.58664">
        <ele>66</ele>
        <time>2018-03-17T08:45:06Z</time>
      </trkpt>
      <trkpt lat="46.61753" lon="-1.58661">
        <ele>66</ele>
        <time>2018-03-17T08:46:06Z</time>
      </trkpt>
      <trkpt lat="46.61747" lon="-1.58657">
        <ele>66</ele>
        <time>2018-03-17T08:47:06Z</time>
      </trkpt>
      <trkpt lat="46.61742" lon="-1.58654">
        <ele>66</ele>
        <time>2018-03-17T08:48:06Z</time>
      </trkpt>
      <trkpt lat="46.61736" lon="-1.58652">
        <ele>66</ele>
        <time>2018-03-17T08:49:06Z</time>
      </trkpt>
      <trkpt lat="46.61725" lon="-1.58647">
        <ele>66</ele>
        <time>2018-03-17T08:50:06Z</time>
      </trkpt>
      <trkpt lat="46.61721" lon="-1.58645">
        <ele>66</ele>
        <time>2018-03-17T08:51:06Z</time>
      </trkpt>
      <trkpt lat="46.61718" lon="-1.58641">
        <ele>66</ele>
        <time>2018-03-17T08:52:06Z</time>
      </trkpt>
      <trkpt lat="46.61702" lon="-1.58631">
        <ele>66</ele>
        <time>2018-03-17T08:53:06Z</time>
      </trkpt>
      <trkpt lat="46.61685" lon="-1.5862">
        <ele>66</ele>
        <time>2018-03-17T08:54:06Z</time>
      </trkpt>
      <trkpt lat="46.61669" lon="-1.58606">
        <ele>65</ele>
        <time>2018-03-17T08:55:06Z</time>
      </trkpt>
      <trkpt lat="46.6165" lon="-1.58583">
        <ele>65</ele>
        <time>2018-03-17T08:56:06Z</time>
      </trkpt>
      <trkpt lat="46.61612" lon="-1.58537">
        <ele>64</ele>
        <time>2018-03-17T08:57:06Z</time>
      </trkpt>
      <trkpt lat="46.61598" lon="-1.58522">
        <ele>64</ele>
        <time>2018-03-17T08:58:06Z</time>
      </trkpt>
      <trkpt lat="46.61595" lon="-1.58519">
        <ele>64</ele>
        <time>2018-03-17T08:59:06Z</time>
      </trkpt>
      <trkpt lat="46.61587" lon="-1.58509">
        <ele>64</ele>
        <time>2018-03-17T09:00:06Z</time>
      </trkpt>
      <trkpt lat="46.61555" lon="-1.58485">
        <ele>64</ele>
        <time>2018-03-17T09:01:06Z</time>
      </trkpt>
      <trkpt lat="46.61522" lon="-1.58463">
        <ele>64</ele>
        <time>2018-03-17T09:02:06Z</time>
      </trkpt>
      <trkpt lat="46.61515" lon="-1.58458">
        <ele>65</ele>
        <time>2018-03-17T09:03:06Z</time>
      </trkpt>
      <trkpt lat="46.61493" lon="-1.58446">
        <ele>65</ele>
        <time>2018-03-17T09:04:06Z</time>
      </trkpt>
      <trkpt lat="46.61467" lon="-1.58431">
        <ele>65</ele>
        <time>2018-03-17T09:05:06Z</time>
      </trkpt>
      <trkpt lat="46.61461" lon="-1.58424">
        <ele>64</ele>
        <time>2018-03-17T09:06:06Z</time>
      </trkpt>
      <trkpt lat="46.61441" lon="-1.58409">
        <ele>64</ele>
        <time>2018-03-17T09:07:06Z</time>
      </trkpt>
      <trkpt lat="46.61416" lon="-1.58395">
        <ele>65</ele>
        <time>2018-03-17T09:08:06Z</time>
      </trkpt>
      <trkpt lat="46.61362" lon="-1.58365">
        <ele>65</ele>
        <time>2018-03-17T09:09:06Z</time>
      </trkpt>
      <trkpt lat="46.6132" lon="-1.58345">
        <ele>65</ele>
        <time>2018-03-17T09:10:06Z</time>
      </trkpt>
      <trkpt lat="46.61309" lon="-1.58341">
        <ele>65</ele>
        <time>2018-03-17T09:11:06Z</time>
      </trkpt>
      <trkpt lat="46.61309" lon="-1.58341">
        <ele>65</ele>
        <time>2018-03-17T09:12:06Z</time>
      </trkpt>
      <trkpt lat="46.61309" lon="-1.58342">
        <ele>65</ele>
        <time>2018-03-17T09:13:06Z</time>
      </trkpt>
      <trkpt lat="46.61308" lon="-1.58343">
        <ele>65</ele>
        <time>2018-03-17T09:14:06Z</time>
      </trkpt>
      <trkpt lat="46.61308" lon="-1.58344">
        <ele>65</ele>
        <time>2018-03-17T09:15:06Z</time>
      </trkpt>
      <trkpt lat="46.61308" lon="-1.58345">
        <ele>65</ele>
        <time>2018-03-17T09:16:06Z</time>
      </trkpt>
      <trkpt lat="46.61307" lon="-1.58345">
        <ele>65</ele>
        <time>2018-03-17T09:17:06Z</time>
      </trkpt>
      <trkpt lat="46.61307" lon="-1.58346">
        <ele>65</ele>
        <time>2018-03-17T09:18:06Z</time>
      </trkpt>
      <trkpt lat="46.61306" lon="-1.58347">
        <ele>65</ele>
        <time>2018-03-17T09:19:06Z</time>
      </trkpt>
      <trkpt lat="46.61305" lon="-1.58348">
        <ele>65</ele>
        <time>2018-03-17T09:20:06Z</time>
      </trkpt>
      <trkpt lat="46.61304" lon="-1.58349">
        <ele>65</ele>
        <time>2018-03-17T09:21:06Z</time>
      </trkpt>
      <trkpt lat="46.61303" lon="-1.58349">
        <ele>65</ele>
        <time>2018-03-17T09:22:06Z</time>
      </trkpt>
      <trkpt lat="46.61302" lon="-1.58349">
        <ele>65</ele>
        <time>2018-03-17T09:23:06Z</time>
      </trkpt>
      <trkpt lat="46.61302" lon="-1.5835">
        <ele>64</ele>
        <time>2018-03-17T09:24:06Z</time>
      </trkpt>
      <trkpt lat="46.61301" lon="-1.5835">
        <ele>64</ele>
        <time>2018-03-17T09:25:06Z</time>
      </trkpt>
      <trkpt lat="46.613" lon="-1.5835">
        <ele>64</ele>
        <time>2018-03-17T09:26:06Z</time>
      </trkpt>
      <trkpt lat="46.61299" lon="-1.5835">
        <ele>64</ele>
        <time>2018-03-17T09:27:06Z</time>
      </trkpt>
      <trkpt lat="46.61299" lon="-1.58349">
        <ele>64</ele>
        <time>2018-03-17T09:28:06Z</time>
      </trkpt>
      <trkpt lat="46.61298" lon="-1.58349">
        <ele>64</ele>
        <time>2018-03-17T09:29:06Z</time>
      </trkpt>
      <trkpt lat="46.61297" lon="-1.58349">
        <ele>64</ele>
        <time>2018-03-17T09:30:06Z</time>
      </trkpt>
      <trkpt lat="46.61297" lon="-1.58348">
        <ele>64</ele>
        <time>2018-03-17T09:31:06Z</time>
      </trkpt>
      <trkpt lat="46.61296" lon="-1.58348">
        <ele>64</ele>
        <time>2018-03-17T09:32:06Z</time>
      </trkpt>
      <trkpt lat="46.61296" lon="-1.58347">
        <ele>64</ele>
        <time>2018-03-17T09:33:06Z</time>
      </trkpt>
      <trkpt lat="46.61288" lon="-1.58357">
        <ele>64</ele>
        <time>2018-03-17T09:34:06Z</time>
      </trkpt>
      <trkpt lat="46.61277" lon="-1.58369">
        <ele>64</ele>
        <time>2018-03-17T09:35:06Z</time>
      </trkpt>
      <trkpt lat="46.61264" lon="-1.58383">
        <ele>64</ele>
        <time>2018-03-17T09:36:06Z</time>
      </trkpt>
      <trkpt lat="46.61264" lon="-1.58383">
        <ele>64</ele>
        <time>2018-03-17T09:37:06Z</time>
      </trkpt>
      <trkpt lat="46.61201" lon="-1.58449">
        <ele>64</ele>
        <time>2018-03-17T09:38:06Z</time>
      </trkpt>
      <trkpt lat="46.61138" lon="-1.5852">
        <ele>64</ele>
        <time>2018-03-17T09:39:06Z</time>
      </trkpt>
      <trkpt lat="46.61138" lon="-1.5852">
        <ele>64</ele>
        <time>2018-03-17T09:40:06Z</time>
      </trkpt>
      <trkpt lat="46.61042" lon="-1.58627">
        <ele>64</ele>
        <time>2018-03-17T09:41:06Z</time>
      </trkpt>
      <trkpt lat="46.60988" lon="-1.58688">
        <ele>62</ele>
        <time>2018-03-17T09:42:06Z</time>
      </trkpt>
      <trkpt lat="46.60895" lon="-1.58792">
        <ele>61</ele>
        <time>2018-03-17T09:43:06Z</time>
      </trkpt>
      <trkpt lat="46.60857" lon="-1.58834">
        <ele>60</ele>
        <time>2018-03-17T09:44:06Z</time>
      </trkpt>
      <trkpt lat="46.60841" lon="-1.58854">
        <ele>59</ele>
        <time>2018-03-17T09:45:06Z</time>
      </trkpt>
      <trkpt lat="46.60833" lon="-1.58866">
        <ele>59</ele>
        <time>2018-03-17T09:46:06Z</time>
      </trkpt>
      <trkpt lat="46.60824" lon="-1.58884">
        <ele>58</ele>
        <time>2018-03-17T09:47:06Z</time>
      </trkpt>
      <trkpt lat="46.60818" lon="-1.58902">
        <ele>58</ele>
        <time>2018-03-17T09:48:06Z</time>
      </trkpt>
      <trkpt lat="46.60812" lon="-1.58921">
        <ele>57</ele>
        <time>2018-03-17T09:49:06Z</time>
      </trkpt>
      <trkpt lat="46.60798" lon="-1.58981">
        <ele>55</ele>
        <time>2018-03-17T09:50:06Z</time>
      </trkpt>
      <trkpt lat="46.6076" lon="-1.59138">
        <ele>51</ele>
        <time>2018-03-17T09:51:06Z</time>
      </trkpt>
      <trkpt lat="46.60751" lon="-1.59178">
        <ele>50</ele>
        <time>2018-03-17T09:52:06Z</time>
      </trkpt>
      <trkpt lat="46.60737" lon="-1.59235">
        <ele>50</ele>
        <time>2018-03-17T09:53:06Z</time>
      </trkpt>
      <trkpt lat="46.60728" lon="-1.59273">
        <ele>49</ele>
        <time>2018-03-17T09:54:06Z</time>
      </trkpt>
      <trkpt lat="46.60719" lon="-1.59311">
        <ele>50</ele>
        <time>2018-03-17T09:55:06Z</time>
      </trkpt>
      <trkpt lat="46.60716" lon="-1.59326">
        <ele>50</ele>
        <time>2018-03-17T09:56:06Z</time>
      </trkpt>
      <trkpt lat="46.60711" lon="-1.59343">
        <ele>51</ele>
        <time>2018-03-17T09:57:06Z</time>
      </trkpt>
      <trkpt lat="46.60705" lon="-1.59355">
        <ele>51</ele>
        <time>2018-03-17T09:58:06Z</time>
      </trkpt>
      <trkpt lat="46.60698" lon="-1.59368">
        <ele>52</ele>
        <time>2018-03-17T09:59:06Z</time>
      </trkpt>
      <trkpt lat="46.60685" lon="-1.59389">
        <ele>54</ele>
        <time>2018-03-17T10:00:06Z</time>
      </trkpt>
      <trkpt lat="46.60669" lon="-1.59411">
        <ele>56</ele>
        <time>2018-03-17T10:01:06Z</time>
      </trkpt>
      <trkpt lat="46.60575" lon="-1.59527">
        <ele>55</ele>
        <time>2018-03-17T10:02:06Z</time>
      </trkpt>
      <trkpt lat="46.60553" lon="-1.5956">
        <ele>55</ele>
        <time>2018-03-17T10:03:06Z</time>
      </trkpt>
      <trkpt lat="46.60469" lon="-1.5969">
        <ele>52</ele>
        <time>2018-03-17T10:04:06Z</time>
      </trkpt>
      <trkpt lat="46.6043" lon="-1.59749">
        <ele>51</ele>
        <time>2018-03-17T10:05:06Z</time>
      </trkpt>
      <trkpt lat="46.60418" lon="-1.59767">
        <ele>51</ele>
        <time>2018-03-17T10:06:06Z</time>
      </trkpt>
      <trkpt lat="46.60409" lon="-1.59777">
        <ele>51</ele>
        <time>2018-03-17T10:07:06Z</time>
      </trkpt>
      <trkpt lat="46.60398" lon="-1.59787">
        <ele>51</ele>
        <time>2018-03-17T10:08:06Z</time>
      </trkpt>
      <trkpt lat="46.60392" lon="-1.59792">
        <ele>51</ele>
        <time>2018-03-17T10:09:06Z</time>
      </trkpt>
      <trkpt lat="46.60386" lon="-1.59796">
        <ele>51</ele>
        <time>2018-03-17T10:10:06Z</time>
      </trkpt>
      <trkpt lat="46.60373" lon="-1.59803">
        <ele>51</ele>
        <time>2018-03-17T10:11:06Z</time>
      </trkpt>
      <trkpt lat="46.60363" lon="-1.59809">
        <ele>51</ele>
        <time>2018-03-17T10:12:06Z</time>
      </trkpt>
      <trkpt lat="46.60354" lon="-1.59815">
        <ele>51</ele>
        <time>2018-03-17T10:13:06Z</time>
      </trkpt>
      <trkpt lat="46.60347" lon="-1.59822">
        <ele>51</ele>
        <time>2018-03-17T10:14:06Z</time>
      </trkpt>
      <trkpt lat="46.60341" lon="-1.5983">
        <ele>51</ele>
        <time>2018-03-17T10:15:06Z</time>
      </trkpt>
      <trkpt lat="46.60336" lon="-1.5984">
        <ele>51</ele>
        <time>2018-03-17T10:16:06Z</time>
      </trkpt>
      <trkpt lat="46.60313" lon="-1.59894">
        <ele>49</ele>
        <time>2018-03-17T10:17:06Z</time>
      </trkpt>
      <trkpt lat="46.60298" lon="-1.59937">
        <ele>48</ele>
        <time>2018-03-17T10:18:06Z</time>
      </trkpt>
      <trkpt lat="46.6029" lon="-1.59962">
        <ele>47</ele>
        <time>2018-03-17T10:19:06Z</time>
      </trkpt>
      <trkpt lat="46.60285" lon="-1.59985">
        <ele>47</ele>
        <time>2018-03-17T10:20:06Z</time>
      </trkpt>
      <trkpt lat="46.60273" lon="-1.60046">
        <ele>47</ele>
        <time>2018-03-17T10:21:06Z</time>
      </trkpt>
      <trkpt lat="46.6026" lon="-1.60101">
        <ele>47</ele>
        <time>2018-03-17T10:22:06Z</time>
      </trkpt>
      <trkpt lat="46.6026" lon="-1.60101">
        <ele>47</ele>
        <time>2018-03-17T10:23:06Z</time>
      </trkpt>
      <trkpt lat="46.60247" lon="-1.60154">
        <ele>48</ele>
        <time>2018-03-17T10:24:06Z</time>
      </trkpt>
      <trkpt lat="46.6023" lon="-1.60224">
        <ele>50</ele>
        <time>2018-03-17T10:25:06Z</time>
      </trkpt>
      <trkpt lat="46.60203" lon="-1.60339">
        <ele>51</ele>
        <time>2018-03-17T10:26:06Z</time>
      </trkpt>
      <trkpt lat="46.60184" lon="-1.60423">
        <ele>53</ele>
        <time>2018-03-17T10:27:06Z</time>
      </trkpt>
      <trkpt lat="46.60167" lon="-1.60501">
        <ele>54</ele>
        <time>2018-03-17T10:28:06Z</time>
      </trkpt>
      <trkpt lat="46.60158" lon="-1.60541">
        <ele>54</ele>
        <time>2018-03-17T10:29:06Z</time>
      </trkpt>
      <trkpt lat="46.60154" lon="-1.60557">
        <ele>54</ele>
        <time>2018-03-17T10:30:06Z</time>
      </trkpt>
      <trkpt lat="46.60151" lon="-1.6057">
        <ele>54</ele>
        <time>2018-03-17T10:31:06Z</time>
      </trkpt>
      <trkpt lat="46.60147" lon="-1.60583">
        <ele>55</ele>
        <time>2018-03-17T10:32:06Z</time>
      </trkpt>
      <trkpt lat="46.60143" lon="-1.60593">
        <ele>54</ele>
        <time>2018-03-17T10:33:06Z</time>
      </trkpt>
      <trkpt lat="46.60138" lon="-1.60606">
        <ele>54</ele>
        <time>2018-03-17T10:34:06Z</time>
      </trkpt>
      <trkpt lat="46.6013" lon="-1.60622">
        <ele>53</ele>
        <time>2018-03-17T10:35:06Z</time>
      </trkpt>
      <trkpt lat="46.60122" lon="-1.60637">
        <ele>53</ele>
        <time>2018-03-17T10:36:06Z</time>
      </trkpt>
      <trkpt lat="46.60107" lon="-1.60657">
        <ele>52</ele>
        <time>2018-03-17T10:37:06Z</time>
      </trkpt>
      <trkpt lat="46.601" lon="-1.60666">
        <ele>52</ele>
        <time>2018-03-17T10:38:06Z</time>
      </trkpt>
      <trkpt lat="46.60089" lon="-1.60677">
        <ele>52</ele>
        <time>2018-03-17T10:39:06Z</time>
      </trkpt>
      <trkpt lat="46.60063" lon="-1.60702">
        <ele>52</ele>
        <time>2018-03-17T10:40:06Z</time>
      </trkpt>
      <trkpt lat="46.60018" lon="-1.60743">
        <ele>53</ele>
        <time>2018-03-17T10:41:06Z</time>
      </trkpt>
      <trkpt lat="46.59964" lon="-1.60795">
        <ele>52</ele>
        <time>2018-03-17T10:42:06Z</time>
      </trkpt>
      <trkpt lat="46.5995" lon="-1.60808">
        <ele>52</ele>
        <time>2018-03-17T10:43:06Z</time>
      </trkpt>
      <trkpt lat="46.59936" lon="-1.60823">
        <ele>52</ele>
        <time>2018-03-17T10:44:06Z</time>
      </trkpt>
      <trkpt lat="46.5992" lon="-1.60841">
        <ele>52</ele>
        <time>2018-03-17T10:45:06Z</time>
      </trkpt>
      <trkpt lat="46.59902" lon="-1.60864">
        <ele>52</ele>
        <time>2018-03-17T10:46:06Z</time>
      </trkpt>
      <trkpt lat="46.59889" lon="-1.6088">
        <ele>52</ele>
        <time>2018-03-17T10:47:06Z</time>
      </trkpt>
      <trkpt lat="46.59868" lon="-1.60906">
        <ele>52</ele>
        <time>2018-03-17T10:48:06Z</time>
      </trkpt>
      <trkpt lat="46.59828" lon="-1.60955">
        <ele>52</ele>
        <time>2018-03-17T10:49:06Z</time>
      </trkpt>
      <trkpt lat="46.59804" lon="-1.60984">
        <ele>52</ele>
        <time>2018-03-17T10:50:06Z</time>
      </trkpt>
      <trkpt lat="46.59777" lon="-1.61016">
        <ele>52</ele>
        <time>2018-03-17T10:51:06Z</time>
      </trkpt>
      <trkpt lat="46.59752" lon="-1.61045">
        <ele>51</ele>
        <time>2018-03-17T10:52:06Z</time>
      </trkpt>
      <trkpt lat="46.59733" lon="-1.61065">
        <ele>51</ele>
        <time>2018-03-17T10:53:06Z</time>
      </trkpt>
      <trkpt lat="46.5972" lon="-1.61078">
        <ele>51</ele>
        <time>2018-03-17T10:54:06Z</time>
      </trkpt>
      <trkpt lat="46.59695" lon="-1.61101">
        <ele>51</ele>
        <time>2018-03-17T10:55:06Z</time>
      </trkpt>
      <trkpt lat="46.59674" lon="-1.61122">
        <ele>51</ele>
        <time>2018-03-17T10:56:06Z</time>
      </trkpt>
      <trkpt lat="46.59654" lon="-1.6114">
        <ele>52</ele>
        <time>2018-03-17T10:57:06Z</time>
      </trkpt>
      <trkpt lat="46.59612" lon="-1.61181">
        <ele>52</ele>
        <time>2018-03-17T10:58:06Z</time>
      </trkpt>
      <trkpt lat="46.5959" lon="-1.61201">
        <ele>52</ele>
        <time>2018-03-17T10:59:06Z</time>
      </trkpt>
      <trkpt lat="46.59563" lon="-1.61227">
        <ele>52</ele>
        <time>2018-03-17T11:00:06Z</time>
      </trkpt>
      <trkpt lat="46.5954" lon="-1.61251">
        <ele>51</ele>
        <time>2018-03-17T11:01:06Z</time>
      </trkpt>
      <trkpt lat="46.59515" lon="-1.61275">
        <ele>51</ele>
        <time>2018-03-17T11:02:06Z</time>
      </trkpt>
      <trkpt lat="46.59495" lon="-1.61294">
        <ele>51</ele>
        <time>2018-03-17T11:03:06Z</time>
      </trkpt>
      <trkpt lat="46.59478" lon="-1.61313">
        <ele>50</ele>
        <time>2018-03-17T11:04:06Z</time>
      </trkpt>
      <trkpt lat="46.59461" lon="-1.61335">
        <ele>50</ele>
        <time>2018-03-17T11:05:06Z</time>
      </trkpt>
      <trkpt lat="46.5945" lon="-1.61351">
        <ele>50</ele>
        <time>2018-03-17T11:06:06Z</time>
      </trkpt>
      <trkpt lat="46.59444" lon="-1.61361">
        <ele>50</ele>
        <time>2018-03-17T11:07:06Z</time>
      </trkpt>
      <trkpt lat="46.59429" lon="-1.61388">
        <ele>50</ele>
        <time>2018-03-17T11:08:06Z</time>
      </trkpt>
      <trkpt lat="46.59386" lon="-1.61485">
        <ele>49</ele>
        <time>2018-03-17T11:09:06Z</time>
      </trkpt>
      <trkpt lat="46.59364" lon="-1.61531">
        <ele>49</ele>
        <time>2018-03-17T11:10:06Z</time>
      </trkpt>
      <trkpt lat="46.59343" lon="-1.61573">
        <ele>49</ele>
        <time>2018-03-17T11:11:06Z</time>
      </trkpt>
      <trkpt lat="46.59332" lon="-1.61592">
        <ele>49</ele>
        <time>2018-03-17T11:12:06Z</time>
      </trkpt>
      <trkpt lat="46.59312" lon="-1.61628">
        <ele>49</ele>
        <time>2018-03-17T11:13:06Z</time>
      </trkpt>
      <trkpt lat="46.59286" lon="-1.61676">
        <ele>50</ele>
        <time>2018-03-17T11:14:06Z</time>
      </trkpt>
      <trkpt lat="46.59265" lon="-1.61713">
        <ele>50</ele>
        <time>2018-03-17T11:15:06Z</time>
      </trkpt>
      <trkpt lat="46.59241" lon="-1.61754">
        <ele>51</ele>
        <time>2018-03-17T11:16:06Z</time>
      </trkpt>
      <trkpt lat="46.59227" lon="-1.61786">
        <ele>51</ele>
        <time>2018-03-17T11:17:06Z</time>
      </trkpt>
      <trkpt lat="46.59221" lon="-1.618">
        <ele>51</ele>
        <time>2018-03-17T11:18:06Z</time>
      </trkpt>
      <trkpt lat="46.59218" lon="-1.61812">
        <ele>51</ele>
        <time>2018-03-17T11:19:06Z</time>
      </trkpt>
      <trkpt lat="46.59216" lon="-1.61818">
        <ele>51</ele>
        <time>2018-03-17T11:20:06Z</time>
      </trkpt>
      <trkpt lat="46.59215" lon="-1.61826">
        <ele>50</ele>
        <time>2018-03-17T11:21:06Z</time>
      </trkpt>
      <trkpt lat="46.59214" lon="-1.6183">
        <ele>50</ele>
        <time>2018-03-17T11:22:06Z</time>
      </trkpt>
      <trkpt lat="46.59213" lon="-1.61844">
        <ele>50</ele>
        <time>2018-03-17T11:23:06Z</time>
      </trkpt>
      <trkpt lat="46.59213" lon="-1.61858">
        <ele>50</ele>
        <time>2018-03-17T11:24:06Z</time>
      </trkpt>
      <trkpt lat="46.59216" lon="-1.61877">
        <ele>50</ele>
        <time>2018-03-17T11:25:06Z</time>
      </trkpt>
      <trkpt lat="46.59225" lon="-1.61926">
        <ele>50</ele>
        <time>2018-03-17T11:26:06Z</time>
      </trkpt>
      <trkpt lat="46.59234" lon="-1.61969">
        <ele>50</ele>
        <time>2018-03-17T11:27:06Z</time>
      </trkpt>
      <trkpt lat="46.59243" lon="-1.62005">
        <ele>50</ele>
        <time>2018-03-17T11:28:06Z</time>
      </trkpt>
      <trkpt lat="46.59249" lon="-1.62023">
        <ele>50</ele>
        <time>2018-03-17T11:29:06Z</time>
      </trkpt>
      <trkpt lat="46.59262" lon="-1.62054">
        <ele>50</ele>
        <time>2018-03-17T11:30:06Z</time>
      </trkpt>
      <trkpt lat="46.59287" lon="-1.62103">
        <ele>49</ele>
        <time>2018-03-17T11:31:06Z</time>
      </trkpt>
      <trkpt lat="46.59299" lon="-1.62125">
        <ele>48</ele>
        <time>2018-03-17T11:32:06Z</time>
      </trkpt>
      <trkpt lat="46.59314" lon="-1.62158">
        <ele>48</ele>
        <time>2018-03-17T11:33:06Z</time>
      </trkpt>
      <trkpt lat="46.59318" lon="-1.62169">
        <ele>48</ele>
        <time>2018-03-17T11:34:06Z</time>
      </trkpt>
      <trkpt lat="46.59321" lon="-1.62179">
        <ele>48</ele>
        <time>2018-03-17T11:35:06Z</time>
      </trkpt>
      <trkpt lat="46.59324" lon="-1.62204">
        <ele>47</ele>
        <time>2018-03-17T11:36:06Z</time>
      </trkpt>
      <trkpt lat="46.59328" lon="-1.62238">
        <ele>46</ele>
        <time>2018-03-17T11:37:06Z</time>
      </trkpt>
      <trkpt lat="46.59333" lon="-1.6229">
        <ele>46</ele>
        <time>2018-03-17T11:38:06Z</time>
      </trkpt>
      <trkpt lat="46.59335" lon="-1.62308">
        <ele>45</ele>
        <time>2018-03-17T11:39:06Z</time>
      </trkpt>
      <trkpt lat="46.59338" lon="-1.62331">
        <ele>45</ele>
        <time>2018-03-17T11:40:06Z</time>
      </trkpt>
      <trkpt lat="46.59341" lon="-1.62346">
        <ele>44</ele>
        <time>2018-03-17T11:41:06Z</time>
      </trkpt>
      <trkpt lat="46.59344" lon="-1.62357">
        <ele>44</ele>
        <time>2018-03-17T11:42:06Z</time>
      </trkpt>
      <trkpt lat="46.59352" lon="-1.62378">
        <ele>43</ele>
        <time>2018-03-17T11:43:06Z</time>
      </trkpt>
      <trkpt lat="46.59372" lon="-1.62422">
        <ele>42</ele>
        <time>2018-03-17T11:44:06Z</time>
      </trkpt>
      <trkpt lat="46.59388" lon="-1.62458">
        <ele>40</ele>
        <time>2018-03-17T11:45:06Z</time>
      </trkpt>
      <trkpt lat="46.59398" lon="-1.6248">
        <ele>40</ele>
        <time>2018-03-17T11:46:06Z</time>
      </trkpt>
      <trkpt lat="46.59405" lon="-1.62497">
        <ele>39</ele>
        <time>2018-03-17T11:47:06Z</time>
      </trkpt>
      <trkpt lat="46.59413" lon="-1.62516">
        <ele>38</ele>
        <time>2018-03-17T11:48:06Z</time>
      </trkpt>
      <trkpt lat="46.59414" lon="-1.62519">
        <ele>38</ele>
        <time>2018-03-17T11:49:06Z</time>
      </trkpt>
      <trkpt lat="46.59422" lon="-1.62545">
        <ele>37</ele>
        <time>2018-03-17T11:50:06Z</time>
      </trkpt>
      <trkpt lat="46.5944" lon="-1.62607">
        <ele>34</ele>
        <time>2018-03-17T11:51:06Z</time>
      </trkpt>
      <trkpt lat="46.59452" lon="-1.62654">
        <ele>32</ele>
        <time>2018-03-17T11:52:06Z</time>
      </trkpt>
      <trkpt lat="46.59466" lon="-1.62703">
        <ele>31</ele>
        <time>2018-03-17T11:53:06Z</time>
      </trkpt>
      <trkpt lat="46.59478" lon="-1.62751">
        <ele>31</ele>
        <time>2018-03-17T11:54:06Z</time>
      </trkpt>
      <trkpt lat="46.59482" lon="-1.62765">
        <ele>30</ele>
        <time>2018-03-17T11:55:06Z</time>
      </trkpt>
      <trkpt lat="46.59484" lon="-1.62777">
        <ele>30</ele>
        <time>2018-03-17T11:56:06Z</time>
      </trkpt>
      <trkpt lat="46.59485" lon="-1.62796">
        <ele>30</ele>
        <time>2018-03-17T11:57:06Z</time>
      </trkpt>
      <trkpt lat="46.59484" lon="-1.62803">
        <ele>30</ele>
        <time>2018-03-17T11:58:06Z</time>
      </trkpt>
      <trkpt lat="46.59482" lon="-1.62808">
        <ele>30</ele>
        <time>2018-03-17T11:59:06Z</time>
      </trkpt>
      <trkpt lat="46.5948" lon="-1.62815">
        <ele>30</ele>
        <time>2018-03-17T12:00:06Z</time>
      </trkpt>
      <trkpt lat="46.59478" lon="-1.62821">
        <ele>30</ele>
        <time>2018-03-17T12:01:06Z</time>
      </trkpt>
      <trkpt lat="46.59476" lon="-1.62826">
        <ele>30</ele>
        <time>2018-03-17T12:02:06Z</time>
      </trkpt>
      <trkpt lat="46.59459" lon="-1.62854">
        <ele>31</ele>
        <time>2018-03-17T12:03:06Z</time>
      </trkpt>
      <trkpt lat="46.59436" lon="-1.62889">
        <ele>32</ele>
        <time>2018-03-17T12:04:06Z</time>
      </trkpt>
      <trkpt lat="46.59411" lon="-1.62924">
        <ele>33</ele>
        <time>2018-03-17T12:05:06Z</time>
      </trkpt>
      <trkpt lat="46.59394" lon="-1.62943">
        <ele>34</ele>
        <time>2018-03-17T12:06:06Z</time>
      </trkpt>
      <trkpt lat="46.59376" lon="-1.62965">
        <ele>35</ele>
        <time>2018-03-17T12:07:06Z</time>
      </trkpt>
      <trkpt lat="46.59367" lon="-1.62976">
        <ele>35</ele>
        <time>2018-03-17T12:08:06Z</time>
      </trkpt>
      <trkpt lat="46.59342" lon="-1.63036">
        <ele>37</ele>
        <time>2018-03-17T12:09:06Z</time>
      </trkpt>
      <trkpt lat="46.59325" lon="-1.6308">
        <ele>39</ele>
        <time>2018-03-17T12:10:06Z</time>
      </trkpt>
      <trkpt lat="46.59307" lon="-1.63124">
        <ele>38</ele>
        <time>2018-03-17T12:11:06Z</time>
      </trkpt>
      <trkpt lat="46.59299" lon="-1.63141">
        <ele>37</ele>
        <time>2018-03-17T12:12:06Z</time>
      </trkpt>
      <trkpt lat="46.59299" lon="-1.63141">
        <ele>37</ele>
        <time>2018-03-17T12:13:06Z</time>
      </trkpt>
      <trkpt lat="46.59285" lon="-1.63165">
        <ele>37</ele>
        <time>2018-03-17T12:14:06Z</time>
      </trkpt>
      <trkpt lat="46.59273" lon="-1.63189">
        <ele>36</ele>
        <time>2018-03-17T12:15:06Z</time>
      </trkpt>
      <trkpt lat="46.59265" lon="-1.63206">
        <ele>36</ele>
        <time>2018-03-17T12:16:06Z</time>
      </trkpt>
      <trkpt lat="46.59262" lon="-1.63219">
        <ele>35</ele>
        <time>2018-03-17T12:17:06Z</time>
      </trkpt>
      <trkpt lat="46.59257" lon="-1.63245">
        <ele>35</ele>
        <time>2018-03-17T12:18:06Z</time>
      </trkpt>
      <trkpt lat="46.59253" lon="-1.63285">
        <ele>36</ele>
        <time>2018-03-17T12:19:06Z</time>
      </trkpt>
      <trkpt lat="46.59251" lon="-1.6333">
        <ele>38</ele>
        <time>2018-03-17T12:20:06Z</time>
      </trkpt>
      <trkpt lat="46.59249" lon="-1.63383">
        <ele>40</ele>
        <time>2018-03-17T12:21:06Z</time>
      </trkpt>
      <trkpt lat="46.59248" lon="-1.63409">
        <ele>42</ele>
        <time>2018-03-17T12:22:06Z</time>
      </trkpt>
      <trkpt lat="46.59245" lon="-1.63437">
        <ele>43</ele>
        <time>2018-03-17T12:23:06Z</time>
      </trkpt>
      <trkpt lat="46.59242" lon="-1.63447">
        <ele>43</ele>
        <time>2018-03-17T12:24:06Z</time>
      </trkpt>
      <trkpt lat="46.59238" lon="-1.6346">
        <ele>43</ele>
        <time>2018-03-17T12:25:06Z</time>
      </trkpt>
      <trkpt lat="46.59226" lon="-1.63481">
        <ele>44</ele>
        <time>2018-03-17T12:26:06Z</time>
      </trkpt>
      <trkpt lat="46.59202" lon="-1.63513">
        <ele>45</ele>
        <time>2018-03-17T12:27:06Z</time>
      </trkpt>
      <trkpt lat="46.5919" lon="-1.63529">
        <ele>45</ele>
        <time>2018-03-17T12:28:06Z</time>
      </trkpt>
      <trkpt lat="46.5918" lon="-1.63542">
        <ele>45</ele>
        <time>2018-03-17T12:29:06Z</time>
      </trkpt>
      <trkpt lat="46.59154" lon="-1.63575">
        <ele>45</ele>
        <time>2018-03-17T12:30:06Z</time>
      </trkpt>
      <trkpt lat="46.59119" lon="-1.63622">
        <ele>46</ele>
        <time>2018-03-17T12:31:06Z</time>
      </trkpt>
      <trkpt lat="46.59102" lon="-1.63655">
        <ele>46</ele>
        <time>2018-03-17T12:32:06Z</time>
      </trkpt>
      <trkpt lat="46.59083" lon="-1.63699">
        <ele>47</ele>
        <time>2018-03-17T12:33:06Z</time>
      </trkpt>
      <trkpt lat="46.59055" lon="-1.63756">
        <ele>48</ele>
        <time>2018-03-17T12:34:06Z</time>
      </trkpt>
      <trkpt lat="46.59023" lon="-1.63811">
        <ele>47</ele>
        <time>2018-03-17T12:35:06Z</time>
      </trkpt>
      <trkpt lat="46.59006" lon="-1.63842">
        <ele>47</ele>
        <time>2018-03-17T12:36:06Z</time>
      </trkpt>
      <trkpt lat="46.58983" lon="-1.63885">
        <ele>47</ele>
        <time>2018-03-17T12:37:06Z</time>
      </trkpt>
      <trkpt lat="46.58973" lon="-1.63906">
        <ele>46</ele>
        <time>2018-03-17T12:38:06Z</time>
      </trkpt>
      <trkpt lat="46.58969" lon="-1.63918">
        <ele>46</ele>
        <time>2018-03-17T12:39:06Z</time>
      </trkpt>
      <trkpt lat="46.58968" lon="-1.63923">
        <ele>46</ele>
        <time>2018-03-17T12:40:06Z</time>
      </trkpt>
      <trkpt lat="46.58967" lon="-1.63929">
        <ele>46</ele>
        <time>2018-03-17T12:41:06Z</time>
      </trkpt>
      <trkpt lat="46.58967" lon="-1.6394">
        <ele>47</ele>
        <time>2018-03-17T12:42:06Z</time>
      </trkpt>
      <trkpt lat="46.58966" lon="-1.63951">
        <ele>47</ele>
        <time>2018-03-17T12:43:06Z</time>
      </trkpt>
      <trkpt lat="46.58969" lon="-1.63968">
        <ele>47</ele>
        <time>2018-03-17T12:44:06Z</time>
      </trkpt>
      <trkpt lat="46.58975" lon="-1.63985">
        <ele>47</ele>
        <time>2018-03-17T12:45:06Z</time>
      </trkpt>
      <trkpt lat="46.58983" lon="-1.64005">
        <ele>47</ele>
        <time>2018-03-17T12:46:06Z</time>
      </trkpt>
      <trkpt lat="46.58989" lon="-1.6402">
        <ele>47</ele>
        <time>2018-03-17T12:47:06Z</time>
      </trkpt>
      <trkpt lat="46.58991" lon="-1.6403">
        <ele>47</ele>
        <time>2018-03-17T12:48:06Z</time>
      </trkpt>
      <trkpt lat="46.58993" lon="-1.64041">
        <ele>47</ele>
        <time>2018-03-17T12:49:06Z</time>
      </trkpt>
      <trkpt lat="46.58993" lon="-1.64056">
        <ele>47</ele>
        <time>2018-03-17T12:50:06Z</time>
      </trkpt>
      <trkpt lat="46.58991" lon="-1.64079">
        <ele>47</ele>
        <time>2018-03-17T12:51:06Z</time>
      </trkpt>
      <trkpt lat="46.58987" lon="-1.64108">
        <ele>46</ele>
        <time>2018-03-17T12:52:06Z</time>
      </trkpt>
      <trkpt lat="46.58984" lon="-1.64134">
        <ele>46</ele>
        <time>2018-03-17T12:53:06Z</time>
      </trkpt>
      <trkpt lat="46.58981" lon="-1.64165">
        <ele>46</ele>
        <time>2018-03-17T12:54:06Z</time>
      </trkpt>
      <trkpt lat="46.58983" lon="-1.64195">
        <ele>45</ele>
        <time>2018-03-17T12:55:06Z</time>
      </trkpt>
      <trkpt lat="46.5899" lon="-1.64245">
        <ele>44</ele>
        <time>2018-03-17T12:56:06Z</time>
      </trkpt>
      <trkpt lat="46.58997" lon="-1.6429">
        <ele>44</ele>
        <time>2018-03-17T12:57:06Z</time>
      </trkpt>
      <trkpt lat="46.59002" lon="-1.64324">
        <ele>43</ele>
        <time>2018-03-17T12:58:06Z</time>
      </trkpt>
      <trkpt lat="46.59005" lon="-1.64344">
        <ele>43</ele>
        <time>2018-03-17T12:59:06Z</time>
      </trkpt>
      <trkpt lat="46.59006" lon="-1.64355">
        <ele>43</ele>
        <time>2018-03-17T13:00:06Z</time>
      </trkpt>
      <trkpt lat="46.59006" lon="-1.64355">
        <ele>43</ele>
        <time>2018-03-17T13:01:06Z</time>
      </trkpt>
      <trkpt lat="46.59003" lon="-1.64368">
        <ele>43</ele>
        <time>2018-03-17T13:02:06Z</time>
      </trkpt>
      <trkpt lat="46.58999" lon="-1.64377">
        <ele>42</ele>
        <time>2018-03-17T13:03:06Z</time>
      </trkpt>
      <trkpt lat="46.58996" lon="-1.64385">
        <ele>42</ele>
        <time>2018-03-17T13:04:06Z</time>
      </trkpt>
      <trkpt lat="46.5899" lon="-1.64392">
        <ele>43</ele>
        <time>2018-03-17T13:05:06Z</time>
      </trkpt>
      <trkpt lat="46.58982" lon="-1.64401">
        <ele>43</ele>
        <time>2018-03-17T13:06:06Z</time>
      </trkpt>
      <trkpt lat="46.58966" lon="-1.6442">
        <ele>43</ele>
        <time>2018-03-17T13:07:06Z</time>
      </trkpt>
      <trkpt lat="46.58946" lon="-1.64441">
        <ele>43</ele>
        <time>2018-03-17T13:08:06Z</time>
      </trkpt>
      <trkpt lat="46.58935" lon="-1.64455">
        <ele>43</ele>
        <time>2018-03-17T13:09:06Z</time>
      </trkpt>
      <trkpt lat="46.58933" lon="-1.64459">
        <ele>43</ele>
        <time>2018-03-17T13:10:06Z</time>
      </trkpt>
      <trkpt lat="46.58932" lon="-1.64463">
        <ele>43</ele>
        <time>2018-03-17T13:11:06Z</time>
      </trkpt>
      <trkpt lat="46.5893" lon="-1.6447">
        <ele>43</ele>
        <time>2018-03-17T13:12:06Z</time>
      </trkpt>
      <trkpt lat="46.58929" lon="-1.64475">
        <ele>42</ele>
        <time>2018-03-17T13:13:06Z</time>
      </trkpt>
      <trkpt lat="46.58929" lon="-1.64479">
        <ele>42</ele>
        <time>2018-03-17T13:14:06Z</time>
      </trkpt>
      <trkpt lat="46.5893" lon="-1.6449">
        <ele>42</ele>
        <time>2018-03-17T13:15:06Z</time>
      </trkpt>
      <trkpt lat="46.5893" lon="-1.6449">
        <ele>42</ele>
        <time>2018-03-17T13:16:06Z</time>
      </trkpt>
      <trkpt lat="46.58917" lon="-1.64483">
        <ele>42</ele>
        <time>2018-03-17T13:17:06Z</time>
      </trkpt>
      <trkpt lat="46.58902" lon="-1.64483">
        <ele>43</ele>
        <time>2018-03-17T13:18:06Z</time>
      </trkpt>
      <trkpt lat="46.5888" lon="-1.64486">
        <ele>43</ele>
        <time>2018-03-17T13:19:06Z</time>
      </trkpt>
      <trkpt lat="46.58862" lon="-1.64492">
        <ele>43</ele>
        <time>2018-03-17T13:20:06Z</time>
      </trkpt>
      <trkpt lat="46.58856" lon="-1.64495">
        <ele>43</ele>
        <time>2018-03-17T13:21:06Z</time>
      </trkpt>
      <trkpt lat="46.5883" lon="-1.64503">
        <ele>43</ele>
        <time>2018-03-17T13:22:06Z</time>
      </trkpt>
      <trkpt lat="46.58801" lon="-1.64513">
        <ele>43</ele>
        <time>2018-03-17T13:23:06Z</time>
      </trkpt>
      <trkpt lat="46.58779" lon="-1.64522">
        <ele>43</ele>
        <time>2018-03-17T13:24:06Z</time>
      </trkpt>
      <trkpt lat="46.58768" lon="-1.64526">
        <ele>43</ele>
        <time>2018-03-17T13:25:06Z</time>
      </trkpt>
      <trkpt lat="46.58757" lon="-1.64533">
        <ele>43</ele>
        <time>2018-03-17T13:26:06Z</time>
      </trkpt>
      <trkpt lat="46.58749" lon="-1.6454">
        <ele>43</ele>
        <time>2018-03-17T13:27:06Z</time>
      </trkpt>
      <trkpt lat="46.58739" lon="-1.64549">
        <ele>42</ele>
        <time>2018-03-17T13:28:06Z</time>
      </trkpt>
      <trkpt lat="46.58723" lon="-1.64563">
        <ele>42</ele>
        <time>2018-03-17T13:29:06Z</time>
      </trkpt>
      <trkpt lat="46.58708" lon="-1.64576">
        <ele>42</ele>
        <time>2018-03-17T13:30:06Z</time>
      </trkpt>
      <trkpt lat="46.58705" lon="-1.64581">
        <ele>42</ele>
        <time>2018-03-17T13:31:06Z</time>
      </trkpt>
      <trkpt lat="46.58703" lon="-1.64584">
        <ele>42</ele>
        <time>2018-03-17T13:32:06Z</time>
      </trkpt>
      <trkpt lat="46.58688" lon="-1.64615">
        <ele>41</ele>
        <time>2018-03-17T13:33:06Z</time>
      </trkpt>
      <trkpt lat="46.58665" lon="-1.64669">
        <ele>38</ele>
        <time>2018-03-17T13:34:06Z</time>
      </trkpt>
      <trkpt lat="46.58665" lon="-1.64669">
        <ele>38</ele>
        <time>2018-03-17T13:35:06Z</time>
      </trkpt>
      <trkpt lat="46.58678" lon="-1.64686">
        <ele>37</ele>
        <time>2018-03-17T13:36:06Z</time>
      </trkpt>
      <trkpt lat="46.58705" lon="-1.6472">
        <ele>36</ele>
        <time>2018-03-17T13:37:06Z</time>
      </trkpt>
      <trkpt lat="46.58705" lon="-1.6472">
        <ele>36</ele>
        <time>2018-03-17T13:38:06Z</time>
      </trkpt>
      <trkpt lat="46.58691" lon="-1.64729">
        <ele>36</ele>
        <time>2018-03-17T13:39:06Z</time>
      </trkpt>
      <trkpt lat="46.58677" lon="-1.64735">
        <ele>36</ele>
        <time>2018-03-17T13:40:06Z</time>
      </trkpt>
      <trkpt lat="46.58659" lon="-1.64742">
        <ele>36</ele>
        <time>2018-03-17T13:41:06Z</time>
      </trkpt>
      <trkpt lat="46.58631" lon="-1.64751">
        <ele>37</ele>
        <time>2018-03-17T13:42:06Z</time>
      </trkpt>
      <trkpt lat="46.58612" lon="-1.64757">
        <ele>38</ele>
        <time>2018-03-17T13:43:06Z</time>
      </trkpt>
      <trkpt lat="46.58588" lon="-1.64763">
        <ele>38</ele>
        <time>2018-03-17T13:44:06Z</time>
      </trkpt>
      <trkpt lat="46.58557" lon="-1.64773">
        <ele>39</ele>
        <time>2018-03-17T13:45:06Z</time>
      </trkpt>
      <trkpt lat="46.58531" lon="-1.64782">
        <ele>40</ele>
        <time>2018-03-17T13:46:06Z</time>
      </trkpt>
      <trkpt lat="46.58489" lon="-1.64795">
        <ele>41</ele>
        <time>2018-03-17T13:47:06Z</time>
      </trkpt>
      <trkpt lat="46.58478" lon="-1.64798">
        <ele>41</ele>
        <time>2018-03-17T13:48:06Z</time>
      </trkpt>
      <trkpt lat="46.58434" lon="-1.64811">
        <ele>41</ele>
        <time>2018-03-17T13:49:06Z</time>
      </trkpt>
      <trkpt lat="46.58373" lon="-1.6483">
        <ele>40</ele>
        <time>2018-03-17T13:50:06Z</time>
      </trkpt>
      <trkpt lat="46.5837" lon="-1.64831">
        <ele>40</ele>
        <time>2018-03-17T13:51:06Z</time>
      </trkpt>
      <trkpt lat="46.5832" lon="-1.64847">
        <ele>39</ele>
        <time>2018-03-17T13:52:06Z</time>
      </trkpt>
      <trkpt lat="46.5829" lon="-1.64857">
        <ele>39</ele>
        <time>2018-03-17T13:53:06Z</time>
      </trkpt>
      <trkpt lat="46.58265" lon="-1.64865">
        <ele>39</ele>
        <time>2018-03-17T13:54:06Z</time>
      </trkpt>
      <trkpt lat="46.58248" lon="-1.64871">
        <ele>39</ele>
        <time>2018-03-17T13:55:06Z</time>
      </trkpt>
      <trkpt lat="46.58231" lon="-1.64877">
        <ele>39</ele>
        <time>2018-03-17T13:56:06Z</time>
      </trkpt>
      <trkpt lat="46.58215" lon="-1.64886">
        <ele>39</ele>
        <time>2018-03-17T13:57:06Z</time>
      </trkpt>
      <trkpt lat="46.582" lon="-1.64895">
        <ele>40</ele>
        <time>2018-03-17T13:58:06Z</time>
      </trkpt>
      <trkpt lat="46.58185" lon="-1.64908">
        <ele>40</ele>
        <time>2018-03-17T13:59:06Z</time>
      </trkpt>
      <trkpt lat="46.5817" lon="-1.64923">
        <ele>40</ele>
        <time>2018-03-17T14:00:06Z</time>
      </trkpt>
      <trkpt lat="46.58158" lon="-1.64938">
        <ele>39</ele>
        <time>2018-03-17T14:01:06Z</time>
      </trkpt>
      <trkpt lat="46.58149" lon="-1.64949">
        <ele>39</ele>
        <time>2018-03-17T14:02:06Z</time>
      </trkpt>
      <trkpt lat="46.58114" lon="-1.64994">
        <ele>38</ele>
        <time>2018-03-17T14:03:06Z</time>
      </trkpt>
      <trkpt lat="46.58073" lon="-1.65046">
        <ele>39</ele>
        <time>2018-03-17T14:04:06Z</time>
      </trkpt>
      <trkpt lat="46.58051" lon="-1.65074">
        <ele>39</ele>
        <time>2018-03-17T14:05:06Z</time>
      </trkpt>
      <trkpt lat="46.58035" lon="-1.65094">
        <ele>40</ele>
        <time>2018-03-17T14:06:06Z</time>
      </trkpt>
      <trkpt lat="46.58012" lon="-1.65126">
        <ele>40</ele>
        <time>2018-03-17T14:07:06Z</time>
      </trkpt>
      <trkpt lat="46.57996" lon="-1.65149">
        <ele>41</ele>
        <time>2018-03-17T14:08:06Z</time>
      </trkpt>
      <trkpt lat="46.57985" lon="-1.65172">
        <ele>41</ele>
        <time>2018-03-17T14:09:06Z</time>
      </trkpt>
      <trkpt lat="46.57978" lon="-1.6519">
        <ele>41</ele>
        <time>2018-03-17T14:10:06Z</time>
      </trkpt>
      <trkpt lat="46.57971" lon="-1.65212">
        <ele>41</ele>
        <time>2018-03-17T14:11:06Z</time>
      </trkpt>
      <trkpt lat="46.57969" lon="-1.65219">
        <ele>41</ele>
        <time>2018-03-17T14:12:06Z</time>
      </trkpt>
      <trkpt lat="46.57964" lon="-1.65242">
        <ele>41</ele>
        <time>2018-03-17T14:13:06Z</time>
      </trkpt>
      <trkpt lat="46.57958" lon="-1.65279">
        <ele>41</ele>
        <time>2018-03-17T14:14:06Z</time>
      </trkpt>
      <trkpt lat="46.57954" lon="-1.65305">
        <ele>40</ele>
        <time>2018-03-17T14:15:06Z</time>
      </trkpt>
      <trkpt lat="46.57953" lon="-1.65317">
        <ele>40</ele>
        <time>2018-03-17T14:16:06Z</time>
      </trkpt>
      <trkpt lat="46.57947" lon="-1.65349">
        <ele>40</ele>
        <time>2018-03-17T14:17:06Z</time>
      </trkpt>
      <trkpt lat="46.57942" lon="-1.65372">
        <ele>39</ele>
        <time>2018-03-17T14:18:06Z</time>
      </trkpt>
      <trkpt lat="46.57938" lon="-1.65387">
        <ele>39</ele>
        <time>2018-03-17T14:19:06Z</time>
      </trkpt>
      <trkpt lat="46.57931" lon="-1.65406">
        <ele>39</ele>
        <time>2018-03-17T14:20:06Z</time>
      </trkpt>
      <trkpt lat="46.57915" lon="-1.65448">
        <ele>39</ele>
        <time>2018-03-17T14:21:06Z</time>
      </trkpt>
      <trkpt lat="46.57901" lon="-1.65487">
        <ele>40</ele>
        <time>2018-03-17T14:22:06Z</time>
      </trkpt>
      <trkpt lat="46.5788" lon="-1.65538">
        <ele>39</ele>
        <time>2018-03-17T14:23:06Z</time>
      </trkpt>
      <trkpt lat="46.5787" lon="-1.65563">
        <ele>39</ele>
        <time>2018-03-17T14:24:06Z</time>
      </trkpt>
      <trkpt lat="46.57851" lon="-1.65611">
        <ele>39</ele>
        <time>2018-03-17T14:25:06Z</time>
      </trkpt>
      <trkpt lat="46.57835" lon="-1.65649">
        <ele>39</ele>
        <time>2018-03-17T14:26:06Z</time>
      </trkpt>
      <trkpt lat="46.57826" lon="-1.65674">
        <ele>39</ele>
        <time>2018-03-17T14:27:06Z</time>
      </trkpt>
      <trkpt lat="46.5782" lon="-1.65694">
        <ele>38</ele>
        <time>2018-03-17T14:28:06Z</time>
      </trkpt>
      <trkpt lat="46.57812" lon="-1.65726">
        <ele>37</ele>
        <time>2018-03-17T14:29:06Z</time>
      </trkpt>
      <trkpt lat="46.57803" lon="-1.65773">
        <ele>36</ele>
        <time>2018-03-17T14:30:06Z</time>
      </trkpt>
      <trkpt lat="46.57798" lon="-1.65804">
        <ele>36</ele>
        <time>2018-03-17T14:31:06Z</time>
      </trkpt>
      <trkpt lat="46.57797" lon="-1.65812">
        <ele>35</ele>
        <time>2018-03-17T14:32:06Z</time>
      </trkpt>
      <trkpt lat="46.57778" lon="-1.65925">
        <ele>35</ele>
        <time>2018-03-17T14:33:06Z</time>
      </trkpt>
      <trkpt lat="46.5776" lon="-1.66027">
        <ele>36</ele>
        <time>2018-03-17T14:34:06Z</time>
      </trkpt>
      <trkpt lat="46.57747" lon="-1.66112">
        <ele>34</ele>
        <time>2018-03-17T14:35:06Z</time>
      </trkpt>
      <trkpt lat="46.57737" lon="-1.66167">
        <ele>33</ele>
        <time>2018-03-17T14:36:06Z</time>
      </trkpt>
      <trkpt lat="46.5772" lon="-1.66273">
        <ele>26</ele>
        <time>2018-03-17T14:37:06Z</time>
      </trkpt>
      <trkpt lat="46.57712" lon="-1.66319">
        <ele>23</ele>
        <time>2018-03-17T14:38:06Z</time>
      </trkpt>
      <trkpt lat="46.57709" lon="-1.66334">
        <ele>22</ele>
        <time>2018-03-17T14:39:06Z</time>
      </trkpt>
      <trkpt lat="46.57705" lon="-1.66346">
        <ele>22</ele>
        <time>2018-03-17T14:40:06Z</time>
      </trkpt>
      <trkpt lat="46.57699" lon="-1.66367">
        <ele>21</ele>
        <time>2018-03-17T14:41:06Z</time>
      </trkpt>
      <trkpt lat="46.5769" lon="-1.66392">
        <ele>21</ele>
        <time>2018-03-17T14:42:06Z</time>
      </trkpt>
      <trkpt lat="46.57678" lon="-1.66417">
        <ele>20</ele>
        <time>2018-03-17T14:43:06Z</time>
      </trkpt>
      <trkpt lat="46.57664" lon="-1.66442">
        <ele>18</ele>
        <time>2018-03-17T14:44:06Z</time>
      </trkpt>
      <trkpt lat="46.57651" lon="-1.66465">
        <ele>17</ele>
        <time>2018-03-17T14:45:06Z</time>
      </trkpt>
      <trkpt lat="46.57634" lon="-1.66486">
        <ele>16</ele>
        <time>2018-03-17T14:46:06Z</time>
      </trkpt>
      <trkpt lat="46.57617" lon="-1.66504">
        <ele>16</ele>
        <time>2018-03-17T14:47:06Z</time>
      </trkpt>
      <trkpt lat="46.57601" lon="-1.66521">
        <ele>16</ele>
        <time>2018-03-17T14:48:06Z</time>
      </trkpt>
      <trkpt lat="46.57586" lon="-1.66538">
        <ele>16</ele>
        <time>2018-03-17T14:49:06Z</time>
      </trkpt>
      <trkpt lat="46.57576" lon="-1.6655">
        <ele>15</ele>
        <time>2018-03-17T14:50:06Z</time>
      </trkpt>
      <trkpt lat="46.57571" lon="-1.66555">
        <ele>15</ele>
        <time>2018-03-17T14:51:06Z</time>
      </trkpt>
      <trkpt lat="46.57561" lon="-1.6657">
        <ele>14</ele>
        <time>2018-03-17T14:52:06Z</time>
      </trkpt>
      <trkpt lat="46.57553" lon="-1.66587">
        <ele>13</ele>
        <time>2018-03-17T14:53:06Z</time>
      </trkpt>
      <trkpt lat="46.57547" lon="-1.66605">
        <ele>12</ele>
        <time>2018-03-17T14:54:06Z</time>
      </trkpt>
      <trkpt lat="46.57538" lon="-1.66637">
        <ele>12</ele>
        <time>2018-03-17T14:55:06Z</time>
      </trkpt>
      <trkpt lat="46.5753" lon="-1.66671">
        <ele>12</ele>
        <time>2018-03-17T14:56:06Z</time>
      </trkpt>
      <trkpt lat="46.57527" lon="-1.66685">
        <ele>13</ele>
        <time>2018-03-17T14:57:06Z</time>
      </trkpt>
      <trkpt lat="46.57525" lon="-1.66694">
        <ele>13</ele>
        <time>2018-03-17T14:58:06Z</time>
      </trkpt>
      <trkpt lat="46.57523" lon="-1.66704">
        <ele>14</ele>
        <time>2018-03-17T14:59:06Z</time>
      </trkpt>
      <trkpt lat="46.5752" lon="-1.66716">
        <ele>14</ele>
        <time>2018-03-17T15:00:06Z</time>
      </trkpt>
      <trkpt lat="46.57515" lon="-1.66734">
        <ele>15</ele>
        <time>2018-03-17T15:01:06Z</time>
      </trkpt>
      <trkpt lat="46.57508" lon="-1.66756">
        <ele>16</ele>
        <time>2018-03-17T15:02:06Z</time>
      </trkpt>
      <trkpt lat="46.57496" lon="-1.66781">
        <ele>15</ele>
        <time>2018-03-17T15:03:06Z</time>
      </trkpt>
      <trkpt lat="46.57485" lon="-1.668">
        <ele>16</ele>
        <time>2018-03-17T15:04:06Z</time>
      </trkpt>
      <trkpt lat="46.57475" lon="-1.66813">
        <ele>16</ele>
        <time>2018-03-17T15:05:06Z</time>
      </trkpt>
      <trkpt lat="46.57452" lon="-1.66832">
        <ele>18</ele>
        <time>2018-03-17T15:06:06Z</time>
      </trkpt>
      <trkpt lat="46.57426" lon="-1.66852">
        <ele>20</ele>
        <time>2018-03-17T15:07:06Z</time>
      </trkpt>
      <trkpt lat="46.574" lon="-1.66873">
        <ele>22</ele>
        <time>2018-03-17T15:08:06Z</time>
      </trkpt>
      <trkpt lat="46.57364" lon="-1.66903">
        <ele>24</ele>
        <time>2018-03-17T15:09:06Z</time>
      </trkpt>
      <trkpt lat="46.57321" lon="-1.66938">
        <ele>25</ele>
        <time>2018-03-17T15:10:06Z</time>
      </trkpt>
      <trkpt lat="46.57276" lon="-1.66974">
        <ele>26</ele>
        <time>2018-03-17T15:11:06Z</time>
      </trkpt>
      <trkpt lat="46.57255" lon="-1.6699">
        <ele>26</ele>
        <time>2018-03-17T15:12:06Z</time>
      </trkpt>
      <trkpt lat="46.57254" lon="-1.66992">
        <ele>26</ele>
        <time>2018-03-17T15:13:06Z</time>
      </trkpt>
      <trkpt lat="46.57249" lon="-1.66995">
        <ele>26</ele>
        <time>2018-03-17T15:14:06Z</time>
      </trkpt>
      <trkpt lat="46.57245" lon="-1.66999">
        <ele>26</ele>
        <time>2018-03-17T15:15:06Z</time>
      </trkpt>
      <trkpt lat="46.57241" lon="-1.67002">
        <ele>26</ele>
        <time>2018-03-17T15:16:06Z</time>
      </trkpt>
      <trkpt lat="46.57226" lon="-1.67012">
        <ele>26</ele>
        <time>2018-03-17T15:17:06Z</time>
      </trkpt>
      <trkpt lat="46.57214" lon="-1.67021">
        <ele>25</ele>
        <time>2018-03-17T15:18:06Z</time>
      </trkpt>
      <trkpt lat="46.57197" lon="-1.67034">
        <ele>25</ele>
        <time>2018-03-17T15:19:06Z</time>
      </trkpt>
      <trkpt lat="46.57195" lon="-1.67036">
        <ele>25</ele>
        <time>2018-03-17T15:20:06Z</time>
      </trkpt>
      <trkpt lat="46.57193" lon="-1.67038">
        <ele>25</ele>
        <time>2018-03-17T15:21:06Z</time>
      </trkpt>
      <trkpt lat="46.57181" lon="-1.67049">
        <ele>24</ele>
        <time>2018-03-17T15:22:06Z</time>
      </trkpt>
      <trkpt lat="46.57166" lon="-1.67063">
        <ele>24</ele>
        <time>2018-03-17T15:23:06Z</time>
      </trkpt>
      <trkpt lat="46.5715" lon="-1.67081">
        <ele>23</ele>
        <time>2018-03-17T15:24:06Z</time>
      </trkpt>
      <trkpt lat="46.57139" lon="-1.67094">
        <ele>23</ele>
        <time>2018-03-17T15:25:06Z</time>
      </trkpt>
      <trkpt lat="46.5713" lon="-1.67103">
        <ele>24</ele>
        <time>2018-03-17T15:26:06Z</time>
      </trkpt>
      <trkpt lat="46.57115" lon="-1.67121">
        <ele>24</ele>
        <time>2018-03-17T15:27:06Z</time>
      </trkpt>
      <trkpt lat="46.57088" lon="-1.67154">
        <ele>25</ele>
        <time>2018-03-17T15:28:06Z</time>
      </trkpt>
      <trkpt lat="46.57067" lon="-1.67179">
        <ele>26</ele>
        <time>2018-03-17T15:29:06Z</time>
      </trkpt>
      <trkpt lat="46.5705" lon="-1.67194">
        <ele>27</ele>
        <time>2018-03-17T15:30:06Z</time>
      </trkpt>
      <trkpt lat="46.57031" lon="-1.67207">
        <ele>29</ele>
        <time>2018-03-17T15:31:06Z</time>
      </trkpt>
      <trkpt lat="46.57013" lon="-1.67216">
        <ele>29</ele>
        <time>2018-03-17T15:32:06Z</time>
      </trkpt>
      <trkpt lat="46.56992" lon="-1.67224">
        <ele>30</ele>
        <time>2018-03-17T15:33:06Z</time>
      </trkpt>
      <trkpt lat="46.56961" lon="-1.67232">
        <ele>31</ele>
        <time>2018-03-17T15:34:06Z</time>
      </trkpt>
      <trkpt lat="46.56954" lon="-1.67233">
        <ele>31</ele>
        <time>2018-03-17T15:35:06Z</time>
      </trkpt>
      <trkpt lat="46.56922" lon="-1.6724">
        <ele>32</ele>
        <time>2018-03-17T15:36:06Z</time>
      </trkpt>
      <trkpt lat="46.56878" lon="-1.67249">
        <ele>33</ele>
        <time>2018-03-17T15:37:06Z</time>
      </trkpt>
      <trkpt lat="46.56846" lon="-1.67255">
        <ele>34</ele>
        <time>2018-03-17T15:38:06Z</time>
      </trkpt>
      <trkpt lat="46.56817" lon="-1.67263">
        <ele>35</ele>
        <time>2018-03-17T15:39:06Z</time>
      </trkpt>
      <trkpt lat="46.56793" lon="-1.67273">
        <ele>35</ele>
        <time>2018-03-17T15:40:06Z</time>
      </trkpt>
      <trkpt lat="46.56781" lon="-1.67282">
        <ele>36</ele>
        <time>2018-03-17T15:41:06Z</time>
      </trkpt>
      <trkpt lat="46.56777" lon="-1.67286">
        <ele>36</ele>
        <time>2018-03-17T15:42:06Z</time>
      </trkpt>
      <trkpt lat="46.56769" lon="-1.67294">
        <ele>36</ele>
        <time>2018-03-17T15:43:06Z</time>
      </trkpt>
      <trkpt lat="46.56751" lon="-1.67318">
        <ele>37</ele>
        <time>2018-03-17T15:44:06Z</time>
      </trkpt>
      <trkpt lat="46.5672" lon="-1.67362">
        <ele>36</ele>
        <time>2018-03-17T15:45:06Z</time>
      </trkpt>
      <trkpt lat="46.56687" lon="-1.67407">
        <ele>36</ele>
        <time>2018-03-17T15:46:06Z</time>
      </trkpt>
      <trkpt lat="46.56657" lon="-1.67449">
        <ele>36</ele>
        <time>2018-03-17T15:47:06Z</time>
      </trkpt>
      <trkpt lat="46.5664" lon="-1.67476">
        <ele>35</ele>
        <time>2018-03-17T15:48:06Z</time>
      </trkpt>
      <trkpt lat="46.56625" lon="-1.6751">
        <ele>35</ele>
        <time>2018-03-17T15:49:06Z</time>
      </trkpt>
      <trkpt lat="46.56619" lon="-1.67528">
        <ele>35</ele>
        <time>2018-03-17T15:50:06Z</time>
      </trkpt>
      <trkpt lat="46.56615" lon="-1.67544">
        <ele>34</ele>
        <time>2018-03-17T15:51:06Z</time>
      </trkpt>
      <trkpt lat="46.56609" lon="-1.67569">
        <ele>34</ele>
        <time>2018-03-17T15:52:06Z</time>
      </trkpt>
      <trkpt lat="46.56607" lon="-1.67593">
        <ele>34</ele>
        <time>2018-03-17T15:53:06Z</time>
      </trkpt>
      <trkpt lat="46.56606" lon="-1.67604">
        <ele>33</ele>
        <time>2018-03-17T15:54:06Z</time>
      </trkpt>
      <trkpt lat="46.56606" lon="-1.67657">
        <ele>33</ele>
        <time>2018-03-17T15:55:06Z</time>
      </trkpt>
      <trkpt lat="46.56607" lon="-1.67731">
        <ele>34</ele>
        <time>2018-03-17T15:56:06Z</time>
      </trkpt>
      <trkpt lat="46.56606" lon="-1.67805">
        <ele>33</ele>
        <time>2018-03-17T15:57:06Z</time>
      </trkpt>
      <trkpt lat="46.56606" lon="-1.67887">
        <ele>33</ele>
        <time>2018-03-17T15:58:06Z</time>
      </trkpt>
      <trkpt lat="46.56605" lon="-1.67938">
        <ele>34</ele>
        <time>2018-03-17T15:59:06Z</time>
      </trkpt>
      <trkpt lat="46.56602" lon="-1.67982">
        <ele>33</ele>
        <time>2018-03-17T16:00:06Z</time>
      </trkpt>
      <trkpt lat="46.56594" lon="-1.68039">
        <ele>33</ele>
        <time>2018-03-17T16:01:06Z</time>
      </trkpt>
      <trkpt lat="46.56584" lon="-1.68094">
        <ele>33</ele>
        <time>2018-03-17T16:02:06Z</time>
      </trkpt>
      <trkpt lat="46.56573" lon="-1.68139">
        <ele>33</ele>
        <time>2018-03-17T16:03:06Z</time>
      </trkpt>
      <trkpt lat="46.56561" lon="-1.68178">
        <ele>33</ele>
        <time>2018-03-17T16:04:06Z</time>
      </trkpt>
      <trkpt lat="46.56546" lon="-1.68215">
        <ele>33</ele>
        <time>2018-03-17T16:05:06Z</time>
      </trkpt>
      <trkpt lat="46.56526" lon="-1.68262">
        <ele>34</ele>
        <time>2018-03-17T16:06:06Z</time>
      </trkpt>
      <trkpt lat="46.5651" lon="-1.68298">
        <ele>35</ele>
        <time>2018-03-17T16:07:06Z</time>
      </trkpt>
      <trkpt lat="46.56489" lon="-1.68347">
        <ele>35</ele>
        <time>2018-03-17T16:08:06Z</time>
      </trkpt>
      <trkpt lat="46.56475" lon="-1.68383">
        <ele>35</ele>
        <time>2018-03-17T16:09:06Z</time>
      </trkpt>
      <trkpt lat="46.56467" lon="-1.68404">
        <ele>35</ele>
        <time>2018-03-17T16:10:06Z</time>
      </trkpt>
      <trkpt lat="46.5646" lon="-1.68426">
        <ele>35</ele>
        <time>2018-03-17T16:11:06Z</time>
      </trkpt>
      <trkpt lat="46.56455" lon="-1.68445">
        <ele>35</ele>
        <time>2018-03-17T16:12:06Z</time>
      </trkpt>
      <trkpt lat="46.56451" lon="-1.68464">
        <ele>35</ele>
        <time>2018-03-17T16:13:06Z</time>
      </trkpt>
      <trkpt lat="46.56447" lon="-1.68488">
        <ele>35</ele>
        <time>2018-03-17T16:14:06Z</time>
      </trkpt>
      <trkpt lat="46.56445" lon="-1.68506">
        <ele>35</ele>
        <time>2018-03-17T16:15:06Z</time>
      </trkpt>
      <trkpt lat="46.56439" lon="-1.6855">
        <ele>35</ele>
        <time>2018-03-17T16:16:06Z</time>
      </trkpt>
      <trkpt lat="46.56433" lon="-1.68603">
        <ele>35</ele>
        <time>2018-03-17T16:17:06Z</time>
      </trkpt>
      <trkpt lat="46.56424" lon="-1.68667">
        <ele>35</ele>
        <time>2018-03-17T16:18:06Z</time>
      </trkpt>
      <trkpt lat="46.56415" lon="-1.6874">
        <ele>36</ele>
        <time>2018-03-17T16:19:06Z</time>
      </trkpt>
      <trkpt lat="46.56403" lon="-1.6883">
        <ele>37</ele>
        <time>2018-03-17T16:20:06Z</time>
      </trkpt>
      <trkpt lat="46.56393" lon="-1.68913">
        <ele>35</ele>
        <time>2018-03-17T16:21:06Z</time>
      </trkpt>
      <trkpt lat="46.56384" lon="-1.6898">
        <ele>36</ele>
        <time>2018-03-17T16:22:06Z</time>
      </trkpt>
      <trkpt lat="46.56379" lon="-1.69023">
        <ele>37</ele>
        <time>2018-03-17T16:23:06Z</time>
      </trkpt>
      <trkpt lat="46.56375" lon="-1.69059">
        <ele>37</ele>
        <time>2018-03-17T16:24:06Z</time>
      </trkpt>
      <trkpt lat="46.56373" lon="-1.69101">
        <ele>37</ele>
        <time>2018-03-17T16:25:06Z</time>
      </trkpt>
      <trkpt lat="46.56372" lon="-1.69136">
        <ele>37</ele>
        <time>2018-03-17T16:26:06Z</time>
      </trkpt>
      <trkpt lat="46.56372" lon="-1.69199">
        <ele>37</ele>
        <time>2018-03-17T16:27:06Z</time>
      </trkpt>
      <trkpt lat="46.56373" lon="-1.69735">
        <ele>34</ele>
        <time>2018-03-17T16:28:06Z</time>
      </trkpt>
      <trkpt lat="46.56373" lon="-1.69768">
        <ele>34</ele>
        <time>2018-03-17T16:29:06Z</time>
      </trkpt>
      <trkpt lat="46.56372" lon="-1.69794">
        <ele>34</ele>
        <time>2018-03-17T16:30:06Z</time>
      </trkpt>
      <trkpt lat="46.56371" lon="-1.69811">
        <ele>34</ele>
        <time>2018-03-17T16:31:06Z</time>
      </trkpt>
      <trkpt lat="46.56369" lon="-1.6983">
        <ele>34</ele>
        <time>2018-03-17T16:32:06Z</time>
      </trkpt>
      <trkpt lat="46.56363" lon="-1.6987">
        <ele>34</ele>
        <time>2018-03-17T16:33:06Z</time>
      </trkpt>
      <trkpt lat="46.56357" lon="-1.69923">
        <ele>33</ele>
        <time>2018-03-17T16:34:06Z</time>
      </trkpt>
      <trkpt lat="46.56351" lon="-1.69962">
        <ele>33</ele>
        <time>2018-03-17T16:35:06Z</time>
      </trkpt>
      <trkpt lat="46.56346" lon="-1.70009">
        <ele>32</ele>
        <time>2018-03-17T16:36:06Z</time>
      </trkpt>
      <trkpt lat="46.56343" lon="-1.70035">
        <ele>33</ele>
        <time>2018-03-17T16:37:06Z</time>
      </trkpt>
      <trkpt lat="46.56339" lon="-1.70073">
        <ele>33</ele>
        <time>2018-03-17T16:38:06Z</time>
      </trkpt>
      <trkpt lat="46.56337" lon="-1.70099">
        <ele>33</ele>
        <time>2018-03-17T16:39:06Z</time>
      </trkpt>
      <trkpt lat="46.56334" lon="-1.70141">
        <ele>32</ele>
        <time>2018-03-17T16:40:06Z</time>
      </trkpt>
      <trkpt lat="46.56331" lon="-1.70175">
        <ele>31</ele>
        <time>2018-03-17T16:41:06Z</time>
      </trkpt>
      <trkpt lat="46.56329" lon="-1.70207">
        <ele>30</ele>
        <time>2018-03-17T16:42:06Z</time>
      </trkpt>
      <trkpt lat="46.56326" lon="-1.70246">
        <ele>29</ele>
        <time>2018-03-17T16:43:06Z</time>
      </trkpt>
      <trkpt lat="46.56325" lon="-1.70271">
        <ele>29</ele>
        <time>2018-03-17T16:44:06Z</time>
      </trkpt>
      <trkpt lat="46.56324" lon="-1.70295">
        <ele>29</ele>
        <time>2018-03-17T16:45:06Z</time>
      </trkpt>
      <trkpt lat="46.56325" lon="-1.70311">
        <ele>29</ele>
        <time>2018-03-17T16:46:06Z</time>
      </trkpt>
      <trkpt lat="46.56325" lon="-1.7033">
        <ele>29</ele>
        <time>2018-03-17T16:47:06Z</time>
      </trkpt>
      <trkpt lat="46.56326" lon="-1.7034">
        <ele>29</ele>
        <time>2018-03-17T16:48:06Z</time>
      </trkpt>
      <trkpt lat="46.56326" lon="-1.70344">
        <ele>29</ele>
        <time>2018-03-17T16:49:06Z</time>
      </trkpt>
      <trkpt lat="46.56328" lon="-1.70368">
        <ele>30</ele>
        <time>2018-03-17T16:50:06Z</time>
      </trkpt>
      <trkpt lat="46.56333" lon="-1.70405">
        <ele>31</ele>
        <time>2018-03-17T16:51:06Z</time>
      </trkpt>
      <trkpt lat="46.5637" lon="-1.70622">
        <ele>29</ele>
        <time>2018-03-17T16:52:06Z</time>
      </trkpt>
      <trkpt lat="46.56371" lon="-1.70632">
        <ele>30</ele>
        <time>2018-03-17T16:53:06Z</time>
      </trkpt>
      <trkpt lat="46.56373" lon="-1.7064">
        <ele>30</ele>
        <time>2018-03-17T16:54:06Z</time>
      </trkpt>
      <trkpt lat="46.56374" lon="-1.70647">
        <ele>30</ele>
        <time>2018-03-17T16:55:06Z</time>
      </trkpt>
      <trkpt lat="46.56376" lon="-1.70658">
        <ele>30</ele>
        <time>2018-03-17T16:56:06Z</time>
      </trkpt>
      <trkpt lat="46.56399" lon="-1.70804">
        <ele>32</ele>
        <time>2018-03-17T16:57:06Z</time>
      </trkpt>
      <trkpt lat="46.56413" lon="-1.70873">
        <ele>33</ele>
        <time>2018-03-17T16:58:06Z</time>
      </trkpt>
      <trkpt lat="46.56416" lon="-1.70892">
        <ele>34</ele>
        <time>2018-03-17T16:59:06Z</time>
      </trkpt>
      <trkpt lat="46.56423" lon="-1.70943">
        <ele>34</ele>
        <time>2018-03-17T17:00:06Z</time>
      </trkpt>
      <trkpt lat="46.56422" lon="-1.70957">
        <ele>33</ele>
        <time>2018-03-17T17:01:06Z</time>
      </trkpt>
      <trkpt lat="46.56423" lon="-1.70984">
        <ele>33</ele>
        <time>2018-03-17T17:02:06Z</time>
      </trkpt>
      <trkpt lat="46.56426" lon="-1.71059">
        <ele>33</ele>
        <time>2018-03-17T17:03:06Z</time>
      </trkpt>
      <trkpt lat="46.56429" lon="-1.71119">
        <ele>33</ele>
        <time>2018-03-17T17:04:06Z</time>
      </trkpt>
      <trkpt lat="46.56432" lon="-1.71197">
        <ele>34</ele>
        <time>2018-03-17T17:05:06Z</time>
      </trkpt>
      <trkpt lat="46.56433" lon="-1.712">
        <ele>33</ele>
        <time>2018-03-17T17:06:06Z</time>
      </trkpt>
      <trkpt lat="46.56434" lon="-1.71244">
        <ele>33</ele>
        <time>2018-03-17T17:07:06Z</time>
      </trkpt>
      <trkpt lat="46.56435" lon="-1.7126">
        <ele>33</ele>
        <time>2018-03-17T17:08:06Z</time>
      </trkpt>
      <trkpt lat="46.56435" lon="-1.71284">
        <ele>33</ele>
        <time>2018-03-17T17:09:06Z</time>
      </trkpt>
      <trkpt lat="46.56434" lon="-1.71308">
        <ele>33</ele>
        <time>2018-03-17T17:10:06Z</time>
      </trkpt>
      <trkpt lat="46.56432" lon="-1.71321">
        <ele>33</ele>
        <time>2018-03-17T17:11:06Z</time>
      </trkpt>
      <trkpt lat="46.56431" lon="-1.71336">
        <ele>33</ele>
        <time>2018-03-17T17:12:06Z</time>
      </trkpt>
      <trkpt lat="46.56431" lon="-1.71338">
        <ele>33</ele>
        <time>2018-03-17T17:13:06Z</time>
      </trkpt>
      <trkpt lat="46.56422" lon="-1.71419">
        <ele>33</ele>
        <time>2018-03-17T17:14:06Z</time>
      </trkpt>
      <trkpt lat="46.5642" lon="-1.71466">
        <ele>33</ele>
        <time>2018-03-17T17:15:06Z</time>
      </trkpt>
      <trkpt lat="46.56421" lon="-1.7148">
        <ele>33</ele>
        <time>2018-03-17T17:16:06Z</time>
      </trkpt>
      <trkpt lat="46.56421" lon="-1.71484">
        <ele>33</ele>
        <time>2018-03-17T17:17:06Z</time>
      </trkpt>
      <trkpt lat="46.56425" lon="-1.71492">
        <ele>33</ele>
        <time>2018-03-17T17:18:06Z</time>
      </trkpt>
      <trkpt lat="46.56425" lon="-1.71492">
        <ele>33</ele>
        <time>2018-03-17T17:19:06Z</time>
      </trkpt>
      <trkpt lat="46.56414" lon="-1.71501">
        <ele>33</ele>
        <time>2018-03-17T17:20:06Z</time>
      </trkpt>
      <trkpt lat="46.56414" lon="-1.71501">
        <ele>33</ele>
        <time>2018-03-17T17:21:06Z</time>
      </trkpt>
      <trkpt lat="46.56417" lon="-1.71513">
        <ele>33</ele>
        <time>2018-03-17T17:22:06Z</time>
      </trkpt>
      <trkpt lat="46.56418" lon="-1.71521">
        <ele>33</ele>
        <time>2018-03-17T17:23:06Z</time>
      </trkpt>
      <trkpt lat="46.56417" lon="-1.7156">
        <ele>34</ele>
        <time>2018-03-17T17:24:06Z</time>
      </trkpt>
      <trkpt lat="46.56417" lon="-1.71633">
        <ele>35</ele>
        <time>2018-03-17T17:25:06Z</time>
      </trkpt>
      <trkpt lat="46.56418" lon="-1.71653">
        <ele>35</ele>
        <time>2018-03-17T17:26:06Z</time>
      </trkpt>
      <trkpt lat="46.56419" lon="-1.71667">
        <ele>35</ele>
        <time>2018-03-17T17:27:06Z</time>
      </trkpt>
      <trkpt lat="46.5642" lon="-1.71672">
        <ele>35</ele>
        <time>2018-03-17T17:28:06Z</time>
      </trkpt>
      <trkpt lat="46.56422" lon="-1.71695">
        <ele>34</ele>
        <time>2018-03-17T17:29:06Z</time>
      </trkpt>
      <trkpt lat="46.56426" lon="-1.71729">
        <ele>33</ele>
        <time>2018-03-17T17:30:06Z</time>
      </trkpt>
      <trkpt lat="46.56435" lon="-1.71786">
        <ele>33</ele>
        <time>2018-03-17T17:31:06Z</time>
      </trkpt>
      <trkpt lat="46.56443" lon="-1.71833">
        <ele>33</ele>
        <time>2018-03-17T17:32:06Z</time>
      </trkpt>
      <trkpt lat="46.56446" lon="-1.71847">
        <ele>33</ele>
        <time>2018-03-17T17:33:06Z</time>
      </trkpt>
      <trkpt lat="46.56461" lon="-1.71964">
        <ele>33</ele>
        <time>2018-03-17T17:34:06Z</time>
      </trkpt>
      <trkpt lat="46.5647" lon="-1.72028">
        <ele>32</ele>
        <time>2018-03-17T17:35:06Z</time>
      </trkpt>
      <trkpt lat="46.56496" lon="-1.72192">
        <ele>29</ele>
        <time>2018-03-17T17:36:06Z</time>
      </trkpt>
      <trkpt lat="46.565" lon="-1.7222">
        <ele>28</ele>
        <time>2018-03-17T17:37:06Z</time>
      </trkpt>
      <trkpt lat="46.56501" lon="-1.72245">
        <ele>28</ele>
        <time>2018-03-17T17:38:06Z</time>
      </trkpt>
      <trkpt lat="46.56501" lon="-1.72278">
        <ele>27</ele>
        <time>2018-03-17T17:39:06Z</time>
      </trkpt>
      <trkpt lat="46.565" lon="-1.72299">
        <ele>27</ele>
        <time>2018-03-17T17:40:06Z</time>
      </trkpt>
      <trkpt lat="46.56497" lon="-1.72322">
        <ele>26</ele>
        <time>2018-03-17T17:41:06Z</time>
      </trkpt>
      <trkpt lat="46.56493" lon="-1.72355">
        <ele>26</ele>
        <time>2018-03-17T17:42:06Z</time>
      </trkpt>
      <trkpt lat="46.5649" lon="-1.72386">
        <ele>26</ele>
        <time>2018-03-17T17:43:06Z</time>
      </trkpt>
      <trkpt lat="46.56486" lon="-1.72426">
        <ele>26</ele>
        <time>2018-03-17T17:44:06Z</time>
      </trkpt>
      <trkpt lat="46.56483" lon="-1.72465">
        <ele>26</ele>
        <time>2018-03-17T17:45:06Z</time>
      </trkpt>
      <trkpt lat="46.56483" lon="-1.72497">
        <ele>26</ele>
        <time>2018-03-17T17:46:06Z</time>
      </trkpt>
      <trkpt lat="46.56483" lon="-1.72502">
        <ele>26</ele>
        <time>2018-03-17T17:47:06Z</time>
      </trkpt>
      <trkpt lat="46.56484" lon="-1.72516">
        <ele>26</ele>
        <time>2018-03-17T17:48:06Z</time>
      </trkpt>
      <trkpt lat="46.56486" lon="-1.72535">
        <ele>26</ele>
        <time>2018-03-17T17:49:06Z</time>
      </trkpt>
      <trkpt lat="46.56491" lon="-1.72562">
        <ele>26</ele>
        <time>2018-03-17T17:50:06Z</time>
      </trkpt>
      <trkpt lat="46.56544" lon="-1.72771">
        <ele>25</ele>
        <time>2018-03-17T17:51:06Z</time>
      </trkpt>
      <trkpt lat="46.56554" lon="-1.72814">
        <ele>26</ele>
        <time>2018-03-17T17:52:06Z</time>
      </trkpt>
      <trkpt lat="46.56561" lon="-1.7285">
        <ele>27</ele>
        <time>2018-03-17T17:53:06Z</time>
      </trkpt>
      <trkpt lat="46.56571" lon="-1.72913">
        <ele>26</ele>
        <time>2018-03-17T17:54:06Z</time>
      </trkpt>
      <trkpt lat="46.56574" lon="-1.72934">
        <ele>27</ele>
        <time>2018-03-17T17:55:06Z</time>
      </trkpt>
      <trkpt lat="46.56578" lon="-1.72961">
        <ele>27</ele>
        <time>2018-03-17T17:56:06Z</time>
      </trkpt>
      <trkpt lat="46.56582" lon="-1.72993">
        <ele>28</ele>
        <time>2018-03-17T17:57:06Z</time>
      </trkpt>
      <trkpt lat="46.56589" lon="-1.73028">
        <ele>28</ele>
        <time>2018-03-17T17:58:06Z</time>
      </trkpt>
      <trkpt lat="46.56602" lon="-1.7307">
        <ele>29</ele>
        <time>2018-03-17T17:59:06Z</time>
      </trkpt>
      <trkpt lat="46.56614" lon="-1.73105">
        <ele>29</ele>
        <time>2018-03-17T18:00:06Z</time>
      </trkpt>
      <trkpt lat="46.56626" lon="-1.73135">
        <ele>29</ele>
        <time>2018-03-17T18:01:06Z</time>
      </trkpt>
      <trkpt lat="46.5664" lon="-1.73165">
        <ele>29</ele>
        <time>2018-03-17T18:02:06Z</time>
      </trkpt>
      <trkpt lat="46.56661" lon="-1.7321">
        <ele>29</ele>
        <time>2018-03-17T18:03:06Z</time>
      </trkpt>
      <trkpt lat="46.56681" lon="-1.73254">
        <ele>28</ele>
        <time>2018-03-17T18:04:06Z</time>
      </trkpt>
      <trkpt lat="46.56696" lon="-1.73288">
        <ele>28</ele>
        <time>2018-03-17T18:05:06Z</time>
      </trkpt>
      <trkpt lat="46.56705" lon="-1.73305">
        <ele>28</ele>
        <time>2018-03-17T18:06:06Z</time>
      </trkpt>
      <trkpt lat="46.56722" lon="-1.73333">
        <ele>28</ele>
        <time>2018-03-17T18:07:06Z</time>
      </trkpt>
      <trkpt lat="46.56736" lon="-1.7335">
        <ele>28</ele>
        <time>2018-03-17T18:08:06Z</time>
      </trkpt>
      <trkpt lat="46.56751" lon="-1.73369">
        <ele>28</ele>
        <time>2018-03-17T18:09:06Z</time>
      </trkpt>
      <trkpt lat="46.56766" lon="-1.73397">
        <ele>27</ele>
        <time>2018-03-17T18:10:06Z</time>
      </trkpt>
      <trkpt lat="46.56785" lon="-1.73441">
        <ele>27</ele>
        <time>2018-03-17T18:11:06Z</time>
      </trkpt>
      <trkpt lat="46.56797" lon="-1.73472">
        <ele>27</ele>
        <time>2018-03-17T18:12:06Z</time>
      </trkpt>
      <trkpt lat="46.56808" lon="-1.73502">
        <ele>27</ele>
        <time>2018-03-17T18:13:06Z</time>
      </trkpt>
      <trkpt lat="46.56815" lon="-1.73532">
        <ele>27</ele>
        <time>2018-03-17T18:14:06Z</time>
      </trkpt>
      <trkpt lat="46.56823" lon="-1.73581">
        <ele>27</ele>
        <time>2018-03-17T18:15:06Z</time>
      </trkpt>
      <trkpt lat="46.56826" lon="-1.7362">
        <ele>27</ele>
        <time>2018-03-17T18:16:06Z</time>
      </trkpt>
      <trkpt lat="46.56832" lon="-1.73671">
        <ele>28</ele>
        <time>2018-03-17T18:17:06Z</time>
      </trkpt>
      <trkpt lat="46.56837" lon="-1.73724">
        <ele>28</ele>
        <time>2018-03-17T18:18:06Z</time>
      </trkpt>
      <trkpt lat="46.56843" lon="-1.73788">
        <ele>28</ele>
        <time>2018-03-17T18:19:06Z</time>
      </trkpt>
      <trkpt lat="46.56851" lon="-1.73863">
        <ele>28</ele>
        <time>2018-03-17T18:20:06Z</time>
      </trkpt>
      <trkpt lat="46.56859" lon="-1.73929">
        <ele>27</ele>
        <time>2018-03-17T18:21:06Z</time>
      </trkpt>
      <trkpt lat="46.56864" lon="-1.73985">
        <ele>25</ele>
        <time>2018-03-17T18:22:06Z</time>
      </trkpt>
      <trkpt lat="46.56872" lon="-1.7406">
        <ele>24</ele>
        <time>2018-03-17T18:23:06Z</time>
      </trkpt>
      <trkpt lat="46.56876" lon="-1.74086">
        <ele>24</ele>
        <time>2018-03-17T18:24:06Z</time>
      </trkpt>
      <trkpt lat="46.56879" lon="-1.74099">
        <ele>24</ele>
        <time>2018-03-17T18:25:06Z</time>
      </trkpt>
      <trkpt lat="46.56887" lon="-1.74122">
        <ele>24</ele>
        <time>2018-03-17T18:26:06Z</time>
      </trkpt>
      <trkpt lat="46.56905" lon="-1.74162">
        <ele>24</ele>
        <time>2018-03-17T18:27:06Z</time>
      </trkpt>
      <trkpt lat="46.56919" lon="-1.74194">
        <ele>24</ele>
        <time>2018-03-17T18:28:06Z</time>
      </trkpt>
      <trkpt lat="46.56927" lon="-1.74215">
        <ele>24</ele>
        <time>2018-03-17T18:29:06Z</time>
      </trkpt>
      <trkpt lat="46.5693" lon="-1.74223">
        <ele>24</ele>
        <time>2018-03-17T18:30:06Z</time>
      </trkpt>
      <trkpt lat="46.56934" lon="-1.7424">
        <ele>24</ele>
        <time>2018-03-17T18:31:06Z</time>
      </trkpt>
      <trkpt lat="46.56936" lon="-1.74298">
        <ele>23</ele>
        <time>2018-03-17T18:32:06Z</time>
      </trkpt>
      <trkpt lat="46.56939" lon="-1.74368">
        <ele>21</ele>
        <time>2018-03-17T18:33:06Z</time>
      </trkpt>
      <trkpt lat="46.56943" lon="-1.74453">
        <ele>20</ele>
        <time>2018-03-17T18:34:06Z</time>
      </trkpt>
      <trkpt lat="46.56948" lon="-1.74563">
        <ele>19</ele>
        <time>2018-03-17T18:35:06Z</time>
      </trkpt>
      <trkpt lat="46.56951" lon="-1.74634">
        <ele>18</ele>
        <time>2018-03-17T18:36:06Z</time>
      </trkpt>
      <trkpt lat="46.56952" lon="-1.74645">
        <ele>18</ele>
        <time>2018-03-17T18:37:06Z</time>
      </trkpt>
      <trkpt lat="46.56953" lon="-1.74653">
        <ele>18</ele>
        <time>2018-03-17T18:38:06Z</time>
      </trkpt>
      <trkpt lat="46.56954" lon="-1.74677">
        <ele>18</ele>
        <time>2018-03-17T18:39:06Z</time>
      </trkpt>
      <trkpt lat="46.56956" lon="-1.74709">
        <ele>18</ele>
        <time>2018-03-17T18:40:06Z</time>
      </trkpt>
      <trkpt lat="46.56956" lon="-1.74736">
        <ele>18</ele>
        <time>2018-03-17T18:41:06Z</time>
      </trkpt>
      <trkpt lat="46.56957" lon="-1.7477">
        <ele>17</ele>
        <time>2018-03-17T18:42:06Z</time>
      </trkpt>
      <trkpt lat="46.56954" lon="-1.74803">
        <ele>17</ele>
        <time>2018-03-17T18:43:06Z</time>
      </trkpt>
      <trkpt lat="46.56949" lon="-1.74832">
        <ele>16</ele>
        <time>2018-03-17T18:44:06Z</time>
      </trkpt>
      <trkpt lat="46.56936" lon="-1.74886">
        <ele>16</ele>
        <time>2018-03-17T18:45:06Z</time>
      </trkpt>
      <trkpt lat="46.56925" lon="-1.74933">
        <ele>17</ele>
        <time>2018-03-17T18:46:06Z</time>
      </trkpt>
      <trkpt lat="46.56918" lon="-1.7497">
        <ele>16</ele>
        <time>2018-03-17T18:47:06Z</time>
      </trkpt>
      <trkpt lat="46.56914" lon="-1.75011">
        <ele>16</ele>
        <time>2018-03-17T18:48:06Z</time>
      </trkpt>
      <trkpt lat="46.5691" lon="-1.75062">
        <ele>18</ele>
        <time>2018-03-17T18:49:06Z</time>
      </trkpt>
      <trkpt lat="46.56909" lon="-1.75111">
        <ele>19</ele>
        <time>2018-03-17T18:50:06Z</time>
      </trkpt>
      <trkpt lat="46.56908" lon="-1.75156">
        <ele>19</ele>
        <time>2018-03-17T18:51:06Z</time>
      </trkpt>
      <trkpt lat="46.56909" lon="-1.75176">
        <ele>19</ele>
        <time>2018-03-17T18:52:06Z</time>
      </trkpt>
      <trkpt lat="46.56911" lon="-1.75198">
        <ele>18</ele>
        <time>2018-03-17T18:53:06Z</time>
      </trkpt>
      <trkpt lat="46.56916" lon="-1.75231">
        <ele>17</ele>
        <time>2018-03-17T18:54:06Z</time>
      </trkpt>
      <trkpt lat="46.56923" lon="-1.7527">
        <ele>17</ele>
        <time>2018-03-17T18:55:06Z</time>
      </trkpt>
      <trkpt lat="46.56938" lon="-1.75334">
        <ele>15</ele>
        <time>2018-03-17T18:56:06Z</time>
      </trkpt>
      <trkpt lat="46.56956" lon="-1.754">
        <ele>14</ele>
        <time>2018-03-17T18:57:06Z</time>
      </trkpt>
      <trkpt lat="46.56977" lon="-1.75466">
        <ele>14</ele>
        <time>2018-03-17T18:58:06Z</time>
      </trkpt>
      <trkpt lat="46.56987" lon="-1.75498">
        <ele>13</ele>
        <time>2018-03-17T18:59:06Z</time>
      </trkpt>
      <trkpt lat="46.56997" lon="-1.7553">
        <ele>13</ele>
        <time>2018-03-17T19:00:06Z</time>
      </trkpt>
      <trkpt lat="46.57005" lon="-1.75561">
        <ele>13</ele>
        <time>2018-03-17T19:01:06Z</time>
      </trkpt>
      <trkpt lat="46.57009" lon="-1.75581">
        <ele>13</ele>
        <time>2018-03-17T19:02:06Z</time>
      </trkpt>
      <trkpt lat="46.57019" lon="-1.75631">
        <ele>12</ele>
        <time>2018-03-17T19:03:06Z</time>
      </trkpt>
      <trkpt lat="46.57027" lon="-1.75674">
        <ele>12</ele>
        <time>2018-03-17T19:04:06Z</time>
      </trkpt>
      <trkpt lat="46.57033" lon="-1.7573">
        <ele>12</ele>
        <time>2018-03-17T19:05:06Z</time>
      </trkpt>
      <trkpt lat="46.57035" lon="-1.75782">
        <ele>12</ele>
        <time>2018-03-17T19:06:06Z</time>
      </trkpt>
      <trkpt lat="46.57035" lon="-1.75847">
        <ele>12</ele>
        <time>2018-03-17T19:07:06Z</time>
      </trkpt>
      <trkpt lat="46.57033" lon="-1.75894">
        <ele>11</ele>
        <time>2018-03-17T19:08:06Z</time>
      </trkpt>
      <trkpt lat="46.57031" lon="-1.7591">
        <ele>10</ele>
        <time>2018-03-17T19:09:06Z</time>
      </trkpt>
      <trkpt lat="46.57029" lon="-1.75931">
        <ele>10</ele>
        <time>2018-03-17T19:10:06Z</time>
      </trkpt>
      <trkpt lat="46.57024" lon="-1.75964">
        <ele>10</ele>
        <time>2018-03-17T19:11:06Z</time>
      </trkpt>
      <trkpt lat="46.5702" lon="-1.76011">
        <ele>10</ele>
        <time>2018-03-17T19:12:06Z</time>
      </trkpt>
      <trkpt lat="46.57017" lon="-1.76054">
        <ele>10</ele>
        <time>2018-03-17T19:13:06Z</time>
      </trkpt>
      <trkpt lat="46.57014" lon="-1.76104">
        <ele>11</ele>
        <time>2018-03-17T19:14:06Z</time>
      </trkpt>
      <trkpt lat="46.57008" lon="-1.76162">
        <ele>12</ele>
        <time>2018-03-17T19:15:06Z</time>
      </trkpt>
      <trkpt lat="46.56999" lon="-1.76227">
        <ele>13</ele>
        <time>2018-03-17T19:16:06Z</time>
      </trkpt>
      <trkpt lat="46.56991" lon="-1.76272">
        <ele>13</ele>
        <time>2018-03-17T19:17:06Z</time>
      </trkpt>
      <trkpt lat="46.56976" lon="-1.76329">
        <ele>14</ele>
        <time>2018-03-17T19:18:06Z</time>
      </trkpt>
      <trkpt lat="46.56957" lon="-1.76379">
        <ele>16</ele>
        <time>2018-03-17T19:19:06Z</time>
      </trkpt>
      <trkpt lat="46.56937" lon="-1.76424">
        <ele>19</ele>
        <time>2018-03-17T19:20:06Z</time>
      </trkpt>
      <trkpt lat="46.5692" lon="-1.76457">
        <ele>20</ele>
        <time>2018-03-17T19:21:06Z</time>
      </trkpt>
      <trkpt lat="46.56899" lon="-1.76491">
        <ele>20</ele>
        <time>2018-03-17T19:22:06Z</time>
      </trkpt>
      <trkpt lat="46.56875" lon="-1.76522">
        <ele>21</ele>
        <time>2018-03-17T19:23:06Z</time>
      </trkpt>
      <trkpt lat="46.5687" lon="-1.76529">
        <ele>21</ele>
        <time>2018-03-17T19:24:06Z</time>
      </trkpt>
      <trkpt lat="46.56869" lon="-1.76533">
        <ele>21</ele>
        <time>2018-03-17T19:25:06Z</time>
      </trkpt>
      <trkpt lat="46.56867" lon="-1.76538">
        <ele>21</ele>
        <time>2018-03-17T19:26:06Z</time>
      </trkpt>
      <trkpt lat="46.56865" lon="-1.76544">
        <ele>21</ele>
        <time>2018-03-17T19:27:06Z</time>
      </trkpt>
      <trkpt lat="46.56863" lon="-1.76552">
        <ele>21</ele>
        <time>2018-03-17T19:28:06Z</time>
      </trkpt>
      <trkpt lat="46.56862" lon="-1.76558">
        <ele>21</ele>
        <time>2018-03-17T19:29:06Z</time>
      </trkpt>
      <trkpt lat="46.5686" lon="-1.76565">
        <ele>21</ele>
        <time>2018-03-17T19:30:06Z</time>
      </trkpt>
      <trkpt lat="46.56858" lon="-1.7657">
        <ele>21</ele>
        <time>2018-03-17T19:31:06Z</time>
      </trkpt>
      <trkpt lat="46.56854" lon="-1.76578">
        <ele>21</ele>
        <time>2018-03-17T19:32:06Z</time>
      </trkpt>
      <trkpt lat="46.56849" lon="-1.76587">
        <ele>21</ele>
        <time>2018-03-17T19:33:06Z</time>
      </trkpt>
      <trkpt lat="46.56841" lon="-1.76599">
        <ele>21</ele>
        <time>2018-03-17T19:34:06Z</time>
      </trkpt>
      <trkpt lat="46.56836" lon="-1.76605">
        <ele>21</ele>
        <time>2018-03-17T19:35:06Z</time>
      </trkpt>
      <trkpt lat="46.56829" lon="-1.76614">
        <ele>21</ele>
        <time>2018-03-17T19:36:06Z</time>
      </trkpt>
      <trkpt lat="46.56811" lon="-1.76639">
        <ele>22</ele>
        <time>2018-03-17T19:37:06Z</time>
      </trkpt>
      <trkpt lat="46.56797" lon="-1.76662">
        <ele>22</ele>
        <time>2018-03-17T19:38:06Z</time>
      </trkpt>
      <trkpt lat="46.56788" lon="-1.76677">
        <ele>22</ele>
        <time>2018-03-17T19:39:06Z</time>
      </trkpt>
      <trkpt lat="46.56765" lon="-1.76722">
        <ele>22</ele>
        <time>2018-03-17T19:40:06Z</time>
      </trkpt>
      <trkpt lat="46.56745" lon="-1.76756">
        <ele>22</ele>
        <time>2018-03-17T19:41:06Z</time>
      </trkpt>
      <trkpt lat="46.5672" lon="-1.76802">
        <ele>20</ele>
        <time>2018-03-17T19:42:06Z</time>
      </trkpt>
      <trkpt lat="46.56705" lon="-1.7683">
        <ele>20</ele>
        <time>2018-03-17T19:43:06Z</time>
      </trkpt>
      <trkpt lat="46.56699" lon="-1.76841">
        <ele>19</ele>
        <time>2018-03-17T19:44:06Z</time>
      </trkpt>
      <trkpt lat="46.56681" lon="-1.76872">
        <ele>19</ele>
        <time>2018-03-17T19:45:06Z</time>
      </trkpt>
      <trkpt lat="46.56661" lon="-1.76904">
        <ele>18</ele>
        <time>2018-03-17T19:46:06Z</time>
      </trkpt>
      <trkpt lat="46.56646" lon="-1.76924">
        <ele>18</ele>
        <time>2018-03-17T19:47:06Z</time>
      </trkpt>
      <trkpt lat="46.56618" lon="-1.7696">
        <ele>17</ele>
        <time>2018-03-17T19:48:06Z</time>
      </trkpt>
      <trkpt lat="46.56581" lon="-1.77008">
        <ele>16</ele>
        <time>2018-03-17T19:49:06Z</time>
      </trkpt>
      <trkpt lat="46.56559" lon="-1.7704">
        <ele>15</ele>
        <time>2018-03-17T19:50:06Z</time>
      </trkpt>
      <trkpt lat="46.56526" lon="-1.77086">
        <ele>14</ele>
        <time>2018-03-17T19:51:06Z</time>
      </trkpt>
      <trkpt lat="46.56501" lon="-1.77129">
        <ele>13</ele>
        <time>2018-03-17T19:52:06Z</time>
      </trkpt>
      <trkpt lat="46.56479" lon="-1.77174">
        <ele>13</ele>
        <time>2018-03-17T19:53:06Z</time>
      </trkpt>
      <trkpt lat="46.56472" lon="-1.7719">
        <ele>13</ele>
        <time>2018-03-17T19:54:06Z</time>
      </trkpt>
      <trkpt lat="46.56467" lon="-1.772">
        <ele>13</ele>
        <time>2018-03-17T19:55:06Z</time>
      </trkpt>
      <trkpt lat="46.56461" lon="-1.77216">
        <ele>12</ele>
        <time>2018-03-17T19:56:06Z</time>
      </trkpt>
      <trkpt lat="46.56457" lon="-1.77235">
        <ele>12</ele>
        <time>2018-03-17T19:57:06Z</time>
      </trkpt>
      <trkpt lat="46.56451" lon="-1.77259">
        <ele>12</ele>
        <time>2018-03-17T19:58:06Z</time>
      </trkpt>
      <trkpt lat="46.56441" lon="-1.77309">
        <ele>11</ele>
        <time>2018-03-17T19:59:06Z</time>
      </trkpt>
      <trkpt lat="46.56436" lon="-1.77327">
        <ele>10</ele>
        <time>2018-03-17T20:00:06Z</time>
      </trkpt>
      <trkpt lat="46.56432" lon="-1.77345">
        <ele>10</ele>
        <time>2018-03-17T20:01:06Z</time>
      </trkpt>
      <trkpt lat="46.56425" lon="-1.77371">
        <ele>9</ele>
        <time>2018-03-17T20:02:06Z</time>
      </trkpt>
      <trkpt lat="46.56415" lon="-1.77397">
        <ele>8</ele>
        <time>2018-03-17T20:03:06Z</time>
      </trkpt>
      <trkpt lat="46.56409" lon="-1.7741">
        <ele>8</ele>
        <time>2018-03-17T20:04:06Z</time>
      </trkpt>
      <trkpt lat="46.56403" lon="-1.77424">
        <ele>8</ele>
        <time>2018-03-17T20:05:06Z</time>
      </trkpt>
      <trkpt lat="46.56398" lon="-1.77434">
        <ele>8</ele>
        <time>2018-03-17T20:06:06Z</time>
      </trkpt>
      <trkpt lat="46.56392" lon="-1.77446">
        <ele>8</ele>
        <time>2018-03-17T20:07:06Z</time>
      </trkpt>
      <trkpt lat="46.56386" lon="-1.77455">
        <ele>7</ele>
        <time>2018-03-17T20:08:06Z</time>
      </trkpt>
      <trkpt lat="46.56375" lon="-1.77469">
        <ele>7</ele>
        <time>2018-03-17T20:09:06Z</time>
      </trkpt>
      <trkpt lat="46.56354" lon="-1.77492">
        <ele>7</ele>
        <time>2018-03-17T20:10:06Z</time>
      </trkpt>
      <trkpt lat="46.56332" lon="-1.77515">
        <ele>6</ele>
        <time>2018-03-17T20:11:06Z</time>
      </trkpt>
      <trkpt lat="46.56325" lon="-1.77524">
        <ele>6</ele>
        <time>2018-03-17T20:12:06Z</time>
      </trkpt>
      <trkpt lat="46.56318" lon="-1.77533">
        <ele>6</ele>
        <time>2018-03-17T20:13:06Z</time>
      </trkpt>
      <trkpt lat="46.56313" lon="-1.7754">
        <ele>6</ele>
        <time>2018-03-17T20:14:06Z</time>
      </trkpt>
      <trkpt lat="46.56303" lon="-1.77554">
        <ele>6</ele>
        <time>2018-03-17T20:15:06Z</time>
      </trkpt>
      <trkpt lat="46.56298" lon="-1.77564">
        <ele>6</ele>
        <time>2018-03-17T20:16:06Z</time>
      </trkpt>
      <trkpt lat="46.56283" lon="-1.7759">
        <ele>6</ele>
        <time>2018-03-17T20:17:06Z</time>
      </trkpt>
      <trkpt lat="46.56261" lon="-1.77629">
        <ele>6</ele>
        <time>2018-03-17T20:18:06Z</time>
      </trkpt>
      <trkpt lat="46.56257" lon="-1.77637">
        <ele>6</ele>
        <time>2018-03-17T20:19:06Z</time>
      </trkpt>
      <trkpt lat="46.56251" lon="-1.7765">
        <ele>6</ele>
        <time>2018-03-17T20:20:06Z</time>
      </trkpt>
      <trkpt lat="46.56247" lon="-1.77658">
        <ele>6</ele>
        <time>2018-03-17T20:21:06Z</time>
      </trkpt>
      <trkpt lat="46.56244" lon="-1.77667">
        <ele>6</ele>
        <time>2018-03-17T20:22:06Z</time>
      </trkpt>
      <trkpt lat="46.56241" lon="-1.77678">
        <ele>6</ele>
        <time>2018-03-17T20:23:06Z</time>
      </trkpt>
      <trkpt lat="46.56238" lon="-1.77688">
        <ele>6</ele>
        <time>2018-03-17T20:24:06Z</time>
      </trkpt>
      <trkpt lat="46.56236" lon="-1.77703">
        <ele>5</ele>
        <time>2018-03-17T20:25:06Z</time>
      </trkpt>
      <trkpt lat="46.56234" lon="-1.77721">
        <ele>5</ele>
        <time>2018-03-17T20:26:06Z</time>
      </trkpt>
      <trkpt lat="46.5623" lon="-1.77747">
        <ele>5</ele>
        <time>2018-03-17T20:27:06Z</time>
      </trkpt>
      <trkpt lat="46.5623" lon="-1.77748">
        <ele>5</ele>
        <time>2018-03-17T20:28:06Z</time>
      </trkpt>
      <trkpt lat="46.56223" lon="-1.77793">
        <ele>4</ele>
        <time>2018-03-17T20:29:06Z</time>
      </trkpt>
      <trkpt lat="46.56219" lon="-1.77815">
        <ele>4</ele>
        <time>2018-03-17T20:30:06Z</time>
      </trkpt>
      <trkpt lat="46.56217" lon="-1.77832">
        <ele>3</ele>
        <time>2018-03-17T20:31:06Z</time>
      </trkpt>
      <trkpt lat="46.56217" lon="-1.77841">
        <ele>3</ele>
        <time>2018-03-17T20:32:06Z</time>
      </trkpt>
      <trkpt lat="46.56217" lon="-1.77847">
        <ele>3</ele>
        <time>2018-03-17T20:33:06Z</time>
      </trkpt>
      <trkpt lat="46.56217" lon="-1.77858">
        <ele>4</ele>
        <time>2018-03-17T20:34:06Z</time>
      </trkpt>
      <trkpt lat="46.56218" lon="-1.77864">
        <ele>4</ele>
        <time>2018-03-17T20:35:06Z</time>
      </trkpt>
      <trkpt lat="46.56218" lon="-1.77869">
        <ele>4</ele>
        <time>2018-03-17T20:36:06Z</time>
      </trkpt>
      <trkpt lat="46.5622" lon="-1.77875">
        <ele>4</ele>
        <time>2018-03-17T20:37:06Z</time>
      </trkpt>
      <trkpt lat="46.5622" lon="-1.77876">
        <ele>4</ele>
        <time>2018-03-17T20:38:06Z</time>
      </trkpt>
      <trkpt lat="46.56223" lon="-1.77891">
        <ele>4</ele>
        <time>2018-03-17T20:39:06Z</time>
      </trkpt>
      <trkpt lat="46.56223" lon="-1.77891">
        <ele>4</ele>
        <time>2018-03-17T20:40:06Z</time>
      </trkpt>
      <trkpt lat="46.56224" lon="-1.77892">
        <ele>4</ele>
        <time>2018-03-17T20:41:06Z</time>
      </trkpt>
      <trkpt lat="46.56225" lon="-1.77892">
        <ele>4</ele>
        <time>2018-03-17T20:42:06Z</time>
      </trkpt>
      <trkpt lat="46.56225" lon="-1.77893">
        <ele>4</ele>
        <time>2018-03-17T20:43:06Z</time>
      </trkpt>
      <trkpt lat="46.56226" lon="-1.77893">
        <ele>4</ele>
        <time>2018-03-17T20:44:06Z</time>
      </trkpt>
      <trkpt lat="46.56226" lon="-1.77894">
        <ele>4</ele>
        <time>2018-03-17T20:45:06Z</time>
      </trkpt>
      <trkpt lat="46.56227" lon="-1.77895">
        <ele>4</ele>
        <time>2018-03-17T20:46:06Z</time>
      </trkpt>
      <trkpt lat="46.56227" lon="-1.77896">
        <ele>4</ele>
        <time>2018-03-17T20:47:06Z</time>
      </trkpt>
      <trkpt lat="46.56228" lon="-1.77897">
        <ele>4</ele>
        <time>2018-03-17T20:48:06Z</time>
      </trkpt>
      <trkpt lat="46.56228" lon="-1.77898">
        <ele>4</ele>
        <time>2018-03-17T20:49:06Z</time>
      </trkpt>
      <trkpt lat="46.56228" lon="-1.77899">
        <ele>4</ele>
        <time>2018-03-17T20:50:06Z</time>
      </trkpt>
      <trkpt lat="46.56228" lon="-1.779">
        <ele>4</ele>
        <time>2018-03-17T20:51:06Z</time>
      </trkpt>
      <trkpt lat="46.56229" lon="-1.77901">
        <ele>4</ele>
        <time>2018-03-17T20:52:06Z</time>
      </trkpt>
      <trkpt lat="46.56229" lon="-1.77902">
        <ele>4</ele>
        <time>2018-03-17T20:53:06Z</time>
      </trkpt>
      <trkpt lat="46.56229" lon="-1.77903">
        <ele>4</ele>
        <time>2018-03-17T20:54:06Z</time>
      </trkpt>
      <trkpt lat="46.56229" lon="-1.77904">
        <ele>4</ele>
        <time>2018-03-17T20:55:06Z</time>
      </trkpt>
      <trkpt lat="46.56229" lon="-1.77905">
        <ele>4</ele>
        <time>2018-03-17T20:56:06Z</time>
      </trkpt>
      <trkpt lat="46.56229" lon="-1.77906">
        <ele>4</ele>
        <time>2018-03-17T20:57:06Z</time>
      </trkpt>
      <trkpt lat="46.56229" lon="-1.77907">
        <ele>4</ele>
        <time>2018-03-17T20:58:06Z</time>
      </trkpt>
      <trkpt lat="46.56229" lon="-1.77908">
        <ele>4</ele>
        <time>2018-03-17T20:59:06Z</time>
      </trkpt>
      <trkpt lat="46.56228" lon="-1.77909">
        <ele>4</ele>
        <time>2018-03-17T21:00:06Z</time>
      </trkpt>
      <trkpt lat="46.56228" lon="-1.7791">
        <ele>4</ele>
        <time>2018-03-17T21:01:06Z</time>
      </trkpt>
      <trkpt lat="46.56228" lon="-1.77911">
        <ele>4</ele>
        <time>2018-03-17T21:02:06Z</time>
      </trkpt>
      <trkpt lat="46.56228" lon="-1.77912">
        <ele>4</ele>
        <time>2018-03-17T21:03:06Z</time>
      </trkpt>
      <trkpt lat="46.56227" lon="-1.77913">
        <ele>4</ele>
        <time>2018-03-17T21:04:06Z</time>
      </trkpt>
      <trkpt lat="46.56227" lon="-1.77914">
        <ele>4</ele>
        <time>2018-03-17T21:05:06Z</time>
      </trkpt>
      <trkpt lat="46.56226" lon="-1.77915">
        <ele>4</ele>
        <time>2018-03-17T21:06:06Z</time>
      </trkpt>
      <trkpt lat="46.56226" lon="-1.77916">
        <ele>4</ele>
        <time>2018-03-17T21:07:06Z</time>
      </trkpt>
      <trkpt lat="46.56225" lon="-1.77917">
        <ele>4</ele>
        <time>2018-03-17T21:08:06Z</time>
      </trkpt>
      <trkpt lat="46.56224" lon="-1.77918">
        <ele>4</ele>
        <time>2018-03-17T21:09:06Z</time>
      </trkpt>
      <trkpt lat="46.56223" lon="-1.77919">
        <ele>4</ele>
        <time>2018-03-17T21:10:06Z</time>
      </trkpt>
      <trkpt lat="46.56222" lon="-1.77919">
        <ele>4</ele>
        <time>2018-03-17T21:11:06Z</time>
      </trkpt>
      <trkpt lat="46.56222" lon="-1.7792">
        <ele>4</ele>
        <time>2018-03-17T21:12:06Z</time>
      </trkpt>
      <trkpt lat="46.56221" lon="-1.7792">
        <ele>4</ele>
        <time>2018-03-17T21:13:06Z</time>
      </trkpt>
      <trkpt lat="46.5622" lon="-1.77921">
        <ele>4</ele>
        <time>2018-03-17T21:14:06Z</time>
      </trkpt>
      <trkpt lat="46.56219" lon="-1.77921">
        <ele>4</ele>
        <time>2018-03-17T21:15:06Z</time>
      </trkpt>
      <trkpt lat="46.56218" lon="-1.77921">
        <ele>4</ele>
        <time>2018-03-17T21:16:06Z</time>
      </trkpt>
      <trkpt lat="46.56217" lon="-1.77921">
        <ele>4</ele>
        <time>2018-03-17T21:17:06Z</time>
      </trkpt>
      <trkpt lat="46.56216" lon="-1.77921">
        <ele>4</ele>
        <time>2018-03-17T21:18:06Z</time>
      </trkpt>
      <trkpt lat="46.56211" lon="-1.77933">
        <ele>4</ele>
        <time>2018-03-17T21:19:06Z</time>
      </trkpt>
      <trkpt lat="46.56208" lon="-1.77941">
        <ele>4</ele>
        <time>2018-03-17T21:20:06Z</time>
      </trkpt>
      <trkpt lat="46.56205" lon="-1.7795">
        <ele>4</ele>
        <time>2018-03-17T21:21:06Z</time>
      </trkpt>
      <trkpt lat="46.56205" lon="-1.7795">
        <ele>4</ele>
        <time>2018-03-17T21:22:06Z</time>
      </trkpt>
      <trkpt lat="46.56201" lon="-1.77985">
        <ele>4</ele>
        <time>2018-03-17T21:23:06Z</time>
      </trkpt>
      <trkpt lat="46.56203" lon="-1.78002">
        <ele>3</ele>
        <time>2018-03-17T21:24:06Z</time>
      </trkpt>
      <trkpt lat="46.56205" lon="-1.78032">
        <ele>3</ele>
        <time>2018-03-17T21:25:06Z</time>
      </trkpt>
      <trkpt lat="46.56205" lon="-1.78032">
        <ele>3</ele>
        <time>2018-03-17T21:26:06Z</time>
      </trkpt>
      <trkpt lat="46.56207" lon="-1.78038">
        <ele>3</ele>
        <time>2018-03-17T21:27:06Z</time>
      </trkpt>
      <trkpt lat="46.56212" lon="-1.78053">
        <ele>3</ele>
        <time>2018-03-17T21:28:06Z</time>
      </trkpt>
      <trkpt lat="46.56213" lon="-1.78058">
        <ele>3</ele>
        <time>2018-03-17T21:29:06Z</time>
      </trkpt>
      <trkpt lat="46.56214" lon="-1.78064">
        <ele>3</ele>
        <time>2018-03-17T21:30:06Z</time>
      </trkpt>
      <trkpt lat="46.56215" lon="-1.78072">
        <ele>3</ele>
        <time>2018-03-17T21:31:06Z</time>
      </trkpt>
      <trkpt lat="46.56217" lon="-1.78082">
        <ele>3</ele>
        <time>2018-03-17T21:32:06Z</time>
      </trkpt>
      <trkpt lat="46.56219" lon="-1.78094">
        <ele>3</ele>
        <time>2018-03-17T21:33:06Z</time>
      </trkpt>
      <trkpt lat="46.56219" lon="-1.78094">
        <ele>3</ele>
        <time>2018-03-17T21:34:06Z</time>
      </trkpt>
      <trkpt lat="46.5622" lon="-1.78097">
        <ele>4</ele>
        <time>2018-03-17T21:35:06Z</time>
      </trkpt>
      <trkpt lat="46.56221" lon="-1.78102">
        <ele>4</ele>
        <time>2018-03-17T21:36:06Z</time>
      </trkpt>
      <trkpt lat="46.56223" lon="-1.78106">
        <ele>4</ele>
        <time>2018-03-17T21:37:06Z</time>
      </trkpt>
      <trkpt lat="46.56224" lon="-1.7811">
        <ele>4</ele>
        <time>2018-03-17T21:38:06Z</time>
      </trkpt>
      <trkpt lat="46.56227" lon="-1.78115">
        <ele>4</ele>
        <time>2018-03-17T21:39:06Z</time>
      </trkpt>
      <trkpt lat="46.56236" lon="-1.7813">
        <ele>4</ele>
        <time>2018-03-17T21:40:06Z</time>
      </trkpt>
      <trkpt lat="46.56244" lon="-1.78144">
        <ele>4</ele>
        <time>2018-03-17T21:41:06Z</time>
      </trkpt>
      <trkpt lat="46.56244" lon="-1.78145">
        <ele>4</ele>
        <time>2018-03-17T21:42:06Z</time>
      </trkpt>
      <trkpt lat="46.56252" lon="-1.78159">
        <ele>4</ele>
        <time>2018-03-17T21:43:06Z</time>
      </trkpt>
      <trkpt lat="46.56252" lon="-1.78159">
        <ele>4</ele>
        <time>2018-03-17T21:44:06Z</time>
      </trkpt>
      <trkpt lat="46.56242" lon="-1.7817">
        <ele>4</ele>
        <time>2018-03-17T21:45:06Z</time>
      </trkpt>
      <trkpt lat="46.56226" lon="-1.7819">
        <ele>4</ele>
        <time>2018-03-17T21:46:06Z</time>
      </trkpt>
      <trkpt lat="46.56217" lon="-1.78203">
        <ele>5</ele>
        <time>2018-03-17T21:47:06Z</time>
      </trkpt>
      <trkpt lat="46.56198" lon="-1.78225">
        <ele>5</ele>
        <time>2018-03-17T21:48:06Z</time>
      </trkpt>
      <trkpt lat="46.56191" lon="-1.78233">
        <ele>5</ele>
        <time>2018-03-17T21:49:06Z</time>
      </trkpt>
      <trkpt lat="46.56187" lon="-1.78236">
        <ele>5</ele>
        <time>2018-03-17T21:50:06Z</time>
      </trkpt>
      <trkpt lat="46.56185" lon="-1.78237">
        <ele>5</ele>
        <time>2018-03-17T21:51:06Z</time>
      </trkpt>
      <trkpt lat="46.56177" lon="-1.78242">
        <ele>5</ele>
        <time>2018-03-17T21:52:06Z</time>
      </trkpt>
      <trkpt lat="46.5617" lon="-1.78246">
        <ele>5</ele>
        <time>2018-03-17T21:53:06Z</time>
      </trkpt>
      <trkpt lat="46.56166" lon="-1.78248">
        <ele>5</ele>
        <time>2018-03-17T21:54:06Z</time>
      </trkpt>
      <trkpt lat="46.56162" lon="-1.78249">
        <ele>5</ele>
        <time>2018-03-17T21:55:06Z</time>
      </trkpt>
      <trkpt lat="46.56158" lon="-1.78249">
        <ele>5</ele>
        <time>2018-03-17T21:56:06Z</time>
      </trkpt>
      <trkpt lat="46.56153" lon="-1.78249">
        <ele>5</ele>
        <time>2018-03-17T21:57:06Z</time>
      </trkpt>
      <trkpt lat="46.56148" lon="-1.78247">
        <ele>5</ele>
        <time>2018-03-17T21:58:06Z</time>
      </trkpt>
      <trkpt lat="46.56143" lon="-1.78245">
        <ele>5</ele>
        <time>2018-03-17T21:59:06Z</time>
      </trkpt>
      <trkpt lat="46.56136" lon="-1.78241">
        <ele>5</ele>
        <time>2018-03-17T22:00:06Z</time>
      </trkpt>
      <trkpt lat="46.56128" lon="-1.78237">
        <ele>5</ele>
        <time>2018-03-17T22:01:06Z</time>
      </trkpt>
      <trkpt lat="46.56123" lon="-1.78235">
        <ele>5</ele>
        <time>2018-03-17T22:02:06Z</time>
      </trkpt>
      <trkpt lat="46.56123" lon="-1.78235">
        <ele>5</ele>
        <time>2018-03-17T22:03:06Z</time>
      </trkpt>
      <trkpt lat="46.5612" lon="-1.7824">
        <ele>5</ele>
        <time>2018-03-17T22:04:06Z</time>
      </trkpt>
      <trkpt lat="46.56116" lon="-1.78246">
        <ele>5</ele>
        <time>2018-03-17T22:05:06Z</time>
      </trkpt>
      <trkpt lat="46.56108" lon="-1.78258">
        <ele>5</ele>
        <time>2018-03-17T22:06:06Z</time>
      </trkpt>
      <trkpt lat="46.56108" lon="-1.78259">
        <ele>5</ele>
        <time>2018-03-17T22:07:06Z</time>
      </trkpt>
      <trkpt lat="46.56092" lon="-1.78283">
        <ele>4</ele>
        <time>2018-03-17T22:08:06Z</time>
      </trkpt>
      <trkpt lat="46.56078" lon="-1.78308">
        <ele>4</ele>
        <time>2018-03-17T22:09:06Z</time>
      </trkpt>
      <trkpt lat="46.56078" lon="-1.78309">
        <ele>4</ele>
        <time>2018-03-17T22:10:06Z</time>
      </trkpt>
      <trkpt lat="46.56066" lon="-1.78333">
        <ele>3</ele>
        <time>2018-03-17T22:11:06Z</time>
      </trkpt>
      <trkpt lat="46.56062" lon="-1.78343">
        <ele>3</ele>
        <time>2018-03-17T22:12:06Z</time>
      </trkpt>
      <trkpt lat="46.56059" lon="-1.7835">
        <ele>3</ele>
        <time>2018-03-17T22:13:06Z</time>
      </trkpt>
      <trkpt lat="46.56056" lon="-1.7836">
        <ele>3</ele>
        <time>2018-03-17T22:14:06Z</time>
      </trkpt>
      <trkpt lat="46.56053" lon="-1.78377">
        <ele>2</ele>
        <time>2018-03-17T22:15:06Z</time>
      </trkpt>
      <trkpt lat="46.56051" lon="-1.78386">
        <ele>2</ele>
        <time>2018-03-17T22:16:06Z</time>
      </trkpt>
      <trkpt lat="46.5605" lon="-1.78395">
        <ele>2</ele>
        <time>2018-03-17T22:17:06Z</time>
      </trkpt>
      <trkpt lat="46.5605" lon="-1.78401">
        <ele>2</ele>
        <time>2018-03-17T22:18:06Z</time>
      </trkpt>
      <trkpt lat="46.5605" lon="-1.78403">
        <ele>2</ele>
        <time>2018-03-17T22:19:06Z</time>
      </trkpt>
      <trkpt lat="46.5605" lon="-1.78404">
        <ele>2</ele>
        <time>2018-03-17T22:20:06Z</time>
      </trkpt>
      <trkpt lat="46.5605" lon="-1.78406">
        <ele>2</ele>
        <time>2018-03-17T22:21:06Z</time>
      </trkpt>
      <trkpt lat="46.5605" lon="-1.78407">
        <ele>2</ele>
        <time>2018-03-17T22:22:06Z</time>
      </trkpt>
      <trkpt lat="46.56052" lon="-1.78412">
        <ele>2</ele>
        <time>2018-03-17T22:23:06Z</time>
      </trkpt>
      <trkpt lat="46.56052" lon="-1.78412">
        <ele>2</ele>
        <time>2018-03-17T22:24:06Z</time>
      </trkpt>
      <trkpt lat="46.56047" lon="-1.78415">
        <ele>2</ele>
        <time>2018-03-17T22:25:06Z</time>
      </trkpt>
      <trkpt lat="46.56045" lon="-1.78419">
        <ele>2</ele>
        <time>2018-03-17T22:26:06Z</time>
      </trkpt>
      <trkpt lat="46.5604" lon="-1.78425">
        <ele>1</ele>
        <time>2018-03-17T22:27:06Z</time>
      </trkpt>
      <trkpt lat="46.56038" lon="-1.78429">
        <ele>1</ele>
        <time>2018-03-17T22:28:06Z</time>
      </trkpt>
      <trkpt lat="46.56034" lon="-1.78437">
        <ele>1</ele>
        <time>2018-03-17T22:29:06Z</time>
      </trkpt>
      <trkpt lat="46.56031" lon="-1.78449">
        <ele>1</ele>
        <time>2018-03-17T22:30:06Z</time>
      </trkpt>
      <trkpt lat="46.56024" lon="-1.7847">
        <ele>1</ele>
        <time>2018-03-17T22:31:06Z</time>
      </trkpt>
      <trkpt lat="46.56009" lon="-1.78512">
        <ele>1</ele>
        <time>2018-03-17T22:32:06Z</time>
      </trkpt>
      <trkpt lat="46.55991" lon="-1.78553">
        <ele>1</ele>
        <time>2018-03-17T22:33:06Z</time>
      </trkpt>
      <trkpt lat="46.55969" lon="-1.78602">
        <ele>1</ele>
        <time>2018-03-17T22:34:06Z</time>
      </trkpt>
      <trkpt lat="46.55948" lon="-1.7865">
        <ele>1</ele>
        <time>2018-03-17T22:35:06Z</time>
      </trkpt>
      <trkpt lat="46.55927" lon="-1.78694">
        <ele>1</ele>
        <time>2018-03-17T22:36:06Z</time>
      </trkpt>
      <trkpt lat="46.55909" lon="-1.78731">
        <ele>1</ele>
        <time>2018-03-17T22:37:06Z</time>
      </trkpt>
      <trkpt lat="46.55903" lon="-1.78742">
        <ele>1</ele>
        <time>2018-03-17T22:38:06Z</time>
      </trkpt>
      <trkpt lat="46.55897" lon="-1.78751">
        <ele>1</ele>
        <time>2018-03-17T22:39:06Z</time>
      </trkpt>
      <trkpt lat="46.55888" lon="-1.78766">
        <ele>1</ele>
        <time>2018-03-17T22:40:06Z</time>
      </trkpt>
      <trkpt lat="46.55875" lon="-1.78781">
        <ele>1</ele>
        <time>2018-03-17T22:41:06Z</time>
      </trkpt>
      <trkpt lat="46.55864" lon="-1.78793">
        <ele>1</ele>
        <time>2018-03-17T22:42:06Z</time>
      </trkpt>
      <trkpt lat="46.55856" lon="-1.78801">
        <ele>1</ele>
        <time>2018-03-17T22:43:06Z</time>
      </trkpt>
      <trkpt lat="46.55849" lon="-1.78806">
        <ele>1</ele>
        <time>2018-03-17T22:44:06Z</time>
      </trkpt>
      <trkpt lat="46.55846" lon="-1.78808">
        <ele>1</ele>
        <time>2018-03-17T22:45:06Z</time>
      </trkpt>
      <trkpt lat="46.55839" lon="-1.78813">
        <ele>1</ele>
        <time>2018-03-17T22:46:06Z</time>
      </trkpt>
      <trkpt lat="46.55818" lon="-1.78824">
        <ele>1</ele>
        <time>2018-03-17T22:47:06Z</time>
      </trkpt>
      <trkpt lat="46.55784" lon="-1.78838">
        <ele>1</ele>
        <time>2018-03-17T22:48:06Z</time>
      </trkpt>
      <trkpt lat="46.55746" lon="-1.78853">
        <ele>1</ele>
        <time>2018-03-17T22:49:06Z</time>
      </trkpt>
      <trkpt lat="46.55703" lon="-1.78869">
        <ele>1</ele>
        <time>2018-03-17T22:50:06Z</time>
      </trkpt>
      <trkpt lat="46.55663" lon="-1.78885">
        <ele>1</ele>
        <time>2018-03-17T22:51:06Z</time>
      </trkpt>
      <trkpt lat="46.5562" lon="-1.78901">
        <ele>1</ele>
        <time>2018-03-17T22:52:06Z</time>
      </trkpt>
      <trkpt lat="46.55591" lon="-1.78912">
        <ele>2</ele>
        <time>2018-03-17T22:53:06Z</time>
      </trkpt>
      <trkpt lat="46.55583" lon="-1.78915">
        <ele>2</ele>
        <time>2018-03-17T22:54:06Z</time>
      </trkpt>
      <trkpt lat="46.55575" lon="-1.78919">
        <ele>2</ele>
        <time>2018-03-17T22:55:06Z</time>
      </trkpt>
      <trkpt lat="46.55566" lon="-1.78924">
        <ele>2</ele>
        <time>2018-03-17T22:56:06Z</time>
      </trkpt>
      <trkpt lat="46.55557" lon="-1.7893">
        <ele>2</ele>
        <time>2018-03-17T22:57:06Z</time>
      </trkpt>
      <trkpt lat="46.55549" lon="-1.78936">
        <ele>2</ele>
        <time>2018-03-17T22:58:06Z</time>
      </trkpt>
      <trkpt lat="46.55543" lon="-1.78942">
        <ele>2</ele>
        <time>2018-03-17T22:59:06Z</time>
      </trkpt>
      <trkpt lat="46.55537" lon="-1.7895">
        <ele>2</ele>
        <time>2018-03-17T23:00:06Z</time>
      </trkpt>
      <trkpt lat="46.55533" lon="-1.78955">
        <ele>2</ele>
        <time>2018-03-17T23:01:06Z</time>
      </trkpt>
      <trkpt lat="46.55527" lon="-1.78966">
        <ele>2</ele>
        <time>2018-03-17T23:02:06Z</time>
      </trkpt>
      <trkpt lat="46.55518" lon="-1.78985">
        <ele>2</ele>
        <time>2018-03-17T23:03:06Z</time>
      </trkpt>
      <trkpt lat="46.5551" lon="-1.79009">
        <ele>2</ele>
        <time>2018-03-17T23:04:06Z</time>
      </trkpt>
      <trkpt lat="46.55501" lon="-1.79037">
        <ele>2</ele>
        <time>2018-03-17T23:05:06Z</time>
      </trkpt>
      <trkpt lat="46.55494" lon="-1.79058">
        <ele>3</ele>
        <time>2018-03-17T23:06:06Z</time>
      </trkpt>
      <trkpt lat="46.55484" lon="-1.79082">
        <ele>3</ele>
        <time>2018-03-17T23:07:06Z</time>
      </trkpt>
      <trkpt lat="46.55476" lon="-1.79097">
        <ele>2</ele>
        <time>2018-03-17T23:08:06Z</time>
      </trkpt>
      <trkpt lat="46.5547" lon="-1.79106">
        <ele>2</ele>
        <time>2018-03-17T23:09:06Z</time>
      </trkpt>
      <trkpt lat="46.55463" lon="-1.79115">
        <ele>2</ele>
        <time>2018-03-17T23:10:06Z</time>
      </trkpt>
      <trkpt lat="46.5546" lon="-1.7912">
        <ele>2</ele>
        <time>2018-03-17T23:11:06Z</time>
      </trkpt>
      <trkpt lat="46.55453" lon="-1.79125">
        <ele>2</ele>
        <time>2018-03-17T23:12:06Z</time>
      </trkpt>
      <trkpt lat="46.55443" lon="-1.79134">
        <ele>2</ele>
        <time>2018-03-17T23:13:06Z</time>
      </trkpt>
      <trkpt lat="46.55427" lon="-1.79147">
        <ele>1</ele>
        <time>2018-03-17T23:14:06Z</time>
      </trkpt>
      <trkpt lat="46.55404" lon="-1.79165">
        <ele>2</ele>
        <time>2018-03-17T23:15:06Z</time>
      </trkpt>
      <trkpt lat="46.55378" lon="-1.79185">
        <ele>2</ele>
        <time>2018-03-17T23:16:06Z</time>
      </trkpt>
      <trkpt lat="46.55341" lon="-1.79211">
        <ele>2</ele>
        <time>2018-03-17T23:17:06Z</time>
      </trkpt>
      <trkpt lat="46.55295" lon="-1.79243">
        <ele>2</ele>
        <time>2018-03-17T23:18:06Z</time>
      </trkpt>
      <trkpt lat="46.55259" lon="-1.79269">
        <ele>2</ele>
        <time>2018-03-17T23:19:06Z</time>
      </trkpt>
      <trkpt lat="46.55229" lon="-1.7929">
        <ele>1</ele>
        <time>2018-03-17T23:20:06Z</time>
      </trkpt>
      <trkpt lat="46.55201" lon="-1.79309">
        <ele>1</ele>
        <time>2018-03-17T23:21:06Z</time>
      </trkpt>
      <trkpt lat="46.55181" lon="-1.79326">
        <ele>1</ele>
        <time>2018-03-17T23:22:06Z</time>
      </trkpt>
      <trkpt lat="46.55167" lon="-1.79339">
        <ele>2</ele>
        <time>2018-03-17T23:23:06Z</time>
      </trkpt>
      <trkpt lat="46.55155" lon="-1.79357">
        <ele>3</ele>
        <time>2018-03-17T23:24:06Z</time>
      </trkpt>
      <trkpt lat="46.55146" lon="-1.79373">
        <ele>3</ele>
        <time>2018-03-17T23:25:06Z</time>
      </trkpt>
      <trkpt lat="46.55139" lon="-1.79386">
        <ele>3</ele>
        <time>2018-03-17T23:26:06Z</time>
      </trkpt>
      <trkpt lat="46.55131" lon="-1.79404">
        <ele>3</ele>
        <time>2018-03-17T23:27:06Z</time>
      </trkpt>
      <trkpt lat="46.55123" lon="-1.79424">
        <ele>4</ele>
        <time>2018-03-17T23:28:06Z</time>
      </trkpt>
      <trkpt lat="46.55115" lon="-1.79446">
        <ele>4</ele>
        <time>2018-03-17T23:29:06Z</time>
      </trkpt>
      <trkpt lat="46.55105" lon="-1.79474">
        <ele>4</ele>
        <time>2018-03-17T23:30:06Z</time>
      </trkpt>
      <trkpt lat="46.55095" lon="-1.795">
        <ele>4</ele>
        <time>2018-03-17T23:31:06Z</time>
      </trkpt>
      <trkpt lat="46.55084" lon="-1.79532">
        <ele>4</ele>
        <time>2018-03-17T23:32:06Z</time>
      </trkpt>
      <trkpt lat="46.55083" lon="-1.79537">
        <ele>4</ele>
        <time>2018-03-17T23:33:06Z</time>
      </trkpt>
      <trkpt lat="46.55078" lon="-1.79546">
        <ele>4</ele>
        <time>2018-03-17T23:34:06Z</time>
      </trkpt>
      <trkpt lat="46.55072" lon="-1.7956">
        <ele>4</ele>
        <time>2018-03-17T23:35:06Z</time>
      </trkpt>
      <trkpt lat="46.55066" lon="-1.79575">
        <ele>3</ele>
        <time>2018-03-17T23:36:06Z</time>
      </trkpt>
      <trkpt lat="46.55059" lon="-1.79586">
        <ele>3</ele>
        <time>2018-03-17T23:37:06Z</time>
      </trkpt>
      <trkpt lat="46.55051" lon="-1.79602">
        <ele>3</ele>
        <time>2018-03-17T23:38:06Z</time>
      </trkpt>
      <trkpt lat="46.55047" lon="-1.79608">
        <ele>3</ele>
        <time>2018-03-17T23:39:06Z</time>
      </trkpt>
      <trkpt lat="46.55037" lon="-1.79624">
        <ele>2</ele>
        <time>2018-03-17T23:40:06Z</time>
      </trkpt>
      <trkpt lat="46.55023" lon="-1.79646">
        <ele>3</ele>
        <time>2018-03-17T23:41:06Z</time>
      </trkpt>
      <trkpt lat="46.55003" lon="-1.79675">
        <ele>3</ele>
        <time>2018-03-17T23:42:06Z</time>
      </trkpt>
      <trkpt lat="46.54982" lon="-1.79708">
        <ele>3</ele>
        <time>2018-03-17T23:43:06Z</time>
      </trkpt>
      <trkpt lat="46.54962" lon="-1.79737">
        <ele>3</ele>
        <time>2018-03-17T23:44:06Z</time>
      </trkpt>
      <trkpt lat="46.54949" lon="-1.79756">
        <ele>3</ele>
        <time>2018-03-17T23:45:06Z</time>
      </trkpt>
      <trkpt lat="46.54937" lon="-1.79773">
        <ele>3</ele>
        <time>2018-03-17T23:46:06Z</time>
      </trkpt>
      <trkpt lat="46.54926" lon="-1.7979">
        <ele>3</ele>
        <time>2018-03-17T23:47:06Z</time>
      </trkpt>
      <trkpt lat="46.5492" lon="-1.798">
        <ele>3</ele>
        <time>2018-03-17T23:48:06Z</time>
      </trkpt>
      <trkpt lat="46.54915" lon="-1.79812">
        <ele>3</ele>
        <time>2018-03-17T23:49:06Z</time>
      </trkpt>
      <trkpt lat="46.54912" lon="-1.79817">
        <ele>3</ele>
        <time>2018-03-17T23:50:06Z</time>
      </trkpt>
      <trkpt lat="46.54908" lon="-1.79828">
        <ele>3</ele>
        <time>2018-03-17T23:51:06Z</time>
      </trkpt>
      <trkpt lat="46.54904" lon="-1.79838">
        <ele>3</ele>
        <time>2018-03-17T23:52:06Z</time>
      </trkpt>
      <trkpt lat="46.54901" lon="-1.7985">
        <ele>3</ele>
        <time>2018-03-17T23:53:06Z</time>
      </trkpt>
      <trkpt lat="46.54897" lon="-1.79867">
        <ele>3</ele>
        <time>2018-03-17T23:54:06Z</time>
      </trkpt>
      <trkpt lat="46.54891" lon="-1.79891">
        <ele>3</ele>
        <time>2018-03-17T23:55:06Z</time>
      </trkpt>
      <trkpt lat="46.54883" lon="-1.79923">
        <ele>3</ele>
        <time>2018-03-17T23:56:06Z</time>
      </trkpt>
      <trkpt lat="46.54872" lon="-1.7995">
        <ele>3</ele>
        <time>2018-03-17T23:57:06Z</time>
      </trkpt>
      <trkpt lat="46.54857" lon="-1.79973">
        <ele>3</ele>
        <time>2018-03-17T23:58:06Z</time>
      </trkpt>
      <trkpt lat="46.54852" lon="-1.7998">
        <ele>3</ele>
        <time>2018-03-17T23:59:06Z</time>
      </trkpt>
      <trkpt lat="46.54839" lon="-1.79994">
        <ele>3</ele>
        <time>2018-03-18T00:00:06Z</time>
      </trkpt>
      <trkpt lat="46.54828" lon="-1.80007">
        <ele>3</ele>
        <time>2018-03-18T00:01:06Z</time>
      </trkpt>
      <trkpt lat="46.54814" lon="-1.80025">
        <ele>4</ele>
        <time>2018-03-18T00:02:06Z</time>
      </trkpt>
      <trkpt lat="46.54796" lon="-1.80049">
        <ele>5</ele>
        <time>2018-03-18T00:03:06Z</time>
      </trkpt>
      <trkpt lat="46.54783" lon="-1.80066">
        <ele>5</ele>
        <time>2018-03-18T00:04:06Z</time>
      </trkpt>
      <trkpt lat="46.5477" lon="-1.80086">
        <ele>6</ele>
        <time>2018-03-18T00:05:06Z</time>
      </trkpt>
      <trkpt lat="46.54762" lon="-1.80099">
        <ele>6</ele>
        <time>2018-03-18T00:06:06Z</time>
      </trkpt>
      <trkpt lat="46.54746" lon="-1.80128">
        <ele>7</ele>
        <time>2018-03-18T00:07:06Z</time>
      </trkpt>
      <trkpt lat="46.54746" lon="-1.80129">
        <ele>7</ele>
        <time>2018-03-18T00:08:06Z</time>
      </trkpt>
      <trkpt lat="46.54734" lon="-1.80153">
        <ele>8</ele>
        <time>2018-03-18T00:09:06Z</time>
      </trkpt>
      <trkpt lat="46.54723" lon="-1.80177">
        <ele>8</ele>
        <time>2018-03-18T00:10:06Z</time>
      </trkpt>
      <trkpt lat="46.54718" lon="-1.80186">
        <ele>8</ele>
        <time>2018-03-18T00:11:06Z</time>
      </trkpt>
      <trkpt lat="46.54711" lon="-1.80203">
        <ele>8</ele>
        <time>2018-03-18T00:12:06Z</time>
      </trkpt>
      <trkpt lat="46.54704" lon="-1.8022">
        <ele>8</ele>
        <time>2018-03-18T00:13:06Z</time>
      </trkpt>
      <trkpt lat="46.54697" lon="-1.80236">
        <ele>9</ele>
        <time>2018-03-18T00:14:06Z</time>
      </trkpt>
      <trkpt lat="46.54689" lon="-1.80253">
        <ele>9</ele>
        <time>2018-03-18T00:15:06Z</time>
      </trkpt>
      <trkpt lat="46.54681" lon="-1.80274">
        <ele>8</ele>
        <time>2018-03-18T00:16:06Z</time>
      </trkpt>
      <trkpt lat="46.54663" lon="-1.80318">
        <ele>7</ele>
        <time>2018-03-18T00:17:06Z</time>
      </trkpt>
      <trkpt lat="46.54655" lon="-1.80339">
        <ele>7</ele>
        <time>2018-03-18T00:18:06Z</time>
      </trkpt>
      <trkpt lat="46.54643" lon="-1.80364">
        <ele>6</ele>
        <time>2018-03-18T00:19:06Z</time>
      </trkpt>
      <trkpt lat="46.54636" lon="-1.80384">
        <ele>6</ele>
        <time>2018-03-18T00:20:06Z</time>
      </trkpt>
      <trkpt lat="46.54636" lon="-1.80384">
        <ele>6</ele>
        <time>2018-03-18T00:21:06Z</time>
      </trkpt>
      <trkpt lat="46.54637" lon="-1.80385">
        <ele>6</ele>
        <time>2018-03-18T00:22:06Z</time>
      </trkpt>
      <trkpt lat="46.54638" lon="-1.80387">
        <ele>6</ele>
        <time>2018-03-18T00:23:06Z</time>
      </trkpt>
      <trkpt lat="46.54638" lon="-1.80388">
        <ele>6</ele>
        <time>2018-03-18T00:24:06Z</time>
      </trkpt>
      <trkpt lat="46.54639" lon="-1.8039">
        <ele>6</ele>
        <time>2018-03-18T00:25:06Z</time>
      </trkpt>
      <trkpt lat="46.54639" lon="-1.80392">
        <ele>6</ele>
        <time>2018-03-18T00:26:06Z</time>
      </trkpt>
      <trkpt lat="46.54638" lon="-1.80394">
        <ele>6</ele>
        <time>2018-03-18T00:27:06Z</time>
      </trkpt>
      <trkpt lat="46.54646" lon="-1.804">
        <ele>6</ele>
        <time>2018-03-18T00:28:06Z</time>
      </trkpt>
      <trkpt lat="46.54651" lon="-1.80405">
        <ele>6</ele>
        <time>2018-03-18T00:29:06Z</time>
      </trkpt>
      <trkpt lat="46.54657" lon="-1.8041">
        <ele>6</ele>
        <time>2018-03-18T00:30:06Z</time>
      </trkpt>
      <trkpt lat="46.54661" lon="-1.80413">
        <ele>6</ele>
        <time>2018-03-18T00:31:06Z</time>
      </trkpt>
      <trkpt lat="46.54668" lon="-1.80423">
        <ele>6</ele>
        <time>2018-03-18T00:32:06Z</time>
      </trkpt>
      <trkpt lat="46.54676" lon="-1.80434">
        <ele>6</ele>
        <time>2018-03-18T00:33:06Z</time>
      </trkpt>
      <trkpt lat="46.54677" lon="-1.80434">
        <ele>6</ele>
        <time>2018-03-18T00:34:06Z</time>
      </trkpt>
      <trkpt lat="46.54677" lon="-1.80433">
        <ele>6</ele>
        <time>2018-03-18T00:35:06Z</time>
      </trkpt>
      <trkpt lat="46.54678" lon="-1.80433">
        <ele>6</ele>
        <time>2018-03-18T00:36:06Z</time>
      </trkpt>
      <trkpt lat="46.54679" lon="-1.80433">
        <ele>6</ele>
        <time>2018-03-18T00:37:06Z</time>
      </trkpt>
      <trkpt lat="46.5468" lon="-1.80433">
        <ele>6</ele>
        <time>2018-03-18T00:38:06Z</time>
      </trkpt>
      <trkpt lat="46.54681" lon="-1.80433">
        <ele>6</ele>
        <time>2018-03-18T00:39:06Z</time>
      </trkpt>
      <trkpt lat="46.54682" lon="-1.80433">
        <ele>6</ele>
        <time>2018-03-18T00:40:06Z</time>
      </trkpt>
      <trkpt lat="46.54682" lon="-1.80434">
        <ele>6</ele>
        <time>2018-03-18T00:41:06Z</time>
      </trkpt>
      <trkpt lat="46.54683" lon="-1.80434">
        <ele>6</ele>
        <time>2018-03-18T00:42:06Z</time>
      </trkpt>
      <trkpt lat="46.54684" lon="-1.80434">
        <ele>6</ele>
        <time>2018-03-18T00:43:06Z</time>
      </trkpt>
      <trkpt lat="46.54684" lon="-1.80435">
        <ele>6</ele>
        <time>2018-03-18T00:44:06Z</time>
      </trkpt>
      <trkpt lat="46.54685" lon="-1.80435">
        <ele>6</ele>
        <time>2018-03-18T00:45:06Z</time>
      </trkpt>
      <trkpt lat="46.54685" lon="-1.80436">
        <ele>6</ele>
        <time>2018-03-18T00:46:06Z</time>
      </trkpt>
      <trkpt lat="46.54685" lon="-1.80437">
        <ele>6</ele>
        <time>2018-03-18T00:47:06Z</time>
      </trkpt>
      <trkpt lat="46.54686" lon="-1.80437">
        <ele>6</ele>
        <time>2018-03-18T00:48:06Z</time>
      </trkpt>
      <trkpt lat="46.54686" lon="-1.80438">
        <ele>6</ele>
        <time>2018-03-18T00:49:06Z</time>
      </trkpt>
      <trkpt lat="46.54686" lon="-1.80439">
        <ele>6</ele>
        <time>2018-03-18T00:50:06Z</time>
      </trkpt>
      <trkpt lat="46.54687" lon="-1.80439">
        <ele>6</ele>
        <time>2018-03-18T00:51:06Z</time>
      </trkpt>
      <trkpt lat="46.54687" lon="-1.8044">
        <ele>6</ele>
        <time>2018-03-18T00:52:06Z</time>
      </trkpt>
      <trkpt lat="46.54692" lon="-1.80444">
        <ele>6</ele>
        <time>2018-03-18T00:53:06Z</time>
      </trkpt>
      <trkpt lat="46.54706" lon="-1.80455">
        <ele>6</ele>
        <time>2018-03-18T00:54:06Z</time>
      </trkpt>
      <trkpt lat="46.54717" lon="-1.80465">
        <ele>6</ele>
        <time>2018-03-18T00:55:06Z</time>
      </trkpt>
      <trkpt lat="46.54722" lon="-1.8047">
        <ele>6</ele>
        <time>2018-03-18T00:56:06Z</time>
      </trkpt>
      <trkpt lat="46.54748" lon="-1.80489">
        <ele>5</ele>
        <time>2018-03-18T00:57:06Z</time>
      </trkpt>
      <trkpt lat="46.54754" lon="-1.80493">
        <ele>5</ele>
        <time>2018-03-18T00:58:06Z</time>
      </trkpt>
      <trkpt lat="46.54767" lon="-1.80503">
        <ele>5</ele>
        <time>2018-03-18T00:59:06Z</time>
      </trkpt>
      <trkpt lat="46.54786" lon="-1.80518">
        <ele>5</ele>
        <time>2018-03-18T01:00:06Z</time>
      </trkpt>
      <trkpt lat="46.54798" lon="-1.80528">
        <ele>6</ele>
        <time>2018-03-18T01:01:06Z</time>
      </trkpt>
      <trkpt lat="46.54812" lon="-1.80541">
        <ele>6</ele>
        <time>2018-03-18T01:02:06Z</time>
      </trkpt>
      <trkpt lat="46.54828" lon="-1.80554">
        <ele>5</ele>
        <time>2018-03-18T01:03:06Z</time>
      </trkpt>
      <trkpt lat="46.54847" lon="-1.80572">
        <ele>5</ele>
        <time>2018-03-18T01:04:06Z</time>
      </trkpt>
      <trkpt lat="46.54865" lon="-1.80585">
        <ele>5</ele>
        <time>2018-03-18T01:05:06Z</time>
      </trkpt>
      <trkpt lat="46.54886" lon="-1.80603">
        <ele>5</ele>
        <time>2018-03-18T01:06:06Z</time>
      </trkpt>
      <trkpt lat="46.54887" lon="-1.80604">
        <ele>5</ele>
        <time>2018-03-18T01:07:06Z</time>
      </trkpt>
      <trkpt lat="46.54903" lon="-1.80616">
        <ele>6</ele>
        <time>2018-03-18T01:08:06Z</time>
      </trkpt>
      <trkpt lat="46.54913" lon="-1.80622">
        <ele>6</ele>
        <time>2018-03-18T01:09:06Z</time>
      </trkpt>
      <trkpt lat="46.54931" lon="-1.80631">
        <ele>6</ele>
        <time>2018-03-18T01:10:06Z</time>
      </trkpt>
      <trkpt lat="46.54939" lon="-1.80635">
        <ele>6</ele>
        <time>2018-03-18T01:11:06Z</time>
      </trkpt>
      <trkpt lat="46.54946" lon="-1.80638">
        <ele>6</ele>
        <time>2018-03-18T01:12:06Z</time>
      </trkpt>
      <trkpt lat="46.54957" lon="-1.80644">
        <ele>6</ele>
        <time>2018-03-18T01:13:06Z</time>
      </trkpt>
      <trkpt lat="46.54974" lon="-1.80651">
        <ele>6</ele>
        <time>2018-03-18T01:14:06Z</time>
      </trkpt>
      <trkpt lat="46.54987" lon="-1.80654">
        <ele>6</ele>
        <time>2018-03-18T01:15:06Z</time>
      </trkpt>
      <trkpt lat="46.55003" lon="-1.80656">
        <ele>6</ele>
        <time>2018-03-18T01:16:06Z</time>
      </trkpt>
      <trkpt lat="46.55019" lon="-1.80656">
        <ele>6</ele>
        <time>2018-03-18T01:17:06Z</time>
      </trkpt>
      <trkpt lat="46.55037" lon="-1.80656">
        <ele>6</ele>
        <time>2018-03-18T01:18:06Z</time>
      </trkpt>
      <trkpt lat="46.55051" lon="-1.80654">
        <ele>6</ele>
        <time>2018-03-18T01:19:06Z</time>
      </trkpt>
      <trkpt lat="46.55071" lon="-1.8065">
        <ele>5</ele>
        <time>2018-03-18T01:20:06Z</time>
      </trkpt>
      <trkpt lat="46.55073" lon="-1.80649">
        <ele>5</ele>
        <time>2018-03-18T01:21:06Z</time>
      </trkpt>
      <trkpt lat="46.55096" lon="-1.80645">
        <ele>5</ele>
        <time>2018-03-18T01:22:06Z</time>
      </trkpt>
      <trkpt lat="46.55112" lon="-1.80644">
        <ele>5</ele>
        <time>2018-03-18T01:23:06Z</time>
      </trkpt>
      <trkpt lat="46.55123" lon="-1.80644">
        <ele>5</ele>
        <time>2018-03-18T01:24:06Z</time>
      </trkpt>
      <trkpt lat="46.55134" lon="-1.80645">
        <ele>5</ele>
        <time>2018-03-18T01:25:06Z</time>
      </trkpt>
      <trkpt lat="46.55152" lon="-1.80647">
        <ele>5</ele>
        <time>2018-03-18T01:26:06Z</time>
      </trkpt>
      <trkpt lat="46.55158" lon="-1.80647">
        <ele>5</ele>
        <time>2018-03-18T01:27:06Z</time>
      </trkpt>
      <trkpt lat="46.55169" lon="-1.80651">
        <ele>4</ele>
        <time>2018-03-18T01:28:06Z</time>
      </trkpt>
      <trkpt lat="46.55178" lon="-1.80654">
        <ele>4</ele>
        <time>2018-03-18T01:29:06Z</time>
      </trkpt>
      <trkpt lat="46.55187" lon="-1.80657">
        <ele>4</ele>
        <time>2018-03-18T01:30:06Z</time>
      </trkpt>
      <trkpt lat="46.55194" lon="-1.8066">
        <ele>4</ele>
        <time>2018-03-18T01:31:06Z</time>
      </trkpt>
      <trkpt lat="46.55201" lon="-1.80664">
        <ele>4</ele>
        <time>2018-03-18T01:32:06Z</time>
      </trkpt>
      <trkpt lat="46.55209" lon="-1.80669">
        <ele>4</ele>
        <time>2018-03-18T01:33:06Z</time>
      </trkpt>
      <trkpt lat="46.55219" lon="-1.80677">
        <ele>4</ele>
        <time>2018-03-18T01:34:06Z</time>
      </trkpt>
      <trkpt lat="46.55232" lon="-1.80688">
        <ele>4</ele>
        <time>2018-03-18T01:35:06Z</time>
      </trkpt>
      <trkpt lat="46.55245" lon="-1.807">
        <ele>4</ele>
        <time>2018-03-18T01:36:06Z</time>
      </trkpt>
      <trkpt lat="46.55267" lon="-1.80721">
        <ele>4</ele>
        <time>2018-03-18T01:37:06Z</time>
      </trkpt>
      <trkpt lat="46.55285" lon="-1.80738">
        <ele>4</ele>
        <time>2018-03-18T01:38:06Z</time>
      </trkpt>
      <trkpt lat="46.55307" lon="-1.8076">
        <ele>5</ele>
        <time>2018-03-18T01:39:06Z</time>
      </trkpt>
      <trkpt lat="46.55317" lon="-1.80771">
        <ele>5</ele>
        <time>2018-03-18T01:40:06Z</time>
      </trkpt>
      <trkpt lat="46.55326" lon="-1.8078">
        <ele>5</ele>
        <time>2018-03-18T01:41:06Z</time>
      </trkpt>
      <trkpt lat="46.55335" lon="-1.80791">
        <ele>5</ele>
        <time>2018-03-18T01:42:06Z</time>
      </trkpt>
      <trkpt lat="46.55338" lon="-1.80794">
        <ele>5</ele>
        <time>2018-03-18T01:43:06Z</time>
      </trkpt>
      <trkpt lat="46.55352" lon="-1.80813">
        <ele>4</ele>
        <time>2018-03-18T01:44:06Z</time>
      </trkpt>
      <trkpt lat="46.55362" lon="-1.80828">
        <ele>4</ele>
        <time>2018-03-18T01:45:06Z</time>
      </trkpt>
      <trkpt lat="46.55371" lon="-1.80844">
        <ele>4</ele>
        <time>2018-03-18T01:46:06Z</time>
      </trkpt>
      <trkpt lat="46.55376" lon="-1.80853">
        <ele>5</ele>
        <time>2018-03-18T01:47:06Z</time>
      </trkpt>
      <trkpt lat="46.55382" lon="-1.80865">
        <ele>5</ele>
        <time>2018-03-18T01:48:06Z</time>
      </trkpt>
      <trkpt lat="46.55387" lon="-1.80877">
        <ele>5</ele>
        <time>2018-03-18T01:49:06Z</time>
      </trkpt>
      <trkpt lat="46.5539" lon="-1.80885">
        <ele>5</ele>
        <time>2018-03-18T01:50:06Z</time>
      </trkpt>
      <trkpt lat="46.55399" lon="-1.80908">
        <ele>5</ele>
        <time>2018-03-18T01:51:06Z</time>
      </trkpt>
      <trkpt lat="46.554" lon="-1.80911">
        <ele>5</ele>
        <time>2018-03-18T01:52:06Z</time>
      </trkpt>
      <trkpt lat="46.55404" lon="-1.80923">
        <ele>5</ele>
        <time>2018-03-18T01:53:06Z</time>
      </trkpt>
      <trkpt lat="46.5541" lon="-1.80942">
        <ele>5</ele>
        <time>2018-03-18T01:54:06Z</time>
      </trkpt>
      <trkpt lat="46.55416" lon="-1.80962">
        <ele>6</ele>
        <time>2018-03-18T01:55:06Z</time>
      </trkpt>
      <trkpt lat="46.5542" lon="-1.80974">
        <ele>6</ele>
        <time>2018-03-18T01:56:06Z</time>
      </trkpt>
      <trkpt lat="46.55425" lon="-1.80985">
        <ele>6</ele>
        <time>2018-03-18T01:57:06Z</time>
      </trkpt>
      <trkpt lat="46.55428" lon="-1.80992">
        <ele>6</ele>
        <time>2018-03-18T01:58:06Z</time>
      </trkpt>
      <trkpt lat="46.55432" lon="-1.80998">
        <ele>6</ele>
        <time>2018-03-18T01:59:06Z</time>
      </trkpt>
      <trkpt lat="46.55434" lon="-1.81003">
        <ele>6</ele>
        <time>2018-03-18T02:00:06Z</time>
      </trkpt>
      <trkpt lat="46.55441" lon="-1.81013">
        <ele>6</ele>
        <time>2018-03-18T02:01:06Z</time>
      </trkpt>
      <trkpt lat="46.55452" lon="-1.81026">
        <ele>6</ele>
        <time>2018-03-18T02:02:06Z</time>
      </trkpt>
      <trkpt lat="46.55459" lon="-1.81033">
        <ele>6</ele>
        <time>2018-03-18T02:03:06Z</time>
      </trkpt>
      <trkpt lat="46.55467" lon="-1.81039">
        <ele>6</ele>
        <time>2018-03-18T02:04:06Z</time>
      </trkpt>
      <trkpt lat="46.55474" lon="-1.81043">
        <ele>6</ele>
        <time>2018-03-18T02:05:06Z</time>
      </trkpt>
      <trkpt lat="46.55496" lon="-1.81054">
        <ele>6</ele>
        <time>2018-03-18T02:06:06Z</time>
      </trkpt>
      <trkpt lat="46.55515" lon="-1.81062">
        <ele>6</ele>
        <time>2018-03-18T02:07:06Z</time>
      </trkpt>
      <trkpt lat="46.55527" lon="-1.81068">
        <ele>6</ele>
        <time>2018-03-18T02:08:06Z</time>
      </trkpt>
      <trkpt lat="46.55543" lon="-1.81075">
        <ele>6</ele>
        <time>2018-03-18T02:09:06Z</time>
      </trkpt>
      <trkpt lat="46.55573" lon="-1.81088">
        <ele>5</ele>
        <time>2018-03-18T02:10:06Z</time>
      </trkpt>
      <trkpt lat="46.55589" lon="-1.81095">
        <ele>5</ele>
        <time>2018-03-18T02:11:06Z</time>
      </trkpt>
      <trkpt lat="46.55596" lon="-1.81096">
        <ele>6</ele>
        <time>2018-03-18T02:12:06Z</time>
      </trkpt>
      <trkpt lat="46.55608" lon="-1.81101">
        <ele>6</ele>
        <time>2018-03-18T02:13:06Z</time>
      </trkpt>
      <trkpt lat="46.55635" lon="-1.81111">
        <ele>7</ele>
        <time>2018-03-18T02:14:06Z</time>
      </trkpt>
      <trkpt lat="46.55637" lon="-1.81112">
        <ele>7</ele>
        <time>2018-03-18T02:15:06Z</time>
      </trkpt>
      <trkpt lat="46.55649" lon="-1.81118">
        <ele>8</ele>
        <time>2018-03-18T02:16:06Z</time>
      </trkpt>
      <trkpt lat="46.55658" lon="-1.81122">
        <ele>9</ele>
        <time>2018-03-18T02:17:06Z</time>
      </trkpt>
      <trkpt lat="46.55665" lon="-1.81126">
        <ele>9</ele>
        <time>2018-03-18T02:18:06Z</time>
      </trkpt>
      <trkpt lat="46.55676" lon="-1.81131">
        <ele>9</ele>
        <time>2018-03-18T02:19:06Z</time>
      </trkpt>
      <trkpt lat="46.55682" lon="-1.81134">
        <ele>10</ele>
        <time>2018-03-18T02:20:06Z</time>
      </trkpt>
      <trkpt lat="46.55688" lon="-1.81138">
        <ele>10</ele>
        <time>2018-03-18T02:21:06Z</time>
      </trkpt>
      <trkpt lat="46.55707" lon="-1.81147">
        <ele>11</ele>
        <time>2018-03-18T02:22:06Z</time>
      </trkpt>
      <trkpt lat="46.55722" lon="-1.81154">
        <ele>12</ele>
        <time>2018-03-18T02:23:06Z</time>
      </trkpt>
      <trkpt lat="46.55727" lon="-1.81156">
        <ele>12</ele>
        <time>2018-03-18T02:24:06Z</time>
      </trkpt>
      <trkpt lat="46.55731" lon="-1.81156">
        <ele>12</ele>
        <time>2018-03-18T02:25:06Z</time>
      </trkpt>
      <trkpt lat="46.55734" lon="-1.81156">
        <ele>12</ele>
        <time>2018-03-18T02:26:06Z</time>
      </trkpt>
      <trkpt lat="46.55738" lon="-1.81155">
        <ele>12</ele>
        <time>2018-03-18T02:27:06Z</time>
      </trkpt>
      <trkpt lat="46.55742" lon="-1.81153">
        <ele>12</ele>
        <time>2018-03-18T02:28:06Z</time>
      </trkpt>
      <trkpt lat="46.55746" lon="-1.8115">
        <ele>12</ele>
        <time>2018-03-18T02:29:06Z</time>
      </trkpt>
      <trkpt lat="46.55751" lon="-1.81145">
        <ele>13</ele>
        <time>2018-03-18T02:30:06Z</time>
      </trkpt>
      <trkpt lat="46.55757" lon="-1.81139">
        <ele>13</ele>
        <time>2018-03-18T02:31:06Z</time>
      </trkpt>
      <trkpt lat="46.55762" lon="-1.81132">
        <ele>13</ele>
        <time>2018-03-18T02:32:06Z</time>
      </trkpt>
      <trkpt lat="46.55767" lon="-1.81124">
        <ele>13</ele>
        <time>2018-03-18T02:33:06Z</time>
      </trkpt>
      <trkpt lat="46.55785" lon="-1.81096">
        <ele>13</ele>
        <time>2018-03-18T02:34:06Z</time>
      </trkpt>
      <trkpt lat="46.55803" lon="-1.81067">
        <ele>13</ele>
        <time>2018-03-18T02:35:06Z</time>
      </trkpt>
      <trkpt lat="46.55826" lon="-1.81029">
        <ele>12</ele>
        <time>2018-03-18T02:36:06Z</time>
      </trkpt>
      <trkpt lat="46.55842" lon="-1.81011">
        <ele>12</ele>
        <time>2018-03-18T02:37:06Z</time>
      </trkpt>
      <trkpt lat="46.55847" lon="-1.81005">
        <ele>12</ele>
        <time>2018-03-18T02:38:06Z</time>
      </trkpt>
      <trkpt lat="46.55853" lon="-1.81002">
        <ele>12</ele>
        <time>2018-03-18T02:39:06Z</time>
      </trkpt>
      <trkpt lat="46.5586" lon="-1.80999">
        <ele>11</ele>
        <time>2018-03-18T02:40:06Z</time>
      </trkpt>
      <trkpt lat="46.55868" lon="-1.80996">
        <ele>11</ele>
        <time>2018-03-18T02:41:06Z</time>
      </trkpt>
      <trkpt lat="46.55875" lon="-1.80995">
        <ele>11</ele>
        <time>2018-03-18T02:42:06Z</time>
      </trkpt>
      <trkpt lat="46.55883" lon="-1.80996">
        <ele>11</ele>
        <time>2018-03-18T02:43:06Z</time>
      </trkpt>
      <trkpt lat="46.55891" lon="-1.80997">
        <ele>10</ele>
        <time>2018-03-18T02:44:06Z</time>
      </trkpt>
      <trkpt lat="46.55898" lon="-1.80999">
        <ele>10</ele>
        <time>2018-03-18T02:45:06Z</time>
      </trkpt>
      <trkpt lat="46.55903" lon="-1.81003">
        <ele>11</ele>
        <time>2018-03-18T02:46:06Z</time>
      </trkpt>
      <trkpt lat="46.55915" lon="-1.81015">
        <ele>11</ele>
        <time>2018-03-18T02:47:06Z</time>
      </trkpt>
      <trkpt lat="46.55932" lon="-1.81034">
        <ele>12</ele>
        <time>2018-03-18T02:48:06Z</time>
      </trkpt>
      <trkpt lat="46.55959" lon="-1.81063">
        <ele>13</ele>
        <time>2018-03-18T02:49:06Z</time>
      </trkpt>
      <trkpt lat="46.56052" lon="-1.81165">
        <ele>14</ele>
        <time>2018-03-18T02:50:06Z</time>
      </trkpt>
      <trkpt lat="46.56073" lon="-1.81192">
        <ele>14</ele>
        <time>2018-03-18T02:51:06Z</time>
      </trkpt>
      <trkpt lat="46.56142" lon="-1.81277">
        <ele>19</ele>
        <time>2018-03-18T02:52:06Z</time>
      </trkpt>
      <trkpt lat="46.56163" lon="-1.81304">
        <ele>20</ele>
        <time>2018-03-18T02:53:06Z</time>
      </trkpt>
      <trkpt lat="46.56197" lon="-1.8135">
        <ele>20</ele>
        <time>2018-03-18T02:54:06Z</time>
      </trkpt>
      <trkpt lat="46.56218" lon="-1.81378">
        <ele>19</ele>
        <time>2018-03-18T02:55:06Z</time>
      </trkpt>
      <trkpt lat="46.56228" lon="-1.81392">
        <ele>19</ele>
        <time>2018-03-18T02:56:06Z</time>
      </trkpt>
      <trkpt lat="46.56238" lon="-1.81405">
        <ele>19</ele>
        <time>2018-03-18T02:57:06Z</time>
      </trkpt>
      <trkpt lat="46.56247" lon="-1.81417">
        <ele>18</ele>
        <time>2018-03-18T02:58:06Z</time>
      </trkpt>
      <trkpt lat="46.56258" lon="-1.81431">
        <ele>18</ele>
        <time>2018-03-18T02:59:06Z</time>
      </trkpt>
      <trkpt lat="46.56267" lon="-1.81441">
        <ele>18</ele>
        <time>2018-03-18T03:00:06Z</time>
      </trkpt>
      <trkpt lat="46.56276" lon="-1.8145">
        <ele>17</ele>
        <time>2018-03-18T03:01:06Z</time>
      </trkpt>
      <trkpt lat="46.56287" lon="-1.81463">
        <ele>17</ele>
        <time>2018-03-18T03:02:06Z</time>
      </trkpt>
      <trkpt lat="46.56339" lon="-1.81516">
        <ele>14</ele>
        <time>2018-03-18T03:03:06Z</time>
      </trkpt>
      <trkpt lat="46.56384" lon="-1.8156">
        <ele>14</ele>
        <time>2018-03-18T03:04:06Z</time>
      </trkpt>
      <trkpt lat="46.56421" lon="-1.81598">
        <ele>13</ele>
        <time>2018-03-18T03:05:06Z</time>
      </trkpt>
      <trkpt lat="46.56436" lon="-1.81612">
        <ele>13</ele>
        <time>2018-03-18T03:06:06Z</time>
      </trkpt>
      <trkpt lat="46.56457" lon="-1.81632">
        <ele>13</ele>
        <time>2018-03-18T03:07:06Z</time>
      </trkpt>
      <trkpt lat="46.56475" lon="-1.8165">
        <ele>13</ele>
        <time>2018-03-18T03:08:06Z</time>
      </trkpt>
      <trkpt lat="46.56516" lon="-1.81693">
        <ele>14</ele>
        <time>2018-03-18T03:09:06Z</time>
      </trkpt>
      <trkpt lat="46.5658" lon="-1.8176">
        <ele>13</ele>
        <time>2018-03-18T03:10:06Z</time>
      </trkpt>
      <trkpt lat="46.5663" lon="-1.8181">
        <ele>16</ele>
        <time>2018-03-18T03:11:06Z</time>
      </trkpt>
      <trkpt lat="46.56651" lon="-1.8183">
        <ele>16</ele>
        <time>2018-03-18T03:12:06Z</time>
      </trkpt>
      <trkpt lat="46.56685" lon="-1.81861">
        <ele>15</ele>
        <time>2018-03-18T03:13:06Z</time>
      </trkpt>
      <trkpt lat="46.56741" lon="-1.81914">
        <ele>12</ele>
        <time>2018-03-18T03:14:06Z</time>
      </trkpt>
      <trkpt lat="46.56761" lon="-1.81932">
        <ele>11</ele>
        <time>2018-03-18T03:15:06Z</time>
      </trkpt>
      <trkpt lat="46.56783" lon="-1.81952">
        <ele>11</ele>
        <time>2018-03-18T03:16:06Z</time>
      </trkpt>
      <trkpt lat="46.5681" lon="-1.81976">
        <ele>12</ele>
        <time>2018-03-18T03:17:06Z</time>
      </trkpt>
      <trkpt lat="46.56833" lon="-1.81994">
        <ele>13</ele>
        <time>2018-03-18T03:18:06Z</time>
      </trkpt>
      <trkpt lat="46.56918" lon="-1.82046">
        <ele>12</ele>
        <time>2018-03-18T03:19:06Z</time>
      </trkpt>
      <trkpt lat="46.56995" lon="-1.82105">
        <ele>10</ele>
        <time>2018-03-18T03:20:06Z</time>
      </trkpt>
      <trkpt lat="46.5701" lon="-1.82118">
        <ele>10</ele>
        <time>2018-03-18T03:21:06Z</time>
      </trkpt>
      <trkpt lat="46.57032" lon="-1.82138">
        <ele>10</ele>
        <time>2018-03-18T03:22:06Z</time>
      </trkpt>
      <trkpt lat="46.57081" lon="-1.82179">
        <ele>9</ele>
        <time>2018-03-18T03:23:06Z</time>
      </trkpt>
      <trkpt lat="46.57116" lon="-1.82209">
        <ele>11</ele>
        <time>2018-03-18T03:24:06Z</time>
      </trkpt>
      <trkpt lat="46.57145" lon="-1.82234">
        <ele>12</ele>
        <time>2018-03-18T03:25:06Z</time>
      </trkpt>
      <trkpt lat="46.57167" lon="-1.82252">
        <ele>12</ele>
        <time>2018-03-18T03:26:06Z</time>
      </trkpt>
      <trkpt lat="46.57182" lon="-1.82265">
        <ele>12</ele>
        <time>2018-03-18T03:27:06Z</time>
      </trkpt>
      <trkpt lat="46.57207" lon="-1.82284">
        <ele>12</ele>
        <time>2018-03-18T03:28:06Z</time>
      </trkpt>
      <trkpt lat="46.57224" lon="-1.82297">
        <ele>12</ele>
        <time>2018-03-18T03:29:06Z</time>
      </trkpt>
      <trkpt lat="46.57242" lon="-1.82306">
        <ele>12</ele>
        <time>2018-03-18T03:30:06Z</time>
      </trkpt>
      <trkpt lat="46.57254" lon="-1.82311">
        <ele>12</ele>
        <time>2018-03-18T03:31:06Z</time>
      </trkpt>
      <trkpt lat="46.57256" lon="-1.82312">
        <ele>12</ele>
        <time>2018-03-18T03:32:06Z</time>
      </trkpt>
      <trkpt lat="46.5727" lon="-1.82318">
        <ele>12</ele>
        <time>2018-03-18T03:33:06Z</time>
      </trkpt>
      <trkpt lat="46.57284" lon="-1.82322">
        <ele>12</ele>
        <time>2018-03-18T03:34:06Z</time>
      </trkpt>
      <trkpt lat="46.57301" lon="-1.82325">
        <ele>12</ele>
        <time>2018-03-18T03:35:06Z</time>
      </trkpt>
      <trkpt lat="46.57315" lon="-1.82327">
        <ele>13</ele>
        <time>2018-03-18T03:36:06Z</time>
      </trkpt>
      <trkpt lat="46.5733" lon="-1.82327">
        <ele>13</ele>
        <time>2018-03-18T03:37:06Z</time>
      </trkpt>
      <trkpt lat="46.57347" lon="-1.82326">
        <ele>13</ele>
        <time>2018-03-18T03:38:06Z</time>
      </trkpt>
      <trkpt lat="46.57364" lon="-1.82325">
        <ele>13</ele>
        <time>2018-03-18T03:39:06Z</time>
      </trkpt>
      <trkpt lat="46.57385" lon="-1.82323">
        <ele>13</ele>
        <time>2018-03-18T03:40:06Z</time>
      </trkpt>
      <trkpt lat="46.57385" lon="-1.82323">
        <ele>13</ele>
        <time>2018-03-18T03:41:06Z</time>
      </trkpt>
      <trkpt lat="46.57416" lon="-1.8232">
        <ele>13</ele>
        <time>2018-03-18T03:42:06Z</time>
      </trkpt>
      <trkpt lat="46.57491" lon="-1.82313">
        <ele>13</ele>
        <time>2018-03-18T03:43:06Z</time>
      </trkpt>
      <trkpt lat="46.5756" lon="-1.82306">
        <ele>13</ele>
        <time>2018-03-18T03:44:06Z</time>
      </trkpt>
      <trkpt lat="46.57582" lon="-1.82304">
        <ele>13</ele>
        <time>2018-03-18T03:45:06Z</time>
      </trkpt>
      <trkpt lat="46.57618" lon="-1.82301">
        <ele>12</ele>
        <time>2018-03-18T03:46:06Z</time>
      </trkpt>
      <trkpt lat="46.57625" lon="-1.82301">
        <ele>12</ele>
        <time>2018-03-18T03:47:06Z</time>
      </trkpt>
      <trkpt lat="46.5763" lon="-1.823">
        <ele>12</ele>
        <time>2018-03-18T03:48:06Z</time>
      </trkpt>
      <trkpt lat="46.57631" lon="-1.823">
        <ele>12</ele>
        <time>2018-03-18T03:49:06Z</time>
      </trkpt>
      <trkpt lat="46.57636" lon="-1.82299">
        <ele>12</ele>
        <time>2018-03-18T03:50:06Z</time>
      </trkpt>
      <trkpt lat="46.57687" lon="-1.82294">
        <ele>11</ele>
        <time>2018-03-18T03:51:06Z</time>
      </trkpt>
      <trkpt lat="46.57726" lon="-1.82291">
        <ele>10</ele>
        <time>2018-03-18T03:52:06Z</time>
      </trkpt>
      <trkpt lat="46.57736" lon="-1.8229">
        <ele>10</ele>
        <time>2018-03-18T03:53:06Z</time>
      </trkpt>
      <trkpt lat="46.57752" lon="-1.8229">
        <ele>10</ele>
        <time>2018-03-18T03:54:06Z</time>
      </trkpt>
      <trkpt lat="46.57776" lon="-1.8229">
        <ele>10</ele>
        <time>2018-03-18T03:55:06Z</time>
      </trkpt>
      <trkpt lat="46.57793" lon="-1.82291">
        <ele>10</ele>
        <time>2018-03-18T03:56:06Z</time>
      </trkpt>
      <trkpt lat="46.57807" lon="-1.82293">
        <ele>10</ele>
        <time>2018-03-18T03:57:06Z</time>
      </trkpt>
      <trkpt lat="46.57825" lon="-1.82295">
        <ele>10</ele>
        <time>2018-03-18T03:58:06Z</time>
      </trkpt>
      <trkpt lat="46.57846" lon="-1.82299">
        <ele>10</ele>
        <time>2018-03-18T03:59:06Z</time>
      </trkpt>
      <trkpt lat="46.57868" lon="-1.82304">
        <ele>11</ele>
        <time>2018-03-18T04:00:06Z</time>
      </trkpt>
      <trkpt lat="46.57889" lon="-1.82311">
        <ele>11</ele>
        <time>2018-03-18T04:01:06Z</time>
      </trkpt>
      <trkpt lat="46.57913" lon="-1.82317">
        <ele>11</ele>
        <time>2018-03-18T04:02:06Z</time>
      </trkpt>
      <trkpt lat="46.57932" lon="-1.82322">
        <ele>11</ele>
        <time>2018-03-18T04:03:06Z</time>
      </trkpt>
      <trkpt lat="46.57969" lon="-1.82334">
        <ele>10</ele>
        <time>2018-03-18T04:04:06Z</time>
      </trkpt>
      <trkpt lat="46.58021" lon="-1.82352">
        <ele>10</ele>
        <time>2018-03-18T04:05:06Z</time>
      </trkpt>
      <trkpt lat="46.58066" lon="-1.82367">
        <ele>11</ele>
        <time>2018-03-18T04:06:06Z</time>
      </trkpt>
      <trkpt lat="46.58096" lon="-1.82377">
        <ele>12</ele>
        <time>2018-03-18T04:07:06Z</time>
      </trkpt>
      <trkpt lat="46.58114" lon="-1.82384">
        <ele>12</ele>
        <time>2018-03-18T04:08:06Z</time>
      </trkpt>
      <trkpt lat="46.5813" lon="-1.8239">
        <ele>12</ele>
        <time>2018-03-18T04:09:06Z</time>
      </trkpt>
      <trkpt lat="46.58144" lon="-1.82394">
        <ele>12</ele>
        <time>2018-03-18T04:10:06Z</time>
      </trkpt>
      <trkpt lat="46.58154" lon="-1.824">
        <ele>12</ele>
        <time>2018-03-18T04:11:06Z</time>
      </trkpt>
      <trkpt lat="46.58164" lon="-1.82406">
        <ele>12</ele>
        <time>2018-03-18T04:12:06Z</time>
      </trkpt>
      <trkpt lat="46.58176" lon="-1.82414">
        <ele>11</ele>
        <time>2018-03-18T04:13:06Z</time>
      </trkpt>
      <trkpt lat="46.58189" lon="-1.82426">
        <ele>11</ele>
        <time>2018-03-18T04:14:06Z</time>
      </trkpt>
      <trkpt lat="46.58206" lon="-1.82442">
        <ele>10</ele>
        <time>2018-03-18T04:15:06Z</time>
      </trkpt>
      <trkpt lat="46.58232" lon="-1.82473">
        <ele>9</ele>
        <time>2018-03-18T04:16:06Z</time>
      </trkpt>
      <trkpt lat="46.58249" lon="-1.82493">
        <ele>9</ele>
        <time>2018-03-18T04:17:06Z</time>
      </trkpt>
      <trkpt lat="46.5829" lon="-1.82541">
        <ele>8</ele>
        <time>2018-03-18T04:18:06Z</time>
      </trkpt>
      <trkpt lat="46.58323" lon="-1.82579">
        <ele>8</ele>
        <time>2018-03-18T04:19:06Z</time>
      </trkpt>
      <trkpt lat="46.58352" lon="-1.82614">
        <ele>7</ele>
        <time>2018-03-18T04:20:06Z</time>
      </trkpt>
      <trkpt lat="46.58374" lon="-1.82637">
        <ele>7</ele>
        <time>2018-03-18T04:21:06Z</time>
      </trkpt>
      <trkpt lat="46.58393" lon="-1.8266">
        <ele>6</ele>
        <time>2018-03-18T04:22:06Z</time>
      </trkpt>
      <trkpt lat="46.58401" lon="-1.82665">
        <ele>6</ele>
        <time>2018-03-18T04:23:06Z</time>
      </trkpt>
      <trkpt lat="46.58411" lon="-1.82673">
        <ele>5</ele>
        <time>2018-03-18T04:24:06Z</time>
      </trkpt>
      <trkpt lat="46.58415" lon="-1.82676">
        <ele>5</ele>
        <time>2018-03-18T04:25:06Z</time>
      </trkpt>
      <trkpt lat="46.58425" lon="-1.82687">
        <ele>6</ele>
        <time>2018-03-18T04:26:06Z</time>
      </trkpt>
      <trkpt lat="46.58442" lon="-1.82705">
        <ele>6</ele>
        <time>2018-03-18T04:27:06Z</time>
      </trkpt>
      <trkpt lat="46.5846" lon="-1.82719">
        <ele>7</ele>
        <time>2018-03-18T04:28:06Z</time>
      </trkpt>
      <trkpt lat="46.58474" lon="-1.82729">
        <ele>7</ele>
        <time>2018-03-18T04:29:06Z</time>
      </trkpt>
      <trkpt lat="46.58498" lon="-1.82744">
        <ele>7</ele>
        <time>2018-03-18T04:30:06Z</time>
      </trkpt>
      <trkpt lat="46.58518" lon="-1.82757">
        <ele>7</ele>
        <time>2018-03-18T04:31:06Z</time>
      </trkpt>
      <trkpt lat="46.58559" lon="-1.82781">
        <ele>8</ele>
        <time>2018-03-18T04:32:06Z</time>
      </trkpt>
      <trkpt lat="46.5857" lon="-1.82786">
        <ele>8</ele>
        <time>2018-03-18T04:33:06Z</time>
      </trkpt>
      <trkpt lat="46.58575" lon="-1.82789">
        <ele>8</ele>
        <time>2018-03-18T04:34:06Z</time>
      </trkpt>
      <trkpt lat="46.58597" lon="-1.82804">
        <ele>8</ele>
        <time>2018-03-18T04:35:06Z</time>
      </trkpt>
      <trkpt lat="46.58619" lon="-1.82815">
        <ele>7</ele>
        <time>2018-03-18T04:36:06Z</time>
      </trkpt>
      <trkpt lat="46.58642" lon="-1.82827">
        <ele>7</ele>
        <time>2018-03-18T04:37:06Z</time>
      </trkpt>
      <trkpt lat="46.58666" lon="-1.82837">
        <ele>6</ele>
        <time>2018-03-18T04:38:06Z</time>
      </trkpt>
      <trkpt lat="46.58691" lon="-1.82847">
        <ele>6</ele>
        <time>2018-03-18T04:39:06Z</time>
      </trkpt>
      <trkpt lat="46.58691" lon="-1.82847">
        <ele>6</ele>
        <time>2018-03-18T04:40:06Z</time>
      </trkpt>
      <trkpt lat="46.58699" lon="-1.82854">
        <ele>6</ele>
        <time>2018-03-18T04:41:06Z</time>
      </trkpt>
      <trkpt lat="46.58705" lon="-1.82864">
        <ele>6</ele>
        <time>2018-03-18T04:42:06Z</time>
      </trkpt>
      <trkpt lat="46.58709" lon="-1.82875">
        <ele>6</ele>
        <time>2018-03-18T04:43:06Z</time>
      </trkpt>
      <trkpt lat="46.5871" lon="-1.82884">
        <ele>7</ele>
        <time>2018-03-18T04:44:06Z</time>
      </trkpt>
      <trkpt lat="46.58709" lon="-1.829">
        <ele>8</ele>
        <time>2018-03-18T04:45:06Z</time>
      </trkpt>
      <trkpt lat="46.58701" lon="-1.82913">
        <ele>9</ele>
        <time>2018-03-18T04:46:06Z</time>
      </trkpt>
      <trkpt lat="46.58701" lon="-1.82913">
        <ele>9</ele>
        <time>2018-03-18T04:47:06Z</time>
      </trkpt>
      <trkpt lat="46.58698" lon="-1.82922">
        <ele>10</ele>
        <time>2018-03-18T04:48:06Z</time>
      </trkpt>
      <trkpt lat="46.58697" lon="-1.82928">
        <ele>10</ele>
        <time>2018-03-18T04:49:06Z</time>
      </trkpt>
      <trkpt lat="46.58697" lon="-1.82934">
        <ele>11</ele>
        <time>2018-03-18T04:50:06Z</time>
      </trkpt>
      <trkpt lat="46.58698" lon="-1.8294">
        <ele>11</ele>
        <time>2018-03-18T04:51:06Z</time>
      </trkpt>
      <trkpt lat="46.58701" lon="-1.8295">
        <ele>11</ele>
        <time>2018-03-18T04:52:06Z</time>
      </trkpt>
      <trkpt lat="46.5871" lon="-1.82964">
        <ele>10</ele>
        <time>2018-03-18T04:53:06Z</time>
      </trkpt>
      <trkpt lat="46.58725" lon="-1.8299">
        <ele>9</ele>
        <time>2018-03-18T04:54:06Z</time>
      </trkpt>
      <trkpt lat="46.58742" lon="-1.83022">
        <ele>8</ele>
        <time>2018-03-18T04:55:06Z</time>
      </trkpt>
      <trkpt lat="46.58759" lon="-1.83057">
        <ele>7</ele>
        <time>2018-03-18T04:56:06Z</time>
      </trkpt>
      <trkpt lat="46.58772" lon="-1.83083">
        <ele>6</ele>
        <time>2018-03-18T04:57:06Z</time>
      </trkpt>
      <trkpt lat="46.58783" lon="-1.83109">
        <ele>6</ele>
        <time>2018-03-18T04:58:06Z</time>
      </trkpt>
      <trkpt lat="46.58793" lon="-1.83129">
        <ele>7</ele>
        <time>2018-03-18T04:59:06Z</time>
      </trkpt>
      <trkpt lat="46.58802" lon="-1.83149">
        <ele>7</ele>
        <time>2018-03-18T05:00:06Z</time>
      </trkpt>
      <trkpt lat="46.58808" lon="-1.83158">
        <ele>7</ele>
        <time>2018-03-18T05:01:06Z</time>
      </trkpt>
      <trkpt lat="46.58817" lon="-1.83173">
        <ele>7</ele>
        <time>2018-03-18T05:02:06Z</time>
      </trkpt>
      <trkpt lat="46.58829" lon="-1.83184">
        <ele>7</ele>
        <time>2018-03-18T05:03:06Z</time>
      </trkpt>
      <trkpt lat="46.58838" lon="-1.83193">
        <ele>8</ele>
        <time>2018-03-18T05:04:06Z</time>
      </trkpt>
      <trkpt lat="46.58849" lon="-1.83199">
        <ele>8</ele>
        <time>2018-03-18T05:05:06Z</time>
      </trkpt>
      <trkpt lat="46.58877" lon="-1.83211">
        <ele>9</ele>
        <time>2018-03-18T05:06:06Z</time>
      </trkpt>
      <trkpt lat="46.58882" lon="-1.83213">
        <ele>10</ele>
        <time>2018-03-18T05:07:06Z</time>
      </trkpt>
      <trkpt lat="46.58924" lon="-1.83227">
        <ele>10</ele>
        <time>2018-03-18T05:08:06Z</time>
      </trkpt>
      <trkpt lat="46.58982" lon="-1.83247">
        <ele>9</ele>
        <time>2018-03-18T05:09:06Z</time>
      </trkpt>
      <trkpt lat="46.59026" lon="-1.83261">
        <ele>9</ele>
        <time>2018-03-18T05:10:06Z</time>
      </trkpt>
      <trkpt lat="46.59038" lon="-1.83265">
        <ele>8</ele>
        <time>2018-03-18T05:11:06Z</time>
      </trkpt>
      <trkpt lat="46.59104" lon="-1.83289">
        <ele>6</ele>
        <time>2018-03-18T05:12:06Z</time>
      </trkpt>
      <trkpt lat="46.59152" lon="-1.83305">
        <ele>4</ele>
        <time>2018-03-18T05:13:06Z</time>
      </trkpt>
      <trkpt lat="46.59167" lon="-1.8331">
        <ele>4</ele>
        <time>2018-03-18T05:14:06Z</time>
      </trkpt>
      <trkpt lat="46.5918" lon="-1.83315">
        <ele>3</ele>
        <time>2018-03-18T05:15:06Z</time>
      </trkpt>
      <trkpt lat="46.59183" lon="-1.83316">
        <ele>3</ele>
        <time>2018-03-18T05:16:06Z</time>
      </trkpt>
      <trkpt lat="46.59197" lon="-1.8332">
        <ele>3</ele>
        <time>2018-03-18T05:17:06Z</time>
      </trkpt>
      <trkpt lat="46.592" lon="-1.8332">
        <ele>3</ele>
        <time>2018-03-18T05:18:06Z</time>
      </trkpt>
      <trkpt lat="46.59208" lon="-1.83322">
        <ele>3</ele>
        <time>2018-03-18T05:19:06Z</time>
      </trkpt>
      <trkpt lat="46.59218" lon="-1.83322">
        <ele>2</ele>
        <time>2018-03-18T05:20:06Z</time>
      </trkpt>
      <trkpt lat="46.59227" lon="-1.83323">
        <ele>2</ele>
        <time>2018-03-18T05:21:06Z</time>
      </trkpt>
      <trkpt lat="46.59239" lon="-1.83321">
        <ele>2</ele>
        <time>2018-03-18T05:22:06Z</time>
      </trkpt>
      <trkpt lat="46.5925" lon="-1.83319">
        <ele>2</ele>
        <time>2018-03-18T05:23:06Z</time>
      </trkpt>
      <trkpt lat="46.5926" lon="-1.83318">
        <ele>2</ele>
        <time>2018-03-18T05:24:06Z</time>
      </trkpt>
      <trkpt lat="46.59273" lon="-1.83318">
        <ele>2</ele>
        <time>2018-03-18T05:25:06Z</time>
      </trkpt>
      <trkpt lat="46.59287" lon="-1.83319">
        <ele>2</ele>
        <time>2018-03-18T05:26:06Z</time>
      </trkpt>
      <trkpt lat="46.59305" lon="-1.83323">
        <ele>2</ele>
        <time>2018-03-18T05:27:06Z</time>
      </trkpt>
      <trkpt lat="46.59325" lon="-1.8333">
        <ele>2</ele>
        <time>2018-03-18T05:28:06Z</time>
      </trkpt>
      <trkpt lat="46.59343" lon="-1.83336">
        <ele>2</ele>
        <time>2018-03-18T05:29:06Z</time>
      </trkpt>
      <trkpt lat="46.59357" lon="-1.83342">
        <ele>2</ele>
        <time>2018-03-18T05:30:06Z</time>
      </trkpt>
      <trkpt lat="46.59373" lon="-1.8335">
        <ele>2</ele>
        <time>2018-03-18T05:31:06Z</time>
      </trkpt>
      <trkpt lat="46.59382" lon="-1.83355">
        <ele>2</ele>
        <time>2018-03-18T05:32:06Z</time>
      </trkpt>
      <trkpt lat="46.59394" lon="-1.83361">
        <ele>2</ele>
        <time>2018-03-18T05:33:06Z</time>
      </trkpt>
      <trkpt lat="46.59404" lon="-1.83368">
        <ele>2</ele>
        <time>2018-03-18T05:34:06Z</time>
      </trkpt>
      <trkpt lat="46.59415" lon="-1.83374">
        <ele>2</ele>
        <time>2018-03-18T05:35:06Z</time>
      </trkpt>
      <trkpt lat="46.59425" lon="-1.83376">
        <ele>2</ele>
        <time>2018-03-18T05:36:06Z</time>
      </trkpt>
      <trkpt lat="46.59433" lon="-1.83375">
        <ele>2</ele>
        <time>2018-03-18T05:37:06Z</time>
      </trkpt>
      <trkpt lat="46.59439" lon="-1.83374">
        <ele>2</ele>
        <time>2018-03-18T05:38:06Z</time>
      </trkpt>
      <trkpt lat="46.59444" lon="-1.83371">
        <ele>2</ele>
        <time>2018-03-18T05:39:06Z</time>
      </trkpt>
      <trkpt lat="46.59444" lon="-1.8337">
        <ele>2</ele>
        <time>2018-03-18T05:40:06Z</time>
      </trkpt>
      <trkpt lat="46.5946" lon="-1.8336">
        <ele>2</ele>
        <time>2018-03-18T05:41:06Z</time>
      </trkpt>
      <trkpt lat="46.59481" lon="-1.83347">
        <ele>2</ele>
        <time>2018-03-18T05:42:06Z</time>
      </trkpt>
      <trkpt lat="46.59483" lon="-1.83345">
        <ele>3</ele>
        <time>2018-03-18T05:43:06Z</time>
      </trkpt>
      <trkpt lat="46.59489" lon="-1.83342">
        <ele>3</ele>
        <time>2018-03-18T05:44:06Z</time>
      </trkpt>
      <trkpt lat="46.59489" lon="-1.83342">
        <ele>3</ele>
        <time>2018-03-18T05:45:06Z</time>
      </trkpt>
      <trkpt lat="46.59518" lon="-1.83322">
        <ele>3</ele>
        <time>2018-03-18T05:46:06Z</time>
      </trkpt>
      <trkpt lat="46.59525" lon="-1.83318">
        <ele>3</ele>
        <time>2018-03-18T05:47:06Z</time>
      </trkpt>
      <trkpt lat="46.59527" lon="-1.83316">
        <ele>3</ele>
        <time>2018-03-18T05:48:06Z</time>
      </trkpt>
      <trkpt lat="46.59539" lon="-1.83311">
        <ele>4</ele>
        <time>2018-03-18T05:49:06Z</time>
      </trkpt>
      <trkpt lat="46.59573" lon="-1.83288">
        <ele>4</ele>
        <time>2018-03-18T05:50:06Z</time>
      </trkpt>
      <trkpt lat="46.59574" lon="-1.83287">
        <ele>4</ele>
        <time>2018-03-18T05:51:06Z</time>
      </trkpt>
      <trkpt lat="46.59628" lon="-1.83252">
        <ele>4</ele>
        <time>2018-03-18T05:52:06Z</time>
      </trkpt>
      <trkpt lat="46.59667" lon="-1.83226">
        <ele>4</ele>
        <time>2018-03-18T05:53:06Z</time>
      </trkpt>
      <trkpt lat="46.59696" lon="-1.83207">
        <ele>4</ele>
        <time>2018-03-18T05:54:06Z</time>
      </trkpt>
      <trkpt lat="46.59719" lon="-1.83192">
        <ele>4</ele>
        <time>2018-03-18T05:55:06Z</time>
      </trkpt>
      <trkpt lat="46.59733" lon="-1.83185">
        <ele>5</ele>
        <time>2018-03-18T05:56:06Z</time>
      </trkpt>
      <trkpt lat="46.59742" lon="-1.83179">
        <ele>5</ele>
        <time>2018-03-18T05:57:06Z</time>
      </trkpt>
      <trkpt lat="46.59759" lon="-1.83171">
        <ele>5</ele>
        <time>2018-03-18T05:58:06Z</time>
      </trkpt>
      <trkpt lat="46.59774" lon="-1.83162">
        <ele>5</ele>
        <time>2018-03-18T05:59:06Z</time>
      </trkpt>
      <trkpt lat="46.59777" lon="-1.83161">
        <ele>5</ele>
        <time>2018-03-18T06:00:06Z</time>
      </trkpt>
      <trkpt lat="46.59792" lon="-1.83152">
        <ele>5</ele>
        <time>2018-03-18T06:01:06Z</time>
      </trkpt>
      <trkpt lat="46.59806" lon="-1.83144">
        <ele>5</ele>
        <time>2018-03-18T06:02:06Z</time>
      </trkpt>
      <trkpt lat="46.59836" lon="-1.83129">
        <ele>6</ele>
        <time>2018-03-18T06:03:06Z</time>
      </trkpt>
      <trkpt lat="46.59864" lon="-1.83116">
        <ele>7</ele>
        <time>2018-03-18T06:04:06Z</time>
      </trkpt>
      <trkpt lat="46.59891" lon="-1.83106">
        <ele>8</ele>
        <time>2018-03-18T06:05:06Z</time>
      </trkpt>
      <trkpt lat="46.59914" lon="-1.83098">
        <ele>9</ele>
        <time>2018-03-18T06:06:06Z</time>
      </trkpt>
      <trkpt lat="46.59937" lon="-1.8309">
        <ele>9</ele>
        <time>2018-03-18T06:07:06Z</time>
      </trkpt>
      <trkpt lat="46.59961" lon="-1.83087">
        <ele>10</ele>
        <time>2018-03-18T06:08:06Z</time>
      </trkpt>
      <trkpt lat="46.59975" lon="-1.83086">
        <ele>10</ele>
        <time>2018-03-18T06:09:06Z</time>
      </trkpt>
      <trkpt lat="46.60002" lon="-1.83088">
        <ele>11</ele>
        <time>2018-03-18T06:10:06Z</time>
      </trkpt>
      <trkpt lat="46.60027" lon="-1.8309">
        <ele>12</ele>
        <time>2018-03-18T06:11:06Z</time>
      </trkpt>
      <trkpt lat="46.60038" lon="-1.83091">
        <ele>12</ele>
        <time>2018-03-18T06:12:06Z</time>
      </trkpt>
      <trkpt lat="46.60045" lon="-1.83092">
        <ele>12</ele>
        <time>2018-03-18T06:13:06Z</time>
      </trkpt>
      <trkpt lat="46.60078" lon="-1.83094">
        <ele>14</ele>
        <time>2018-03-18T06:14:06Z</time>
      </trkpt>
      <trkpt lat="46.60098" lon="-1.83094">
        <ele>14</ele>
        <time>2018-03-18T06:15:06Z</time>
      </trkpt>
      <trkpt lat="46.60116" lon="-1.83089">
        <ele>15</ele>
        <time>2018-03-18T06:16:06Z</time>
      </trkpt>
      <trkpt lat="46.60123" lon="-1.83087">
        <ele>15</ele>
        <time>2018-03-18T06:17:06Z</time>
      </trkpt>
      <trkpt lat="46.60137" lon="-1.83081">
        <ele>15</ele>
        <time>2018-03-18T06:18:06Z</time>
      </trkpt>
      <trkpt lat="46.60151" lon="-1.83073">
        <ele>16</ele>
        <time>2018-03-18T06:19:06Z</time>
      </trkpt>
      <trkpt lat="46.60164" lon="-1.83065">
        <ele>16</ele>
        <time>2018-03-18T06:20:06Z</time>
      </trkpt>
      <trkpt lat="46.60188" lon="-1.83048">
        <ele>17</ele>
        <time>2018-03-18T06:21:06Z</time>
      </trkpt>
      <trkpt lat="46.60213" lon="-1.83031">
        <ele>17</ele>
        <time>2018-03-18T06:22:06Z</time>
      </trkpt>
      <trkpt lat="46.6024" lon="-1.83014">
        <ele>17</ele>
        <time>2018-03-18T06:23:06Z</time>
      </trkpt>
      <trkpt lat="46.60251" lon="-1.83007">
        <ele>17</ele>
        <time>2018-03-18T06:24:06Z</time>
      </trkpt>
      <trkpt lat="46.60261" lon="-1.83003">
        <ele>17</ele>
        <time>2018-03-18T06:25:06Z</time>
      </trkpt>
      <trkpt lat="46.60268" lon="-1.83001">
        <ele>17</ele>
        <time>2018-03-18T06:26:06Z</time>
      </trkpt>
      <trkpt lat="46.6029" lon="-1.82997">
        <ele>18</ele>
        <time>2018-03-18T06:27:06Z</time>
      </trkpt>
      <trkpt lat="46.60303" lon="-1.82995">
        <ele>18</ele>
        <time>2018-03-18T06:28:06Z</time>
      </trkpt>
      <trkpt lat="46.60312" lon="-1.82994">
        <ele>18</ele>
        <time>2018-03-18T06:29:06Z</time>
      </trkpt>
      <trkpt lat="46.60319" lon="-1.82994">
        <ele>19</ele>
        <time>2018-03-18T06:30:06Z</time>
      </trkpt>
      <trkpt lat="46.60322" lon="-1.82995">
        <ele>19</ele>
        <time>2018-03-18T06:31:06Z</time>
      </trkpt>
      <trkpt lat="46.60335" lon="-1.82998">
        <ele>19</ele>
        <time>2018-03-18T06:32:06Z</time>
      </trkpt>
      <trkpt lat="46.60341" lon="-1.82994">
        <ele>19</ele>
        <time>2018-03-18T06:33:06Z</time>
      </trkpt>
      <trkpt lat="46.60347" lon="-1.82992">
        <ele>19</ele>
        <time>2018-03-18T06:34:06Z</time>
      </trkpt>
      <trkpt lat="46.60347" lon="-1.82992">
        <ele>19</ele>
        <time>2018-03-18T06:35:06Z</time>
      </trkpt>
      <trkpt lat="46.60347" lon="-1.82991">
        <ele>19</ele>
        <time>2018-03-18T06:36:06Z</time>
      </trkpt>
      <trkpt lat="46.60348" lon="-1.82991">
        <ele>19</ele>
        <time>2018-03-18T06:37:06Z</time>
      </trkpt>
      <trkpt lat="46.60348" lon="-1.8299">
        <ele>19</ele>
        <time>2018-03-18T06:38:06Z</time>
      </trkpt>
      <trkpt lat="46.60348" lon="-1.82989">
        <ele>19</ele>
        <time>2018-03-18T06:39:06Z</time>
      </trkpt>
      <trkpt lat="46.60348" lon="-1.82988">
        <ele>19</ele>
        <time>2018-03-18T06:40:06Z</time>
      </trkpt>
      <trkpt lat="46.60349" lon="-1.82988">
        <ele>19</ele>
        <time>2018-03-18T06:41:06Z</time>
      </trkpt>
      <trkpt lat="46.60349" lon="-1.82987">
        <ele>19</ele>
        <time>2018-03-18T06:42:06Z</time>
      </trkpt>
      <trkpt lat="46.60349" lon="-1.82986">
        <ele>19</ele>
        <time>2018-03-18T06:43:06Z</time>
      </trkpt>
      <trkpt lat="46.6035" lon="-1.82986">
        <ele>19</ele>
        <time>2018-03-18T06:44:06Z</time>
      </trkpt>
      <trkpt lat="46.6035" lon="-1.82985">
        <ele>19</ele>
        <time>2018-03-18T06:45:06Z</time>
      </trkpt>
      <trkpt lat="46.60351" lon="-1.82985">
        <ele>19</ele>
        <time>2018-03-18T06:46:06Z</time>
      </trkpt>
      <trkpt lat="46.60351" lon="-1.82984">
        <ele>19</ele>
        <time>2018-03-18T06:47:06Z</time>
      </trkpt>
      <trkpt lat="46.60352" lon="-1.82984">
        <ele>19</ele>
        <time>2018-03-18T06:48:06Z</time>
      </trkpt>
      <trkpt lat="46.60352" lon="-1.82983">
        <ele>19</ele>
        <time>2018-03-18T06:49:06Z</time>
      </trkpt>
      <trkpt lat="46.60353" lon="-1.82983">
        <ele>19</ele>
        <time>2018-03-18T06:50:06Z</time>
      </trkpt>
      <trkpt lat="46.60354" lon="-1.82982">
        <ele>19</ele>
        <time>2018-03-18T06:51:06Z</time>
      </trkpt>
      <trkpt lat="46.60355" lon="-1.82982">
        <ele>19</ele>
        <time>2018-03-18T06:52:06Z</time>
      </trkpt>
      <trkpt lat="46.60356" lon="-1.82982">
        <ele>19</ele>
        <time>2018-03-18T06:53:06Z</time>
      </trkpt>
      <trkpt lat="46.60357" lon="-1.82982">
        <ele>19</ele>
        <time>2018-03-18T06:54:06Z</time>
      </trkpt>
      <trkpt lat="46.60358" lon="-1.82982">
        <ele>19</ele>
        <time>2018-03-18T06:55:06Z</time>
      </trkpt>
      <trkpt lat="46.60358" lon="-1.82983">
        <ele>19</ele>
        <time>2018-03-18T06:56:06Z</time>
      </trkpt>
      <trkpt lat="46.60359" lon="-1.82983">
        <ele>19</ele>
        <time>2018-03-18T06:57:06Z</time>
      </trkpt>
      <trkpt lat="46.6036" lon="-1.82984">
        <ele>19</ele>
        <time>2018-03-18T06:58:06Z</time>
      </trkpt>
      <trkpt lat="46.60361" lon="-1.82985">
        <ele>19</ele>
        <time>2018-03-18T06:59:06Z</time>
      </trkpt>
      <trkpt lat="46.60362" lon="-1.82986">
        <ele>19</ele>
        <time>2018-03-18T07:00:06Z</time>
      </trkpt>
      <trkpt lat="46.60362" lon="-1.82987">
        <ele>19</ele>
        <time>2018-03-18T07:01:06Z</time>
      </trkpt>
      <trkpt lat="46.60363" lon="-1.82987">
        <ele>19</ele>
        <time>2018-03-18T07:02:06Z</time>
      </trkpt>
      <trkpt lat="46.60363" lon="-1.82988">
        <ele>19</ele>
        <time>2018-03-18T07:03:06Z</time>
      </trkpt>
      <trkpt lat="46.60363" lon="-1.82989">
        <ele>19</ele>
        <time>2018-03-18T07:04:06Z</time>
      </trkpt>
      <trkpt lat="46.60363" lon="-1.8299">
        <ele>19</ele>
        <time>2018-03-18T07:05:06Z</time>
      </trkpt>
      <trkpt lat="46.60364" lon="-1.8299">
        <ele>19</ele>
        <time>2018-03-18T07:06:06Z</time>
      </trkpt>
      <trkpt lat="46.60364" lon="-1.82991">
        <ele>19</ele>
        <time>2018-03-18T07:07:06Z</time>
      </trkpt>
      <trkpt lat="46.60364" lon="-1.82992">
        <ele>19</ele>
        <time>2018-03-18T07:08:06Z</time>
      </trkpt>
      <trkpt lat="46.60368" lon="-1.82998">
        <ele>19</ele>
        <time>2018-03-18T07:09:06Z</time>
      </trkpt>
      <trkpt lat="46.60373" lon="-1.83003">
        <ele>19</ele>
        <time>2018-03-18T07:10:06Z</time>
      </trkpt>
      <trkpt lat="46.60378" lon="-1.83006">
        <ele>19</ele>
        <time>2018-03-18T07:11:06Z</time>
      </trkpt>
      <trkpt lat="46.60396" lon="-1.83013">
        <ele>19</ele>
        <time>2018-03-18T07:12:06Z</time>
      </trkpt>
      <trkpt lat="46.60431" lon="-1.83024">
        <ele>20</ele>
        <time>2018-03-18T07:13:06Z</time>
      </trkpt>
      <trkpt lat="46.60438" lon="-1.83026">
        <ele>21</ele>
        <time>2018-03-18T07:14:06Z</time>
      </trkpt>
      <trkpt lat="46.60459" lon="-1.83032">
        <ele>22</ele>
        <time>2018-03-18T07:15:06Z</time>
      </trkpt>
      <trkpt lat="46.60464" lon="-1.83033">
        <ele>22</ele>
        <time>2018-03-18T07:16:06Z</time>
      </trkpt>
      <trkpt lat="46.60473" lon="-1.83033">
        <ele>22</ele>
        <time>2018-03-18T07:17:06Z</time>
      </trkpt>
      <trkpt lat="46.60486" lon="-1.83031">
        <ele>23</ele>
        <time>2018-03-18T07:18:06Z</time>
      </trkpt>
      <trkpt lat="46.60498" lon="-1.8303">
        <ele>24</ele>
        <time>2018-03-18T07:19:06Z</time>
      </trkpt>
      <trkpt lat="46.60505" lon="-1.83029">
        <ele>24</ele>
        <time>2018-03-18T07:20:06Z</time>
      </trkpt>
      <trkpt lat="46.60509" lon="-1.83028">
        <ele>24</ele>
        <time>2018-03-18T07:21:06Z</time>
      </trkpt>
      <trkpt lat="46.60521" lon="-1.83027">
        <ele>25</ele>
        <time>2018-03-18T07:22:06Z</time>
      </trkpt>
      <trkpt lat="46.60532" lon="-1.83029">
        <ele>25</ele>
        <time>2018-03-18T07:23:06Z</time>
      </trkpt>
      <trkpt lat="46.60537" lon="-1.83031">
        <ele>25</ele>
        <time>2018-03-18T07:24:06Z</time>
      </trkpt>
      <trkpt lat="46.60541" lon="-1.83035">
        <ele>25</ele>
        <time>2018-03-18T07:25:06Z</time>
      </trkpt>
      <trkpt lat="46.60543" lon="-1.83036">
        <ele>25</ele>
        <time>2018-03-18T07:26:06Z</time>
      </trkpt>
      <trkpt lat="46.60545" lon="-1.83039">
        <ele>25</ele>
        <time>2018-03-18T07:27:06Z</time>
      </trkpt>
      <trkpt lat="46.60547" lon="-1.83044">
        <ele>25</ele>
        <time>2018-03-18T07:28:06Z</time>
      </trkpt>
      <trkpt lat="46.60548" lon="-1.83049">
        <ele>25</ele>
        <time>2018-03-18T07:29:06Z</time>
      </trkpt>
      <trkpt lat="46.60552" lon="-1.8306">
        <ele>25</ele>
        <time>2018-03-18T07:30:06Z</time>
      </trkpt>
      <trkpt lat="46.60556" lon="-1.83078">
        <ele>25</ele>
        <time>2018-03-18T07:31:06Z</time>
      </trkpt>
      <trkpt lat="46.60559" lon="-1.83094">
        <ele>25</ele>
        <time>2018-03-18T07:32:06Z</time>
      </trkpt>
      <trkpt lat="46.60561" lon="-1.83115">
        <ele>24</ele>
        <time>2018-03-18T07:33:06Z</time>
      </trkpt>
      <trkpt lat="46.60562" lon="-1.83128">
        <ele>24</ele>
        <time>2018-03-18T07:34:06Z</time>
      </trkpt>
      <trkpt lat="46.6056" lon="-1.83167">
        <ele>23</ele>
        <time>2018-03-18T07:35:06Z</time>
      </trkpt>
      <trkpt lat="46.6056" lon="-1.83169">
        <ele>23</ele>
        <time>2018-03-18T07:36:06Z</time>
      </trkpt>
      <trkpt lat="46.60559" lon="-1.83193">
        <ele>22</ele>
        <time>2018-03-18T07:37:06Z</time>
      </trkpt>
      <trkpt lat="46.60558" lon="-1.83223">
        <ele>21</ele>
        <time>2018-03-18T07:38:06Z</time>
      </trkpt>
      <trkpt lat="46.60557" lon="-1.83248">
        <ele>21</ele>
        <time>2018-03-18T07:39:06Z</time>
      </trkpt>
      <trkpt lat="46.60557" lon="-1.83271">
        <ele>21</ele>
        <time>2018-03-18T07:40:06Z</time>
      </trkpt>
      <trkpt lat="46.60557" lon="-1.83278">
        <ele>21</ele>
        <time>2018-03-18T07:41:06Z</time>
      </trkpt>
      <trkpt lat="46.60557" lon="-1.83293">
        <ele>21</ele>
        <time>2018-03-18T07:42:06Z</time>
      </trkpt>
      <trkpt lat="46.60561" lon="-1.83337">
        <ele>21</ele>
        <time>2018-03-18T07:43:06Z</time>
      </trkpt>
      <trkpt lat="46.60564" lon="-1.83348">
        <ele>20</ele>
        <time>2018-03-18T07:44:06Z</time>
      </trkpt>
      <trkpt lat="46.60567" lon="-1.83367">
        <ele>20</ele>
        <time>2018-03-18T07:45:06Z</time>
      </trkpt>
      <trkpt lat="46.60568" lon="-1.83373">
        <ele>20</ele>
        <time>2018-03-18T07:46:06Z</time>
      </trkpt>
      <trkpt lat="46.60575" lon="-1.83408">
        <ele>20</ele>
        <time>2018-03-18T07:47:06Z</time>
      </trkpt>
      <trkpt lat="46.60583" lon="-1.83452">
        <ele>20</ele>
        <time>2018-03-18T07:48:06Z</time>
      </trkpt>
      <trkpt lat="46.6059" lon="-1.83484">
        <ele>20</ele>
        <time>2018-03-18T07:49:06Z</time>
      </trkpt>
      <trkpt lat="46.60591" lon="-1.83491">
        <ele>20</ele>
        <time>2018-03-18T07:50:06Z</time>
      </trkpt>
      <trkpt lat="46.60595" lon="-1.83499">
        <ele>20</ele>
        <time>2018-03-18T07:51:06Z</time>
      </trkpt>
      <trkpt lat="46.60603" lon="-1.8352">
        <ele>20</ele>
        <time>2018-03-18T07:52:06Z</time>
      </trkpt>
      <trkpt lat="46.60603" lon="-1.8352">
        <ele>20</ele>
        <time>2018-03-18T07:53:06Z</time>
      </trkpt>
      <trkpt lat="46.60604" lon="-1.8352">
        <ele>20</ele>
        <time>2018-03-18T07:54:06Z</time>
      </trkpt>
      <trkpt lat="46.60604" lon="-1.83519">
        <ele>20</ele>
        <time>2018-03-18T07:55:06Z</time>
      </trkpt>
      <trkpt lat="46.60605" lon="-1.83519">
        <ele>20</ele>
        <time>2018-03-18T07:56:06Z</time>
      </trkpt>
      <trkpt lat="46.60606" lon="-1.83519">
        <ele>20</ele>
        <time>2018-03-18T07:57:06Z</time>
      </trkpt>
      <trkpt lat="46.60606" lon="-1.8352">
        <ele>20</ele>
        <time>2018-03-18T07:58:06Z</time>
      </trkpt>
      <trkpt lat="46.60607" lon="-1.8352">
        <ele>20</ele>
        <time>2018-03-18T07:59:06Z</time>
      </trkpt>
      <trkpt lat="46.60608" lon="-1.8352">
        <ele>20</ele>
        <time>2018-03-18T08:00:06Z</time>
      </trkpt>
      <trkpt lat="46.60608" lon="-1.83521">
        <ele>20</ele>
        <time>2018-03-18T08:01:06Z</time>
      </trkpt>
      <trkpt lat="46.60609" lon="-1.83521">
        <ele>20</ele>
        <time>2018-03-18T08:02:06Z</time>
      </trkpt>
      <trkpt lat="46.6061" lon="-1.83522">
        <ele>20</ele>
        <time>2018-03-18T08:03:06Z</time>
      </trkpt>
      <trkpt lat="46.60611" lon="-1.83523">
        <ele>20</ele>
        <time>2018-03-18T08:04:06Z</time>
      </trkpt>
      <trkpt lat="46.60611" lon="-1.83524">
        <ele>20</ele>
        <time>2018-03-18T08:05:06Z</time>
      </trkpt>
      <trkpt lat="46.60612" lon="-1.83524">
        <ele>20</ele>
        <time>2018-03-18T08:06:06Z</time>
      </trkpt>
      <trkpt lat="46.60612" lon="-1.83525">
        <ele>20</ele>
        <time>2018-03-18T08:07:06Z</time>
      </trkpt>
      <trkpt lat="46.60613" lon="-1.83526">
        <ele>20</ele>
        <time>2018-03-18T08:08:06Z</time>
      </trkpt>
      <trkpt lat="46.60613" lon="-1.83527">
        <ele>20</ele>
        <time>2018-03-18T08:09:06Z</time>
      </trkpt>
      <trkpt lat="46.60613" lon="-1.83528">
        <ele>20</ele>
        <time>2018-03-18T08:10:06Z</time>
      </trkpt>
      <trkpt lat="46.60614" lon="-1.83529">
        <ele>20</ele>
        <time>2018-03-18T08:11:06Z</time>
      </trkpt>
      <trkpt lat="46.60614" lon="-1.8353">
        <ele>20</ele>
        <time>2018-03-18T08:12:06Z</time>
      </trkpt>
      <trkpt lat="46.60614" lon="-1.83531">
        <ele>20</ele>
        <time>2018-03-18T08:13:06Z</time>
      </trkpt>
      <trkpt lat="46.60614" lon="-1.83532">
        <ele>20</ele>
        <time>2018-03-18T08:14:06Z</time>
      </trkpt>
      <trkpt lat="46.60615" lon="-1.83533">
        <ele>20</ele>
        <time>2018-03-18T08:15:06Z</time>
      </trkpt>
      <trkpt lat="46.60615" lon="-1.83534">
        <ele>20</ele>
        <time>2018-03-18T08:16:06Z</time>
      </trkpt>
      <trkpt lat="46.60615" lon="-1.83535">
        <ele>20</ele>
        <time>2018-03-18T08:17:06Z</time>
      </trkpt>
      <trkpt lat="46.60615" lon="-1.83536">
        <ele>20</ele>
        <time>2018-03-18T08:18:06Z</time>
      </trkpt>
      <trkpt lat="46.60614" lon="-1.83537">
        <ele>20</ele>
        <time>2018-03-18T08:19:06Z</time>
      </trkpt>
      <trkpt lat="46.60614" lon="-1.83538">
        <ele>20</ele>
        <time>2018-03-18T08:20:06Z</time>
      </trkpt>
      <trkpt lat="46.60614" lon="-1.83539">
        <ele>20</ele>
        <time>2018-03-18T08:21:06Z</time>
      </trkpt>
      <trkpt lat="46.60614" lon="-1.8354">
        <ele>20</ele>
        <time>2018-03-18T08:22:06Z</time>
      </trkpt>
      <trkpt lat="46.60613" lon="-1.83541">
        <ele>20</ele>
        <time>2018-03-18T08:23:06Z</time>
      </trkpt>
      <trkpt lat="46.60613" lon="-1.83542">
        <ele>20</ele>
        <time>2018-03-18T08:24:06Z</time>
      </trkpt>
      <trkpt lat="46.60612" lon="-1.83543">
        <ele>19</ele>
        <time>2018-03-18T08:25:06Z</time>
      </trkpt>
      <trkpt lat="46.60612" lon="-1.83544">
        <ele>19</ele>
        <time>2018-03-18T08:26:06Z</time>
      </trkpt>
      <trkpt lat="46.60611" lon="-1.83545">
        <ele>19</ele>
        <time>2018-03-18T08:27:06Z</time>
      </trkpt>
      <trkpt lat="46.60611" lon="-1.83546">
        <ele>19</ele>
        <time>2018-03-18T08:28:06Z</time>
      </trkpt>
      <trkpt lat="46.6061" lon="-1.83546">
        <ele>19</ele>
        <time>2018-03-18T08:29:06Z</time>
      </trkpt>
      <trkpt lat="46.6061" lon="-1.83547">
        <ele>19</ele>
        <time>2018-03-18T08:30:06Z</time>
      </trkpt>
      <trkpt lat="46.60609" lon="-1.83547">
        <ele>19</ele>
        <time>2018-03-18T08:31:06Z</time>
      </trkpt>
      <trkpt lat="46.60609" lon="-1.83548">
        <ele>19</ele>
        <time>2018-03-18T08:32:06Z</time>
      </trkpt>
      <trkpt lat="46.60608" lon="-1.83548">
        <ele>19</ele>
        <time>2018-03-18T08:33:06Z</time>
      </trkpt>
      <trkpt lat="46.60609" lon="-1.83567">
        <ele>19</ele>
        <time>2018-03-18T08:34:06Z</time>
      </trkpt>
      <trkpt lat="46.60609" lon="-1.83583">
        <ele>18</ele>
        <time>2018-03-18T08:35:06Z</time>
      </trkpt>
      <trkpt lat="46.6061" lon="-1.83585">
        <ele>18</ele>
        <time>2018-03-18T08:36:06Z</time>
      </trkpt>
      <trkpt lat="46.60612" lon="-1.83592">
        <ele>18</ele>
        <time>2018-03-18T08:37:06Z</time>
      </trkpt>
      <trkpt lat="46.60617" lon="-1.8361">
        <ele>18</ele>
        <time>2018-03-18T08:38:06Z</time>
      </trkpt>
      <trkpt lat="46.60624" lon="-1.83638">
        <ele>18</ele>
        <time>2018-03-18T08:39:06Z</time>
      </trkpt>
      <trkpt lat="46.60631" lon="-1.83667">
        <ele>18</ele>
        <time>2018-03-18T08:40:06Z</time>
      </trkpt>
      <trkpt lat="46.6064" lon="-1.83701">
        <ele>17</ele>
        <time>2018-03-18T08:41:06Z</time>
      </trkpt>
      <trkpt lat="46.60646" lon="-1.83728">
        <ele>17</ele>
        <time>2018-03-18T08:42:06Z</time>
      </trkpt>
      <trkpt lat="46.60651" lon="-1.83748">
        <ele>17</ele>
        <time>2018-03-18T08:43:06Z</time>
      </trkpt>
      <trkpt lat="46.60655" lon="-1.83766">
        <ele>17</ele>
        <time>2018-03-18T08:44:06Z</time>
      </trkpt>
      <trkpt lat="46.60664" lon="-1.83802">
        <ele>18</ele>
        <time>2018-03-18T08:45:06Z</time>
      </trkpt>
      <trkpt lat="46.60669" lon="-1.83823">
        <ele>18</ele>
        <time>2018-03-18T08:46:06Z</time>
      </trkpt>
      <trkpt lat="46.60674" lon="-1.83841">
        <ele>18</ele>
        <time>2018-03-18T08:47:06Z</time>
      </trkpt>
      <trkpt lat="46.60681" lon="-1.83865">
        <ele>18</ele>
        <time>2018-03-18T08:48:06Z</time>
      </trkpt>
      <trkpt lat="46.60685" lon="-1.83884">
        <ele>18</ele>
        <time>2018-03-18T08:49:06Z</time>
      </trkpt>
      <trkpt lat="46.60689" lon="-1.83892">
        <ele>18</ele>
        <time>2018-03-18T08:50:06Z</time>
      </trkpt>
      <trkpt lat="46.60702" lon="-1.83943">
        <ele>15</ele>
        <time>2018-03-18T08:51:06Z</time>
      </trkpt>
      <trkpt lat="46.60704" lon="-1.83954">
        <ele>14</ele>
        <time>2018-03-18T08:52:06Z</time>
      </trkpt>
      <trkpt lat="46.60706" lon="-1.83962">
        <ele>13</ele>
        <time>2018-03-18T08:53:06Z</time>
      </trkpt>
      <trkpt lat="46.60715" lon="-1.83995">
        <ele>10</ele>
        <time>2018-03-18T08:54:06Z</time>
      </trkpt>
      <trkpt lat="46.60723" lon="-1.84027">
        <ele>8</ele>
        <time>2018-03-18T08:55:06Z</time>
      </trkpt>
      <trkpt lat="46.60743" lon="-1.84103">
        <ele>4</ele>
        <time>2018-03-18T08:56:06Z</time>
      </trkpt>
      <trkpt lat="46.60743" lon="-1.84111">
        <ele>4</ele>
        <time>2018-03-18T08:57:06Z</time>
      </trkpt>
      <trkpt lat="46.60786" lon="-1.84277">
        <ele>7</ele>
        <time>2018-03-18T08:58:06Z</time>
      </trkpt>
      <trkpt lat="46.60813" lon="-1.84385">
        <ele>9</ele>
        <time>2018-03-18T08:59:06Z</time>
      </trkpt>
      <trkpt lat="46.60822" lon="-1.84407">
        <ele>10</ele>
        <time>2018-03-18T09:00:06Z</time>
      </trkpt>
      <trkpt lat="46.60833" lon="-1.84432">
        <ele>10</ele>
        <time>2018-03-18T09:01:06Z</time>
      </trkpt>
      <trkpt lat="46.6084" lon="-1.84446">
        <ele>11</ele>
        <time>2018-03-18T09:02:06Z</time>
      </trkpt>
      <trkpt lat="46.60848" lon="-1.84462">
        <ele>11</ele>
        <time>2018-03-18T09:03:06Z</time>
      </trkpt>
      <trkpt lat="46.60858" lon="-1.84477">
        <ele>12</ele>
        <time>2018-03-18T09:04:06Z</time>
      </trkpt>
      <trkpt lat="46.60866" lon="-1.84491">
        <ele>12</ele>
        <time>2018-03-18T09:05:06Z</time>
      </trkpt>
      <trkpt lat="46.60885" lon="-1.84517">
        <ele>13</ele>
        <time>2018-03-18T09:06:06Z</time>
      </trkpt>
      <trkpt lat="46.60902" lon="-1.84537">
        <ele>14</ele>
        <time>2018-03-18T09:07:06Z</time>
      </trkpt>
      <trkpt lat="46.60913" lon="-1.84549">
        <ele>15</ele>
        <time>2018-03-18T09:08:06Z</time>
      </trkpt>
      <trkpt lat="46.60924" lon="-1.84559">
        <ele>15</ele>
        <time>2018-03-18T09:09:06Z</time>
      </trkpt>
      <trkpt lat="46.60929" lon="-1.84568">
        <ele>16</ele>
        <time>2018-03-18T09:10:06Z</time>
      </trkpt>
      <trkpt lat="46.60936" lon="-1.84575">
        <ele>16</ele>
        <time>2018-03-18T09:11:06Z</time>
      </trkpt>
      <trkpt lat="46.60943" lon="-1.8458">
        <ele>16</ele>
        <time>2018-03-18T09:12:06Z</time>
      </trkpt>
      <trkpt lat="46.60963" lon="-1.84597">
        <ele>18</ele>
        <time>2018-03-18T09:13:06Z</time>
      </trkpt>
      <trkpt lat="46.60984" lon="-1.84615">
        <ele>18</ele>
        <time>2018-03-18T09:14:06Z</time>
      </trkpt>
      <trkpt lat="46.60999" lon="-1.84627">
        <ele>19</ele>
        <time>2018-03-18T09:15:06Z</time>
      </trkpt>
      <trkpt lat="46.61021" lon="-1.84645">
        <ele>19</ele>
        <time>2018-03-18T09:16:06Z</time>
      </trkpt>
      <trkpt lat="46.6105" lon="-1.8467">
        <ele>19</ele>
        <time>2018-03-18T09:17:06Z</time>
      </trkpt>
      <trkpt lat="46.61062" lon="-1.84679">
        <ele>19</ele>
        <time>2018-03-18T09:18:06Z</time>
      </trkpt>
      <trkpt lat="46.61067" lon="-1.84683">
        <ele>19</ele>
        <time>2018-03-18T09:19:06Z</time>
      </trkpt>
      <trkpt lat="46.61072" lon="-1.84688">
        <ele>19</ele>
        <time>2018-03-18T09:20:06Z</time>
      </trkpt>
      <trkpt lat="46.61077" lon="-1.84693">
        <ele>19</ele>
        <time>2018-03-18T09:21:06Z</time>
      </trkpt>
      <trkpt lat="46.61083" lon="-1.84699">
        <ele>19</ele>
        <time>2018-03-18T09:22:06Z</time>
      </trkpt>
      <trkpt lat="46.61089" lon="-1.84707">
        <ele>19</ele>
        <time>2018-03-18T09:23:06Z</time>
      </trkpt>
      <trkpt lat="46.611" lon="-1.84726">
        <ele>19</ele>
        <time>2018-03-18T09:24:06Z</time>
      </trkpt>
      <trkpt lat="46.61106" lon="-1.84734">
        <ele>19</ele>
        <time>2018-03-18T09:25:06Z</time>
      </trkpt>
      <trkpt lat="46.61108" lon="-1.84737">
        <ele>19</ele>
        <time>2018-03-18T09:26:06Z</time>
      </trkpt>
      <trkpt lat="46.61112" lon="-1.8474">
        <ele>19</ele>
        <time>2018-03-18T09:27:06Z</time>
      </trkpt>
      <trkpt lat="46.61119" lon="-1.84744">
        <ele>19</ele>
        <time>2018-03-18T09:28:06Z</time>
      </trkpt>
      <trkpt lat="46.61119" lon="-1.84744">
        <ele>19</ele>
        <time>2018-03-18T09:29:06Z</time>
      </trkpt>
      <trkpt lat="46.61121" lon="-1.84743">
        <ele>19</ele>
        <time>2018-03-18T09:30:06Z</time>
      </trkpt>
      <trkpt lat="46.61123" lon="-1.84742">
        <ele>19</ele>
        <time>2018-03-18T09:31:06Z</time>
      </trkpt>
      <trkpt lat="46.61125" lon="-1.84742">
        <ele>19</ele>
        <time>2018-03-18T09:32:06Z</time>
      </trkpt>
      <trkpt lat="46.61127" lon="-1.84742">
        <ele>19</ele>
        <time>2018-03-18T09:33:06Z</time>
      </trkpt>
      <trkpt lat="46.61129" lon="-1.84742">
        <ele>19</ele>
        <time>2018-03-18T09:34:06Z</time>
      </trkpt>
      <trkpt lat="46.61131" lon="-1.84743">
        <ele>19</ele>
        <time>2018-03-18T09:35:06Z</time>
      </trkpt>
      <trkpt lat="46.61133" lon="-1.84744">
        <ele>19</ele>
        <time>2018-03-18T09:36:06Z</time>
      </trkpt>
      <trkpt lat="46.61135" lon="-1.84745">
        <ele>19</ele>
        <time>2018-03-18T09:37:06Z</time>
      </trkpt>
      <trkpt lat="46.61137" lon="-1.84747">
        <ele>19</ele>
        <time>2018-03-18T09:38:06Z</time>
      </trkpt>
      <trkpt lat="46.61139" lon="-1.84748">
        <ele>19</ele>
        <time>2018-03-18T09:39:06Z</time>
      </trkpt>
      <trkpt lat="46.6114" lon="-1.8475">
        <ele>19</ele>
        <time>2018-03-18T09:40:06Z</time>
      </trkpt>
      <trkpt lat="46.61142" lon="-1.84752">
        <ele>19</ele>
        <time>2018-03-18T09:41:06Z</time>
      </trkpt>
      <trkpt lat="46.61143" lon="-1.84755">
        <ele>19</ele>
        <time>2018-03-18T09:42:06Z</time>
      </trkpt>
      <trkpt lat="46.61144" lon="-1.84757">
        <ele>19</ele>
        <time>2018-03-18T09:43:06Z</time>
      </trkpt>
      <trkpt lat="46.61145" lon="-1.8476">
        <ele>19</ele>
        <time>2018-03-18T09:44:06Z</time>
      </trkpt>
      <trkpt lat="46.61146" lon="-1.84763">
        <ele>19</ele>
        <time>2018-03-18T09:45:06Z</time>
      </trkpt>
      <trkpt lat="46.61147" lon="-1.84766">
        <ele>19</ele>
        <time>2018-03-18T09:46:06Z</time>
      </trkpt>
      <trkpt lat="46.61147" lon="-1.84768">
        <ele>19</ele>
        <time>2018-03-18T09:47:06Z</time>
      </trkpt>
      <trkpt lat="46.61148" lon="-1.84771">
        <ele>19</ele>
        <time>2018-03-18T09:48:06Z</time>
      </trkpt>
      <trkpt lat="46.61148" lon="-1.84774">
        <ele>19</ele>
        <time>2018-03-18T09:49:06Z</time>
      </trkpt>
      <trkpt lat="46.61148" lon="-1.84777">
        <ele>19</ele>
        <time>2018-03-18T09:50:06Z</time>
      </trkpt>
      <trkpt lat="46.61147" lon="-1.8478">
        <ele>19</ele>
        <time>2018-03-18T09:51:06Z</time>
      </trkpt>
      <trkpt lat="46.61147" lon="-1.84783">
        <ele>19</ele>
        <time>2018-03-18T09:52:06Z</time>
      </trkpt>
      <trkpt lat="46.61146" lon="-1.84785">
        <ele>19</ele>
        <time>2018-03-18T09:53:06Z</time>
      </trkpt>
      <trkpt lat="46.61145" lon="-1.84788">
        <ele>19</ele>
        <time>2018-03-18T09:54:06Z</time>
      </trkpt>
      <trkpt lat="46.61144" lon="-1.8479">
        <ele>20</ele>
        <time>2018-03-18T09:55:06Z</time>
      </trkpt>
      <trkpt lat="46.61143" lon="-1.84792">
        <ele>20</ele>
        <time>2018-03-18T09:56:06Z</time>
      </trkpt>
      <trkpt lat="46.61142" lon="-1.84794">
        <ele>20</ele>
        <time>2018-03-18T09:57:06Z</time>
      </trkpt>
      <trkpt lat="46.61141" lon="-1.84796">
        <ele>20</ele>
        <time>2018-03-18T09:58:06Z</time>
      </trkpt>
      <trkpt lat="46.61139" lon="-1.84798">
        <ele>20</ele>
        <time>2018-03-18T09:59:06Z</time>
      </trkpt>
      <trkpt lat="46.61138" lon="-1.84813">
        <ele>20</ele>
        <time>2018-03-18T10:00:06Z</time>
      </trkpt>
      <trkpt lat="46.61135" lon="-1.84824">
        <ele>20</ele>
        <time>2018-03-18T10:01:06Z</time>
      </trkpt>
      <trkpt lat="46.61135" lon="-1.84824">
        <ele>20</ele>
        <time>2018-03-18T10:02:06Z</time>
      </trkpt>
      <trkpt lat="46.61134" lon="-1.84843">
        <ele>20</ele>
        <time>2018-03-18T10:03:06Z</time>
      </trkpt>
      <trkpt lat="46.61135" lon="-1.8487">
        <ele>21</ele>
        <time>2018-03-18T10:04:06Z</time>
      </trkpt>
      <trkpt lat="46.61136" lon="-1.84903">
        <ele>22</ele>
        <time>2018-03-18T10:05:06Z</time>
      </trkpt>
      <trkpt lat="46.61138" lon="-1.84922">
        <ele>22</ele>
        <time>2018-03-18T10:06:06Z</time>
      </trkpt>
      <trkpt lat="46.61139" lon="-1.84937">
        <ele>21</ele>
        <time>2018-03-18T10:07:06Z</time>
      </trkpt>
      <trkpt lat="46.61144" lon="-1.84955">
        <ele>21</ele>
        <time>2018-03-18T10:08:06Z</time>
      </trkpt>
      <trkpt lat="46.61149" lon="-1.84967">
        <ele>21</ele>
        <time>2018-03-18T10:09:06Z</time>
      </trkpt>
      <trkpt lat="46.61152" lon="-1.84973">
        <ele>20</ele>
        <time>2018-03-18T10:10:06Z</time>
      </trkpt>
      <trkpt lat="46.61167" lon="-1.84994">
        <ele>19</ele>
        <time>2018-03-18T10:11:06Z</time>
      </trkpt>
      <trkpt lat="46.61188" lon="-1.85018">
        <ele>19</ele>
        <time>2018-03-18T10:12:06Z</time>
      </trkpt>
      <trkpt lat="46.61204" lon="-1.85035">
        <ele>19</ele>
        <time>2018-03-18T10:13:06Z</time>
      </trkpt>
      <trkpt lat="46.61222" lon="-1.85059">
        <ele>18</ele>
        <time>2018-03-18T10:14:06Z</time>
      </trkpt>
      <trkpt lat="46.61236" lon="-1.85081">
        <ele>18</ele>
        <time>2018-03-18T10:15:06Z</time>
      </trkpt>
      <trkpt lat="46.61247" lon="-1.85103">
        <ele>18</ele>
        <time>2018-03-18T10:16:06Z</time>
      </trkpt>
      <trkpt lat="46.61258" lon="-1.85125">
        <ele>17</ele>
        <time>2018-03-18T10:17:06Z</time>
      </trkpt>
      <trkpt lat="46.61273" lon="-1.85149">
        <ele>17</ele>
        <time>2018-03-18T10:18:06Z</time>
      </trkpt>
      <trkpt lat="46.61294" lon="-1.85178">
        <ele>16</ele>
        <time>2018-03-18T10:19:06Z</time>
      </trkpt>
      <trkpt lat="46.61313" lon="-1.85197">
        <ele>16</ele>
        <time>2018-03-18T10:20:06Z</time>
      </trkpt>
      <trkpt lat="46.61332" lon="-1.85213">
        <ele>16</ele>
        <time>2018-03-18T10:21:06Z</time>
      </trkpt>
      <trkpt lat="46.61348" lon="-1.85235">
        <ele>16</ele>
        <time>2018-03-18T10:22:06Z</time>
      </trkpt>
      <trkpt lat="46.61353" lon="-1.85242">
        <ele>15</ele>
        <time>2018-03-18T10:23:06Z</time>
      </trkpt>
      <trkpt lat="46.61362" lon="-1.8526">
        <ele>15</ele>
        <time>2018-03-18T10:24:06Z</time>
      </trkpt>
      <trkpt lat="46.61369" lon="-1.85279">
        <ele>15</ele>
        <time>2018-03-18T10:25:06Z</time>
      </trkpt>
      <trkpt lat="46.61376" lon="-1.85305">
        <ele>15</ele>
        <time>2018-03-18T10:26:06Z</time>
      </trkpt>
      <trkpt lat="46.61384" lon="-1.8534">
        <ele>15</ele>
        <time>2018-03-18T10:27:06Z</time>
      </trkpt>
      <trkpt lat="46.61392" lon="-1.85372">
        <ele>14</ele>
        <time>2018-03-18T10:28:06Z</time>
      </trkpt>
      <trkpt lat="46.61401" lon="-1.85409">
        <ele>14</ele>
        <time>2018-03-18T10:29:06Z</time>
      </trkpt>
      <trkpt lat="46.6141" lon="-1.8544">
        <ele>13</ele>
        <time>2018-03-18T10:30:06Z</time>
      </trkpt>
      <trkpt lat="46.61418" lon="-1.85467">
        <ele>13</ele>
        <time>2018-03-18T10:31:06Z</time>
      </trkpt>
      <trkpt lat="46.61427" lon="-1.85492">
        <ele>12</ele>
        <time>2018-03-18T10:32:06Z</time>
      </trkpt>
      <trkpt lat="46.61438" lon="-1.85514">
        <ele>11</ele>
        <time>2018-03-18T10:33:06Z</time>
      </trkpt>
      <trkpt lat="46.61445" lon="-1.85531">
        <ele>11</ele>
        <time>2018-03-18T10:34:06Z</time>
      </trkpt>
      <trkpt lat="46.61453" lon="-1.85553">
        <ele>10</ele>
        <time>2018-03-18T10:35:06Z</time>
      </trkpt>
      <trkpt lat="46.61462" lon="-1.85579">
        <ele>10</ele>
        <time>2018-03-18T10:36:06Z</time>
      </trkpt>
      <trkpt lat="46.61469" lon="-1.85604">
        <ele>10</ele>
        <time>2018-03-18T10:37:06Z</time>
      </trkpt>
      <trkpt lat="46.61476" lon="-1.85631">
        <ele>10</ele>
        <time>2018-03-18T10:38:06Z</time>
      </trkpt>
      <trkpt lat="46.61483" lon="-1.85661">
        <ele>9</ele>
        <time>2018-03-18T10:39:06Z</time>
      </trkpt>
      <trkpt lat="46.61486" lon="-1.8568">
        <ele>9</ele>
        <time>2018-03-18T10:40:06Z</time>
      </trkpt>
      <trkpt lat="46.61489" lon="-1.85696">
        <ele>9</ele>
        <time>2018-03-18T10:41:06Z</time>
      </trkpt>
      <trkpt lat="46.61492" lon="-1.85716">
        <ele>9</ele>
        <time>2018-03-18T10:42:06Z</time>
      </trkpt>
      <trkpt lat="46.61494" lon="-1.85729">
        <ele>8</ele>
        <time>2018-03-18T10:43:06Z</time>
      </trkpt>
      <trkpt lat="46.61498" lon="-1.85747">
        <ele>8</ele>
        <time>2018-03-18T10:44:06Z</time>
      </trkpt>
      <trkpt lat="46.61503" lon="-1.85767">
        <ele>8</ele>
        <time>2018-03-18T10:45:06Z</time>
      </trkpt>
      <trkpt lat="46.61503" lon="-1.85767">
        <ele>8</ele>
        <time>2018-03-18T10:46:06Z</time>
      </trkpt>
      <trkpt lat="46.61506" lon="-1.85768">
        <ele>8</ele>
        <time>2018-03-18T10:47:06Z</time>
      </trkpt>
      <trkpt lat="46.61508" lon="-1.8577">
        <ele>8</ele>
        <time>2018-03-18T10:48:06Z</time>
      </trkpt>
      <trkpt lat="46.6151" lon="-1.85772">
        <ele>8</ele>
        <time>2018-03-18T10:49:06Z</time>
      </trkpt>
      <trkpt lat="46.61511" lon="-1.85774">
        <ele>8</ele>
        <time>2018-03-18T10:50:06Z</time>
      </trkpt>
      <trkpt lat="46.61512" lon="-1.85776">
        <ele>8</ele>
        <time>2018-03-18T10:51:06Z</time>
      </trkpt>
      <trkpt lat="46.61512" lon="-1.8578">
        <ele>8</ele>
        <time>2018-03-18T10:52:06Z</time>
      </trkpt>
      <trkpt lat="46.61513" lon="-1.85783">
        <ele>8</ele>
        <time>2018-03-18T10:53:06Z</time>
      </trkpt>
      <trkpt lat="46.61513" lon="-1.85785">
        <ele>7</ele>
        <time>2018-03-18T10:54:06Z</time>
      </trkpt>
      <trkpt lat="46.61513" lon="-1.85789">
        <ele>7</ele>
        <time>2018-03-18T10:55:06Z</time>
      </trkpt>
      <trkpt lat="46.61522" lon="-1.85804">
        <ele>7</ele>
        <time>2018-03-18T10:56:06Z</time>
      </trkpt>
      <trkpt lat="46.61529" lon="-1.85815">
        <ele>7</ele>
        <time>2018-03-18T10:57:06Z</time>
      </trkpt>
      <trkpt lat="46.61535" lon="-1.85823">
        <ele>7</ele>
        <time>2018-03-18T10:58:06Z</time>
      </trkpt>
      <trkpt lat="46.61539" lon="-1.8583">
        <ele>7</ele>
        <time>2018-03-18T10:59:06Z</time>
      </trkpt>
      <trkpt lat="46.61543" lon="-1.85837">
        <ele>7</ele>
        <time>2018-03-18T11:00:06Z</time>
      </trkpt>
      <trkpt lat="46.61546" lon="-1.85843">
        <ele>7</ele>
        <time>2018-03-18T11:01:06Z</time>
      </trkpt>
      <trkpt lat="46.61549" lon="-1.85849">
        <ele>7</ele>
        <time>2018-03-18T11:02:06Z</time>
      </trkpt>
      <trkpt lat="46.61552" lon="-1.85855">
        <ele>7</ele>
        <time>2018-03-18T11:03:06Z</time>
      </trkpt>
      <trkpt lat="46.61554" lon="-1.85862">
        <ele>7</ele>
        <time>2018-03-18T11:04:06Z</time>
      </trkpt>
      <trkpt lat="46.61565" lon="-1.85887">
        <ele>7</ele>
        <time>2018-03-18T11:05:06Z</time>
      </trkpt>
      <trkpt lat="46.61577" lon="-1.8591">
        <ele>7</ele>
        <time>2018-03-18T11:06:06Z</time>
      </trkpt>
      <trkpt lat="46.61588" lon="-1.85926">
        <ele>7</ele>
        <time>2018-03-18T11:07:06Z</time>
      </trkpt>
      <trkpt lat="46.61601" lon="-1.85945">
        <ele>7</ele>
        <time>2018-03-18T11:08:06Z</time>
      </trkpt>
      <trkpt lat="46.61617" lon="-1.85966">
        <ele>7</ele>
        <time>2018-03-18T11:09:06Z</time>
      </trkpt>
      <trkpt lat="46.61624" lon="-1.85975">
        <ele>7</ele>
        <time>2018-03-18T11:10:06Z</time>
      </trkpt>
      <trkpt lat="46.61642" lon="-1.86002">
        <ele>7</ele>
        <time>2018-03-18T11:11:06Z</time>
      </trkpt>
      <trkpt lat="46.61643" lon="-1.86003">
        <ele>7</ele>
        <time>2018-03-18T11:12:06Z</time>
      </trkpt>
      <trkpt lat="46.61653" lon="-1.86016">
        <ele>8</ele>
        <time>2018-03-18T11:13:06Z</time>
      </trkpt>
      <trkpt lat="46.61669" lon="-1.86038">
        <ele>8</ele>
        <time>2018-03-18T11:14:06Z</time>
      </trkpt>
      <trkpt lat="46.61672" lon="-1.86042">
        <ele>8</ele>
        <time>2018-03-18T11:15:06Z</time>
      </trkpt>
      <trkpt lat="46.6168" lon="-1.86054">
        <ele>8</ele>
        <time>2018-03-18T11:16:06Z</time>
      </trkpt>
      <trkpt lat="46.61685" lon="-1.86063">
        <ele>8</ele>
        <time>2018-03-18T11:17:06Z</time>
      </trkpt>
      <trkpt lat="46.61695" lon="-1.86079">
        <ele>8</ele>
        <time>2018-03-18T11:18:06Z</time>
      </trkpt>
      <trkpt lat="46.61707" lon="-1.86101">
        <ele>8</ele>
        <time>2018-03-18T11:19:06Z</time>
      </trkpt>
      <trkpt lat="46.61722" lon="-1.86132">
        <ele>8</ele>
        <time>2018-03-18T11:20:06Z</time>
      </trkpt>
      <trkpt lat="46.61736" lon="-1.86158">
        <ele>8</ele>
        <time>2018-03-18T11:21:06Z</time>
      </trkpt>
      <trkpt lat="46.61744" lon="-1.86173">
        <ele>8</ele>
        <time>2018-03-18T11:22:06Z</time>
      </trkpt>
      <trkpt lat="46.61752" lon="-1.86188">
        <ele>8</ele>
        <time>2018-03-18T11:23:06Z</time>
      </trkpt>
      <trkpt lat="46.61756" lon="-1.86197">
        <ele>8</ele>
        <time>2018-03-18T11:24:06Z</time>
      </trkpt>
      <trkpt lat="46.6176" lon="-1.86208">
        <ele>8</ele>
        <time>2018-03-18T11:25:06Z</time>
      </trkpt>
      <trkpt lat="46.61761" lon="-1.86215">
        <ele>8</ele>
        <time>2018-03-18T11:26:06Z</time>
      </trkpt>
      <trkpt lat="46.61763" lon="-1.86228">
        <ele>8</ele>
        <time>2018-03-18T11:27:06Z</time>
      </trkpt>
      <trkpt lat="46.61764" lon="-1.86243">
        <ele>8</ele>
        <time>2018-03-18T11:28:06Z</time>
      </trkpt>
      <trkpt lat="46.61764" lon="-1.86258">
        <ele>8</ele>
        <time>2018-03-18T11:29:06Z</time>
      </trkpt>
      <trkpt lat="46.61766" lon="-1.86296">
        <ele>8</ele>
        <time>2018-03-18T11:30:06Z</time>
      </trkpt>
      <trkpt lat="46.61766" lon="-1.86307">
        <ele>8</ele>
        <time>2018-03-18T11:31:06Z</time>
      </trkpt>
      <trkpt lat="46.61765" lon="-1.8632">
        <ele>8</ele>
        <time>2018-03-18T11:32:06Z</time>
      </trkpt>
      <trkpt lat="46.61765" lon="-1.86325">
        <ele>8</ele>
        <time>2018-03-18T11:33:06Z</time>
      </trkpt>
      <trkpt lat="46.61764" lon="-1.8633">
        <ele>8</ele>
        <time>2018-03-18T11:34:06Z</time>
      </trkpt>
      <trkpt lat="46.61763" lon="-1.86334">
        <ele>8</ele>
        <time>2018-03-18T11:35:06Z</time>
      </trkpt>
      <trkpt lat="46.6176" lon="-1.86343">
        <ele>8</ele>
        <time>2018-03-18T11:36:06Z</time>
      </trkpt>
      <trkpt lat="46.6176" lon="-1.86343">
        <ele>8</ele>
        <time>2018-03-18T11:37:06Z</time>
      </trkpt>
      <trkpt lat="46.61754" lon="-1.86353">
        <ele>8</ele>
        <time>2018-03-18T11:38:06Z</time>
      </trkpt>
      <trkpt lat="46.61747" lon="-1.86358">
        <ele>8</ele>
        <time>2018-03-18T11:39:06Z</time>
      </trkpt>
      <trkpt lat="46.61739" lon="-1.86363">
        <ele>8</ele>
        <time>2018-03-18T11:40:06Z</time>
      </trkpt>
      <trkpt lat="46.61725" lon="-1.86373">
        <ele>8</ele>
        <time>2018-03-18T11:41:06Z</time>
      </trkpt>
      <trkpt lat="46.61723" lon="-1.86374">
        <ele>8</ele>
        <time>2018-03-18T11:42:06Z</time>
      </trkpt>
      <trkpt lat="46.61703" lon="-1.86388">
        <ele>9</ele>
        <time>2018-03-18T11:43:06Z</time>
      </trkpt>
      <trkpt lat="46.61691" lon="-1.86396">
        <ele>9</ele>
        <time>2018-03-18T11:44:06Z</time>
      </trkpt>
      <trkpt lat="46.61677" lon="-1.86407">
        <ele>9</ele>
        <time>2018-03-18T11:45:06Z</time>
      </trkpt>
      <trkpt lat="46.61677" lon="-1.86407">
        <ele>9</ele>
        <time>2018-03-18T11:46:06Z</time>
      </trkpt>
      <trkpt lat="46.61664" lon="-1.86415">
        <ele>9</ele>
        <time>2018-03-18T11:47:06Z</time>
      </trkpt>
      <trkpt lat="46.61653" lon="-1.86424">
        <ele>8</ele>
        <time>2018-03-18T11:48:06Z</time>
      </trkpt>
      <trkpt lat="46.61646" lon="-1.86434">
        <ele>8</ele>
        <time>2018-03-18T11:49:06Z</time>
      </trkpt>
      <trkpt lat="46.61641" lon="-1.86444">
        <ele>8</ele>
        <time>2018-03-18T11:50:06Z</time>
      </trkpt>
      <trkpt lat="46.6164" lon="-1.86447">
        <ele>7</ele>
        <time>2018-03-18T11:51:06Z</time>
      </trkpt>
      <trkpt lat="46.61638" lon="-1.86452">
        <ele>7</ele>
        <time>2018-03-18T11:52:06Z</time>
      </trkpt>
      <trkpt lat="46.61638" lon="-1.86454">
        <ele>7</ele>
        <time>2018-03-18T11:53:06Z</time>
      </trkpt>
      <trkpt lat="46.61637" lon="-1.86463">
        <ele>7</ele>
        <time>2018-03-18T11:54:06Z</time>
      </trkpt>
      <trkpt lat="46.61635" lon="-1.86494">
        <ele>7</ele>
        <time>2018-03-18T11:55:06Z</time>
      </trkpt>
      <trkpt lat="46.61632" lon="-1.86529">
        <ele>6</ele>
        <time>2018-03-18T11:56:06Z</time>
      </trkpt>
      <trkpt lat="46.61632" lon="-1.86541">
        <ele>6</ele>
        <time>2018-03-18T11:57:06Z</time>
      </trkpt>
      <trkpt lat="46.61632" lon="-1.86547">
        <ele>6</ele>
        <time>2018-03-18T11:58:06Z</time>
      </trkpt>
      <trkpt lat="46.61631" lon="-1.86562">
        <ele>6</ele>
        <time>2018-03-18T11:59:06Z</time>
      </trkpt>
      <trkpt lat="46.6163" lon="-1.86577">
        <ele>5</ele>
        <time>2018-03-18T12:00:06Z</time>
      </trkpt>
      <trkpt lat="46.61626" lon="-1.8662">
        <ele>5</ele>
        <time>2018-03-18T12:01:06Z</time>
      </trkpt>
      <trkpt lat="46.61625" lon="-1.86643">
        <ele>4</ele>
        <time>2018-03-18T12:02:06Z</time>
      </trkpt>
      <trkpt lat="46.61625" lon="-1.86645">
        <ele>4</ele>
        <time>2018-03-18T12:03:06Z</time>
      </trkpt>
      <trkpt lat="46.61624" lon="-1.86662">
        <ele>4</ele>
        <time>2018-03-18T12:04:06Z</time>
      </trkpt>
      <trkpt lat="46.61625" lon="-1.86671">
        <ele>4</ele>
        <time>2018-03-18T12:05:06Z</time>
      </trkpt>
      <trkpt lat="46.61627" lon="-1.86689">
        <ele>4</ele>
        <time>2018-03-18T12:06:06Z</time>
      </trkpt>
      <trkpt lat="46.6163" lon="-1.8671">
        <ele>4</ele>
        <time>2018-03-18T12:07:06Z</time>
      </trkpt>
      <trkpt lat="46.61636" lon="-1.86737">
        <ele>4</ele>
        <time>2018-03-18T12:08:06Z</time>
      </trkpt>
      <trkpt lat="46.61641" lon="-1.86767">
        <ele>4</ele>
        <time>2018-03-18T12:09:06Z</time>
      </trkpt>
      <trkpt lat="46.61647" lon="-1.86798">
        <ele>4</ele>
        <time>2018-03-18T12:10:06Z</time>
      </trkpt>
      <trkpt lat="46.61654" lon="-1.86833">
        <ele>4</ele>
        <time>2018-03-18T12:11:06Z</time>
      </trkpt>
      <trkpt lat="46.61662" lon="-1.86867">
        <ele>4</ele>
        <time>2018-03-18T12:12:06Z</time>
      </trkpt>
      <trkpt lat="46.61669" lon="-1.86889">
        <ele>4</ele>
        <time>2018-03-18T12:13:06Z</time>
      </trkpt>
      <trkpt lat="46.61677" lon="-1.8691">
        <ele>5</ele>
        <time>2018-03-18T12:14:06Z</time>
      </trkpt>
      <trkpt lat="46.61688" lon="-1.86935">
        <ele>5</ele>
        <time>2018-03-18T12:15:06Z</time>
      </trkpt>
      <trkpt lat="46.61696" lon="-1.86948">
        <ele>5</ele>
        <time>2018-03-18T12:16:06Z</time>
      </trkpt>
      <trkpt lat="46.61729" lon="-1.86988">
        <ele>6</ele>
        <time>2018-03-18T12:17:06Z</time>
      </trkpt>
      <trkpt lat="46.61736" lon="-1.86996">
        <ele>7</ele>
        <time>2018-03-18T12:18:06Z</time>
      </trkpt>
      <trkpt lat="46.61745" lon="-1.87005">
        <ele>4</ele>
        <time>2018-03-18T12:19:06Z</time>
      </trkpt>
      <trkpt lat="46.61759" lon="-1.87018">
        <ele>7</ele>
        <time>2018-03-18T12:20:06Z</time>
      </trkpt>
      <trkpt lat="46.61766" lon="-1.87024">
        <ele>7</ele>
        <time>2018-03-18T12:21:06Z</time>
      </trkpt>
      <trkpt lat="46.61785" lon="-1.87042">
        <ele>7</ele>
        <time>2018-03-18T12:22:06Z</time>
      </trkpt>
      <trkpt lat="46.61805" lon="-1.87061">
        <ele>7</ele>
        <time>2018-03-18T12:23:06Z</time>
      </trkpt>
      <trkpt lat="46.61819" lon="-1.87074">
        <ele>7</ele>
        <time>2018-03-18T12:24:06Z</time>
      </trkpt>
      <trkpt lat="46.6183" lon="-1.87085">
        <ele>7</ele>
        <time>2018-03-18T12:25:06Z</time>
      </trkpt>
      <trkpt lat="46.61833" lon="-1.87088">
        <ele>7</ele>
        <time>2018-03-18T12:26:06Z</time>
      </trkpt>
      <trkpt lat="46.61842" lon="-1.87096">
        <ele>7</ele>
        <time>2018-03-18T12:27:06Z</time>
      </trkpt>
      <trkpt lat="46.61861" lon="-1.87113">
        <ele>6</ele>
        <time>2018-03-18T12:28:06Z</time>
      </trkpt>
      <trkpt lat="46.619" lon="-1.87149">
        <ele>7</ele>
        <time>2018-03-18T12:29:06Z</time>
      </trkpt>
      <trkpt lat="46.619" lon="-1.87148">
        <ele>7</ele>
        <time>2018-03-18T12:30:06Z</time>
      </trkpt>
      <trkpt lat="46.61901" lon="-1.87147">
        <ele>7</ele>
        <time>2018-03-18T12:31:06Z</time>
      </trkpt>
      <trkpt lat="46.61901" lon="-1.87146">
        <ele>7</ele>
        <time>2018-03-18T12:32:06Z</time>
      </trkpt>
      <trkpt lat="46.61901" lon="-1.87145">
        <ele>7</ele>
        <time>2018-03-18T12:33:06Z</time>
      </trkpt>
      <trkpt lat="46.61901" lon="-1.87144">
        <ele>7</ele>
        <time>2018-03-18T12:34:06Z</time>
      </trkpt>
      <trkpt lat="46.61902" lon="-1.87143">
        <ele>7</ele>
        <time>2018-03-18T12:35:06Z</time>
      </trkpt>
      <trkpt lat="46.61902" lon="-1.87142">
        <ele>7</ele>
        <time>2018-03-18T12:36:06Z</time>
      </trkpt>
      <trkpt lat="46.61903" lon="-1.87141">
        <ele>7</ele>
        <time>2018-03-18T12:37:06Z</time>
      </trkpt>
      <trkpt lat="46.61903" lon="-1.8714">
        <ele>7</ele>
        <time>2018-03-18T12:38:06Z</time>
      </trkpt>
      <trkpt lat="46.61904" lon="-1.8714">
        <ele>7</ele>
        <time>2018-03-18T12:39:06Z</time>
      </trkpt>
      <trkpt lat="46.61904" lon="-1.87139">
        <ele>7</ele>
        <time>2018-03-18T12:40:06Z</time>
      </trkpt>
      <trkpt lat="46.61905" lon="-1.87138">
        <ele>7</ele>
        <time>2018-03-18T12:41:06Z</time>
      </trkpt>
      <trkpt lat="46.61906" lon="-1.87138">
        <ele>7</ele>
        <time>2018-03-18T12:42:06Z</time>
      </trkpt>
      <trkpt lat="46.61906" lon="-1.87137">
        <ele>7</ele>
        <time>2018-03-18T12:43:06Z</time>
      </trkpt>
      <trkpt lat="46.61907" lon="-1.87137">
        <ele>7</ele>
        <time>2018-03-18T12:44:06Z</time>
      </trkpt>
      <trkpt lat="46.61908" lon="-1.87137">
        <ele>7</ele>
        <time>2018-03-18T12:45:06Z</time>
      </trkpt>
      <trkpt lat="46.61909" lon="-1.87137">
        <ele>7</ele>
        <time>2018-03-18T12:46:06Z</time>
      </trkpt>
      <trkpt lat="46.61909" lon="-1.87136">
        <ele>7</ele>
        <time>2018-03-18T12:47:06Z</time>
      </trkpt>
      <trkpt lat="46.6191" lon="-1.87136">
        <ele>7</ele>
        <time>2018-03-18T12:48:06Z</time>
      </trkpt>
      <trkpt lat="46.6191" lon="-1.87137">
        <ele>7</ele>
        <time>2018-03-18T12:49:06Z</time>
      </trkpt>
      <trkpt lat="46.61911" lon="-1.87137">
        <ele>7</ele>
        <time>2018-03-18T12:50:06Z</time>
      </trkpt>
      <trkpt lat="46.61912" lon="-1.87137">
        <ele>7</ele>
        <time>2018-03-18T12:51:06Z</time>
      </trkpt>
      <trkpt lat="46.61913" lon="-1.87137">
        <ele>7</ele>
        <time>2018-03-18T12:52:06Z</time>
      </trkpt>
      <trkpt lat="46.61913" lon="-1.87138">
        <ele>7</ele>
        <time>2018-03-18T12:53:06Z</time>
      </trkpt>
      <trkpt lat="46.61914" lon="-1.87138">
        <ele>7</ele>
        <time>2018-03-18T12:54:06Z</time>
      </trkpt>
      <trkpt lat="46.61914" lon="-1.87139">
        <ele>7</ele>
        <time>2018-03-18T12:55:06Z</time>
      </trkpt>
      <trkpt lat="46.61915" lon="-1.87139">
        <ele>7</ele>
        <time>2018-03-18T12:56:06Z</time>
      </trkpt>
      <trkpt lat="46.61915" lon="-1.8714">
        <ele>7</ele>
        <time>2018-03-18T12:57:06Z</time>
      </trkpt>
      <trkpt lat="46.61916" lon="-1.8714">
        <ele>7</ele>
        <time>2018-03-18T12:58:06Z</time>
      </trkpt>
      <trkpt lat="46.61916" lon="-1.87141">
        <ele>7</ele>
        <time>2018-03-18T12:59:06Z</time>
      </trkpt>
      <trkpt lat="46.61917" lon="-1.87142">
        <ele>7</ele>
        <time>2018-03-18T13:00:06Z</time>
      </trkpt>
      <trkpt lat="46.61917" lon="-1.87143">
        <ele>7</ele>
        <time>2018-03-18T13:01:06Z</time>
      </trkpt>
      <trkpt lat="46.61918" lon="-1.87144">
        <ele>7</ele>
        <time>2018-03-18T13:02:06Z</time>
      </trkpt>
      <trkpt lat="46.61918" lon="-1.87145">
        <ele>7</ele>
        <time>2018-03-18T13:03:06Z</time>
      </trkpt>
      <trkpt lat="46.61918" lon="-1.87146">
        <ele>7</ele>
        <time>2018-03-18T13:04:06Z</time>
      </trkpt>
      <trkpt lat="46.61918" lon="-1.87147">
        <ele>7</ele>
        <time>2018-03-18T13:05:06Z</time>
      </trkpt>
      <trkpt lat="46.61918" lon="-1.87148">
        <ele>7</ele>
        <time>2018-03-18T13:06:06Z</time>
      </trkpt>
      <trkpt lat="46.61918" lon="-1.87149">
        <ele>7</ele>
        <time>2018-03-18T13:07:06Z</time>
      </trkpt>
      <trkpt lat="46.61918" lon="-1.8715">
        <ele>7</ele>
        <time>2018-03-18T13:08:06Z</time>
      </trkpt>
      <trkpt lat="46.61918" lon="-1.87151">
        <ele>7</ele>
        <time>2018-03-18T13:09:06Z</time>
      </trkpt>
      <trkpt lat="46.61918" lon="-1.87152">
        <ele>7</ele>
        <time>2018-03-18T13:10:06Z</time>
      </trkpt>
      <trkpt lat="46.61918" lon="-1.87153">
        <ele>7</ele>
        <time>2018-03-18T13:11:06Z</time>
      </trkpt>
      <trkpt lat="46.61918" lon="-1.87154">
        <ele>7</ele>
        <time>2018-03-18T13:12:06Z</time>
      </trkpt>
      <trkpt lat="46.61918" lon="-1.87155">
        <ele>7</ele>
        <time>2018-03-18T13:13:06Z</time>
      </trkpt>
      <trkpt lat="46.61917" lon="-1.87156">
        <ele>7</ele>
        <time>2018-03-18T13:14:06Z</time>
      </trkpt>
      <trkpt lat="46.6192" lon="-1.87165">
        <ele>7</ele>
        <time>2018-03-18T13:15:06Z</time>
      </trkpt>
      <trkpt lat="46.61923" lon="-1.8717">
        <ele>7</ele>
        <time>2018-03-18T13:16:06Z</time>
      </trkpt>
      <trkpt lat="46.61923" lon="-1.8717">
        <ele>7</ele>
        <time>2018-03-18T13:17:06Z</time>
      </trkpt>
      <trkpt lat="46.61925" lon="-1.87172">
        <ele>7</ele>
        <time>2018-03-18T13:18:06Z</time>
      </trkpt>
      <trkpt lat="46.61936" lon="-1.87179">
        <ele>7</ele>
        <time>2018-03-18T13:19:06Z</time>
      </trkpt>
      <trkpt lat="46.61957" lon="-1.87192">
        <ele>6</ele>
        <time>2018-03-18T13:20:06Z</time>
      </trkpt>
      <trkpt lat="46.61973" lon="-1.87201">
        <ele>6</ele>
        <time>2018-03-18T13:21:06Z</time>
      </trkpt>
      <trkpt lat="46.61985" lon="-1.87208">
        <ele>6</ele>
        <time>2018-03-18T13:22:06Z</time>
      </trkpt>
      <trkpt lat="46.6201" lon="-1.87223">
        <ele>6</ele>
        <time>2018-03-18T13:23:06Z</time>
      </trkpt>
      <trkpt lat="46.62022" lon="-1.8723">
        <ele>6</ele>
        <time>2018-03-18T13:24:06Z</time>
      </trkpt>
      <trkpt lat="46.62032" lon="-1.87236">
        <ele>6</ele>
        <time>2018-03-18T13:25:06Z</time>
      </trkpt>
      <trkpt lat="46.62043" lon="-1.87238">
        <ele>6</ele>
        <time>2018-03-18T13:26:06Z</time>
      </trkpt>
      <trkpt lat="46.62053" lon="-1.87238">
        <ele>6</ele>
        <time>2018-03-18T13:27:06Z</time>
      </trkpt>
      <trkpt lat="46.62061" lon="-1.87235">
        <ele>6</ele>
        <time>2018-03-18T13:28:06Z</time>
      </trkpt>
      <trkpt lat="46.6207" lon="-1.87232">
        <ele>6</ele>
        <time>2018-03-18T13:29:06Z</time>
      </trkpt>
      <trkpt lat="46.62087" lon="-1.87223">
        <ele>6</ele>
        <time>2018-03-18T13:30:06Z</time>
      </trkpt>
      <trkpt lat="46.62091" lon="-1.8722">
        <ele>7</ele>
        <time>2018-03-18T13:31:06Z</time>
      </trkpt>
      <trkpt lat="46.62098" lon="-1.87217">
        <ele>7</ele>
        <time>2018-03-18T13:32:06Z</time>
      </trkpt>
      <trkpt lat="46.62111" lon="-1.87211">
        <ele>7</ele>
        <time>2018-03-18T13:33:06Z</time>
      </trkpt>
      <trkpt lat="46.62126" lon="-1.87206">
        <ele>8</ele>
        <time>2018-03-18T13:34:06Z</time>
      </trkpt>
      <trkpt lat="46.62133" lon="-1.87206">
        <ele>8</ele>
        <time>2018-03-18T13:35:06Z</time>
      </trkpt>
      <trkpt lat="46.62144" lon="-1.87208">
        <ele>8</ele>
        <time>2018-03-18T13:36:06Z</time>
      </trkpt>
      <trkpt lat="46.62156" lon="-1.87213">
        <ele>8</ele>
        <time>2018-03-18T13:37:06Z</time>
      </trkpt>
      <trkpt lat="46.62171" lon="-1.87222">
        <ele>8</ele>
        <time>2018-03-18T13:38:06Z</time>
      </trkpt>
      <trkpt lat="46.62178" lon="-1.87228">
        <ele>8</ele>
        <time>2018-03-18T13:39:06Z</time>
      </trkpt>
      <trkpt lat="46.62178" lon="-1.87228">
        <ele>8</ele>
        <time>2018-03-18T13:40:06Z</time>
      </trkpt>
      <trkpt lat="46.62191" lon="-1.87236">
        <ele>8</ele>
        <time>2018-03-18T13:41:06Z</time>
      </trkpt>
      <trkpt lat="46.62209" lon="-1.87249">
        <ele>8</ele>
        <time>2018-03-18T13:42:06Z</time>
      </trkpt>
      <trkpt lat="46.62237" lon="-1.87268">
        <ele>7</ele>
        <time>2018-03-18T13:43:06Z</time>
      </trkpt>
      <trkpt lat="46.62267" lon="-1.8729">
        <ele>6</ele>
        <time>2018-03-18T13:44:06Z</time>
      </trkpt>
      <trkpt lat="46.62279" lon="-1.87297">
        <ele>6</ele>
        <time>2018-03-18T13:45:06Z</time>
      </trkpt>
      <trkpt lat="46.62295" lon="-1.87309">
        <ele>7</ele>
        <time>2018-03-18T13:46:06Z</time>
      </trkpt>
      <trkpt lat="46.62309" lon="-1.87316">
        <ele>7</ele>
        <time>2018-03-18T13:47:06Z</time>
      </trkpt>
      <trkpt lat="46.62329" lon="-1.87324">
        <ele>8</ele>
        <time>2018-03-18T13:48:06Z</time>
      </trkpt>
      <trkpt lat="46.62375" lon="-1.87344">
        <ele>7</ele>
        <time>2018-03-18T13:49:06Z</time>
      </trkpt>
      <trkpt lat="46.62379" lon="-1.87345">
        <ele>7</ele>
        <time>2018-03-18T13:50:06Z</time>
      </trkpt>
      <trkpt lat="46.62391" lon="-1.8735">
        <ele>7</ele>
        <time>2018-03-18T13:51:06Z</time>
      </trkpt>
      <trkpt lat="46.62397" lon="-1.87352">
        <ele>7</ele>
        <time>2018-03-18T13:52:06Z</time>
      </trkpt>
      <trkpt lat="46.62398" lon="-1.87352">
        <ele>7</ele>
        <time>2018-03-18T13:53:06Z</time>
      </trkpt>
      <trkpt lat="46.624" lon="-1.87352">
        <ele>7</ele>
        <time>2018-03-18T13:54:06Z</time>
      </trkpt>
      <trkpt lat="46.62404" lon="-1.87351">
        <ele>7</ele>
        <time>2018-03-18T13:55:06Z</time>
      </trkpt>
      <trkpt lat="46.62406" lon="-1.87352">
        <ele>7</ele>
        <time>2018-03-18T13:56:06Z</time>
      </trkpt>
      <trkpt lat="46.62411" lon="-1.87353">
        <ele>7</ele>
        <time>2018-03-18T13:57:06Z</time>
      </trkpt>
      <trkpt lat="46.62416" lon="-1.87355">
        <ele>7</ele>
        <time>2018-03-18T13:58:06Z</time>
      </trkpt>
      <trkpt lat="46.62422" lon="-1.87356">
        <ele>7</ele>
        <time>2018-03-18T13:59:06Z</time>
      </trkpt>
      <trkpt lat="46.62428" lon="-1.87358">
        <ele>7</ele>
        <time>2018-03-18T14:00:06Z</time>
      </trkpt>
      <trkpt lat="46.62443" lon="-1.87362">
        <ele>7</ele>
        <time>2018-03-18T14:01:06Z</time>
      </trkpt>
      <trkpt lat="46.62451" lon="-1.87362">
        <ele>7</ele>
        <time>2018-03-18T14:02:06Z</time>
      </trkpt>
      <trkpt lat="46.6246" lon="-1.87361">
        <ele>7</ele>
        <time>2018-03-18T14:03:06Z</time>
      </trkpt>
      <trkpt lat="46.6247" lon="-1.87361">
        <ele>7</ele>
        <time>2018-03-18T14:04:06Z</time>
      </trkpt>
      <trkpt lat="46.62483" lon="-1.87359">
        <ele>7</ele>
        <time>2018-03-18T14:05:06Z</time>
      </trkpt>
      <trkpt lat="46.62506" lon="-1.87357">
        <ele>7</ele>
        <time>2018-03-18T14:06:06Z</time>
      </trkpt>
      <trkpt lat="46.62515" lon="-1.87359">
        <ele>7</ele>
        <time>2018-03-18T14:07:06Z</time>
      </trkpt>
      <trkpt lat="46.62533" lon="-1.87363">
        <ele>7</ele>
        <time>2018-03-18T14:08:06Z</time>
      </trkpt>
      <trkpt lat="46.62552" lon="-1.87366">
        <ele>7</ele>
        <time>2018-03-18T14:09:06Z</time>
      </trkpt>
      <trkpt lat="46.62568" lon="-1.87368">
        <ele>7</ele>
        <time>2018-03-18T14:10:06Z</time>
      </trkpt>
      <trkpt lat="46.62579" lon="-1.87365">
        <ele>8</ele>
        <time>2018-03-18T14:11:06Z</time>
      </trkpt>
      <trkpt lat="46.62586" lon="-1.87364">
        <ele>8</ele>
        <time>2018-03-18T14:12:06Z</time>
      </trkpt>
      <trkpt lat="46.62599" lon="-1.87362">
        <ele>7</ele>
        <time>2018-03-18T14:13:06Z</time>
      </trkpt>
      <trkpt lat="46.62606" lon="-1.87359">
        <ele>7</ele>
        <time>2018-03-18T14:14:06Z</time>
      </trkpt>
      <trkpt lat="46.62618" lon="-1.87353">
        <ele>7</ele>
        <time>2018-03-18T14:15:06Z</time>
      </trkpt>
      <trkpt lat="46.62618" lon="-1.87353">
        <ele>7</ele>
        <time>2018-03-18T14:16:06Z</time>
      </trkpt>
      <trkpt lat="46.62617" lon="-1.87352">
        <ele>7</ele>
        <time>2018-03-18T14:17:06Z</time>
      </trkpt>
      <trkpt lat="46.62617" lon="-1.87351">
        <ele>7</ele>
        <time>2018-03-18T14:18:06Z</time>
      </trkpt>
      <trkpt lat="46.62617" lon="-1.8735">
        <ele>7</ele>
        <time>2018-03-18T14:19:06Z</time>
      </trkpt>
      <trkpt lat="46.62617" lon="-1.87349">
        <ele>7</ele>
        <time>2018-03-18T14:20:06Z</time>
      </trkpt>
      <trkpt lat="46.62617" lon="-1.87348">
        <ele>7</ele>
        <time>2018-03-18T14:21:06Z</time>
      </trkpt>
      <trkpt lat="46.62617" lon="-1.87347">
        <ele>7</ele>
        <time>2018-03-18T14:22:06Z</time>
      </trkpt>
      <trkpt lat="46.62618" lon="-1.87347">
        <ele>7</ele>
        <time>2018-03-18T14:23:06Z</time>
      </trkpt>
      <trkpt lat="46.62618" lon="-1.87346">
        <ele>7</ele>
        <time>2018-03-18T14:24:06Z</time>
      </trkpt>
      <trkpt lat="46.62618" lon="-1.87345">
        <ele>7</ele>
        <time>2018-03-18T14:25:06Z</time>
      </trkpt>
      <trkpt lat="46.62619" lon="-1.87345">
        <ele>7</ele>
        <time>2018-03-18T14:26:06Z</time>
      </trkpt>
      <trkpt lat="46.62619" lon="-1.87344">
        <ele>7</ele>
        <time>2018-03-18T14:27:06Z</time>
      </trkpt>
      <trkpt lat="46.6262" lon="-1.87344">
        <ele>7</ele>
        <time>2018-03-18T14:28:06Z</time>
      </trkpt>
      <trkpt lat="46.6262" lon="-1.87343">
        <ele>7</ele>
        <time>2018-03-18T14:29:06Z</time>
      </trkpt>
      <trkpt lat="46.62621" lon="-1.87343">
        <ele>7</ele>
        <time>2018-03-18T14:30:06Z</time>
      </trkpt>
      <trkpt lat="46.62622" lon="-1.87343">
        <ele>7</ele>
        <time>2018-03-18T14:31:06Z</time>
      </trkpt>
      <trkpt lat="46.62623" lon="-1.87343">
        <ele>7</ele>
        <time>2018-03-18T14:32:06Z</time>
      </trkpt>
      <trkpt lat="46.62624" lon="-1.87343">
        <ele>7</ele>
        <time>2018-03-18T14:33:06Z</time>
      </trkpt>
      <trkpt lat="46.62625" lon="-1.87343">
        <ele>7</ele>
        <time>2018-03-18T14:34:06Z</time>
      </trkpt>
      <trkpt lat="46.62625" lon="-1.87344">
        <ele>7</ele>
        <time>2018-03-18T14:35:06Z</time>
      </trkpt>
      <trkpt lat="46.62626" lon="-1.87344">
        <ele>7</ele>
        <time>2018-03-18T14:36:06Z</time>
      </trkpt>
      <trkpt lat="46.62626" lon="-1.87345">
        <ele>7</ele>
        <time>2018-03-18T14:37:06Z</time>
      </trkpt>
      <trkpt lat="46.62626" lon="-1.87346">
        <ele>7</ele>
        <time>2018-03-18T14:38:06Z</time>
      </trkpt>
      <trkpt lat="46.62627" lon="-1.87346">
        <ele>7</ele>
        <time>2018-03-18T14:39:06Z</time>
      </trkpt>
      <trkpt lat="46.62627" lon="-1.87347">
        <ele>7</ele>
        <time>2018-03-18T14:40:06Z</time>
      </trkpt>
      <trkpt lat="46.62627" lon="-1.87348">
        <ele>7</ele>
        <time>2018-03-18T14:41:06Z</time>
      </trkpt>
      <trkpt lat="46.62627" lon="-1.87349">
        <ele>7</ele>
        <time>2018-03-18T14:42:06Z</time>
      </trkpt>
      <trkpt lat="46.62627" lon="-1.8735">
        <ele>7</ele>
        <time>2018-03-18T14:43:06Z</time>
      </trkpt>
      <trkpt lat="46.62627" lon="-1.87351">
        <ele>7</ele>
        <time>2018-03-18T14:44:06Z</time>
      </trkpt>
      <trkpt lat="46.62627" lon="-1.87352">
        <ele>7</ele>
        <time>2018-03-18T14:45:06Z</time>
      </trkpt>
      <trkpt lat="46.62627" lon="-1.87353">
        <ele>7</ele>
        <time>2018-03-18T14:46:06Z</time>
      </trkpt>
      <trkpt lat="46.62626" lon="-1.87354">
        <ele>7</ele>
        <time>2018-03-18T14:47:06Z</time>
      </trkpt>
      <trkpt lat="46.62635" lon="-1.87358">
        <ele>7</ele>
        <time>2018-03-18T14:48:06Z</time>
      </trkpt>
      <trkpt lat="46.62646" lon="-1.87362">
        <ele>7</ele>
        <time>2018-03-18T14:49:06Z</time>
      </trkpt>
      <trkpt lat="46.62646" lon="-1.87362">
        <ele>7</ele>
        <time>2018-03-18T14:50:06Z</time>
      </trkpt>
      <trkpt lat="46.62658" lon="-1.87364">
        <ele>6</ele>
        <time>2018-03-18T14:51:06Z</time>
      </trkpt>
      <trkpt lat="46.62665" lon="-1.87367">
        <ele>6</ele>
        <time>2018-03-18T14:52:06Z</time>
      </trkpt>
      <trkpt lat="46.62668" lon="-1.87368">
        <ele>6</ele>
        <time>2018-03-18T14:53:06Z</time>
      </trkpt>
      <trkpt lat="46.62679" lon="-1.87374">
        <ele>7</ele>
        <time>2018-03-18T14:54:06Z</time>
      </trkpt>
      <trkpt lat="46.62691" lon="-1.87387">
        <ele>7</ele>
        <time>2018-03-18T14:55:06Z</time>
      </trkpt>
      <trkpt lat="46.62711" lon="-1.87416">
        <ele>8</ele>
        <time>2018-03-18T14:56:06Z</time>
      </trkpt>
      <trkpt lat="46.62713" lon="-1.87419">
        <ele>8</ele>
        <time>2018-03-18T14:57:06Z</time>
      </trkpt>
      <trkpt lat="46.62725" lon="-1.87429">
        <ele>8</ele>
        <time>2018-03-18T14:58:06Z</time>
      </trkpt>
      <trkpt lat="46.62744" lon="-1.87442">
        <ele>9</ele>
        <time>2018-03-18T14:59:06Z</time>
      </trkpt>
      <trkpt lat="46.62763" lon="-1.87455">
        <ele>9</ele>
        <time>2018-03-18T15:00:06Z</time>
      </trkpt>
      <trkpt lat="46.62783" lon="-1.87467">
        <ele>9</ele>
        <time>2018-03-18T15:01:06Z</time>
      </trkpt>
      <trkpt lat="46.62802" lon="-1.87477">
        <ele>9</ele>
        <time>2018-03-18T15:02:06Z</time>
      </trkpt>
      <trkpt lat="46.62821" lon="-1.87488">
        <ele>9</ele>
        <time>2018-03-18T15:03:06Z</time>
      </trkpt>
      <trkpt lat="46.62837" lon="-1.87501">
        <ele>9</ele>
        <time>2018-03-18T15:04:06Z</time>
      </trkpt>
      <trkpt lat="46.62846" lon="-1.87513">
        <ele>9</ele>
        <time>2018-03-18T15:05:06Z</time>
      </trkpt>
      <trkpt lat="46.62856" lon="-1.87526">
        <ele>8</ele>
        <time>2018-03-18T15:06:06Z</time>
      </trkpt>
      <trkpt lat="46.62872" lon="-1.87553">
        <ele>8</ele>
        <time>2018-03-18T15:07:06Z</time>
      </trkpt>
      <trkpt lat="46.62875" lon="-1.87559">
        <ele>8</ele>
        <time>2018-03-18T15:08:06Z</time>
      </trkpt>
      <trkpt lat="46.62886" lon="-1.87578">
        <ele>8</ele>
        <time>2018-03-18T15:09:06Z</time>
      </trkpt>
      <trkpt lat="46.62897" lon="-1.87596">
        <ele>8</ele>
        <time>2018-03-18T15:10:06Z</time>
      </trkpt>
      <trkpt lat="46.62898" lon="-1.87599">
        <ele>8</ele>
        <time>2018-03-18T15:11:06Z</time>
      </trkpt>
      <trkpt lat="46.62903" lon="-1.87611">
        <ele>8</ele>
        <time>2018-03-18T15:12:06Z</time>
      </trkpt>
      <trkpt lat="46.62955" lon="-1.87701">
        <ele>9</ele>
        <time>2018-03-18T15:13:06Z</time>
      </trkpt>
      <trkpt lat="46.62969" lon="-1.87725">
        <ele>9</ele>
        <time>2018-03-18T15:14:06Z</time>
      </trkpt>
      <trkpt lat="46.62975" lon="-1.87736">
        <ele>9</ele>
        <time>2018-03-18T15:15:06Z</time>
      </trkpt>
      <trkpt lat="46.62984" lon="-1.87753">
        <ele>9</ele>
        <time>2018-03-18T15:16:06Z</time>
      </trkpt>
      <trkpt lat="46.62988" lon="-1.87761">
        <ele>10</ele>
        <time>2018-03-18T15:17:06Z</time>
      </trkpt>
      <trkpt lat="46.62989" lon="-1.87763">
        <ele>10</ele>
        <time>2018-03-18T15:18:06Z</time>
      </trkpt>
      <trkpt lat="46.62994" lon="-1.87775">
        <ele>10</ele>
        <time>2018-03-18T15:19:06Z</time>
      </trkpt>
      <trkpt lat="46.63001" lon="-1.87801">
        <ele>10</ele>
        <time>2018-03-18T15:20:06Z</time>
      </trkpt>
      <trkpt lat="46.63013" lon="-1.87838">
        <ele>10</ele>
        <time>2018-03-18T15:21:06Z</time>
      </trkpt>
      <trkpt lat="46.63022" lon="-1.87869">
        <ele>10</ele>
        <time>2018-03-18T15:22:06Z</time>
      </trkpt>
      <trkpt lat="46.63022" lon="-1.87871">
        <ele>10</ele>
        <time>2018-03-18T15:23:06Z</time>
      </trkpt>
      <trkpt lat="46.63032" lon="-1.87907">
        <ele>10</ele>
        <time>2018-03-18T15:24:06Z</time>
      </trkpt>
      <trkpt lat="46.63043" lon="-1.87942">
        <ele>10</ele>
        <time>2018-03-18T15:25:06Z</time>
      </trkpt>
      <trkpt lat="46.6305" lon="-1.87961">
        <ele>10</ele>
        <time>2018-03-18T15:26:06Z</time>
      </trkpt>
      <trkpt lat="46.63059" lon="-1.8798">
        <ele>11</ele>
        <time>2018-03-18T15:27:06Z</time>
      </trkpt>
      <trkpt lat="46.63066" lon="-1.87991">
        <ele>11</ele>
        <time>2018-03-18T15:28:06Z</time>
      </trkpt>
      <trkpt lat="46.63075" lon="-1.88003">
        <ele>12</ele>
        <time>2018-03-18T15:29:06Z</time>
      </trkpt>
      <trkpt lat="46.63085" lon="-1.88018">
        <ele>12</ele>
        <time>2018-03-18T15:30:06Z</time>
      </trkpt>
      <trkpt lat="46.63104" lon="-1.88049">
        <ele>10</ele>
        <time>2018-03-18T15:31:06Z</time>
      </trkpt>
      <trkpt lat="46.63118" lon="-1.88071">
        <ele>9</ele>
        <time>2018-03-18T15:32:06Z</time>
      </trkpt>
      <trkpt lat="46.63126" lon="-1.88085">
        <ele>9</ele>
        <time>2018-03-18T15:33:06Z</time>
      </trkpt>
      <trkpt lat="46.63139" lon="-1.8811">
        <ele>9</ele>
        <time>2018-03-18T15:34:06Z</time>
      </trkpt>
      <trkpt lat="46.63146" lon="-1.88123">
        <ele>9</ele>
        <time>2018-03-18T15:35:06Z</time>
      </trkpt>
      <trkpt lat="46.63146" lon="-1.88123">
        <ele>9</ele>
        <time>2018-03-18T15:36:06Z</time>
      </trkpt>
      <trkpt lat="46.63151" lon="-1.88138">
        <ele>9</ele>
        <time>2018-03-18T15:37:06Z</time>
      </trkpt>
      <trkpt lat="46.63154" lon="-1.88152">
        <ele>9</ele>
        <time>2018-03-18T15:38:06Z</time>
      </trkpt>
      <trkpt lat="46.63157" lon="-1.8817">
        <ele>9</ele>
        <time>2018-03-18T15:39:06Z</time>
      </trkpt>
      <trkpt lat="46.63161" lon="-1.88202">
        <ele>8</ele>
        <time>2018-03-18T15:40:06Z</time>
      </trkpt>
      <trkpt lat="46.63164" lon="-1.8822">
        <ele>8</ele>
        <time>2018-03-18T15:41:06Z</time>
      </trkpt>
      <trkpt lat="46.63168" lon="-1.88249">
        <ele>7</ele>
        <time>2018-03-18T15:42:06Z</time>
      </trkpt>
      <trkpt lat="46.63173" lon="-1.88287">
        <ele>6</ele>
        <time>2018-03-18T15:43:06Z</time>
      </trkpt>
      <trkpt lat="46.63176" lon="-1.88306">
        <ele>6</ele>
        <time>2018-03-18T15:44:06Z</time>
      </trkpt>
      <trkpt lat="46.63183" lon="-1.88351">
        <ele>6</ele>
        <time>2018-03-18T15:45:06Z</time>
      </trkpt>
      <trkpt lat="46.6319" lon="-1.88402">
        <ele>6</ele>
        <time>2018-03-18T15:46:06Z</time>
      </trkpt>
      <trkpt lat="46.63195" lon="-1.88434">
        <ele>6</ele>
        <time>2018-03-18T15:47:06Z</time>
      </trkpt>
      <trkpt lat="46.632" lon="-1.88448">
        <ele>6</ele>
        <time>2018-03-18T15:48:06Z</time>
      </trkpt>
      <trkpt lat="46.63208" lon="-1.88464">
        <ele>6</ele>
        <time>2018-03-18T15:49:06Z</time>
      </trkpt>
      <trkpt lat="46.6322" lon="-1.88488">
        <ele>6</ele>
        <time>2018-03-18T15:50:06Z</time>
      </trkpt>
      <trkpt lat="46.63234" lon="-1.88515">
        <ele>6</ele>
        <time>2018-03-18T15:51:06Z</time>
      </trkpt>
      <trkpt lat="46.63252" lon="-1.88548">
        <ele>6</ele>
        <time>2018-03-18T15:52:06Z</time>
      </trkpt>
      <trkpt lat="46.63263" lon="-1.88567">
        <ele>6</ele>
        <time>2018-03-18T15:53:06Z</time>
      </trkpt>
      <trkpt lat="46.63268" lon="-1.88575">
        <ele>6</ele>
        <time>2018-03-18T15:54:06Z</time>
      </trkpt>
      <trkpt lat="46.63273" lon="-1.88585">
        <ele>6</ele>
        <time>2018-03-18T15:55:06Z</time>
      </trkpt>
      <trkpt lat="46.6328" lon="-1.88599">
        <ele>6</ele>
        <time>2018-03-18T15:56:06Z</time>
      </trkpt>
      <trkpt lat="46.63289" lon="-1.88618">
        <ele>6</ele>
        <time>2018-03-18T15:57:06Z</time>
      </trkpt>
      <trkpt lat="46.63292" lon="-1.88623">
        <ele>6</ele>
        <time>2018-03-18T15:58:06Z</time>
      </trkpt>
      <trkpt lat="46.63303" lon="-1.88642">
        <ele>6</ele>
        <time>2018-03-18T15:59:06Z</time>
      </trkpt>
      <trkpt lat="46.63312" lon="-1.88658">
        <ele>6</ele>
        <time>2018-03-18T16:00:06Z</time>
      </trkpt>
      <trkpt lat="46.63322" lon="-1.8867">
        <ele>7</ele>
        <time>2018-03-18T16:01:06Z</time>
      </trkpt>
      <trkpt lat="46.63344" lon="-1.88693">
        <ele>7</ele>
        <time>2018-03-18T16:02:06Z</time>
      </trkpt>
      <trkpt lat="46.63368" lon="-1.88714">
        <ele>7</ele>
        <time>2018-03-18T16:03:06Z</time>
      </trkpt>
      <trkpt lat="46.63385" lon="-1.8873">
        <ele>7</ele>
        <time>2018-03-18T16:04:06Z</time>
      </trkpt>
      <trkpt lat="46.63396" lon="-1.88741">
        <ele>7</ele>
        <time>2018-03-18T16:05:06Z</time>
      </trkpt>
      <trkpt lat="46.63406" lon="-1.88754">
        <ele>7</ele>
        <time>2018-03-18T16:06:06Z</time>
      </trkpt>
      <trkpt lat="46.63413" lon="-1.88765">
        <ele>7</ele>
        <time>2018-03-18T16:07:06Z</time>
      </trkpt>
      <trkpt lat="46.6342" lon="-1.88781">
        <ele>7</ele>
        <time>2018-03-18T16:08:06Z</time>
      </trkpt>
      <trkpt lat="46.63423" lon="-1.88789">
        <ele>7</ele>
        <time>2018-03-18T16:09:06Z</time>
      </trkpt>
      <trkpt lat="46.63433" lon="-1.88811">
        <ele>7</ele>
        <time>2018-03-18T16:10:06Z</time>
      </trkpt>
      <trkpt lat="46.63442" lon="-1.88833">
        <ele>8</ele>
        <time>2018-03-18T16:11:06Z</time>
      </trkpt>
      <trkpt lat="46.63453" lon="-1.88859">
        <ele>8</ele>
        <time>2018-03-18T16:12:06Z</time>
      </trkpt>
      <trkpt lat="46.63465" lon="-1.88888">
        <ele>8</ele>
        <time>2018-03-18T16:13:06Z</time>
      </trkpt>
      <trkpt lat="46.63479" lon="-1.88922">
        <ele>8</ele>
        <time>2018-03-18T16:14:06Z</time>
      </trkpt>
      <trkpt lat="46.63494" lon="-1.88958">
        <ele>8</ele>
        <time>2018-03-18T16:15:06Z</time>
      </trkpt>
      <trkpt lat="46.63504" lon="-1.88984">
        <ele>7</ele>
        <time>2018-03-18T16:16:06Z</time>
      </trkpt>
      <trkpt lat="46.63518" lon="-1.89017">
        <ele>6</ele>
        <time>2018-03-18T16:17:06Z</time>
      </trkpt>
      <trkpt lat="46.6352" lon="-1.89022">
        <ele>6</ele>
        <time>2018-03-18T16:18:06Z</time>
      </trkpt>
      <trkpt lat="46.63524" lon="-1.89032">
        <ele>6</ele>
        <time>2018-03-18T16:19:06Z</time>
      </trkpt>
      <trkpt lat="46.6353" lon="-1.89043">
        <ele>6</ele>
        <time>2018-03-18T16:20:06Z</time>
      </trkpt>
      <trkpt lat="46.63534" lon="-1.89049">
        <ele>6</ele>
        <time>2018-03-18T16:21:06Z</time>
      </trkpt>
      <trkpt lat="46.63536" lon="-1.89053">
        <ele>6</ele>
        <time>2018-03-18T16:22:06Z</time>
      </trkpt>
      <trkpt lat="46.63543" lon="-1.89061">
        <ele>6</ele>
        <time>2018-03-18T16:23:06Z</time>
      </trkpt>
      <trkpt lat="46.63619" lon="-1.89114">
        <ele>8</ele>
        <time>2018-03-18T16:24:06Z</time>
      </trkpt>
      <trkpt lat="46.63629" lon="-1.89121">
        <ele>8</ele>
        <time>2018-03-18T16:25:06Z</time>
      </trkpt>
      <trkpt lat="46.6363" lon="-1.89123">
        <ele>8</ele>
        <time>2018-03-18T16:26:06Z</time>
      </trkpt>
      <trkpt lat="46.63632" lon="-1.89124">
        <ele>8</ele>
        <time>2018-03-18T16:27:06Z</time>
      </trkpt>
      <trkpt lat="46.63657" lon="-1.89143">
        <ele>9</ele>
        <time>2018-03-18T16:28:06Z</time>
      </trkpt>
      <trkpt lat="46.63686" lon="-1.89162">
        <ele>9</ele>
        <time>2018-03-18T16:29:06Z</time>
      </trkpt>
      <trkpt lat="46.63712" lon="-1.89179">
        <ele>9</ele>
        <time>2018-03-18T16:30:06Z</time>
      </trkpt>
      <trkpt lat="46.63718" lon="-1.89185">
        <ele>8</ele>
        <time>2018-03-18T16:31:06Z</time>
      </trkpt>
      <trkpt lat="46.6374" lon="-1.892">
        <ele>9</ele>
        <time>2018-03-18T16:32:06Z</time>
      </trkpt>
      <trkpt lat="46.63789" lon="-1.89237">
        <ele>8</ele>
        <time>2018-03-18T16:33:06Z</time>
      </trkpt>
      <trkpt lat="46.63802" lon="-1.89252">
        <ele>8</ele>
        <time>2018-03-18T16:34:06Z</time>
      </trkpt>
      <trkpt lat="46.63807" lon="-1.89261">
        <ele>7</ele>
        <time>2018-03-18T16:35:06Z</time>
      </trkpt>
      <trkpt lat="46.63817" lon="-1.89276">
        <ele>7</ele>
        <time>2018-03-18T16:36:06Z</time>
      </trkpt>
      <trkpt lat="46.63831" lon="-1.89294">
        <ele>7</ele>
        <time>2018-03-18T16:37:06Z</time>
      </trkpt>
      <trkpt lat="46.63847" lon="-1.89315">
        <ele>7</ele>
        <time>2018-03-18T16:38:06Z</time>
      </trkpt>
      <trkpt lat="46.63852" lon="-1.89324">
        <ele>7</ele>
        <time>2018-03-18T16:39:06Z</time>
      </trkpt>
      <trkpt lat="46.63865" lon="-1.89341">
        <ele>7</ele>
        <time>2018-03-18T16:40:06Z</time>
      </trkpt>
      <trkpt lat="46.63884" lon="-1.89368">
        <ele>6</ele>
        <time>2018-03-18T16:41:06Z</time>
      </trkpt>
      <trkpt lat="46.63888" lon="-1.89374">
        <ele>6</ele>
        <time>2018-03-18T16:42:06Z</time>
      </trkpt>
      <trkpt lat="46.6391" lon="-1.89405">
        <ele>5</ele>
        <time>2018-03-18T16:43:06Z</time>
      </trkpt>
      <trkpt lat="46.63915" lon="-1.89412">
        <ele>5</ele>
        <time>2018-03-18T16:44:06Z</time>
      </trkpt>
      <trkpt lat="46.63919" lon="-1.89416">
        <ele>5</ele>
        <time>2018-03-18T16:45:06Z</time>
      </trkpt>
      <trkpt lat="46.63925" lon="-1.89422">
        <ele>5</ele>
        <time>2018-03-18T16:46:06Z</time>
      </trkpt>
      <trkpt lat="46.63935" lon="-1.89424">
        <ele>5</ele>
        <time>2018-03-18T16:47:06Z</time>
      </trkpt>
      <trkpt lat="46.6395" lon="-1.89424">
        <ele>6</ele>
        <time>2018-03-18T16:48:06Z</time>
      </trkpt>
      <trkpt lat="46.63967" lon="-1.89421">
        <ele>6</ele>
        <time>2018-03-18T16:49:06Z</time>
      </trkpt>
      <trkpt lat="46.6398" lon="-1.89421">
        <ele>6</ele>
        <time>2018-03-18T16:50:06Z</time>
      </trkpt>
      <trkpt lat="46.63993" lon="-1.8942">
        <ele>7</ele>
        <time>2018-03-18T16:51:06Z</time>
      </trkpt>
      <trkpt lat="46.64001" lon="-1.89419">
        <ele>7</ele>
        <time>2018-03-18T16:52:06Z</time>
      </trkpt>
      <trkpt lat="46.64014" lon="-1.89408">
        <ele>8</ele>
        <time>2018-03-18T16:53:06Z</time>
      </trkpt>
      <trkpt lat="46.64014" lon="-1.89408">
        <ele>8</ele>
        <time>2018-03-18T16:54:06Z</time>
      </trkpt>
      <trkpt lat="46.64032" lon="-1.89371">
        <ele>9</ele>
        <time>2018-03-18T16:55:06Z</time>
      </trkpt>
      <trkpt lat="46.64043" lon="-1.89336">
        <ele>10</ele>
        <time>2018-03-18T16:56:06Z</time>
      </trkpt>
      <trkpt lat="46.64056" lon="-1.89296">
        <ele>10</ele>
        <time>2018-03-18T16:57:06Z</time>
      </trkpt>
      <trkpt lat="46.64061" lon="-1.89283">
        <ele>11</ele>
        <time>2018-03-18T16:58:06Z</time>
      </trkpt>
      <trkpt lat="46.64078" lon="-1.89253">
        <ele>11</ele>
        <time>2018-03-18T16:59:06Z</time>
      </trkpt>
      <trkpt lat="46.64107" lon="-1.892">
        <ele>12</ele>
        <time>2018-03-18T17:00:06Z</time>
      </trkpt>
      <trkpt lat="46.64121" lon="-1.8917">
        <ele>12</ele>
        <time>2018-03-18T17:01:06Z</time>
      </trkpt>
      <trkpt lat="46.64126" lon="-1.8916">
        <ele>13</ele>
        <time>2018-03-18T17:02:06Z</time>
      </trkpt>
      <trkpt lat="46.64133" lon="-1.89149">
        <ele>13</ele>
        <time>2018-03-18T17:03:06Z</time>
      </trkpt>
      <trkpt lat="46.64135" lon="-1.89148">
        <ele>13</ele>
        <time>2018-03-18T17:04:06Z</time>
      </trkpt>
      <trkpt lat="46.64147" lon="-1.89136">
        <ele>13</ele>
        <time>2018-03-18T17:05:06Z</time>
      </trkpt>
      <trkpt lat="46.64161" lon="-1.89123">
        <ele>13</ele>
        <time>2018-03-18T17:06:06Z</time>
      </trkpt>
      <trkpt lat="46.64175" lon="-1.8911">
        <ele>13</ele>
        <time>2018-03-18T17:07:06Z</time>
      </trkpt>
      <trkpt lat="46.64187" lon="-1.89101">
        <ele>13</ele>
        <time>2018-03-18T17:08:06Z</time>
      </trkpt>
      <trkpt lat="46.64188" lon="-1.89101">
        <ele>14</ele>
        <time>2018-03-18T17:09:06Z</time>
      </trkpt>
      <trkpt lat="46.64193" lon="-1.89095">
        <ele>14</ele>
        <time>2018-03-18T17:10:06Z</time>
      </trkpt>
      <trkpt lat="46.64198" lon="-1.89091">
        <ele>14</ele>
        <time>2018-03-18T17:11:06Z</time>
      </trkpt>
      <trkpt lat="46.64204" lon="-1.89084">
        <ele>14</ele>
        <time>2018-03-18T17:12:06Z</time>
      </trkpt>
      <trkpt lat="46.6421" lon="-1.89074">
        <ele>14</ele>
        <time>2018-03-18T17:13:06Z</time>
      </trkpt>
      <trkpt lat="46.64214" lon="-1.89064">
        <ele>14</ele>
        <time>2018-03-18T17:14:06Z</time>
      </trkpt>
      <trkpt lat="46.64217" lon="-1.8905">
        <ele>14</ele>
        <time>2018-03-18T17:15:06Z</time>
      </trkpt>
      <trkpt lat="46.6422" lon="-1.89043">
        <ele>14</ele>
        <time>2018-03-18T17:16:06Z</time>
      </trkpt>
      <trkpt lat="46.6422" lon="-1.89043">
        <ele>14</ele>
        <time>2018-03-18T17:17:06Z</time>
      </trkpt>
      <trkpt lat="46.64223" lon="-1.89041">
        <ele>15</ele>
        <time>2018-03-18T17:18:06Z</time>
      </trkpt>
      <trkpt lat="46.64228" lon="-1.89041">
        <ele>15</ele>
        <time>2018-03-18T17:19:06Z</time>
      </trkpt>
      <trkpt lat="46.64233" lon="-1.89042">
        <ele>15</ele>
        <time>2018-03-18T17:20:06Z</time>
      </trkpt>
      <trkpt lat="46.64238" lon="-1.89043">
        <ele>15</ele>
        <time>2018-03-18T17:21:06Z</time>
      </trkpt>
      <trkpt lat="46.64241" lon="-1.89043">
        <ele>15</ele>
        <time>2018-03-18T17:22:06Z</time>
      </trkpt>
      <trkpt lat="46.64254" lon="-1.89044">
        <ele>15</ele>
        <time>2018-03-18T17:23:06Z</time>
      </trkpt>
      <trkpt lat="46.64266" lon="-1.89045">
        <ele>15</ele>
        <time>2018-03-18T17:24:06Z</time>
      </trkpt>
      <trkpt lat="46.64272" lon="-1.89045">
        <ele>15</ele>
        <time>2018-03-18T17:25:06Z</time>
      </trkpt>
      <trkpt lat="46.64288" lon="-1.89044">
        <ele>15</ele>
        <time>2018-03-18T17:26:06Z</time>
      </trkpt>
      <trkpt lat="46.64302" lon="-1.89042">
        <ele>15</ele>
        <time>2018-03-18T17:27:06Z</time>
      </trkpt>
      <trkpt lat="46.64322" lon="-1.89039">
        <ele>15</ele>
        <time>2018-03-18T17:28:06Z</time>
      </trkpt>
      <trkpt lat="46.64346" lon="-1.89036">
        <ele>15</ele>
        <time>2018-03-18T17:29:06Z</time>
      </trkpt>
      <trkpt lat="46.64363" lon="-1.89032">
        <ele>15</ele>
        <time>2018-03-18T17:30:06Z</time>
      </trkpt>
      <trkpt lat="46.64389" lon="-1.89028">
        <ele>16</ele>
        <time>2018-03-18T17:31:06Z</time>
      </trkpt>
      <trkpt lat="46.64411" lon="-1.89025">
        <ele>16</ele>
        <time>2018-03-18T17:32:06Z</time>
      </trkpt>
      <trkpt lat="46.6442" lon="-1.89024">
        <ele>16</ele>
        <time>2018-03-18T17:33:06Z</time>
      </trkpt>
      <trkpt lat="46.64431" lon="-1.89023">
        <ele>16</ele>
        <time>2018-03-18T17:34:06Z</time>
      </trkpt>
      <trkpt lat="46.64446" lon="-1.89023">
        <ele>16</ele>
        <time>2018-03-18T17:35:06Z</time>
      </trkpt>
      <trkpt lat="46.64463" lon="-1.89023">
        <ele>16</ele>
        <time>2018-03-18T17:36:06Z</time>
      </trkpt>
      <trkpt lat="46.64476" lon="-1.89024">
        <ele>16</ele>
        <time>2018-03-18T17:37:06Z</time>
      </trkpt>
      <trkpt lat="46.64478" lon="-1.89024">
        <ele>16</ele>
        <time>2018-03-18T17:38:06Z</time>
      </trkpt>
      <trkpt lat="46.64492" lon="-1.89026">
        <ele>16</ele>
        <time>2018-03-18T17:39:06Z</time>
      </trkpt>
      <trkpt lat="46.64508" lon="-1.8903">
        <ele>16</ele>
        <time>2018-03-18T17:40:06Z</time>
      </trkpt>
      <trkpt lat="46.64521" lon="-1.89032">
        <ele>16</ele>
        <time>2018-03-18T17:41:06Z</time>
      </trkpt>
      <trkpt lat="46.64531" lon="-1.89032">
        <ele>16</ele>
        <time>2018-03-18T17:42:06Z</time>
      </trkpt>
      <trkpt lat="46.64538" lon="-1.89032">
        <ele>16</ele>
        <time>2018-03-18T17:43:06Z</time>
      </trkpt>
      <trkpt lat="46.6455" lon="-1.8903">
        <ele>16</ele>
        <time>2018-03-18T17:44:06Z</time>
      </trkpt>
      <trkpt lat="46.64567" lon="-1.89029">
        <ele>16</ele>
        <time>2018-03-18T17:45:06Z</time>
      </trkpt>
      <trkpt lat="46.64572" lon="-1.89028">
        <ele>16</ele>
        <time>2018-03-18T17:46:06Z</time>
      </trkpt>
      <trkpt lat="46.64578" lon="-1.89025">
        <ele>16</ele>
        <time>2018-03-18T17:47:06Z</time>
      </trkpt>
      <trkpt lat="46.64592" lon="-1.89011">
        <ele>15</ele>
        <time>2018-03-18T17:48:06Z</time>
      </trkpt>
      <trkpt lat="46.64592" lon="-1.89011">
        <ele>15</ele>
        <time>2018-03-18T17:49:06Z</time>
      </trkpt>
      <trkpt lat="46.64592" lon="-1.8901">
        <ele>15</ele>
        <time>2018-03-18T17:50:06Z</time>
      </trkpt>
      <trkpt lat="46.64592" lon="-1.89009">
        <ele>15</ele>
        <time>2018-03-18T17:51:06Z</time>
      </trkpt>
      <trkpt lat="46.64592" lon="-1.89008">
        <ele>15</ele>
        <time>2018-03-18T17:52:06Z</time>
      </trkpt>
      <trkpt lat="46.64592" lon="-1.89007">
        <ele>15</ele>
        <time>2018-03-18T17:53:06Z</time>
      </trkpt>
      <trkpt lat="46.64592" lon="-1.89006">
        <ele>15</ele>
        <time>2018-03-18T17:54:06Z</time>
      </trkpt>
      <trkpt lat="46.64592" lon="-1.89005">
        <ele>15</ele>
        <time>2018-03-18T17:55:06Z</time>
      </trkpt>
      <trkpt lat="46.64592" lon="-1.89004">
        <ele>15</ele>
        <time>2018-03-18T17:56:06Z</time>
      </trkpt>
      <trkpt lat="46.64593" lon="-1.89003">
        <ele>15</ele>
        <time>2018-03-18T17:57:06Z</time>
      </trkpt>
      <trkpt lat="46.64593" lon="-1.89002">
        <ele>15</ele>
        <time>2018-03-18T17:58:06Z</time>
      </trkpt>
      <trkpt lat="46.64593" lon="-1.89001">
        <ele>15</ele>
        <time>2018-03-18T17:59:06Z</time>
      </trkpt>
      <trkpt lat="46.64594" lon="-1.89001">
        <ele>15</ele>
        <time>2018-03-18T18:00:06Z</time>
      </trkpt>
      <trkpt lat="46.64594" lon="-1.89">
        <ele>15</ele>
        <time>2018-03-18T18:01:06Z</time>
      </trkpt>
      <trkpt lat="46.64595" lon="-1.88999">
        <ele>15</ele>
        <time>2018-03-18T18:02:06Z</time>
      </trkpt>
      <trkpt lat="46.64596" lon="-1.88998">
        <ele>15</ele>
        <time>2018-03-18T18:03:06Z</time>
      </trkpt>
      <trkpt lat="46.64597" lon="-1.88997">
        <ele>15</ele>
        <time>2018-03-18T18:04:06Z</time>
      </trkpt>
      <trkpt lat="46.64598" lon="-1.88997">
        <ele>15</ele>
        <time>2018-03-18T18:05:06Z</time>
      </trkpt>
      <trkpt lat="46.64599" lon="-1.88997">
        <ele>15</ele>
        <time>2018-03-18T18:06:06Z</time>
      </trkpt>
      <trkpt lat="46.64599" lon="-1.88996">
        <ele>15</ele>
        <time>2018-03-18T18:07:06Z</time>
      </trkpt>
      <trkpt lat="46.646" lon="-1.88996">
        <ele>15</ele>
        <time>2018-03-18T18:08:06Z</time>
      </trkpt>
      <trkpt lat="46.64601" lon="-1.88996">
        <ele>15</ele>
        <time>2018-03-18T18:09:06Z</time>
      </trkpt>
      <trkpt lat="46.64601" lon="-1.88997">
        <ele>15</ele>
        <time>2018-03-18T18:10:06Z</time>
      </trkpt>
      <trkpt lat="46.64602" lon="-1.88997">
        <ele>15</ele>
        <time>2018-03-18T18:11:06Z</time>
      </trkpt>
      <trkpt lat="46.64603" lon="-1.88997">
        <ele>15</ele>
        <time>2018-03-18T18:12:06Z</time>
      </trkpt>
      <trkpt lat="46.64604" lon="-1.88997">
        <ele>15</ele>
        <time>2018-03-18T18:13:06Z</time>
      </trkpt>
      <trkpt lat="46.64604" lon="-1.88998">
        <ele>15</ele>
        <time>2018-03-18T18:14:06Z</time>
      </trkpt>
      <trkpt lat="46.64605" lon="-1.88998">
        <ele>15</ele>
        <time>2018-03-18T18:15:06Z</time>
      </trkpt>
      <trkpt lat="46.64605" lon="-1.88999">
        <ele>15</ele>
        <time>2018-03-18T18:16:06Z</time>
      </trkpt>
      <trkpt lat="46.64606" lon="-1.88999">
        <ele>15</ele>
        <time>2018-03-18T18:17:06Z</time>
      </trkpt>
      <trkpt lat="46.64606" lon="-1.89">
        <ele>15</ele>
        <time>2018-03-18T18:18:06Z</time>
      </trkpt>
      <trkpt lat="46.64607" lon="-1.89001">
        <ele>15</ele>
        <time>2018-03-18T18:19:06Z</time>
      </trkpt>
      <trkpt lat="46.64607" lon="-1.89002">
        <ele>15</ele>
        <time>2018-03-18T18:20:06Z</time>
      </trkpt>
      <trkpt lat="46.64608" lon="-1.89003">
        <ele>15</ele>
        <time>2018-03-18T18:21:06Z</time>
      </trkpt>
      <trkpt lat="46.64608" lon="-1.89004">
        <ele>15</ele>
        <time>2018-03-18T18:22:06Z</time>
      </trkpt>
      <trkpt lat="46.64608" lon="-1.89005">
        <ele>15</ele>
        <time>2018-03-18T18:23:06Z</time>
      </trkpt>
      <trkpt lat="46.64608" lon="-1.89006">
        <ele>15</ele>
        <time>2018-03-18T18:24:06Z</time>
      </trkpt>
      <trkpt lat="46.64609" lon="-1.89007">
        <ele>15</ele>
        <time>2018-03-18T18:25:06Z</time>
      </trkpt>
      <trkpt lat="46.64611" lon="-1.89011">
        <ele>16</ele>
        <time>2018-03-18T18:26:06Z</time>
      </trkpt>
      <trkpt lat="46.64613" lon="-1.89013">
        <ele>16</ele>
        <time>2018-03-18T18:27:06Z</time>
      </trkpt>
      <trkpt lat="46.64616" lon="-1.89017">
        <ele>16</ele>
        <time>2018-03-18T18:28:06Z</time>
      </trkpt>
      <trkpt lat="46.64618" lon="-1.89018">
        <ele>16</ele>
        <time>2018-03-18T18:29:06Z</time>
      </trkpt>
      <trkpt lat="46.64619" lon="-1.8902">
        <ele>16</ele>
        <time>2018-03-18T18:30:06Z</time>
      </trkpt>
      <trkpt lat="46.64626" lon="-1.89025">
        <ele>16</ele>
        <time>2018-03-18T18:31:06Z</time>
      </trkpt>
      <trkpt lat="46.64633" lon="-1.89029">
        <ele>16</ele>
        <time>2018-03-18T18:32:06Z</time>
      </trkpt>
      <trkpt lat="46.6464" lon="-1.89033">
        <ele>16</ele>
        <time>2018-03-18T18:33:06Z</time>
      </trkpt>
      <trkpt lat="46.64641" lon="-1.89034">
        <ele>16</ele>
        <time>2018-03-18T18:34:06Z</time>
      </trkpt>
      <trkpt lat="46.64656" lon="-1.89043">
        <ele>16</ele>
        <time>2018-03-18T18:35:06Z</time>
      </trkpt>
      <trkpt lat="46.64658" lon="-1.89044">
        <ele>16</ele>
        <time>2018-03-18T18:36:06Z</time>
      </trkpt>
      <trkpt lat="46.64666" lon="-1.89048">
        <ele>17</ele>
        <time>2018-03-18T18:37:06Z</time>
      </trkpt>
      <trkpt lat="46.64673" lon="-1.89055">
        <ele>17</ele>
        <time>2018-03-18T18:38:06Z</time>
      </trkpt>
      <trkpt lat="46.64692" lon="-1.89065">
        <ele>17</ele>
        <time>2018-03-18T18:39:06Z</time>
      </trkpt>
      <trkpt lat="46.64722" lon="-1.8908">
        <ele>18</ele>
        <time>2018-03-18T18:40:06Z</time>
      </trkpt>
      <trkpt lat="46.64754" lon="-1.89098">
        <ele>18</ele>
        <time>2018-03-18T18:41:06Z</time>
      </trkpt>
      <trkpt lat="46.64788" lon="-1.89116">
        <ele>18</ele>
        <time>2018-03-18T18:42:06Z</time>
      </trkpt>
      <trkpt lat="46.64822" lon="-1.89134">
        <ele>17</ele>
        <time>2018-03-18T18:43:06Z</time>
      </trkpt>
      <trkpt lat="46.6486" lon="-1.89155">
        <ele>17</ele>
        <time>2018-03-18T18:44:06Z</time>
      </trkpt>
      <trkpt lat="46.6489" lon="-1.89171">
        <ele>16</ele>
        <time>2018-03-18T18:45:06Z</time>
      </trkpt>
      <trkpt lat="46.6496" lon="-1.89207">
        <ele>15</ele>
        <time>2018-03-18T18:46:06Z</time>
      </trkpt>
      <trkpt lat="46.65005" lon="-1.89232">
        <ele>14</ele>
        <time>2018-03-18T18:47:06Z</time>
      </trkpt>
      <trkpt lat="46.65045" lon="-1.89253">
        <ele>13</ele>
        <time>2018-03-18T18:48:06Z</time>
      </trkpt>
      <trkpt lat="46.65124" lon="-1.89296">
        <ele>12</ele>
        <time>2018-03-18T18:49:06Z</time>
      </trkpt>
      <trkpt lat="46.65156" lon="-1.89313">
        <ele>11</ele>
        <time>2018-03-18T18:50:06Z</time>
      </trkpt>
      <trkpt lat="46.65193" lon="-1.89334">
        <ele>9</ele>
        <time>2018-03-18T18:51:06Z</time>
      </trkpt>
      <trkpt lat="46.65215" lon="-1.89348">
        <ele>8</ele>
        <time>2018-03-18T18:52:06Z</time>
      </trkpt>
      <trkpt lat="46.65231" lon="-1.89359">
        <ele>7</ele>
        <time>2018-03-18T18:53:06Z</time>
      </trkpt>
      <trkpt lat="46.6525" lon="-1.89376">
        <ele>6</ele>
        <time>2018-03-18T18:54:06Z</time>
      </trkpt>
      <trkpt lat="46.65265" lon="-1.89391">
        <ele>6</ele>
        <time>2018-03-18T18:55:06Z</time>
      </trkpt>
      <trkpt lat="46.65293" lon="-1.8942">
        <ele>6</ele>
        <time>2018-03-18T18:56:06Z</time>
      </trkpt>
      <trkpt lat="46.65301" lon="-1.89425">
        <ele>5</ele>
        <time>2018-03-18T18:57:06Z</time>
      </trkpt>
      <trkpt lat="46.65345" lon="-1.89471">
        <ele>6</ele>
        <time>2018-03-18T18:58:06Z</time>
      </trkpt>
      <trkpt lat="46.65361" lon="-1.89488">
        <ele>6</ele>
        <time>2018-03-18T18:59:06Z</time>
      </trkpt>
      <trkpt lat="46.65369" lon="-1.89496">
        <ele>6</ele>
        <time>2018-03-18T19:00:06Z</time>
      </trkpt>
      <trkpt lat="46.65414" lon="-1.89536">
        <ele>7</ele>
        <time>2018-03-18T19:01:06Z</time>
      </trkpt>
      <trkpt lat="46.65449" lon="-1.89567">
        <ele>7</ele>
        <time>2018-03-18T19:02:06Z</time>
      </trkpt>
      <trkpt lat="46.65489" lon="-1.89598">
        <ele>8</ele>
        <time>2018-03-18T19:03:06Z</time>
      </trkpt>
      <trkpt lat="46.65541" lon="-1.89637">
        <ele>7</ele>
        <time>2018-03-18T19:04:06Z</time>
      </trkpt>
      <trkpt lat="46.65546" lon="-1.89643">
        <ele>7</ele>
        <time>2018-03-18T19:05:06Z</time>
      </trkpt>
      <trkpt lat="46.65631" lon="-1.89698">
        <ele>8</ele>
        <time>2018-03-18T19:06:06Z</time>
      </trkpt>
      <trkpt lat="46.65759" lon="-1.89784">
        <ele>8</ele>
        <time>2018-03-18T19:07:06Z</time>
      </trkpt>
      <trkpt lat="46.65878" lon="-1.8986">
        <ele>7</ele>
        <time>2018-03-18T19:08:06Z</time>
      </trkpt>
      <trkpt lat="46.65944" lon="-1.89901">
        <ele>7</ele>
        <time>2018-03-18T19:09:06Z</time>
      </trkpt>
      <trkpt lat="46.65958" lon="-1.89911">
        <ele>6</ele>
        <time>2018-03-18T19:10:06Z</time>
      </trkpt>
      <trkpt lat="46.65975" lon="-1.89922">
        <ele>7</ele>
        <time>2018-03-18T19:11:06Z</time>
      </trkpt>
      <trkpt lat="46.66028" lon="-1.89956">
        <ele>8</ele>
        <time>2018-03-18T19:12:06Z</time>
      </trkpt>
      <trkpt lat="46.66074" lon="-1.89986">
        <ele>7</ele>
        <time>2018-03-18T19:13:06Z</time>
      </trkpt>
      <trkpt lat="46.6609" lon="-1.89996">
        <ele>7</ele>
        <time>2018-03-18T19:14:06Z</time>
      </trkpt>
      <trkpt lat="46.66116" lon="-1.90011">
        <ele>6</ele>
        <time>2018-03-18T19:15:06Z</time>
      </trkpt>
      <trkpt lat="46.6615" lon="-1.90033">
        <ele>5</ele>
        <time>2018-03-18T19:16:06Z</time>
      </trkpt>
      <trkpt lat="46.66183" lon="-1.90053">
        <ele>4</ele>
        <time>2018-03-18T19:17:06Z</time>
      </trkpt>
      <trkpt lat="46.66205" lon="-1.90067">
        <ele>3</ele>
        <time>2018-03-18T19:18:06Z</time>
      </trkpt>
      <trkpt lat="46.66216" lon="-1.90073">
        <ele>3</ele>
        <time>2018-03-18T19:19:06Z</time>
      </trkpt>
      <trkpt lat="46.66223" lon="-1.90077">
        <ele>3</ele>
        <time>2018-03-18T19:20:06Z</time>
      </trkpt>
      <trkpt lat="46.66229" lon="-1.9008">
        <ele>3</ele>
        <time>2018-03-18T19:21:06Z</time>
      </trkpt>
      <trkpt lat="46.66237" lon="-1.90084">
        <ele>2</ele>
        <time>2018-03-18T19:22:06Z</time>
      </trkpt>
      <trkpt lat="46.66244" lon="-1.90087">
        <ele>2</ele>
        <time>2018-03-18T19:23:06Z</time>
      </trkpt>
      <trkpt lat="46.66251" lon="-1.90089">
        <ele>2</ele>
        <time>2018-03-18T19:24:06Z</time>
      </trkpt>
      <trkpt lat="46.66254" lon="-1.90091">
        <ele>2</ele>
        <time>2018-03-18T19:25:06Z</time>
      </trkpt>
      <trkpt lat="46.66258" lon="-1.90092">
        <ele>2</ele>
        <time>2018-03-18T19:26:06Z</time>
      </trkpt>
      <trkpt lat="46.66265" lon="-1.90094">
        <ele>2</ele>
        <time>2018-03-18T19:27:06Z</time>
      </trkpt>
      <trkpt lat="46.66278" lon="-1.90097">
        <ele>2</ele>
        <time>2018-03-18T19:28:06Z</time>
      </trkpt>
      <trkpt lat="46.66301" lon="-1.90103">
        <ele>1</ele>
        <time>2018-03-18T19:29:06Z</time>
      </trkpt>
      <trkpt lat="46.66328" lon="-1.90109">
        <ele>1</ele>
        <time>2018-03-18T19:30:06Z</time>
      </trkpt>
      <trkpt lat="46.66335" lon="-1.90111">
        <ele>1</ele>
        <time>2018-03-18T19:31:06Z</time>
      </trkpt>
      <trkpt lat="46.66342" lon="-1.90113">
        <ele>1</ele>
        <time>2018-03-18T19:32:06Z</time>
      </trkpt>
      <trkpt lat="46.66354" lon="-1.90116">
        <ele>1</ele>
        <time>2018-03-18T19:33:06Z</time>
      </trkpt>
      <trkpt lat="46.6636" lon="-1.90117">
        <ele>1</ele>
        <time>2018-03-18T19:34:06Z</time>
      </trkpt>
      <trkpt lat="46.66365" lon="-1.90118">
        <ele>1</ele>
        <time>2018-03-18T19:35:06Z</time>
      </trkpt>
      <trkpt lat="46.66457" lon="-1.90141">
        <ele>3</ele>
        <time>2018-03-18T19:36:06Z</time>
      </trkpt>
      <trkpt lat="46.66556" lon="-1.90164">
        <ele>3</ele>
        <time>2018-03-18T19:37:06Z</time>
      </trkpt>
      <trkpt lat="46.66598" lon="-1.90175">
        <ele>4</ele>
        <time>2018-03-18T19:38:06Z</time>
      </trkpt>
      <trkpt lat="46.66644" lon="-1.90186">
        <ele>5</ele>
        <time>2018-03-18T19:39:06Z</time>
      </trkpt>
      <trkpt lat="46.66651" lon="-1.90186">
        <ele>5</ele>
        <time>2018-03-18T19:40:06Z</time>
      </trkpt>
      <trkpt lat="46.66727" lon="-1.90202">
        <ele>6</ele>
        <time>2018-03-18T19:41:06Z</time>
      </trkpt>
      <trkpt lat="46.66748" lon="-1.90207">
        <ele>6</ele>
        <time>2018-03-18T19:42:06Z</time>
      </trkpt>
      <trkpt lat="46.66755" lon="-1.90209">
        <ele>5</ele>
        <time>2018-03-18T19:43:06Z</time>
      </trkpt>
      <trkpt lat="46.66772" lon="-1.90213">
        <ele>5</ele>
        <time>2018-03-18T19:44:06Z</time>
      </trkpt>
      <trkpt lat="46.66799" lon="-1.90219">
        <ele>5</ele>
        <time>2018-03-18T19:45:06Z</time>
      </trkpt>
      <trkpt lat="46.66818" lon="-1.90224">
        <ele>5</ele>
        <time>2018-03-18T19:46:06Z</time>
      </trkpt>
      <trkpt lat="46.66831" lon="-1.90229">
        <ele>5</ele>
        <time>2018-03-18T19:47:06Z</time>
      </trkpt>
      <trkpt lat="46.66842" lon="-1.90233">
        <ele>5</ele>
        <time>2018-03-18T19:48:06Z</time>
      </trkpt>
      <trkpt lat="46.66848" lon="-1.90237">
        <ele>5</ele>
        <time>2018-03-18T19:49:06Z</time>
      </trkpt>
      <trkpt lat="46.66863" lon="-1.90243">
        <ele>5</ele>
        <time>2018-03-18T19:50:06Z</time>
      </trkpt>
      <trkpt lat="46.66868" lon="-1.90245">
        <ele>5</ele>
        <time>2018-03-18T19:51:06Z</time>
      </trkpt>
      <trkpt lat="46.66874" lon="-1.90248">
        <ele>5</ele>
        <time>2018-03-18T19:52:06Z</time>
      </trkpt>
      <trkpt lat="46.66878" lon="-1.90251">
        <ele>5</ele>
        <time>2018-03-18T19:53:06Z</time>
      </trkpt>
      <trkpt lat="46.66883" lon="-1.90253">
        <ele>5</ele>
        <time>2018-03-18T19:54:06Z</time>
      </trkpt>
      <trkpt lat="46.66887" lon="-1.90256">
        <ele>5</ele>
        <time>2018-03-18T19:55:06Z</time>
      </trkpt>
      <trkpt lat="46.66891" lon="-1.90258">
        <ele>5</ele>
        <time>2018-03-18T19:56:06Z</time>
      </trkpt>
      <trkpt lat="46.66895" lon="-1.90261">
        <ele>5</ele>
        <time>2018-03-18T19:57:06Z</time>
      </trkpt>
      <trkpt lat="46.66902" lon="-1.90265">
        <ele>5</ele>
        <time>2018-03-18T19:58:06Z</time>
      </trkpt>
      <trkpt lat="46.66908" lon="-1.90269">
        <ele>5</ele>
        <time>2018-03-18T19:59:06Z</time>
      </trkpt>
      <trkpt lat="46.66913" lon="-1.90272">
        <ele>5</ele>
        <time>2018-03-18T20:00:06Z</time>
      </trkpt>
      <trkpt lat="46.66917" lon="-1.90275">
        <ele>5</ele>
        <time>2018-03-18T20:01:06Z</time>
      </trkpt>
      <trkpt lat="46.66922" lon="-1.90279">
        <ele>5</ele>
        <time>2018-03-18T20:02:06Z</time>
      </trkpt>
      <trkpt lat="46.66926" lon="-1.90283">
        <ele>5</ele>
        <time>2018-03-18T20:03:06Z</time>
      </trkpt>
      <trkpt lat="46.66936" lon="-1.90291">
        <ele>5</ele>
        <time>2018-03-18T20:04:06Z</time>
      </trkpt>
      <trkpt lat="46.66953" lon="-1.90302">
        <ele>5</ele>
        <time>2018-03-18T20:05:06Z</time>
      </trkpt>
      <trkpt lat="46.66954" lon="-1.90303">
        <ele>5</ele>
        <time>2018-03-18T20:06:06Z</time>
      </trkpt>
      <trkpt lat="46.66956" lon="-1.90304">
        <ele>5</ele>
        <time>2018-03-18T20:07:06Z</time>
      </trkpt>
      <trkpt lat="46.66957" lon="-1.90304">
        <ele>5</ele>
        <time>2018-03-18T20:08:06Z</time>
      </trkpt>
      <trkpt lat="46.66957" lon="-1.90305">
        <ele>5</ele>
        <time>2018-03-18T20:09:06Z</time>
      </trkpt>
      <trkpt lat="46.66958" lon="-1.90305">
        <ele>5</ele>
        <time>2018-03-18T20:10:06Z</time>
      </trkpt>
      <trkpt lat="46.66959" lon="-1.90305">
        <ele>5</ele>
        <time>2018-03-18T20:11:06Z</time>
      </trkpt>
      <trkpt lat="46.66962" lon="-1.90306">
        <ele>5</ele>
        <time>2018-03-18T20:12:06Z</time>
      </trkpt>
      <trkpt lat="46.66976" lon="-1.9031">
        <ele>6</ele>
        <time>2018-03-18T20:13:06Z</time>
      </trkpt>
      <trkpt lat="46.66976" lon="-1.9031">
        <ele>6</ele>
        <time>2018-03-18T20:14:06Z</time>
      </trkpt>
      <trkpt lat="46.66976" lon="-1.90309">
        <ele>6</ele>
        <time>2018-03-18T20:15:06Z</time>
      </trkpt>
      <trkpt lat="46.66977" lon="-1.90309">
        <ele>6</ele>
        <time>2018-03-18T20:16:06Z</time>
      </trkpt>
      <trkpt lat="46.66978" lon="-1.90309">
        <ele>6</ele>
        <time>2018-03-18T20:17:06Z</time>
      </trkpt>
      <trkpt lat="46.66978" lon="-1.90308">
        <ele>6</ele>
        <time>2018-03-18T20:18:06Z</time>
      </trkpt>
      <trkpt lat="46.6698" lon="-1.90308">
        <ele>6</ele>
        <time>2018-03-18T20:19:06Z</time>
      </trkpt>
      <trkpt lat="46.66981" lon="-1.90307">
        <ele>6</ele>
        <time>2018-03-18T20:20:06Z</time>
      </trkpt>
      <trkpt lat="46.66982" lon="-1.90307">
        <ele>6</ele>
        <time>2018-03-18T20:21:06Z</time>
      </trkpt>
      <trkpt lat="46.66983" lon="-1.90306">
        <ele>6</ele>
        <time>2018-03-18T20:22:06Z</time>
      </trkpt>
      <trkpt lat="46.66984" lon="-1.90306">
        <ele>6</ele>
        <time>2018-03-18T20:23:06Z</time>
      </trkpt>
      <trkpt lat="46.66986" lon="-1.90306">
        <ele>6</ele>
        <time>2018-03-18T20:24:06Z</time>
      </trkpt>
      <trkpt lat="46.66987" lon="-1.90306">
        <ele>6</ele>
        <time>2018-03-18T20:25:06Z</time>
      </trkpt>
      <trkpt lat="46.66988" lon="-1.90307">
        <ele>6</ele>
        <time>2018-03-18T20:26:06Z</time>
      </trkpt>
      <trkpt lat="46.66989" lon="-1.90307">
        <ele>6</ele>
        <time>2018-03-18T20:27:06Z</time>
      </trkpt>
      <trkpt lat="46.66991" lon="-1.90308">
        <ele>6</ele>
        <time>2018-03-18T20:28:06Z</time>
      </trkpt>
      <trkpt lat="46.66992" lon="-1.90308">
        <ele>6</ele>
        <time>2018-03-18T20:29:06Z</time>
      </trkpt>
      <trkpt lat="46.66993" lon="-1.90309">
        <ele>6</ele>
        <time>2018-03-18T20:30:06Z</time>
      </trkpt>
      <trkpt lat="46.66995" lon="-1.90311">
        <ele>6</ele>
        <time>2018-03-18T20:31:06Z</time>
      </trkpt>
      <trkpt lat="46.66996" lon="-1.90311">
        <ele>6</ele>
        <time>2018-03-18T20:32:06Z</time>
      </trkpt>
      <trkpt lat="46.66996" lon="-1.90312">
        <ele>6</ele>
        <time>2018-03-18T20:33:06Z</time>
      </trkpt>
      <trkpt lat="46.66997" lon="-1.90313">
        <ele>6</ele>
        <time>2018-03-18T20:34:06Z</time>
      </trkpt>
      <trkpt lat="46.66997" lon="-1.90314">
        <ele>6</ele>
        <time>2018-03-18T20:35:06Z</time>
      </trkpt>
      <trkpt lat="46.66998" lon="-1.90315">
        <ele>6</ele>
        <time>2018-03-18T20:36:06Z</time>
      </trkpt>
      <trkpt lat="46.66998" lon="-1.90316">
        <ele>6</ele>
        <time>2018-03-18T20:37:06Z</time>
      </trkpt>
      <trkpt lat="46.66999" lon="-1.90317">
        <ele>6</ele>
        <time>2018-03-18T20:38:06Z</time>
      </trkpt>
      <trkpt lat="46.66999" lon="-1.90318">
        <ele>6</ele>
        <time>2018-03-18T20:39:06Z</time>
      </trkpt>
      <trkpt lat="46.67" lon="-1.90319">
        <ele>6</ele>
        <time>2018-03-18T20:40:06Z</time>
      </trkpt>
      <trkpt lat="46.67001" lon="-1.90321">
        <ele>6</ele>
        <time>2018-03-18T20:41:06Z</time>
      </trkpt>
      <trkpt lat="46.67001" lon="-1.90322">
        <ele>6</ele>
        <time>2018-03-18T20:42:06Z</time>
      </trkpt>
      <trkpt lat="46.67001" lon="-1.90324">
        <ele>6</ele>
        <time>2018-03-18T20:43:06Z</time>
      </trkpt>
      <trkpt lat="46.67002" lon="-1.90326">
        <ele>6</ele>
        <time>2018-03-18T20:44:06Z</time>
      </trkpt>
      <trkpt lat="46.67002" lon="-1.90328">
        <ele>6</ele>
        <time>2018-03-18T20:45:06Z</time>
      </trkpt>
      <trkpt lat="46.67002" lon="-1.9033">
        <ele>6</ele>
        <time>2018-03-18T20:46:06Z</time>
      </trkpt>
      <trkpt lat="46.67002" lon="-1.90332">
        <ele>6</ele>
        <time>2018-03-18T20:47:06Z</time>
      </trkpt>
      <trkpt lat="46.67002" lon="-1.90333">
        <ele>6</ele>
        <time>2018-03-18T20:48:06Z</time>
      </trkpt>
      <trkpt lat="46.67002" lon="-1.90335">
        <ele>6</ele>
        <time>2018-03-18T20:49:06Z</time>
      </trkpt>
      <trkpt lat="46.67001" lon="-1.90337">
        <ele>6</ele>
        <time>2018-03-18T20:50:06Z</time>
      </trkpt>
      <trkpt lat="46.67001" lon="-1.90339">
        <ele>6</ele>
        <time>2018-03-18T20:51:06Z</time>
      </trkpt>
      <trkpt lat="46.67001" lon="-1.9034">
        <ele>6</ele>
        <time>2018-03-18T20:52:06Z</time>
      </trkpt>
      <trkpt lat="46.67001" lon="-1.90341">
        <ele>6</ele>
        <time>2018-03-18T20:53:06Z</time>
      </trkpt>
      <trkpt lat="46.67" lon="-1.90342">
        <ele>6</ele>
        <time>2018-03-18T20:54:06Z</time>
      </trkpt>
      <trkpt lat="46.67" lon="-1.90343">
        <ele>6</ele>
        <time>2018-03-18T20:55:06Z</time>
      </trkpt>
      <trkpt lat="46.67" lon="-1.90344">
        <ele>6</ele>
        <time>2018-03-18T20:56:06Z</time>
      </trkpt>
      <trkpt lat="46.67" lon="-1.90345">
        <ele>6</ele>
        <time>2018-03-18T20:57:06Z</time>
      </trkpt>
      <trkpt lat="46.67" lon="-1.90351">
        <ele>6</ele>
        <time>2018-03-18T20:58:06Z</time>
      </trkpt>
      <trkpt lat="46.67001" lon="-1.90365">
        <ele>6</ele>
        <time>2018-03-18T20:59:06Z</time>
      </trkpt>
      <trkpt lat="46.67001" lon="-1.90368">
        <ele>6</ele>
        <time>2018-03-18T21:00:06Z</time>
      </trkpt>
      <trkpt lat="46.67002" lon="-1.9037">
        <ele>6</ele>
        <time>2018-03-18T21:01:06Z</time>
      </trkpt>
      <trkpt lat="46.67002" lon="-1.90373">
        <ele>6</ele>
        <time>2018-03-18T21:02:06Z</time>
      </trkpt>
      <trkpt lat="46.67003" lon="-1.90375">
        <ele>6</ele>
        <time>2018-03-18T21:03:06Z</time>
      </trkpt>
      <trkpt lat="46.67004" lon="-1.90378">
        <ele>6</ele>
        <time>2018-03-18T21:04:06Z</time>
      </trkpt>
      <trkpt lat="46.67006" lon="-1.9038">
        <ele>6</ele>
        <time>2018-03-18T21:05:06Z</time>
      </trkpt>
      <trkpt lat="46.67007" lon="-1.90383">
        <ele>5</ele>
        <time>2018-03-18T21:06:06Z</time>
      </trkpt>
      <trkpt lat="46.67009" lon="-1.90386">
        <ele>5</ele>
        <time>2018-03-18T21:07:06Z</time>
      </trkpt>
      <trkpt lat="46.67012" lon="-1.9039">
        <ele>5</ele>
        <time>2018-03-18T21:08:06Z</time>
      </trkpt>
      <trkpt lat="46.67021" lon="-1.90401">
        <ele>5</ele>
        <time>2018-03-18T21:09:06Z</time>
      </trkpt>
      <trkpt lat="46.67034" lon="-1.90417">
        <ele>5</ele>
        <time>2018-03-18T21:10:06Z</time>
      </trkpt>
      <trkpt lat="46.67059" lon="-1.90451">
        <ele>5</ele>
        <time>2018-03-18T21:11:06Z</time>
      </trkpt>
      <trkpt lat="46.671" lon="-1.90508">
        <ele>5</ele>
        <time>2018-03-18T21:12:06Z</time>
      </trkpt>
      <trkpt lat="46.67105" lon="-1.90518">
        <ele>5</ele>
        <time>2018-03-18T21:13:06Z</time>
      </trkpt>
      <trkpt lat="46.67166" lon="-1.90604">
        <ele>5</ele>
        <time>2018-03-18T21:14:06Z</time>
      </trkpt>
      <trkpt lat="46.67205" lon="-1.90658">
        <ele>4</ele>
        <time>2018-03-18T21:15:06Z</time>
      </trkpt>
      <trkpt lat="46.67226" lon="-1.90688">
        <ele>4</ele>
        <time>2018-03-18T21:16:06Z</time>
      </trkpt>
      <trkpt lat="46.67255" lon="-1.90729">
        <ele>3</ele>
        <time>2018-03-18T21:17:06Z</time>
      </trkpt>
      <trkpt lat="46.67282" lon="-1.90767">
        <ele>3</ele>
        <time>2018-03-18T21:18:06Z</time>
      </trkpt>
      <trkpt lat="46.67301" lon="-1.90794">
        <ele>2</ele>
        <time>2018-03-18T21:19:06Z</time>
      </trkpt>
      <trkpt lat="46.67313" lon="-1.9081">
        <ele>2</ele>
        <time>2018-03-18T21:20:06Z</time>
      </trkpt>
      <trkpt lat="46.6732" lon="-1.90819">
        <ele>2</ele>
        <time>2018-03-18T21:21:06Z</time>
      </trkpt>
      <trkpt lat="46.67323" lon="-1.90824">
        <ele>2</ele>
        <time>2018-03-18T21:22:06Z</time>
      </trkpt>
      <trkpt lat="46.67327" lon="-1.90829">
        <ele>2</ele>
        <time>2018-03-18T21:23:06Z</time>
      </trkpt>
      <trkpt lat="46.6733" lon="-1.90833">
        <ele>2</ele>
        <time>2018-03-18T21:24:06Z</time>
      </trkpt>
      <trkpt lat="46.67333" lon="-1.90837">
        <ele>2</ele>
        <time>2018-03-18T21:25:06Z</time>
      </trkpt>
      <trkpt lat="46.67336" lon="-1.9084">
        <ele>2</ele>
        <time>2018-03-18T21:26:06Z</time>
      </trkpt>
      <trkpt lat="46.67339" lon="-1.90844">
        <ele>2</ele>
        <time>2018-03-18T21:27:06Z</time>
      </trkpt>
      <trkpt lat="46.67347" lon="-1.90849">
        <ele>2</ele>
        <time>2018-03-18T21:28:06Z</time>
      </trkpt>
      <trkpt lat="46.67361" lon="-1.90864">
        <ele>2</ele>
        <time>2018-03-18T21:29:06Z</time>
      </trkpt>
      <trkpt lat="46.67381" lon="-1.90883">
        <ele>3</ele>
        <time>2018-03-18T21:30:06Z</time>
      </trkpt>
      <trkpt lat="46.67397" lon="-1.90898">
        <ele>3</ele>
        <time>2018-03-18T21:31:06Z</time>
      </trkpt>
      <trkpt lat="46.674" lon="-1.90901">
        <ele>3</ele>
        <time>2018-03-18T21:32:06Z</time>
      </trkpt>
      <trkpt lat="46.67404" lon="-1.90904">
        <ele>3</ele>
        <time>2018-03-18T21:33:06Z</time>
      </trkpt>
      <trkpt lat="46.67406" lon="-1.90905">
        <ele>3</ele>
        <time>2018-03-18T21:34:06Z</time>
      </trkpt>
      <trkpt lat="46.67409" lon="-1.90906">
        <ele>3</ele>
        <time>2018-03-18T21:35:06Z</time>
      </trkpt>
      <trkpt lat="46.67412" lon="-1.90907">
        <ele>3</ele>
        <time>2018-03-18T21:36:06Z</time>
      </trkpt>
      <trkpt lat="46.67414" lon="-1.90908">
        <ele>3</ele>
        <time>2018-03-18T21:37:06Z</time>
      </trkpt>
      <trkpt lat="46.67417" lon="-1.90909">
        <ele>3</ele>
        <time>2018-03-18T21:38:06Z</time>
      </trkpt>
      <trkpt lat="46.67436" lon="-1.90914">
        <ele>3</ele>
        <time>2018-03-18T21:39:06Z</time>
      </trkpt>
      <trkpt lat="46.67436" lon="-1.90914">
        <ele>3</ele>
        <time>2018-03-18T21:40:06Z</time>
      </trkpt>
      <trkpt lat="46.67438" lon="-1.90914">
        <ele>3</ele>
        <time>2018-03-18T21:41:06Z</time>
      </trkpt>
      <trkpt lat="46.6744" lon="-1.90914">
        <ele>3</ele>
        <time>2018-03-18T21:42:06Z</time>
      </trkpt>
      <trkpt lat="46.67441" lon="-1.90914">
        <ele>3</ele>
        <time>2018-03-18T21:43:06Z</time>
      </trkpt>
      <trkpt lat="46.67443" lon="-1.90915">
        <ele>3</ele>
        <time>2018-03-18T21:44:06Z</time>
      </trkpt>
      <trkpt lat="46.67445" lon="-1.90915">
        <ele>3</ele>
        <time>2018-03-18T21:45:06Z</time>
      </trkpt>
      <trkpt lat="46.67446" lon="-1.90916">
        <ele>3</ele>
        <time>2018-03-18T21:46:06Z</time>
      </trkpt>
      <trkpt lat="46.67448" lon="-1.90917">
        <ele>3</ele>
        <time>2018-03-18T21:47:06Z</time>
      </trkpt>
      <trkpt lat="46.6745" lon="-1.90918">
        <ele>3</ele>
        <time>2018-03-18T21:48:06Z</time>
      </trkpt>
      <trkpt lat="46.67451" lon="-1.9092">
        <ele>3</ele>
        <time>2018-03-18T21:49:06Z</time>
      </trkpt>
      <trkpt lat="46.67452" lon="-1.90922">
        <ele>3</ele>
        <time>2018-03-18T21:50:06Z</time>
      </trkpt>
      <trkpt lat="46.67454" lon="-1.90923">
        <ele>3</ele>
        <time>2018-03-18T21:51:06Z</time>
      </trkpt>
      <trkpt lat="46.67455" lon="-1.90925">
        <ele>4</ele>
        <time>2018-03-18T21:52:06Z</time>
      </trkpt>
      <trkpt lat="46.67456" lon="-1.90927">
        <ele>4</ele>
        <time>2018-03-18T21:53:06Z</time>
      </trkpt>
      <trkpt lat="46.67457" lon="-1.9093">
        <ele>4</ele>
        <time>2018-03-18T21:54:06Z</time>
      </trkpt>
      <trkpt lat="46.67458" lon="-1.90933">
        <ele>4</ele>
        <time>2018-03-18T21:55:06Z</time>
      </trkpt>
      <trkpt lat="46.67458" lon="-1.90936">
        <ele>4</ele>
        <time>2018-03-18T21:56:06Z</time>
      </trkpt>
      <trkpt lat="46.67459" lon="-1.90938">
        <ele>4</ele>
        <time>2018-03-18T21:57:06Z</time>
      </trkpt>
      <trkpt lat="46.67459" lon="-1.90941">
        <ele>4</ele>
        <time>2018-03-18T21:58:06Z</time>
      </trkpt>
      <trkpt lat="46.67459" lon="-1.90943">
        <ele>4</ele>
        <time>2018-03-18T21:59:06Z</time>
      </trkpt>
      <trkpt lat="46.67459" lon="-1.90946">
        <ele>4</ele>
        <time>2018-03-18T22:00:06Z</time>
      </trkpt>
      <trkpt lat="46.67459" lon="-1.90948">
        <ele>4</ele>
        <time>2018-03-18T22:01:06Z</time>
      </trkpt>
      <trkpt lat="46.67458" lon="-1.9095">
        <ele>4</ele>
        <time>2018-03-18T22:02:06Z</time>
      </trkpt>
      <trkpt lat="46.67458" lon="-1.90953">
        <ele>4</ele>
        <time>2018-03-18T22:03:06Z</time>
      </trkpt>
      <trkpt lat="46.67457" lon="-1.90955">
        <ele>4</ele>
        <time>2018-03-18T22:04:06Z</time>
      </trkpt>
      <trkpt lat="46.67456" lon="-1.90957">
        <ele>4</ele>
        <time>2018-03-18T22:05:06Z</time>
      </trkpt>
      <trkpt lat="46.67455" lon="-1.9096">
        <ele>4</ele>
        <time>2018-03-18T22:06:06Z</time>
      </trkpt>
      <trkpt lat="46.67455" lon="-1.90961">
        <ele>4</ele>
        <time>2018-03-18T22:07:06Z</time>
      </trkpt>
      <trkpt lat="46.67454" lon="-1.90962">
        <ele>4</ele>
        <time>2018-03-18T22:08:06Z</time>
      </trkpt>
      <trkpt lat="46.67453" lon="-1.90963">
        <ele>4</ele>
        <time>2018-03-18T22:09:06Z</time>
      </trkpt>
      <trkpt lat="46.67453" lon="-1.90964">
        <ele>4</ele>
        <time>2018-03-18T22:10:06Z</time>
      </trkpt>
      <trkpt lat="46.67452" lon="-1.90965">
        <ele>4</ele>
        <time>2018-03-18T22:11:06Z</time>
      </trkpt>
      <trkpt lat="46.67451" lon="-1.90965">
        <ele>4</ele>
        <time>2018-03-18T22:12:06Z</time>
      </trkpt>
      <trkpt lat="46.67451" lon="-1.90966">
        <ele>4</ele>
        <time>2018-03-18T22:13:06Z</time>
      </trkpt>
      <trkpt lat="46.6745" lon="-1.90967">
        <ele>4</ele>
        <time>2018-03-18T22:14:06Z</time>
      </trkpt>
      <trkpt lat="46.6745" lon="-1.90984">
        <ele>4</ele>
        <time>2018-03-18T22:15:06Z</time>
      </trkpt>
      <trkpt lat="46.67451" lon="-1.90994">
        <ele>4</ele>
        <time>2018-03-18T22:16:06Z</time>
      </trkpt>
      <trkpt lat="46.67454" lon="-1.91004">
        <ele>4</ele>
        <time>2018-03-18T22:17:06Z</time>
      </trkpt>
      <trkpt lat="46.67456" lon="-1.9101">
        <ele>4</ele>
        <time>2018-03-18T22:18:06Z</time>
      </trkpt>
      <trkpt lat="46.67469" lon="-1.9103">
        <ele>4</ele>
        <time>2018-03-18T22:19:06Z</time>
      </trkpt>
      <trkpt lat="46.6749" lon="-1.9106">
        <ele>5</ele>
        <time>2018-03-18T22:20:06Z</time>
      </trkpt>
      <trkpt lat="46.67518" lon="-1.91097">
        <ele>5</ele>
        <time>2018-03-18T22:21:06Z</time>
      </trkpt>
      <trkpt lat="46.67546" lon="-1.91137">
        <ele>5</ele>
        <time>2018-03-18T22:22:06Z</time>
      </trkpt>
      <trkpt lat="46.67578" lon="-1.91181">
        <ele>6</ele>
        <time>2018-03-18T22:23:06Z</time>
      </trkpt>
      <trkpt lat="46.67587" lon="-1.91194">
        <ele>6</ele>
        <time>2018-03-18T22:24:06Z</time>
      </trkpt>
      <trkpt lat="46.67612" lon="-1.91228">
        <ele>5</ele>
        <time>2018-03-18T22:25:06Z</time>
      </trkpt>
      <trkpt lat="46.67634" lon="-1.91261">
        <ele>5</ele>
        <time>2018-03-18T22:26:06Z</time>
      </trkpt>
      <trkpt lat="46.67662" lon="-1.91298">
        <ele>5</ele>
        <time>2018-03-18T22:27:06Z</time>
      </trkpt>
      <trkpt lat="46.67704" lon="-1.91358">
        <ele>5</ele>
        <time>2018-03-18T22:28:06Z</time>
      </trkpt>
      <trkpt lat="46.67743" lon="-1.91414">
        <ele>6</ele>
        <time>2018-03-18T22:29:06Z</time>
      </trkpt>
      <trkpt lat="46.67747" lon="-1.9142">
        <ele>6</ele>
        <time>2018-03-18T22:30:06Z</time>
      </trkpt>
      <trkpt lat="46.67783" lon="-1.91471">
        <ele>6</ele>
        <time>2018-03-18T22:31:06Z</time>
      </trkpt>
      <trkpt lat="46.67831" lon="-1.91538">
        <ele>6</ele>
        <time>2018-03-18T22:32:06Z</time>
      </trkpt>
      <trkpt lat="46.6784" lon="-1.91552">
        <ele>6</ele>
        <time>2018-03-18T22:33:06Z</time>
      </trkpt>
      <trkpt lat="46.67864" lon="-1.91583">
        <ele>6</ele>
        <time>2018-03-18T22:34:06Z</time>
      </trkpt>
      <trkpt lat="46.67883" lon="-1.91611">
        <ele>6</ele>
        <time>2018-03-18T22:35:06Z</time>
      </trkpt>
      <trkpt lat="46.67898" lon="-1.91633">
        <ele>7</ele>
        <time>2018-03-18T22:36:06Z</time>
      </trkpt>
      <trkpt lat="46.67928" lon="-1.91675">
        <ele>7</ele>
        <time>2018-03-18T22:37:06Z</time>
      </trkpt>
      <trkpt lat="46.67947" lon="-1.91703">
        <ele>7</ele>
        <time>2018-03-18T22:38:06Z</time>
      </trkpt>
      <trkpt lat="46.67972" lon="-1.91737">
        <ele>7</ele>
        <time>2018-03-18T22:39:06Z</time>
      </trkpt>
      <trkpt lat="46.68" lon="-1.91776">
        <ele>8</ele>
        <time>2018-03-18T22:40:06Z</time>
      </trkpt>
      <trkpt lat="46.68022" lon="-1.91808">
        <ele>8</ele>
        <time>2018-03-18T22:41:06Z</time>
      </trkpt>
      <trkpt lat="46.68033" lon="-1.91825">
        <ele>8</ele>
        <time>2018-03-18T22:42:06Z</time>
      </trkpt>
      <trkpt lat="46.68041" lon="-1.91836">
        <ele>8</ele>
        <time>2018-03-18T22:43:06Z</time>
      </trkpt>
      <trkpt lat="46.68057" lon="-1.91858">
        <ele>8</ele>
        <time>2018-03-18T22:44:06Z</time>
      </trkpt>
      <trkpt lat="46.68083" lon="-1.91897">
        <ele>8</ele>
        <time>2018-03-18T22:45:06Z</time>
      </trkpt>
      <trkpt lat="46.68115" lon="-1.91941">
        <ele>8</ele>
        <time>2018-03-18T22:46:06Z</time>
      </trkpt>
      <trkpt lat="46.68158" lon="-1.92003">
        <ele>8</ele>
        <time>2018-03-18T22:47:06Z</time>
      </trkpt>
      <trkpt lat="46.68174" lon="-1.92025">
        <ele>8</ele>
        <time>2018-03-18T22:48:06Z</time>
      </trkpt>
      <trkpt lat="46.68198" lon="-1.92057">
        <ele>7</ele>
        <time>2018-03-18T22:49:06Z</time>
      </trkpt>
      <trkpt lat="46.68208" lon="-1.92073">
        <ele>7</ele>
        <time>2018-03-18T22:50:06Z</time>
      </trkpt>
      <trkpt lat="46.6822" lon="-1.92091">
        <ele>7</ele>
        <time>2018-03-18T22:51:06Z</time>
      </trkpt>
      <trkpt lat="46.68224" lon="-1.92097">
        <ele>7</ele>
        <time>2018-03-18T22:52:06Z</time>
      </trkpt>
      <trkpt lat="46.68224" lon="-1.92098">
        <ele>7</ele>
        <time>2018-03-18T22:53:06Z</time>
      </trkpt>
      <trkpt lat="46.68227" lon="-1.92103">
        <ele>7</ele>
        <time>2018-03-18T22:54:06Z</time>
      </trkpt>
      <trkpt lat="46.6823" lon="-1.92107">
        <ele>7</ele>
        <time>2018-03-18T22:55:06Z</time>
      </trkpt>
      <trkpt lat="46.68255" lon="-1.9214">
        <ele>7</ele>
        <time>2018-03-18T22:56:06Z</time>
      </trkpt>
      <trkpt lat="46.68267" lon="-1.92157">
        <ele>7</ele>
        <time>2018-03-18T22:57:06Z</time>
      </trkpt>
      <trkpt lat="46.68277" lon="-1.92172">
        <ele>8</ele>
        <time>2018-03-18T22:58:06Z</time>
      </trkpt>
      <trkpt lat="46.68286" lon="-1.92186">
        <ele>8</ele>
        <time>2018-03-18T22:59:06Z</time>
      </trkpt>
      <trkpt lat="46.68291" lon="-1.92193">
        <ele>8</ele>
        <time>2018-03-18T23:00:06Z</time>
      </trkpt>
      <trkpt lat="46.68306" lon="-1.92219">
        <ele>9</ele>
        <time>2018-03-18T23:01:06Z</time>
      </trkpt>
      <trkpt lat="46.6832" lon="-1.92245">
        <ele>9</ele>
        <time>2018-03-18T23:02:06Z</time>
      </trkpt>
      <trkpt lat="46.6833" lon="-1.92261">
        <ele>9</ele>
        <time>2018-03-18T23:03:06Z</time>
      </trkpt>
      <trkpt lat="46.68355" lon="-1.92305">
        <ele>10</ele>
        <time>2018-03-18T23:04:06Z</time>
      </trkpt>
      <trkpt lat="46.6837" lon="-1.92334">
        <ele>10</ele>
        <time>2018-03-18T23:05:06Z</time>
      </trkpt>
      <trkpt lat="46.68377" lon="-1.92346">
        <ele>10</ele>
        <time>2018-03-18T23:06:06Z</time>
      </trkpt>
      <trkpt lat="46.6838" lon="-1.92351">
        <ele>10</ele>
        <time>2018-03-18T23:07:06Z</time>
      </trkpt>
      <trkpt lat="46.68389" lon="-1.92363">
        <ele>10</ele>
        <time>2018-03-18T23:08:06Z</time>
      </trkpt>
      <trkpt lat="46.68403" lon="-1.9238">
        <ele>10</ele>
        <time>2018-03-18T23:09:06Z</time>
      </trkpt>
      <trkpt lat="46.68413" lon="-1.92388">
        <ele>10</ele>
        <time>2018-03-18T23:10:06Z</time>
      </trkpt>
      <trkpt lat="46.68426" lon="-1.92396">
        <ele>10</ele>
        <time>2018-03-18T23:11:06Z</time>
      </trkpt>
      <trkpt lat="46.68435" lon="-1.924">
        <ele>10</ele>
        <time>2018-03-18T23:12:06Z</time>
      </trkpt>
      <trkpt lat="46.68447" lon="-1.92403">
        <ele>10</ele>
        <time>2018-03-18T23:13:06Z</time>
      </trkpt>
      <trkpt lat="46.68454" lon="-1.92404">
        <ele>10</ele>
        <time>2018-03-18T23:14:06Z</time>
      </trkpt>
      <trkpt lat="46.68463" lon="-1.92406">
        <ele>10</ele>
        <time>2018-03-18T23:15:06Z</time>
      </trkpt>
      <trkpt lat="46.68472" lon="-1.92408">
        <ele>10</ele>
        <time>2018-03-18T23:16:06Z</time>
      </trkpt>
      <trkpt lat="46.68481" lon="-1.92411">
        <ele>10</ele>
        <time>2018-03-18T23:17:06Z</time>
      </trkpt>
      <trkpt lat="46.68487" lon="-1.92415">
        <ele>10</ele>
        <time>2018-03-18T23:18:06Z</time>
      </trkpt>
      <trkpt lat="46.68495" lon="-1.9242">
        <ele>10</ele>
        <time>2018-03-18T23:19:06Z</time>
      </trkpt>
      <trkpt lat="46.68505" lon="-1.92428">
        <ele>10</ele>
        <time>2018-03-18T23:20:06Z</time>
      </trkpt>
      <trkpt lat="46.68514" lon="-1.92436">
        <ele>10</ele>
        <time>2018-03-18T23:21:06Z</time>
      </trkpt>
      <trkpt lat="46.68528" lon="-1.9245">
        <ele>10</ele>
        <time>2018-03-18T23:22:06Z</time>
      </trkpt>
      <trkpt lat="46.68532" lon="-1.92456">
        <ele>10</ele>
        <time>2018-03-18T23:23:06Z</time>
      </trkpt>
      <trkpt lat="46.68538" lon="-1.92464">
        <ele>10</ele>
        <time>2018-03-18T23:24:06Z</time>
      </trkpt>
      <trkpt lat="46.68549" lon="-1.92476">
        <ele>10</ele>
        <time>2018-03-18T23:25:06Z</time>
      </trkpt>
      <trkpt lat="46.68567" lon="-1.925">
        <ele>10</ele>
        <time>2018-03-18T23:26:06Z</time>
      </trkpt>
      <trkpt lat="46.68589" lon="-1.92528">
        <ele>10</ele>
        <time>2018-03-18T23:27:06Z</time>
      </trkpt>
      <trkpt lat="46.68594" lon="-1.92534">
        <ele>10</ele>
        <time>2018-03-18T23:28:06Z</time>
      </trkpt>
      <trkpt lat="46.68605" lon="-1.92548">
        <ele>10</ele>
        <time>2018-03-18T23:29:06Z</time>
      </trkpt>
      <trkpt lat="46.68616" lon="-1.92563">
        <ele>10</ele>
        <time>2018-03-18T23:30:06Z</time>
      </trkpt>
      <trkpt lat="46.68625" lon="-1.92575">
        <ele>10</ele>
        <time>2018-03-18T23:31:06Z</time>
      </trkpt>
      <trkpt lat="46.68629" lon="-1.9258">
        <ele>10</ele>
        <time>2018-03-18T23:32:06Z</time>
      </trkpt>
      <trkpt lat="46.68634" lon="-1.92586">
        <ele>10</ele>
        <time>2018-03-18T23:33:06Z</time>
      </trkpt>
      <trkpt lat="46.68635" lon="-1.92588">
        <ele>10</ele>
        <time>2018-03-18T23:34:06Z</time>
      </trkpt>
      <trkpt lat="46.68644" lon="-1.92596">
        <ele>10</ele>
        <time>2018-03-18T23:35:06Z</time>
      </trkpt>
      <trkpt lat="46.68651" lon="-1.92602">
        <ele>10</ele>
        <time>2018-03-18T23:36:06Z</time>
      </trkpt>
      <trkpt lat="46.68669" lon="-1.92615">
        <ele>10</ele>
        <time>2018-03-18T23:37:06Z</time>
      </trkpt>
      <trkpt lat="46.68707" lon="-1.92638">
        <ele>9</ele>
        <time>2018-03-18T23:38:06Z</time>
      </trkpt>
      <trkpt lat="46.68732" lon="-1.92654">
        <ele>8</ele>
        <time>2018-03-18T23:39:06Z</time>
      </trkpt>
      <trkpt lat="46.68733" lon="-1.92654">
        <ele>8</ele>
        <time>2018-03-18T23:40:06Z</time>
      </trkpt>
      <trkpt lat="46.68759" lon="-1.92668">
        <ele>8</ele>
        <time>2018-03-18T23:41:06Z</time>
      </trkpt>
      <trkpt lat="46.6876" lon="-1.92669">
        <ele>8</ele>
        <time>2018-03-18T23:42:06Z</time>
      </trkpt>
      <trkpt lat="46.68776" lon="-1.92676">
        <ele>8</ele>
        <time>2018-03-18T23:43:06Z</time>
      </trkpt>
      <trkpt lat="46.68787" lon="-1.9268">
        <ele>8</ele>
        <time>2018-03-18T23:44:06Z</time>
      </trkpt>
      <trkpt lat="46.68804" lon="-1.92685">
        <ele>7</ele>
        <time>2018-03-18T23:45:06Z</time>
      </trkpt>
      <trkpt lat="46.68817" lon="-1.9269">
        <ele>7</ele>
        <time>2018-03-18T23:46:06Z</time>
      </trkpt>
      <trkpt lat="46.68817" lon="-1.92689">
        <ele>7</ele>
        <time>2018-03-18T23:47:06Z</time>
      </trkpt>
      <trkpt lat="46.68818" lon="-1.92689">
        <ele>7</ele>
        <time>2018-03-18T23:48:06Z</time>
      </trkpt>
      <trkpt lat="46.68818" lon="-1.92688">
        <ele>7</ele>
        <time>2018-03-18T23:49:06Z</time>
      </trkpt>
      <trkpt lat="46.68818" lon="-1.92687">
        <ele>7</ele>
        <time>2018-03-18T23:50:06Z</time>
      </trkpt>
      <trkpt lat="46.68819" lon="-1.92687">
        <ele>7</ele>
        <time>2018-03-18T23:51:06Z</time>
      </trkpt>
      <trkpt lat="46.68819" lon="-1.92686">
        <ele>7</ele>
        <time>2018-03-18T23:52:06Z</time>
      </trkpt>
      <trkpt lat="46.6882" lon="-1.92686">
        <ele>7</ele>
        <time>2018-03-18T23:53:06Z</time>
      </trkpt>
      <trkpt lat="46.6882" lon="-1.92685">
        <ele>7</ele>
        <time>2018-03-18T23:54:06Z</time>
      </trkpt>
      <trkpt lat="46.68821" lon="-1.92685">
        <ele>7</ele>
        <time>2018-03-18T23:55:06Z</time>
      </trkpt>
      <trkpt lat="46.68822" lon="-1.92685">
        <ele>7</ele>
        <time>2018-03-18T23:56:06Z</time>
      </trkpt>
      <trkpt lat="46.68823" lon="-1.92685">
        <ele>7</ele>
        <time>2018-03-18T23:57:06Z</time>
      </trkpt>
      <trkpt lat="46.68824" lon="-1.92685">
        <ele>7</ele>
        <time>2018-03-18T23:58:06Z</time>
      </trkpt>
      <trkpt lat="46.68825" lon="-1.92685">
        <ele>7</ele>
        <time>2018-03-18T23:59:06Z</time>
      </trkpt>
      <trkpt lat="46.68826" lon="-1.92686">
        <ele>7</ele>
        <time>2018-03-19T00:00:06Z</time>
      </trkpt>
      <trkpt lat="46.68827" lon="-1.92686">
        <ele>7</ele>
        <time>2018-03-19T00:01:06Z</time>
      </trkpt>
      <trkpt lat="46.68827" lon="-1.92687">
        <ele>7</ele>
        <time>2018-03-19T00:02:06Z</time>
      </trkpt>
      <trkpt lat="46.68827" lon="-1.92688">
        <ele>7</ele>
        <time>2018-03-19T00:03:06Z</time>
      </trkpt>
      <trkpt lat="46.68828" lon="-1.92688">
        <ele>7</ele>
        <time>2018-03-19T00:04:06Z</time>
      </trkpt>
      <trkpt lat="46.68841" lon="-1.92685">
        <ele>7</ele>
        <time>2018-03-19T00:05:06Z</time>
      </trkpt>
      <trkpt lat="46.68841" lon="-1.92685">
        <ele>7</ele>
        <time>2018-03-19T00:06:06Z</time>
      </trkpt>
      <trkpt lat="46.68841" lon="-1.92684">
        <ele>7</ele>
        <time>2018-03-19T00:07:06Z</time>
      </trkpt>
      <trkpt lat="46.68842" lon="-1.92684">
        <ele>7</ele>
        <time>2018-03-19T00:08:06Z</time>
      </trkpt>
      <trkpt lat="46.68842" lon="-1.92683">
        <ele>7</ele>
        <time>2018-03-19T00:09:06Z</time>
      </trkpt>
      <trkpt lat="46.68843" lon="-1.92682">
        <ele>7</ele>
        <time>2018-03-19T00:10:06Z</time>
      </trkpt>
      <trkpt lat="46.68844" lon="-1.92682">
        <ele>7</ele>
        <time>2018-03-19T00:11:06Z</time>
      </trkpt>
      <trkpt lat="46.68844" lon="-1.92681">
        <ele>7</ele>
        <time>2018-03-19T00:12:06Z</time>
      </trkpt>
      <trkpt lat="46.68845" lon="-1.92681">
        <ele>6</ele>
        <time>2018-03-19T00:13:06Z</time>
      </trkpt>
      <trkpt lat="46.68846" lon="-1.92681">
        <ele>6</ele>
        <time>2018-03-19T00:14:06Z</time>
      </trkpt>
      <trkpt lat="46.68847" lon="-1.92681">
        <ele>6</ele>
        <time>2018-03-19T00:15:06Z</time>
      </trkpt>
      <trkpt lat="46.68848" lon="-1.92681">
        <ele>6</ele>
        <time>2018-03-19T00:16:06Z</time>
      </trkpt>
      <trkpt lat="46.68849" lon="-1.92681">
        <ele>6</ele>
        <time>2018-03-19T00:17:06Z</time>
      </trkpt>
      <trkpt lat="46.68849" lon="-1.92682">
        <ele>6</ele>
        <time>2018-03-19T00:18:06Z</time>
      </trkpt>
      <trkpt lat="46.6885" lon="-1.92682">
        <ele>6</ele>
        <time>2018-03-19T00:19:06Z</time>
      </trkpt>
      <trkpt lat="46.6885" lon="-1.92683">
        <ele>6</ele>
        <time>2018-03-19T00:20:06Z</time>
      </trkpt>
      <trkpt lat="46.68851" lon="-1.92683">
        <ele>6</ele>
        <time>2018-03-19T00:21:06Z</time>
      </trkpt>
      <trkpt lat="46.68851" lon="-1.92684">
        <ele>6</ele>
        <time>2018-03-19T00:22:06Z</time>
      </trkpt>
      <trkpt lat="46.68852" lon="-1.92684">
        <ele>6</ele>
        <time>2018-03-19T00:23:06Z</time>
      </trkpt>
      <trkpt lat="46.68852" lon="-1.92685">
        <ele>6</ele>
        <time>2018-03-19T00:24:06Z</time>
      </trkpt>
      <trkpt lat="46.68852" lon="-1.92686">
        <ele>6</ele>
        <time>2018-03-19T00:25:06Z</time>
      </trkpt>
      <trkpt lat="46.68853" lon="-1.92687">
        <ele>6</ele>
        <time>2018-03-19T00:26:06Z</time>
      </trkpt>
      <trkpt lat="46.68853" lon="-1.92688">
        <ele>6</ele>
        <time>2018-03-19T00:27:06Z</time>
      </trkpt>
      <trkpt lat="46.68853" lon="-1.92689">
        <ele>6</ele>
        <time>2018-03-19T00:28:06Z</time>
      </trkpt>
      <trkpt lat="46.68853" lon="-1.9269">
        <ele>6</ele>
        <time>2018-03-19T00:29:06Z</time>
      </trkpt>
      <trkpt lat="46.68853" lon="-1.92691">
        <ele>6</ele>
        <time>2018-03-19T00:30:06Z</time>
      </trkpt>
      <trkpt lat="46.68853" lon="-1.92692">
        <ele>6</ele>
        <time>2018-03-19T00:31:06Z</time>
      </trkpt>
      <trkpt lat="46.68853" lon="-1.92693">
        <ele>6</ele>
        <time>2018-03-19T00:32:06Z</time>
      </trkpt>
      <trkpt lat="46.68853" lon="-1.92694">
        <ele>6</ele>
        <time>2018-03-19T00:33:06Z</time>
      </trkpt>
      <trkpt lat="46.68853" lon="-1.92695">
        <ele>6</ele>
        <time>2018-03-19T00:34:06Z</time>
      </trkpt>
      <trkpt lat="46.68852" lon="-1.92695">
        <ele>6</ele>
        <time>2018-03-19T00:35:06Z</time>
      </trkpt>
      <trkpt lat="46.68852" lon="-1.92696">
        <ele>6</ele>
        <time>2018-03-19T00:36:06Z</time>
      </trkpt>
      <trkpt lat="46.68852" lon="-1.92697">
        <ele>6</ele>
        <time>2018-03-19T00:37:06Z</time>
      </trkpt>
      <trkpt lat="46.68851" lon="-1.92697">
        <ele>6</ele>
        <time>2018-03-19T00:38:06Z</time>
      </trkpt>
      <trkpt lat="46.68851" lon="-1.92698">
        <ele>6</ele>
        <time>2018-03-19T00:39:06Z</time>
      </trkpt>
      <trkpt lat="46.68859" lon="-1.92704">
        <ele>6</ele>
        <time>2018-03-19T00:40:06Z</time>
      </trkpt>
      <trkpt lat="46.6886" lon="-1.92704">
        <ele>6</ele>
        <time>2018-03-19T00:41:06Z</time>
      </trkpt>
      <trkpt lat="46.68869" lon="-1.92706">
        <ele>5</ele>
        <time>2018-03-19T00:42:06Z</time>
      </trkpt>
      <trkpt lat="46.68881" lon="-1.92711">
        <ele>5</ele>
        <time>2018-03-19T00:43:06Z</time>
      </trkpt>
      <trkpt lat="46.68897" lon="-1.92716">
        <ele>4</ele>
        <time>2018-03-19T00:44:06Z</time>
      </trkpt>
      <trkpt lat="46.68913" lon="-1.92723">
        <ele>4</ele>
        <time>2018-03-19T00:45:06Z</time>
      </trkpt>
      <trkpt lat="46.68926" lon="-1.9273">
        <ele>4</ele>
        <time>2018-03-19T00:46:06Z</time>
      </trkpt>
      <trkpt lat="46.68936" lon="-1.92737">
        <ele>4</ele>
        <time>2018-03-19T00:47:06Z</time>
      </trkpt>
      <trkpt lat="46.68947" lon="-1.92747">
        <ele>4</ele>
        <time>2018-03-19T00:48:06Z</time>
      </trkpt>
      <trkpt lat="46.68955" lon="-1.92755">
        <ele>4</ele>
        <time>2018-03-19T00:49:06Z</time>
      </trkpt>
      <trkpt lat="46.68965" lon="-1.92769">
        <ele>4</ele>
        <time>2018-03-19T00:50:06Z</time>
      </trkpt>
      <trkpt lat="46.68969" lon="-1.92774">
        <ele>4</ele>
        <time>2018-03-19T00:51:06Z</time>
      </trkpt>
      <trkpt lat="46.68977" lon="-1.92784">
        <ele>4</ele>
        <time>2018-03-19T00:52:06Z</time>
      </trkpt>
      <trkpt lat="46.68992" lon="-1.92805">
        <ele>4</ele>
        <time>2018-03-19T00:53:06Z</time>
      </trkpt>
      <trkpt lat="46.68993" lon="-1.92806">
        <ele>4</ele>
        <time>2018-03-19T00:54:06Z</time>
      </trkpt>
      <trkpt lat="46.69014" lon="-1.92836">
        <ele>4</ele>
        <time>2018-03-19T00:55:06Z</time>
      </trkpt>
      <trkpt lat="46.69038" lon="-1.92867">
        <ele>4</ele>
        <time>2018-03-19T00:56:06Z</time>
      </trkpt>
      <trkpt lat="46.69055" lon="-1.9289">
        <ele>4</ele>
        <time>2018-03-19T00:57:06Z</time>
      </trkpt>
      <trkpt lat="46.69068" lon="-1.92907">
        <ele>4</ele>
        <time>2018-03-19T00:58:06Z</time>
      </trkpt>
      <trkpt lat="46.69095" lon="-1.92938">
        <ele>4</ele>
        <time>2018-03-19T00:59:06Z</time>
      </trkpt>
      <trkpt lat="46.69107" lon="-1.92948">
        <ele>4</ele>
        <time>2018-03-19T01:00:06Z</time>
      </trkpt>
      <trkpt lat="46.69133" lon="-1.92971">
        <ele>4</ele>
        <time>2018-03-19T01:01:06Z</time>
      </trkpt>
      <trkpt lat="46.69154" lon="-1.92991">
        <ele>4</ele>
        <time>2018-03-19T01:02:06Z</time>
      </trkpt>
      <trkpt lat="46.6917" lon="-1.93005">
        <ele>4</ele>
        <time>2018-03-19T01:03:06Z</time>
      </trkpt>
      <trkpt lat="46.69175" lon="-1.93009">
        <ele>4</ele>
        <time>2018-03-19T01:04:06Z</time>
      </trkpt>
      <trkpt lat="46.69194" lon="-1.93026">
        <ele>5</ele>
        <time>2018-03-19T01:05:06Z</time>
      </trkpt>
      <trkpt lat="46.69217" lon="-1.93046">
        <ele>5</ele>
        <time>2018-03-19T01:06:06Z</time>
      </trkpt>
      <trkpt lat="46.69224" lon="-1.93053">
        <ele>5</ele>
        <time>2018-03-19T01:07:06Z</time>
      </trkpt>
      <trkpt lat="46.69245" lon="-1.93071">
        <ele>5</ele>
        <time>2018-03-19T01:08:06Z</time>
      </trkpt>
      <trkpt lat="46.69255" lon="-1.9308">
        <ele>5</ele>
        <time>2018-03-19T01:09:06Z</time>
      </trkpt>
      <trkpt lat="46.69269" lon="-1.93094">
        <ele>5</ele>
        <time>2018-03-19T01:10:06Z</time>
      </trkpt>
      <trkpt lat="46.69287" lon="-1.9311">
        <ele>5</ele>
        <time>2018-03-19T01:11:06Z</time>
      </trkpt>
      <trkpt lat="46.69303" lon="-1.93127">
        <ele>5</ele>
        <time>2018-03-19T01:12:06Z</time>
      </trkpt>
      <trkpt lat="46.69314" lon="-1.93136">
        <ele>5</ele>
        <time>2018-03-19T01:13:06Z</time>
      </trkpt>
      <trkpt lat="46.69324" lon="-1.93151">
        <ele>5</ele>
        <time>2018-03-19T01:14:06Z</time>
      </trkpt>
      <trkpt lat="46.69333" lon="-1.93166">
        <ele>5</ele>
        <time>2018-03-19T01:15:06Z</time>
      </trkpt>
      <trkpt lat="46.69341" lon="-1.93186">
        <ele>5</ele>
        <time>2018-03-19T01:16:06Z</time>
      </trkpt>
      <trkpt lat="46.69348" lon="-1.93201">
        <ele>5</ele>
        <time>2018-03-19T01:17:06Z</time>
      </trkpt>
      <trkpt lat="46.69351" lon="-1.93212">
        <ele>5</ele>
        <time>2018-03-19T01:18:06Z</time>
      </trkpt>
      <trkpt lat="46.69355" lon="-1.93224">
        <ele>4</ele>
        <time>2018-03-19T01:19:06Z</time>
      </trkpt>
      <trkpt lat="46.6936" lon="-1.93244">
        <ele>4</ele>
        <time>2018-03-19T01:20:06Z</time>
      </trkpt>
      <trkpt lat="46.69365" lon="-1.93261">
        <ele>4</ele>
        <time>2018-03-19T01:21:06Z</time>
      </trkpt>
      <trkpt lat="46.69368" lon="-1.93273">
        <ele>4</ele>
        <time>2018-03-19T01:22:06Z</time>
      </trkpt>
      <trkpt lat="46.69372" lon="-1.93291">
        <ele>4</ele>
        <time>2018-03-19T01:23:06Z</time>
      </trkpt>
      <trkpt lat="46.69374" lon="-1.93299">
        <ele>4</ele>
        <time>2018-03-19T01:24:06Z</time>
      </trkpt>
      <trkpt lat="46.69376" lon="-1.93304">
        <ele>4</ele>
        <time>2018-03-19T01:25:06Z</time>
      </trkpt>
      <trkpt lat="46.69378" lon="-1.93307">
        <ele>4</ele>
        <time>2018-03-19T01:26:06Z</time>
      </trkpt>
      <trkpt lat="46.69379" lon="-1.93309">
        <ele>4</ele>
        <time>2018-03-19T01:27:06Z</time>
      </trkpt>
      <trkpt lat="46.69384" lon="-1.93312">
        <ele>4</ele>
        <time>2018-03-19T01:28:06Z</time>
      </trkpt>
      <trkpt lat="46.69385" lon="-1.93312">
        <ele>4</ele>
        <time>2018-03-19T01:29:06Z</time>
      </trkpt>
      <trkpt lat="46.69386" lon="-1.93311">
        <ele>4</ele>
        <time>2018-03-19T01:30:06Z</time>
      </trkpt>
      <trkpt lat="46.69387" lon="-1.93311">
        <ele>4</ele>
        <time>2018-03-19T01:31:06Z</time>
      </trkpt>
      <trkpt lat="46.69388" lon="-1.93311">
        <ele>4</ele>
        <time>2018-03-19T01:32:06Z</time>
      </trkpt>
      <trkpt lat="46.69389" lon="-1.93311">
        <ele>4</ele>
        <time>2018-03-19T01:33:06Z</time>
      </trkpt>
      <trkpt lat="46.69389" lon="-1.93312">
        <ele>4</ele>
        <time>2018-03-19T01:34:06Z</time>
      </trkpt>
      <trkpt lat="46.6939" lon="-1.93312">
        <ele>4</ele>
        <time>2018-03-19T01:35:06Z</time>
      </trkpt>
      <trkpt lat="46.69391" lon="-1.93312">
        <ele>4</ele>
        <time>2018-03-19T01:36:06Z</time>
      </trkpt>
      <trkpt lat="46.69391" lon="-1.93313">
        <ele>4</ele>
        <time>2018-03-19T01:37:06Z</time>
      </trkpt>
      <trkpt lat="46.69392" lon="-1.93313">
        <ele>4</ele>
        <time>2018-03-19T01:38:06Z</time>
      </trkpt>
      <trkpt lat="46.69393" lon="-1.93314">
        <ele>4</ele>
        <time>2018-03-19T01:39:06Z</time>
      </trkpt>
      <trkpt lat="46.69393" lon="-1.93315">
        <ele>4</ele>
        <time>2018-03-19T01:40:06Z</time>
      </trkpt>
      <trkpt lat="46.69394" lon="-1.93315">
        <ele>4</ele>
        <time>2018-03-19T01:41:06Z</time>
      </trkpt>
      <trkpt lat="46.69394" lon="-1.93316">
        <ele>4</ele>
        <time>2018-03-19T01:42:06Z</time>
      </trkpt>
      <trkpt lat="46.69395" lon="-1.93317">
        <ele>4</ele>
        <time>2018-03-19T01:43:06Z</time>
      </trkpt>
      <trkpt lat="46.69395" lon="-1.93318">
        <ele>4</ele>
        <time>2018-03-19T01:44:06Z</time>
      </trkpt>
      <trkpt lat="46.69396" lon="-1.93319">
        <ele>4</ele>
        <time>2018-03-19T01:45:06Z</time>
      </trkpt>
      <trkpt lat="46.69396" lon="-1.9332">
        <ele>4</ele>
        <time>2018-03-19T01:46:06Z</time>
      </trkpt>
      <trkpt lat="46.69396" lon="-1.93321">
        <ele>4</ele>
        <time>2018-03-19T01:47:06Z</time>
      </trkpt>
      <trkpt lat="46.69406" lon="-1.93325">
        <ele>4</ele>
        <time>2018-03-19T01:48:06Z</time>
      </trkpt>
      <trkpt lat="46.69416" lon="-1.93331">
        <ele>4</ele>
        <time>2018-03-19T01:49:06Z</time>
      </trkpt>
      <trkpt lat="46.69421" lon="-1.93333">
        <ele>4</ele>
        <time>2018-03-19T01:50:06Z</time>
      </trkpt>
      <trkpt lat="46.69426" lon="-1.93334">
        <ele>4</ele>
        <time>2018-03-19T01:51:06Z</time>
      </trkpt>
      <trkpt lat="46.69431" lon="-1.93336">
        <ele>4</ele>
        <time>2018-03-19T01:52:06Z</time>
      </trkpt>
      <trkpt lat="46.6946" lon="-1.93349">
        <ele>4</ele>
        <time>2018-03-19T01:53:06Z</time>
      </trkpt>
      <trkpt lat="46.69498" lon="-1.93366">
        <ele>4</ele>
        <time>2018-03-19T01:54:06Z</time>
      </trkpt>
      <trkpt lat="46.69503" lon="-1.93368">
        <ele>4</ele>
        <time>2018-03-19T01:55:06Z</time>
      </trkpt>
      <trkpt lat="46.69507" lon="-1.9337">
        <ele>4</ele>
        <time>2018-03-19T01:56:06Z</time>
      </trkpt>
      <trkpt lat="46.69518" lon="-1.93374">
        <ele>4</ele>
        <time>2018-03-19T01:57:06Z</time>
      </trkpt>
      <trkpt lat="46.69551" lon="-1.93388">
        <ele>4</ele>
        <time>2018-03-19T01:58:06Z</time>
      </trkpt>
      <trkpt lat="46.69587" lon="-1.93404">
        <ele>4</ele>
        <time>2018-03-19T01:59:06Z</time>
      </trkpt>
      <trkpt lat="46.69607" lon="-1.93416">
        <ele>4</ele>
        <time>2018-03-19T02:00:06Z</time>
      </trkpt>
      <trkpt lat="46.69617" lon="-1.9342">
        <ele>4</ele>
        <time>2018-03-19T02:01:06Z</time>
      </trkpt>
      <trkpt lat="46.69617" lon="-1.9342">
        <ele>4</ele>
        <time>2018-03-19T02:02:06Z</time>
      </trkpt>
      <trkpt lat="46.69617" lon="-1.93419">
        <ele>4</ele>
        <time>2018-03-19T02:03:06Z</time>
      </trkpt>
      <trkpt lat="46.69617" lon="-1.93418">
        <ele>4</ele>
        <time>2018-03-19T02:04:06Z</time>
      </trkpt>
      <trkpt lat="46.69618" lon="-1.93418">
        <ele>4</ele>
        <time>2018-03-19T02:05:06Z</time>
      </trkpt>
      <trkpt lat="46.69618" lon="-1.93417">
        <ele>4</ele>
        <time>2018-03-19T02:06:06Z</time>
      </trkpt>
      <trkpt lat="46.69618" lon="-1.93416">
        <ele>4</ele>
        <time>2018-03-19T02:07:06Z</time>
      </trkpt>
      <trkpt lat="46.69619" lon="-1.93416">
        <ele>4</ele>
        <time>2018-03-19T02:08:06Z</time>
      </trkpt>
      <trkpt lat="46.69619" lon="-1.93415">
        <ele>4</ele>
        <time>2018-03-19T02:09:06Z</time>
      </trkpt>
      <trkpt lat="46.6962" lon="-1.93415">
        <ele>4</ele>
        <time>2018-03-19T02:10:06Z</time>
      </trkpt>
      <trkpt lat="46.6962" lon="-1.93414">
        <ele>5</ele>
        <time>2018-03-19T02:11:06Z</time>
      </trkpt>
      <trkpt lat="46.69621" lon="-1.93414">
        <ele>5</ele>
        <time>2018-03-19T02:12:06Z</time>
      </trkpt>
      <trkpt lat="46.69621" lon="-1.93413">
        <ele>5</ele>
        <time>2018-03-19T02:13:06Z</time>
      </trkpt>
      <trkpt lat="46.69622" lon="-1.93413">
        <ele>5</ele>
        <time>2018-03-19T02:14:06Z</time>
      </trkpt>
      <trkpt lat="46.69623" lon="-1.93412">
        <ele>5</ele>
        <time>2018-03-19T02:15:06Z</time>
      </trkpt>
      <trkpt lat="46.69624" lon="-1.93412">
        <ele>5</ele>
        <time>2018-03-19T02:16:06Z</time>
      </trkpt>
      <trkpt lat="46.69625" lon="-1.93412">
        <ele>5</ele>
        <time>2018-03-19T02:17:06Z</time>
      </trkpt>
      <trkpt lat="46.69626" lon="-1.93412">
        <ele>5</ele>
        <time>2018-03-19T02:18:06Z</time>
      </trkpt>
      <trkpt lat="46.69627" lon="-1.93412">
        <ele>5</ele>
        <time>2018-03-19T02:19:06Z</time>
      </trkpt>
      <trkpt lat="46.69627" lon="-1.93413">
        <ele>5</ele>
        <time>2018-03-19T02:20:06Z</time>
      </trkpt>
      <trkpt lat="46.69628" lon="-1.93413">
        <ele>5</ele>
        <time>2018-03-19T02:21:06Z</time>
      </trkpt>
      <trkpt lat="46.69629" lon="-1.93413">
        <ele>5</ele>
        <time>2018-03-19T02:22:06Z</time>
      </trkpt>
      <trkpt lat="46.69629" lon="-1.93414">
        <ele>5</ele>
        <time>2018-03-19T02:23:06Z</time>
      </trkpt>
      <trkpt lat="46.6963" lon="-1.93414">
        <ele>5</ele>
        <time>2018-03-19T02:24:06Z</time>
      </trkpt>
      <trkpt lat="46.6963" lon="-1.93415">
        <ele>5</ele>
        <time>2018-03-19T02:25:06Z</time>
      </trkpt>
      <trkpt lat="46.69631" lon="-1.93416">
        <ele>5</ele>
        <time>2018-03-19T02:26:06Z</time>
      </trkpt>
      <trkpt lat="46.69631" lon="-1.93417">
        <ele>5</ele>
        <time>2018-03-19T02:27:06Z</time>
      </trkpt>
      <trkpt lat="46.69632" lon="-1.93417">
        <ele>5</ele>
        <time>2018-03-19T02:28:06Z</time>
      </trkpt>
      <trkpt lat="46.69632" lon="-1.93418">
        <ele>5</ele>
        <time>2018-03-19T02:29:06Z</time>
      </trkpt>
      <trkpt lat="46.69632" lon="-1.93419">
        <ele>5</ele>
        <time>2018-03-19T02:30:06Z</time>
      </trkpt>
      <trkpt lat="46.69633" lon="-1.93419">
        <ele>5</ele>
        <time>2018-03-19T02:31:06Z</time>
      </trkpt>
      <trkpt lat="46.69633" lon="-1.9342">
        <ele>5</ele>
        <time>2018-03-19T02:32:06Z</time>
      </trkpt>
      <trkpt lat="46.69633" lon="-1.93421">
        <ele>5</ele>
        <time>2018-03-19T02:33:06Z</time>
      </trkpt>
      <trkpt lat="46.69633" lon="-1.93422">
        <ele>5</ele>
        <time>2018-03-19T02:34:06Z</time>
      </trkpt>
      <trkpt lat="46.69633" lon="-1.93423">
        <ele>5</ele>
        <time>2018-03-19T02:35:06Z</time>
      </trkpt>
      <trkpt lat="46.69685" lon="-1.93435">
        <ele>5</ele>
        <time>2018-03-19T02:36:06Z</time>
      </trkpt>
      <trkpt lat="46.69697" lon="-1.93436">
        <ele>5</ele>
        <time>2018-03-19T02:37:06Z</time>
      </trkpt>
      <trkpt lat="46.69714" lon="-1.93435">
        <ele>5</ele>
        <time>2018-03-19T02:38:06Z</time>
      </trkpt>
      <trkpt lat="46.69721" lon="-1.93434">
        <ele>5</ele>
        <time>2018-03-19T02:39:06Z</time>
      </trkpt>
      <trkpt lat="46.69759" lon="-1.93424">
        <ele>5</ele>
        <time>2018-03-19T02:40:06Z</time>
      </trkpt>
      <trkpt lat="46.69762" lon="-1.93423">
        <ele>5</ele>
        <time>2018-03-19T02:41:06Z</time>
      </trkpt>
      <trkpt lat="46.69772" lon="-1.9342">
        <ele>5</ele>
        <time>2018-03-19T02:42:06Z</time>
      </trkpt>
      <trkpt lat="46.69776" lon="-1.9342">
        <ele>5</ele>
        <time>2018-03-19T02:43:06Z</time>
      </trkpt>
      <trkpt lat="46.69779" lon="-1.9342">
        <ele>5</ele>
        <time>2018-03-19T02:44:06Z</time>
      </trkpt>
      <trkpt lat="46.69785" lon="-1.93422">
        <ele>5</ele>
        <time>2018-03-19T02:45:06Z</time>
      </trkpt>
      <trkpt lat="46.69785" lon="-1.93421">
        <ele>5</ele>
        <time>2018-03-19T02:46:06Z</time>
      </trkpt>
      <trkpt lat="46.69786" lon="-1.93421">
        <ele>5</ele>
        <time>2018-03-19T02:47:06Z</time>
      </trkpt>
      <trkpt lat="46.69786" lon="-1.9342">
        <ele>5</ele>
        <time>2018-03-19T02:48:06Z</time>
      </trkpt>
      <trkpt lat="46.69786" lon="-1.93419">
        <ele>5</ele>
        <time>2018-03-19T02:49:06Z</time>
      </trkpt>
      <trkpt lat="46.69786" lon="-1.93418">
        <ele>5</ele>
        <time>2018-03-19T02:50:06Z</time>
      </trkpt>
      <trkpt lat="46.69787" lon="-1.93418">
        <ele>5</ele>
        <time>2018-03-19T02:51:06Z</time>
      </trkpt>
      <trkpt lat="46.69787" lon="-1.93417">
        <ele>5</ele>
        <time>2018-03-19T02:52:06Z</time>
      </trkpt>
      <trkpt lat="46.69788" lon="-1.93417">
        <ele>5</ele>
        <time>2018-03-19T02:53:06Z</time>
      </trkpt>
      <trkpt lat="46.69789" lon="-1.93417">
        <ele>5</ele>
        <time>2018-03-19T02:54:06Z</time>
      </trkpt>
      <trkpt lat="46.6979" lon="-1.93417">
        <ele>5</ele>
        <time>2018-03-19T02:55:06Z</time>
      </trkpt>
      <trkpt lat="46.69791" lon="-1.93417">
        <ele>5</ele>
        <time>2018-03-19T02:56:06Z</time>
      </trkpt>
      <trkpt lat="46.69791" lon="-1.93418">
        <ele>5</ele>
        <time>2018-03-19T02:57:06Z</time>
      </trkpt>
      <trkpt lat="46.69792" lon="-1.93418">
        <ele>5</ele>
        <time>2018-03-19T02:58:06Z</time>
      </trkpt>
      <trkpt lat="46.69792" lon="-1.93419">
        <ele>5</ele>
        <time>2018-03-19T02:59:06Z</time>
      </trkpt>
      <trkpt lat="46.69792" lon="-1.9342">
        <ele>5</ele>
        <time>2018-03-19T03:00:06Z</time>
      </trkpt>
      <trkpt lat="46.69793" lon="-1.9342">
        <ele>5</ele>
        <time>2018-03-19T03:01:06Z</time>
      </trkpt>
      <trkpt lat="46.69797" lon="-1.93421">
        <ele>5</ele>
        <time>2018-03-19T03:02:06Z</time>
      </trkpt>
      <trkpt lat="46.69798" lon="-1.93421">
        <ele>5</ele>
        <time>2018-03-19T03:03:06Z</time>
      </trkpt>
      <trkpt lat="46.69806" lon="-1.93419">
        <ele>5</ele>
        <time>2018-03-19T03:04:06Z</time>
      </trkpt>
      <trkpt lat="46.69824" lon="-1.93411">
        <ele>5</ele>
        <time>2018-03-19T03:05:06Z</time>
      </trkpt>
      <trkpt lat="46.69836" lon="-1.93406">
        <ele>5</ele>
        <time>2018-03-19T03:06:06Z</time>
      </trkpt>
    </trkseg>
  </trk>
</gpx>